<?xml version="1.0" encoding="UTF-8" standalone="no" ?>
<gpx xmlns="http://www.topografix.com/GPX/1/1" xmlns:xsi="http://www.w3.org/2001/XMLSchema-instance" xsi:schemaLocation="http://www.topografix.com/GPX/1/1 http://www.topografix.com/GPX/1/1/gpx.xsd" version="1.1" creator="VisuGPX - https://www.visugpx.com">
  <metadata>
    <name>caveirac_2010_35km_manque10dernier</name>
    <desc><![CDATA[Caveirac 2010 le 35 km sans les 10 derniers km]]></desc>
  </metadata>
  <trk>
    <name><![CDATA[Caveirac 2010]]></name>
    <desc><![CDATA[(null)]]></desc>
    <trkseg>
      <trkpt lat="43.82738" lon="4.2616">
        <ele>150</ele>
        <time>2010-05-02T07:01:39Z</time>
      </trkpt>
      <trkpt lat="43.82738" lon="4.2616">
        <ele>150</ele>
        <time>2010-05-02T07:01:44Z</time>
      </trkpt>
      <trkpt lat="43.82738" lon="4.2616">
        <ele>150</ele>
        <time>2010-05-02T07:01:47Z</time>
      </trkpt>
      <trkpt lat="43.82738" lon="4.2616">
        <ele>150</ele>
        <time>2010-05-02T07:01:47Z</time>
      </trkpt>
      <trkpt lat="43.82738" lon="4.2616">
        <ele>150</ele>
        <time>2010-05-02T07:01:49Z</time>
      </trkpt>
      <trkpt lat="43.82738" lon="4.2616">
        <ele>150</ele>
        <time>2010-05-02T07:01:49Z</time>
      </trkpt>
      <trkpt lat="43.82738" lon="4.2616">
        <ele>150</ele>
        <time>2010-05-02T07:01:49Z</time>
      </trkpt>
      <trkpt lat="43.82738" lon="4.2616">
        <ele>150</ele>
        <time>2010-05-02T07:01:50Z</time>
      </trkpt>
      <trkpt lat="43.82738" lon="4.2616">
        <ele>150</ele>
        <time>2010-05-02T07:01:50Z</time>
      </trkpt>
      <trkpt lat="43.82738" lon="4.2616">
        <ele>150</ele>
        <time>2010-05-02T07:01:51Z</time>
      </trkpt>
      <trkpt lat="43.82738" lon="4.2616">
        <ele>150</ele>
        <time>2010-05-02T07:01:54Z</time>
      </trkpt>
      <trkpt lat="43.82738" lon="4.2616">
        <ele>150</ele>
        <time>2010-05-02T07:01:56Z</time>
      </trkpt>
      <trkpt lat="43.82738" lon="4.2616">
        <ele>150</ele>
        <time>2010-05-02T07:01:56Z</time>
      </trkpt>
      <trkpt lat="43.82738" lon="4.2616">
        <ele>150</ele>
        <time>2010-05-02T07:01:58Z</time>
      </trkpt>
      <trkpt lat="43.82719" lon="4.26163">
        <ele>144</ele>
        <time>2010-05-02T07:01:58Z</time>
      </trkpt>
      <trkpt lat="43.82719" lon="4.26163">
        <ele>144</ele>
        <time>2010-05-02T07:01:59Z</time>
      </trkpt>
      <trkpt lat="43.82719" lon="4.26163">
        <ele>144</ele>
        <time>2010-05-02T07:01:59Z</time>
      </trkpt>
      <trkpt lat="43.82719" lon="4.26163">
        <ele>144</ele>
        <time>2010-05-02T07:01:59Z</time>
      </trkpt>
      <trkpt lat="43.8272" lon="4.26162">
        <ele>144</ele>
        <time>2010-05-02T07:02:00Z</time>
      </trkpt>
      <trkpt lat="43.8272" lon="4.26162">
        <ele>144</ele>
        <time>2010-05-02T07:02:01Z</time>
      </trkpt>
      <trkpt lat="43.8272" lon="4.26162">
        <ele>144</ele>
        <time>2010-05-02T07:02:02Z</time>
      </trkpt>
      <trkpt lat="43.8272" lon="4.26162">
        <ele>144</ele>
        <time>2010-05-02T07:02:03Z</time>
      </trkpt>
      <trkpt lat="43.8272" lon="4.26162">
        <ele>144</ele>
        <time>2010-05-02T07:02:04Z</time>
      </trkpt>
      <trkpt lat="43.82721" lon="4.26162">
        <ele>144</ele>
        <time>2010-05-02T07:02:06Z</time>
      </trkpt>
      <trkpt lat="43.82721" lon="4.26162">
        <ele>143</ele>
        <time>2010-05-02T07:02:08Z</time>
      </trkpt>
      <trkpt lat="43.82721" lon="4.26162">
        <ele>143</ele>
        <time>2010-05-02T07:02:08Z</time>
      </trkpt>
      <trkpt lat="43.82721" lon="4.26162">
        <ele>143</ele>
        <time>2010-05-02T07:02:09Z</time>
      </trkpt>
      <trkpt lat="43.82721" lon="4.26162">
        <ele>143</ele>
        <time>2010-05-02T07:02:10Z</time>
      </trkpt>
      <trkpt lat="43.82721" lon="4.26162">
        <ele>143</ele>
        <time>2010-05-02T07:02:10Z</time>
      </trkpt>
      <trkpt lat="43.82722" lon="4.26162">
        <ele>143</ele>
        <time>2010-05-02T07:02:13Z</time>
      </trkpt>
      <trkpt lat="43.82723" lon="4.26162">
        <ele>143</ele>
        <time>2010-05-02T07:02:15Z</time>
      </trkpt>
      <trkpt lat="43.82723" lon="4.26162">
        <ele>143</ele>
        <time>2010-05-02T07:02:17Z</time>
      </trkpt>
      <trkpt lat="43.82723" lon="4.26161">
        <ele>143</ele>
        <time>2010-05-02T07:02:18Z</time>
      </trkpt>
      <trkpt lat="43.82723" lon="4.26161">
        <ele>143</ele>
        <time>2010-05-02T07:02:19Z</time>
      </trkpt>
      <trkpt lat="43.82724" lon="4.26161">
        <ele>143</ele>
        <time>2010-05-02T07:02:19Z</time>
      </trkpt>
      <trkpt lat="43.82724" lon="4.26161">
        <ele>143</ele>
        <time>2010-05-02T07:02:20Z</time>
      </trkpt>
      <trkpt lat="43.82724" lon="4.26161">
        <ele>143</ele>
        <time>2010-05-02T07:02:21Z</time>
      </trkpt>
      <trkpt lat="43.82724" lon="4.26161">
        <ele>143</ele>
        <time>2010-05-02T07:02:21Z</time>
      </trkpt>
      <trkpt lat="43.82724" lon="4.26161">
        <ele>143</ele>
        <time>2010-05-02T07:02:21Z</time>
      </trkpt>
      <trkpt lat="43.82724" lon="4.26161">
        <ele>143</ele>
        <time>2010-05-02T07:02:22Z</time>
      </trkpt>
      <trkpt lat="43.82724" lon="4.26161">
        <ele>143</ele>
        <time>2010-05-02T07:02:23Z</time>
      </trkpt>
      <trkpt lat="43.82724" lon="4.26161">
        <ele>143</ele>
        <time>2010-05-02T07:02:23Z</time>
      </trkpt>
      <trkpt lat="43.82724" lon="4.26159">
        <ele>144</ele>
        <time>2010-05-02T07:02:23Z</time>
      </trkpt>
      <trkpt lat="43.82724" lon="4.26159">
        <ele>144</ele>
        <time>2010-05-02T07:02:24Z</time>
      </trkpt>
      <trkpt lat="43.82724" lon="4.26159">
        <ele>144</ele>
        <time>2010-05-02T07:02:24Z</time>
      </trkpt>
      <trkpt lat="43.82724" lon="4.26159">
        <ele>144</ele>
        <time>2010-05-02T07:02:25Z</time>
      </trkpt>
      <trkpt lat="43.82724" lon="4.26158">
        <ele>143</ele>
        <time>2010-05-02T07:02:27Z</time>
      </trkpt>
      <trkpt lat="43.82724" lon="4.26158">
        <ele>143</ele>
        <time>2010-05-02T07:02:27Z</time>
      </trkpt>
      <trkpt lat="43.82724" lon="4.26158">
        <ele>143</ele>
        <time>2010-05-02T07:02:28Z</time>
      </trkpt>
      <trkpt lat="43.82724" lon="4.26158">
        <ele>143</ele>
        <time>2010-05-02T07:02:29Z</time>
      </trkpt>
      <trkpt lat="43.82724" lon="4.26158">
        <ele>143</ele>
        <time>2010-05-02T07:02:30Z</time>
      </trkpt>
      <trkpt lat="43.82723" lon="4.26157">
        <ele>144</ele>
        <time>2010-05-02T07:02:32Z</time>
      </trkpt>
      <trkpt lat="43.82723" lon="4.26157">
        <ele>144</ele>
        <time>2010-05-02T07:02:33Z</time>
      </trkpt>
      <trkpt lat="43.82723" lon="4.26157">
        <ele>143</ele>
        <time>2010-05-02T07:02:34Z</time>
      </trkpt>
      <trkpt lat="43.82722" lon="4.26156">
        <ele>143</ele>
        <time>2010-05-02T07:02:36Z</time>
      </trkpt>
      <trkpt lat="43.82722" lon="4.26156">
        <ele>143</ele>
        <time>2010-05-02T07:02:37Z</time>
      </trkpt>
      <trkpt lat="43.82722" lon="4.26156">
        <ele>143</ele>
        <time>2010-05-02T07:02:38Z</time>
      </trkpt>
      <trkpt lat="43.82722" lon="4.26155">
        <ele>143</ele>
        <time>2010-05-02T07:02:38Z</time>
      </trkpt>
      <trkpt lat="43.82722" lon="4.26155">
        <ele>143</ele>
        <time>2010-05-02T07:02:40Z</time>
      </trkpt>
      <trkpt lat="43.82722" lon="4.26155">
        <ele>144</ele>
        <time>2010-05-02T07:02:41Z</time>
      </trkpt>
      <trkpt lat="43.82722" lon="4.26155">
        <ele>144</ele>
        <time>2010-05-02T07:02:41Z</time>
      </trkpt>
      <trkpt lat="43.82722" lon="4.26155">
        <ele>144</ele>
        <time>2010-05-02T07:02:42Z</time>
      </trkpt>
      <trkpt lat="43.82722" lon="4.26155">
        <ele>144</ele>
        <time>2010-05-02T07:02:42Z</time>
      </trkpt>
      <trkpt lat="43.82722" lon="4.26155">
        <ele>144</ele>
        <time>2010-05-02T07:02:43Z</time>
      </trkpt>
      <trkpt lat="43.82722" lon="4.26155">
        <ele>144</ele>
        <time>2010-05-02T07:02:44Z</time>
      </trkpt>
      <trkpt lat="43.82722" lon="4.26155">
        <ele>144</ele>
        <time>2010-05-02T07:02:45Z</time>
      </trkpt>
      <trkpt lat="43.82722" lon="4.26155">
        <ele>144</ele>
        <time>2010-05-02T07:02:47Z</time>
      </trkpt>
      <trkpt lat="43.82721" lon="4.26155">
        <ele>144</ele>
        <time>2010-05-02T07:02:47Z</time>
      </trkpt>
      <trkpt lat="43.82721" lon="4.26155">
        <ele>145</ele>
        <time>2010-05-02T07:02:49Z</time>
      </trkpt>
      <trkpt lat="43.82721" lon="4.26155">
        <ele>145</ele>
        <time>2010-05-02T07:02:50Z</time>
      </trkpt>
      <trkpt lat="43.82721" lon="4.26155">
        <ele>145</ele>
        <time>2010-05-02T07:02:51Z</time>
      </trkpt>
      <trkpt lat="43.82721" lon="4.26155">
        <ele>145</ele>
        <time>2010-05-02T07:02:52Z</time>
      </trkpt>
      <trkpt lat="43.82721" lon="4.26155">
        <ele>145</ele>
        <time>2010-05-02T07:02:52Z</time>
      </trkpt>
      <trkpt lat="43.82721" lon="4.26155">
        <ele>146</ele>
        <time>2010-05-02T07:02:53Z</time>
      </trkpt>
      <trkpt lat="43.82721" lon="4.26155">
        <ele>146</ele>
        <time>2010-05-02T07:02:54Z</time>
      </trkpt>
      <trkpt lat="43.8272" lon="4.26155">
        <ele>146</ele>
        <time>2010-05-02T07:02:54Z</time>
      </trkpt>
      <trkpt lat="43.8272" lon="4.26155">
        <ele>146</ele>
        <time>2010-05-02T07:02:55Z</time>
      </trkpt>
      <trkpt lat="43.8272" lon="4.26155">
        <ele>146</ele>
        <time>2010-05-02T07:02:56Z</time>
      </trkpt>
      <trkpt lat="43.8272" lon="4.26155">
        <ele>146</ele>
        <time>2010-05-02T07:02:57Z</time>
      </trkpt>
      <trkpt lat="43.8272" lon="4.26155">
        <ele>146</ele>
        <time>2010-05-02T07:02:57Z</time>
      </trkpt>
      <trkpt lat="43.8272" lon="4.26155">
        <ele>146</ele>
        <time>2010-05-02T07:02:58Z</time>
      </trkpt>
      <trkpt lat="43.82719" lon="4.26152">
        <ele>147</ele>
        <time>2010-05-02T07:02:59Z</time>
      </trkpt>
      <trkpt lat="43.82719" lon="4.26152">
        <ele>147</ele>
        <time>2010-05-02T07:02:59Z</time>
      </trkpt>
      <trkpt lat="43.82719" lon="4.26152">
        <ele>147</ele>
        <time>2010-05-02T07:03:00Z</time>
      </trkpt>
      <trkpt lat="43.82719" lon="4.26152">
        <ele>147</ele>
        <time>2010-05-02T07:03:01Z</time>
      </trkpt>
      <trkpt lat="43.82719" lon="4.26152">
        <ele>147</ele>
        <time>2010-05-02T07:03:02Z</time>
      </trkpt>
      <trkpt lat="43.82719" lon="4.26152">
        <ele>147</ele>
        <time>2010-05-02T07:03:02Z</time>
      </trkpt>
      <trkpt lat="43.82719" lon="4.26152">
        <ele>147</ele>
        <time>2010-05-02T07:03:03Z</time>
      </trkpt>
      <trkpt lat="43.82713" lon="4.26147">
        <ele>150</ele>
        <time>2010-05-02T07:03:04Z</time>
      </trkpt>
      <trkpt lat="43.8271" lon="4.26145">
        <ele>151</ele>
        <time>2010-05-02T07:03:04Z</time>
      </trkpt>
      <trkpt lat="43.82707" lon="4.26143">
        <ele>151</ele>
        <time>2010-05-02T07:03:05Z</time>
      </trkpt>
      <trkpt lat="43.82704" lon="4.2614">
        <ele>152</ele>
        <time>2010-05-02T07:03:06Z</time>
      </trkpt>
      <trkpt lat="43.82701" lon="4.26137">
        <ele>152</ele>
        <time>2010-05-02T07:03:07Z</time>
      </trkpt>
      <trkpt lat="43.82698" lon="4.26134">
        <ele>153</ele>
        <time>2010-05-02T07:03:07Z</time>
      </trkpt>
      <trkpt lat="43.82695" lon="4.26132">
        <ele>153</ele>
        <time>2010-05-02T07:03:08Z</time>
      </trkpt>
      <trkpt lat="43.82692" lon="4.26129">
        <ele>153</ele>
        <time>2010-05-02T07:03:09Z</time>
      </trkpt>
      <trkpt lat="43.82689" lon="4.26126">
        <ele>154</ele>
        <time>2010-05-02T07:03:09Z</time>
      </trkpt>
      <trkpt lat="43.82684" lon="4.26122">
        <ele>154</ele>
        <time>2010-05-02T07:03:11Z</time>
      </trkpt>
      <trkpt lat="43.82682" lon="4.2612">
        <ele>154</ele>
        <time>2010-05-02T07:03:11Z</time>
      </trkpt>
      <trkpt lat="43.82679" lon="4.26119">
        <ele>154</ele>
        <time>2010-05-02T07:03:12Z</time>
      </trkpt>
      <trkpt lat="43.82676" lon="4.26116">
        <ele>154</ele>
        <time>2010-05-02T07:03:13Z</time>
      </trkpt>
      <trkpt lat="43.8267" lon="4.26113">
        <ele>155</ele>
        <time>2010-05-02T07:03:14Z</time>
      </trkpt>
      <trkpt lat="43.82668" lon="4.26111">
        <ele>155</ele>
        <time>2010-05-02T07:03:15Z</time>
      </trkpt>
      <trkpt lat="43.82665" lon="4.2611">
        <ele>155</ele>
        <time>2010-05-02T07:03:16Z</time>
      </trkpt>
      <trkpt lat="43.82662" lon="4.26107">
        <ele>155</ele>
        <time>2010-05-02T07:03:16Z</time>
      </trkpt>
      <trkpt lat="43.82659" lon="4.26104">
        <ele>155</ele>
        <time>2010-05-02T07:03:17Z</time>
      </trkpt>
      <trkpt lat="43.82656" lon="4.26102">
        <ele>155</ele>
        <time>2010-05-02T07:03:18Z</time>
      </trkpt>
      <trkpt lat="43.82653" lon="4.26099">
        <ele>155</ele>
        <time>2010-05-02T07:03:19Z</time>
      </trkpt>
      <trkpt lat="43.8265" lon="4.26095">
        <ele>155</ele>
        <time>2010-05-02T07:03:19Z</time>
      </trkpt>
      <trkpt lat="43.82644" lon="4.26089">
        <ele>155</ele>
        <time>2010-05-02T07:03:21Z</time>
      </trkpt>
      <trkpt lat="43.82641" lon="4.26085">
        <ele>155</ele>
        <time>2010-05-02T07:03:21Z</time>
      </trkpt>
      <trkpt lat="43.82638" lon="4.26082">
        <ele>155</ele>
        <time>2010-05-02T07:03:22Z</time>
      </trkpt>
      <trkpt lat="43.82635" lon="4.26079">
        <ele>155</ele>
        <time>2010-05-02T07:03:23Z</time>
      </trkpt>
      <trkpt lat="43.82632" lon="4.26074">
        <ele>154</ele>
        <time>2010-05-02T07:03:24Z</time>
      </trkpt>
      <trkpt lat="43.82629" lon="4.26071">
        <ele>154</ele>
        <time>2010-05-02T07:03:24Z</time>
      </trkpt>
      <trkpt lat="43.82626" lon="4.26069">
        <ele>155</ele>
        <time>2010-05-02T07:03:25Z</time>
      </trkpt>
      <trkpt lat="43.82623" lon="4.26066">
        <ele>155</ele>
        <time>2010-05-02T07:03:26Z</time>
      </trkpt>
      <trkpt lat="43.82621" lon="4.26064">
        <ele>155</ele>
        <time>2010-05-02T07:03:27Z</time>
      </trkpt>
      <trkpt lat="43.8262" lon="4.26065">
        <ele>155</ele>
        <time>2010-05-02T07:03:27Z</time>
      </trkpt>
      <trkpt lat="43.8262" lon="4.26065">
        <ele>155</ele>
        <time>2010-05-02T07:03:28Z</time>
      </trkpt>
      <trkpt lat="43.8262" lon="4.26065">
        <ele>155</ele>
        <time>2010-05-02T07:03:29Z</time>
      </trkpt>
      <trkpt lat="43.8262" lon="4.26065">
        <ele>155</ele>
        <time>2010-05-02T07:03:30Z</time>
      </trkpt>
      <trkpt lat="43.8262" lon="4.26065">
        <ele>155</ele>
        <time>2010-05-02T07:03:31Z</time>
      </trkpt>
      <trkpt lat="43.82609" lon="4.26064">
        <ele>154</ele>
        <time>2010-05-02T07:03:32Z</time>
      </trkpt>
      <trkpt lat="43.82608" lon="4.26065">
        <ele>154</ele>
        <time>2010-05-02T07:03:34Z</time>
      </trkpt>
      <trkpt lat="43.82608" lon="4.26065">
        <ele>154</ele>
        <time>2010-05-02T07:03:36Z</time>
      </trkpt>
      <trkpt lat="43.82608" lon="4.26065">
        <ele>154</ele>
        <time>2010-05-02T07:03:37Z</time>
      </trkpt>
      <trkpt lat="43.82608" lon="4.26065">
        <ele>154</ele>
        <time>2010-05-02T07:03:38Z</time>
      </trkpt>
      <trkpt lat="43.82597" lon="4.26072">
        <ele>156</ele>
        <time>2010-05-02T07:03:38Z</time>
      </trkpt>
      <trkpt lat="43.82593" lon="4.26075">
        <ele>156</ele>
        <time>2010-05-02T07:03:39Z</time>
      </trkpt>
      <trkpt lat="43.8259" lon="4.26078">
        <ele>157</ele>
        <time>2010-05-02T07:03:40Z</time>
      </trkpt>
      <trkpt lat="43.82586" lon="4.26081">
        <ele>157</ele>
        <time>2010-05-02T07:03:41Z</time>
      </trkpt>
      <trkpt lat="43.82583" lon="4.26085">
        <ele>157</ele>
        <time>2010-05-02T07:03:41Z</time>
      </trkpt>
      <trkpt lat="43.82579" lon="4.26089">
        <ele>158</ele>
        <time>2010-05-02T07:03:42Z</time>
      </trkpt>
      <trkpt lat="43.82576" lon="4.26092">
        <ele>158</ele>
        <time>2010-05-02T07:03:43Z</time>
      </trkpt>
      <trkpt lat="43.82573" lon="4.26096">
        <ele>158</ele>
        <time>2010-05-02T07:03:43Z</time>
      </trkpt>
      <trkpt lat="43.8257" lon="4.26099">
        <ele>158</ele>
        <time>2010-05-02T07:03:44Z</time>
      </trkpt>
      <trkpt lat="43.82568" lon="4.26103">
        <ele>159</ele>
        <time>2010-05-02T07:03:45Z</time>
      </trkpt>
      <trkpt lat="43.82566" lon="4.26106">
        <ele>159</ele>
        <time>2010-05-02T07:03:45Z</time>
      </trkpt>
      <trkpt lat="43.82562" lon="4.26111">
        <ele>159</ele>
        <time>2010-05-02T07:03:47Z</time>
      </trkpt>
      <trkpt lat="43.82564" lon="4.26116">
        <ele>159</ele>
        <time>2010-05-02T07:03:48Z</time>
      </trkpt>
      <trkpt lat="43.82567" lon="4.26124">
        <ele>159</ele>
        <time>2010-05-02T07:03:49Z</time>
      </trkpt>
      <trkpt lat="43.8257" lon="4.26126">
        <ele>159</ele>
        <time>2010-05-02T07:03:50Z</time>
      </trkpt>
      <trkpt lat="43.82573" lon="4.26127">
        <ele>160</ele>
        <time>2010-05-02T07:03:50Z</time>
      </trkpt>
      <trkpt lat="43.82575" lon="4.26129">
        <ele>160</ele>
        <time>2010-05-02T07:03:51Z</time>
      </trkpt>
      <trkpt lat="43.82576" lon="4.26129">
        <ele>160</ele>
        <time>2010-05-02T07:03:52Z</time>
      </trkpt>
      <trkpt lat="43.82576" lon="4.26129">
        <ele>160</ele>
        <time>2010-05-02T07:03:54Z</time>
      </trkpt>
      <trkpt lat="43.82576" lon="4.26129">
        <ele>160</ele>
        <time>2010-05-02T07:03:54Z</time>
      </trkpt>
      <trkpt lat="43.82576" lon="4.26129">
        <ele>160</ele>
        <time>2010-05-02T07:03:56Z</time>
      </trkpt>
      <trkpt lat="43.82576" lon="4.26129">
        <ele>160</ele>
        <time>2010-05-02T07:03:56Z</time>
      </trkpt>
      <trkpt lat="43.82576" lon="4.26129">
        <ele>160</ele>
        <time>2010-05-02T07:03:56Z</time>
      </trkpt>
      <trkpt lat="43.82576" lon="4.26129">
        <ele>160</ele>
        <time>2010-05-02T07:03:58Z</time>
      </trkpt>
      <trkpt lat="43.82599" lon="4.26142">
        <ele>162</ele>
        <time>2010-05-02T07:04:00Z</time>
      </trkpt>
      <trkpt lat="43.82603" lon="4.26144">
        <ele>162</ele>
        <time>2010-05-02T07:04:01Z</time>
      </trkpt>
      <trkpt lat="43.82607" lon="4.26146">
        <ele>163</ele>
        <time>2010-05-02T07:04:02Z</time>
      </trkpt>
      <trkpt lat="43.8261" lon="4.26148">
        <ele>163</ele>
        <time>2010-05-02T07:04:02Z</time>
      </trkpt>
      <trkpt lat="43.82611" lon="4.26149">
        <ele>163</ele>
        <time>2010-05-02T07:04:02Z</time>
      </trkpt>
      <trkpt lat="43.82614" lon="4.26151">
        <ele>163</ele>
        <time>2010-05-02T07:04:03Z</time>
      </trkpt>
      <trkpt lat="43.82617" lon="4.26152">
        <ele>162</ele>
        <time>2010-05-02T07:04:03Z</time>
      </trkpt>
      <trkpt lat="43.82619" lon="4.26155">
        <ele>163</ele>
        <time>2010-05-02T07:04:04Z</time>
      </trkpt>
      <trkpt lat="43.82621" lon="4.26156">
        <ele>163</ele>
        <time>2010-05-02T07:04:04Z</time>
      </trkpt>
      <trkpt lat="43.82628" lon="4.26163">
        <ele>163</ele>
        <time>2010-05-02T07:04:06Z</time>
      </trkpt>
      <trkpt lat="43.82633" lon="4.2617">
        <ele>163</ele>
        <time>2010-05-02T07:04:08Z</time>
      </trkpt>
      <trkpt lat="43.82634" lon="4.26171">
        <ele>162</ele>
        <time>2010-05-02T07:04:08Z</time>
      </trkpt>
      <trkpt lat="43.82636" lon="4.26174">
        <ele>162</ele>
        <time>2010-05-02T07:04:09Z</time>
      </trkpt>
      <trkpt lat="43.82638" lon="4.26175">
        <ele>162</ele>
        <time>2010-05-02T07:04:10Z</time>
      </trkpt>
      <trkpt lat="43.8264" lon="4.26176">
        <ele>161</ele>
        <time>2010-05-02T07:04:11Z</time>
      </trkpt>
      <trkpt lat="43.82641" lon="4.26178">
        <ele>161</ele>
        <time>2010-05-02T07:04:11Z</time>
      </trkpt>
      <trkpt lat="43.82641" lon="4.26178">
        <ele>161</ele>
        <time>2010-05-02T07:04:12Z</time>
      </trkpt>
      <trkpt lat="43.82641" lon="4.26178">
        <ele>161</ele>
        <time>2010-05-02T07:04:13Z</time>
      </trkpt>
      <trkpt lat="43.82641" lon="4.26178">
        <ele>161</ele>
        <time>2010-05-02T07:04:14Z</time>
      </trkpt>
      <trkpt lat="43.82641" lon="4.26178">
        <ele>161</ele>
        <time>2010-05-02T07:04:15Z</time>
      </trkpt>
      <trkpt lat="43.82641" lon="4.26178">
        <ele>161</ele>
        <time>2010-05-02T07:04:16Z</time>
      </trkpt>
      <trkpt lat="43.82649" lon="4.26194">
        <ele>162</ele>
        <time>2010-05-02T07:04:18Z</time>
      </trkpt>
      <trkpt lat="43.82651" lon="4.26198">
        <ele>162</ele>
        <time>2010-05-02T07:04:19Z</time>
      </trkpt>
      <trkpt lat="43.82651" lon="4.26198">
        <ele>162</ele>
        <time>2010-05-02T07:04:20Z</time>
      </trkpt>
      <trkpt lat="43.82654" lon="4.26205">
        <ele>163</ele>
        <time>2010-05-02T07:04:21Z</time>
      </trkpt>
      <trkpt lat="43.82655" lon="4.26207">
        <ele>163</ele>
        <time>2010-05-02T07:04:21Z</time>
      </trkpt>
      <trkpt lat="43.82657" lon="4.26212">
        <ele>163</ele>
        <time>2010-05-02T07:04:22Z</time>
      </trkpt>
      <trkpt lat="43.82658" lon="4.26214">
        <ele>163</ele>
        <time>2010-05-02T07:04:23Z</time>
      </trkpt>
      <trkpt lat="43.82658" lon="4.26219">
        <ele>164</ele>
        <time>2010-05-02T07:04:24Z</time>
      </trkpt>
      <trkpt lat="43.82658" lon="4.26226">
        <ele>164</ele>
        <time>2010-05-02T07:04:25Z</time>
      </trkpt>
      <trkpt lat="43.82657" lon="4.2623">
        <ele>164</ele>
        <time>2010-05-02T07:04:26Z</time>
      </trkpt>
      <trkpt lat="43.82657" lon="4.26237">
        <ele>164</ele>
        <time>2010-05-02T07:04:27Z</time>
      </trkpt>
      <trkpt lat="43.82656" lon="4.26241">
        <ele>164</ele>
        <time>2010-05-02T07:04:28Z</time>
      </trkpt>
      <trkpt lat="43.82655" lon="4.26248">
        <ele>163</ele>
        <time>2010-05-02T07:04:30Z</time>
      </trkpt>
      <trkpt lat="43.82655" lon="4.26252">
        <ele>163</ele>
        <time>2010-05-02T07:04:30Z</time>
      </trkpt>
      <trkpt lat="43.82653" lon="4.26261">
        <ele>164</ele>
        <time>2010-05-02T07:04:32Z</time>
      </trkpt>
      <trkpt lat="43.82652" lon="4.26265">
        <ele>164</ele>
        <time>2010-05-02T07:04:32Z</time>
      </trkpt>
      <trkpt lat="43.82649" lon="4.26275">
        <ele>164</ele>
        <time>2010-05-02T07:04:34Z</time>
      </trkpt>
      <trkpt lat="43.82648" lon="4.26279">
        <ele>164</ele>
        <time>2010-05-02T07:04:35Z</time>
      </trkpt>
      <trkpt lat="43.82645" lon="4.26284">
        <ele>164</ele>
        <time>2010-05-02T07:04:36Z</time>
      </trkpt>
      <trkpt lat="43.8264" lon="4.26288">
        <ele>165</ele>
        <time>2010-05-02T07:04:37Z</time>
      </trkpt>
      <trkpt lat="43.82634" lon="4.26295">
        <ele>165</ele>
        <time>2010-05-02T07:04:38Z</time>
      </trkpt>
      <trkpt lat="43.82631" lon="4.26298">
        <ele>165</ele>
        <time>2010-05-02T07:04:39Z</time>
      </trkpt>
      <trkpt lat="43.82626" lon="4.26305">
        <ele>165</ele>
        <time>2010-05-02T07:04:40Z</time>
      </trkpt>
      <trkpt lat="43.82624" lon="4.26308">
        <ele>165</ele>
        <time>2010-05-02T07:04:41Z</time>
      </trkpt>
      <trkpt lat="43.82619" lon="4.26315">
        <ele>166</ele>
        <time>2010-05-02T07:04:42Z</time>
      </trkpt>
      <trkpt lat="43.82617" lon="4.26318">
        <ele>166</ele>
        <time>2010-05-02T07:04:43Z</time>
      </trkpt>
      <trkpt lat="43.82613" lon="4.26323">
        <ele>167</ele>
        <time>2010-05-02T07:04:44Z</time>
      </trkpt>
      <trkpt lat="43.82611" lon="4.26326">
        <ele>166</ele>
        <time>2010-05-02T07:04:45Z</time>
      </trkpt>
      <trkpt lat="43.82607" lon="4.26331">
        <ele>167</ele>
        <time>2010-05-02T07:04:46Z</time>
      </trkpt>
      <trkpt lat="43.82605" lon="4.26331">
        <ele>167</ele>
        <time>2010-05-02T07:04:48Z</time>
      </trkpt>
      <trkpt lat="43.82599" lon="4.26338">
        <ele>167</ele>
        <time>2010-05-02T07:04:50Z</time>
      </trkpt>
      <trkpt lat="43.82599" lon="4.2634">
        <ele>167</ele>
        <time>2010-05-02T07:04:51Z</time>
      </trkpt>
      <trkpt lat="43.82598" lon="4.26341">
        <ele>168</ele>
        <time>2010-05-02T07:04:51Z</time>
      </trkpt>
      <trkpt lat="43.82598" lon="4.26343">
        <ele>168</ele>
        <time>2010-05-02T07:04:52Z</time>
      </trkpt>
      <trkpt lat="43.82598" lon="4.26343">
        <ele>168</ele>
        <time>2010-05-02T07:04:52Z</time>
      </trkpt>
      <trkpt lat="43.82597" lon="4.26343">
        <ele>169</ele>
        <time>2010-05-02T07:04:53Z</time>
      </trkpt>
      <trkpt lat="43.82597" lon="4.26343">
        <ele>169</ele>
        <time>2010-05-02T07:04:55Z</time>
      </trkpt>
      <trkpt lat="43.82597" lon="4.26343">
        <ele>169</ele>
        <time>2010-05-02T07:04:56Z</time>
      </trkpt>
      <trkpt lat="43.82597" lon="4.26343">
        <ele>169</ele>
        <time>2010-05-02T07:04:57Z</time>
      </trkpt>
      <trkpt lat="43.82597" lon="4.26343">
        <ele>169</ele>
        <time>2010-05-02T07:04:58Z</time>
      </trkpt>
      <trkpt lat="43.82597" lon="4.26343">
        <ele>169</ele>
        <time>2010-05-02T07:04:59Z</time>
      </trkpt>
      <trkpt lat="43.82597" lon="4.26343">
        <ele>169</ele>
        <time>2010-05-02T07:05:00Z</time>
      </trkpt>
      <trkpt lat="43.82597" lon="4.26343">
        <ele>169</ele>
        <time>2010-05-02T07:05:01Z</time>
      </trkpt>
      <trkpt lat="43.82597" lon="4.26343">
        <ele>169</ele>
        <time>2010-05-02T07:05:02Z</time>
      </trkpt>
      <trkpt lat="43.82597" lon="4.26343">
        <ele>169</ele>
        <time>2010-05-02T07:05:04Z</time>
      </trkpt>
      <trkpt lat="43.82597" lon="4.26343">
        <ele>169</ele>
        <time>2010-05-02T07:05:05Z</time>
      </trkpt>
      <trkpt lat="43.82597" lon="4.26343">
        <ele>169</ele>
        <time>2010-05-02T07:05:06Z</time>
      </trkpt>
      <trkpt lat="43.82597" lon="4.26343">
        <ele>169</ele>
        <time>2010-05-02T07:05:07Z</time>
      </trkpt>
      <trkpt lat="43.82597" lon="4.26343">
        <ele>169</ele>
        <time>2010-05-02T07:05:08Z</time>
      </trkpt>
      <trkpt lat="43.82597" lon="4.26343">
        <ele>169</ele>
        <time>2010-05-02T07:05:09Z</time>
      </trkpt>
      <trkpt lat="43.82597" lon="4.26343">
        <ele>169</ele>
        <time>2010-05-02T07:05:11Z</time>
      </trkpt>
      <trkpt lat="43.82597" lon="4.26343">
        <ele>169</ele>
        <time>2010-05-02T07:05:12Z</time>
      </trkpt>
      <trkpt lat="43.82597" lon="4.26343">
        <ele>169</ele>
        <time>2010-05-02T07:05:12Z</time>
      </trkpt>
      <trkpt lat="43.82597" lon="4.26343">
        <ele>169</ele>
        <time>2010-05-02T07:05:14Z</time>
      </trkpt>
      <trkpt lat="43.82592" lon="4.2638">
        <ele>172</ele>
        <time>2010-05-02T07:05:15Z</time>
      </trkpt>
      <trkpt lat="43.82592" lon="4.2638">
        <ele>172</ele>
        <time>2010-05-02T07:05:16Z</time>
      </trkpt>
      <trkpt lat="43.82592" lon="4.2638">
        <ele>172</ele>
        <time>2010-05-02T07:05:17Z</time>
      </trkpt>
      <trkpt lat="43.82592" lon="4.2638">
        <ele>172</ele>
        <time>2010-05-02T07:05:18Z</time>
      </trkpt>
      <trkpt lat="43.82592" lon="4.2638">
        <ele>172</ele>
        <time>2010-05-02T07:05:19Z</time>
      </trkpt>
      <trkpt lat="43.82592" lon="4.2638">
        <ele>172</ele>
        <time>2010-05-02T07:05:21Z</time>
      </trkpt>
      <trkpt lat="43.82592" lon="4.2638">
        <ele>172</ele>
        <time>2010-05-02T07:05:22Z</time>
      </trkpt>
      <trkpt lat="43.82575" lon="4.2641">
        <ele>174</ele>
        <time>2010-05-02T07:05:23Z</time>
      </trkpt>
      <trkpt lat="43.82575" lon="4.2641">
        <ele>174</ele>
        <time>2010-05-02T07:05:24Z</time>
      </trkpt>
      <trkpt lat="43.82568" lon="4.26421">
        <ele>174</ele>
        <time>2010-05-02T07:05:25Z</time>
      </trkpt>
      <trkpt lat="43.82561" lon="4.26431">
        <ele>176</ele>
        <time>2010-05-02T07:05:27Z</time>
      </trkpt>
      <trkpt lat="43.82561" lon="4.26431">
        <ele>176</ele>
        <time>2010-05-02T07:05:27Z</time>
      </trkpt>
      <trkpt lat="43.82556" lon="4.26442">
        <ele>176</ele>
        <time>2010-05-02T07:05:29Z</time>
      </trkpt>
      <trkpt lat="43.82553" lon="4.26449">
        <ele>176</ele>
        <time>2010-05-02T07:05:30Z</time>
      </trkpt>
      <trkpt lat="43.8255" lon="4.26458">
        <ele>176</ele>
        <time>2010-05-02T07:05:31Z</time>
      </trkpt>
      <trkpt lat="43.82549" lon="4.26463">
        <ele>176</ele>
        <time>2010-05-02T07:05:32Z</time>
      </trkpt>
      <trkpt lat="43.82547" lon="4.26469">
        <ele>177</ele>
        <time>2010-05-02T07:05:33Z</time>
      </trkpt>
      <trkpt lat="43.82546" lon="4.26475">
        <ele>177</ele>
        <time>2010-05-02T07:05:34Z</time>
      </trkpt>
      <trkpt lat="43.82546" lon="4.26476">
        <ele>178</ele>
        <time>2010-05-02T07:05:35Z</time>
      </trkpt>
      <trkpt lat="43.82546" lon="4.26477">
        <ele>178</ele>
        <time>2010-05-02T07:05:36Z</time>
      </trkpt>
      <trkpt lat="43.82546" lon="4.26483">
        <ele>177</ele>
        <time>2010-05-02T07:05:37Z</time>
      </trkpt>
      <trkpt lat="43.82546" lon="4.26484">
        <ele>177</ele>
        <time>2010-05-02T07:05:38Z</time>
      </trkpt>
      <trkpt lat="43.82545" lon="4.26492">
        <ele>178</ele>
        <time>2010-05-02T07:05:39Z</time>
      </trkpt>
      <trkpt lat="43.82544" lon="4.26498">
        <ele>178</ele>
        <time>2010-05-02T07:05:40Z</time>
      </trkpt>
      <trkpt lat="43.82543" lon="4.26507">
        <ele>178</ele>
        <time>2010-05-02T07:05:42Z</time>
      </trkpt>
      <trkpt lat="43.82544" lon="4.26509">
        <ele>177</ele>
        <time>2010-05-02T07:05:42Z</time>
      </trkpt>
      <trkpt lat="43.82544" lon="4.26517">
        <ele>177</ele>
        <time>2010-05-02T07:05:44Z</time>
      </trkpt>
      <trkpt lat="43.82546" lon="4.26521">
        <ele>178</ele>
        <time>2010-05-02T07:05:45Z</time>
      </trkpt>
      <trkpt lat="43.82547" lon="4.26524">
        <ele>178</ele>
        <time>2010-05-02T07:05:45Z</time>
      </trkpt>
      <trkpt lat="43.82548" lon="4.26528">
        <ele>178</ele>
        <time>2010-05-02T07:05:46Z</time>
      </trkpt>
      <trkpt lat="43.82548" lon="4.26531">
        <ele>178</ele>
        <time>2010-05-02T07:05:47Z</time>
      </trkpt>
      <trkpt lat="43.82549" lon="4.26532">
        <ele>178</ele>
        <time>2010-05-02T07:05:49Z</time>
      </trkpt>
      <trkpt lat="43.82549" lon="4.26532">
        <ele>178</ele>
        <time>2010-05-02T07:05:50Z</time>
      </trkpt>
      <trkpt lat="43.82549" lon="4.26532">
        <ele>178</ele>
        <time>2010-05-02T07:05:51Z</time>
      </trkpt>
      <trkpt lat="43.82549" lon="4.26532">
        <ele>178</ele>
        <time>2010-05-02T07:05:52Z</time>
      </trkpt>
      <trkpt lat="43.82549" lon="4.26532">
        <ele>178</ele>
        <time>2010-05-02T07:05:53Z</time>
      </trkpt>
      <trkpt lat="43.82549" lon="4.26532">
        <ele>178</ele>
        <time>2010-05-02T07:05:53Z</time>
      </trkpt>
      <trkpt lat="43.82549" lon="4.26532">
        <ele>178</ele>
        <time>2010-05-02T07:05:54Z</time>
      </trkpt>
      <trkpt lat="43.82549" lon="4.26532">
        <ele>178</ele>
        <time>2010-05-02T07:05:55Z</time>
      </trkpt>
      <trkpt lat="43.82549" lon="4.26532">
        <ele>178</ele>
        <time>2010-05-02T07:05:55Z</time>
      </trkpt>
      <trkpt lat="43.82549" lon="4.26532">
        <ele>178</ele>
        <time>2010-05-02T07:05:57Z</time>
      </trkpt>
      <trkpt lat="43.82549" lon="4.26532">
        <ele>178</ele>
        <time>2010-05-02T07:05:57Z</time>
      </trkpt>
      <trkpt lat="43.82549" lon="4.26532">
        <ele>178</ele>
        <time>2010-05-02T07:05:59Z</time>
      </trkpt>
      <trkpt lat="43.82549" lon="4.26532">
        <ele>178</ele>
        <time>2010-05-02T07:05:59Z</time>
      </trkpt>
      <trkpt lat="43.82549" lon="4.26532">
        <ele>178</ele>
        <time>2010-05-02T07:06:01Z</time>
      </trkpt>
      <trkpt lat="43.82549" lon="4.26532">
        <ele>178</ele>
        <time>2010-05-02T07:06:01Z</time>
      </trkpt>
      <trkpt lat="43.82549" lon="4.26532">
        <ele>178</ele>
        <time>2010-05-02T07:06:03Z</time>
      </trkpt>
      <trkpt lat="43.82549" lon="4.26532">
        <ele>178</ele>
        <time>2010-05-02T07:06:04Z</time>
      </trkpt>
      <trkpt lat="43.82549" lon="4.26532">
        <ele>178</ele>
        <time>2010-05-02T07:06:05Z</time>
      </trkpt>
      <trkpt lat="43.82549" lon="4.26532">
        <ele>178</ele>
        <time>2010-05-02T07:06:06Z</time>
      </trkpt>
      <trkpt lat="43.82549" lon="4.26532">
        <ele>178</ele>
        <time>2010-05-02T07:06:07Z</time>
      </trkpt>
      <trkpt lat="43.8255" lon="4.26516">
        <ele>175</ele>
        <time>2010-05-02T07:06:08Z</time>
      </trkpt>
      <trkpt lat="43.82548" lon="4.26506">
        <ele>176</ele>
        <time>2010-05-02T07:06:10Z</time>
      </trkpt>
      <trkpt lat="43.82547" lon="4.26501">
        <ele>176</ele>
        <time>2010-05-02T07:06:10Z</time>
      </trkpt>
      <trkpt lat="43.82545" lon="4.26492">
        <ele>176</ele>
        <time>2010-05-02T07:06:12Z</time>
      </trkpt>
      <trkpt lat="43.82544" lon="4.26488">
        <ele>175</ele>
        <time>2010-05-02T07:06:12Z</time>
      </trkpt>
      <trkpt lat="43.82542" lon="4.26479">
        <ele>174</ele>
        <time>2010-05-02T07:06:14Z</time>
      </trkpt>
      <trkpt lat="43.8254" lon="4.2647">
        <ele>173</ele>
        <time>2010-05-02T07:06:15Z</time>
      </trkpt>
      <trkpt lat="43.82539" lon="4.26463">
        <ele>173</ele>
        <time>2010-05-02T07:06:16Z</time>
      </trkpt>
      <trkpt lat="43.82539" lon="4.26461">
        <ele>173</ele>
        <time>2010-05-02T07:06:17Z</time>
      </trkpt>
      <trkpt lat="43.82538" lon="4.2645">
        <ele>174</ele>
        <time>2010-05-02T07:06:18Z</time>
      </trkpt>
      <trkpt lat="43.82538" lon="4.26446">
        <ele>174</ele>
        <time>2010-05-02T07:06:19Z</time>
      </trkpt>
      <trkpt lat="43.82539" lon="4.26441">
        <ele>175</ele>
        <time>2010-05-02T07:06:20Z</time>
      </trkpt>
      <trkpt lat="43.8254" lon="4.26438">
        <ele>175</ele>
        <time>2010-05-02T07:06:21Z</time>
      </trkpt>
      <trkpt lat="43.82544" lon="4.26431">
        <ele>177</ele>
        <time>2010-05-02T07:06:22Z</time>
      </trkpt>
      <trkpt lat="43.82547" lon="4.26425">
        <ele>178</ele>
        <time>2010-05-02T07:06:23Z</time>
      </trkpt>
      <trkpt lat="43.82552" lon="4.26416">
        <ele>179</ele>
        <time>2010-05-02T07:06:24Z</time>
      </trkpt>
      <trkpt lat="43.82554" lon="4.26413">
        <ele>180</ele>
        <time>2010-05-02T07:06:25Z</time>
      </trkpt>
      <trkpt lat="43.82558" lon="4.26406">
        <ele>181</ele>
        <time>2010-05-02T07:06:26Z</time>
      </trkpt>
      <trkpt lat="43.82561" lon="4.26399">
        <ele>182</ele>
        <time>2010-05-02T07:06:28Z</time>
      </trkpt>
      <trkpt lat="43.82564" lon="4.26393">
        <ele>183</ele>
        <time>2010-05-02T07:06:29Z</time>
      </trkpt>
      <trkpt lat="43.82566" lon="4.26389">
        <ele>184</ele>
        <time>2010-05-02T07:06:30Z</time>
      </trkpt>
      <trkpt lat="43.82569" lon="4.26383">
        <ele>185</ele>
        <time>2010-05-02T07:06:31Z</time>
      </trkpt>
      <trkpt lat="43.82572" lon="4.26377">
        <ele>185</ele>
        <time>2010-05-02T07:06:32Z</time>
      </trkpt>
      <trkpt lat="43.82575" lon="4.26372">
        <ele>185</ele>
        <time>2010-05-02T07:06:33Z</time>
      </trkpt>
      <trkpt lat="43.82579" lon="4.26367">
        <ele>184</ele>
        <time>2010-05-02T07:06:35Z</time>
      </trkpt>
      <trkpt lat="43.82581" lon="4.26365">
        <ele>183</ele>
        <time>2010-05-02T07:06:36Z</time>
      </trkpt>
      <trkpt lat="43.82583" lon="4.26362">
        <ele>182</ele>
        <time>2010-05-02T07:06:37Z</time>
      </trkpt>
      <trkpt lat="43.82585" lon="4.26362">
        <ele>181</ele>
        <time>2010-05-02T07:06:39Z</time>
      </trkpt>
      <trkpt lat="43.82586" lon="4.26363">
        <ele>180</ele>
        <time>2010-05-02T07:06:39Z</time>
      </trkpt>
      <trkpt lat="43.82586" lon="4.26365">
        <ele>179</ele>
        <time>2010-05-02T07:06:41Z</time>
      </trkpt>
      <trkpt lat="43.82586" lon="4.26365">
        <ele>179</ele>
        <time>2010-05-02T07:06:42Z</time>
      </trkpt>
      <trkpt lat="43.82586" lon="4.26365">
        <ele>179</ele>
        <time>2010-05-02T07:06:43Z</time>
      </trkpt>
      <trkpt lat="43.82586" lon="4.26365">
        <ele>179</ele>
        <time>2010-05-02T07:06:44Z</time>
      </trkpt>
      <trkpt lat="43.82586" lon="4.26365">
        <ele>179</ele>
        <time>2010-05-02T07:06:46Z</time>
      </trkpt>
      <trkpt lat="43.82586" lon="4.26365">
        <ele>179</ele>
        <time>2010-05-02T07:06:47Z</time>
      </trkpt>
      <trkpt lat="43.82586" lon="4.26374">
        <ele>181</ele>
        <time>2010-05-02T07:06:48Z</time>
      </trkpt>
      <trkpt lat="43.82586" lon="4.26374">
        <ele>181</ele>
        <time>2010-05-02T07:06:50Z</time>
      </trkpt>
      <trkpt lat="43.82586" lon="4.26374">
        <ele>181</ele>
        <time>2010-05-02T07:06:52Z</time>
      </trkpt>
      <trkpt lat="43.82586" lon="4.26374">
        <ele>181</ele>
        <time>2010-05-02T07:06:52Z</time>
      </trkpt>
      <trkpt lat="43.82586" lon="4.26374">
        <ele>181</ele>
        <time>2010-05-02T07:06:55Z</time>
      </trkpt>
      <trkpt lat="43.82586" lon="4.26374">
        <ele>181</ele>
        <time>2010-05-02T07:06:56Z</time>
      </trkpt>
      <trkpt lat="43.82586" lon="4.26374">
        <ele>181</ele>
        <time>2010-05-02T07:06:56Z</time>
      </trkpt>
      <trkpt lat="43.82586" lon="4.26374">
        <ele>181</ele>
        <time>2010-05-02T07:06:58Z</time>
      </trkpt>
      <trkpt lat="43.82586" lon="4.26374">
        <ele>181</ele>
        <time>2010-05-02T07:06:59Z</time>
      </trkpt>
      <trkpt lat="43.82586" lon="4.26374">
        <ele>181</ele>
        <time>2010-05-02T07:07:01Z</time>
      </trkpt>
      <trkpt lat="43.82586" lon="4.26374">
        <ele>181</ele>
        <time>2010-05-02T07:07:03Z</time>
      </trkpt>
      <trkpt lat="43.82586" lon="4.26374">
        <ele>181</ele>
        <time>2010-05-02T07:07:06Z</time>
      </trkpt>
      <trkpt lat="43.82586" lon="4.26374">
        <ele>181</ele>
        <time>2010-05-02T07:07:08Z</time>
      </trkpt>
      <trkpt lat="43.82586" lon="4.26374">
        <ele>181</ele>
        <time>2010-05-02T07:07:08Z</time>
      </trkpt>
      <trkpt lat="43.82586" lon="4.26374">
        <ele>181</ele>
        <time>2010-05-02T07:07:09Z</time>
      </trkpt>
      <trkpt lat="43.82586" lon="4.26374">
        <ele>181</ele>
        <time>2010-05-02T07:07:10Z</time>
      </trkpt>
      <trkpt lat="43.82585" lon="4.26392">
        <ele>180</ele>
        <time>2010-05-02T07:07:12Z</time>
      </trkpt>
      <trkpt lat="43.82582" lon="4.264">
        <ele>180</ele>
        <time>2010-05-02T07:07:14Z</time>
      </trkpt>
      <trkpt lat="43.82578" lon="4.26408">
        <ele>180</ele>
        <time>2010-05-02T07:07:16Z</time>
      </trkpt>
      <trkpt lat="43.82576" lon="4.26411">
        <ele>180</ele>
        <time>2010-05-02T07:07:17Z</time>
      </trkpt>
      <trkpt lat="43.82574" lon="4.26413">
        <ele>180</ele>
        <time>2010-05-02T07:07:18Z</time>
      </trkpt>
      <trkpt lat="43.82572" lon="4.26416">
        <ele>180</ele>
        <time>2010-05-02T07:07:18Z</time>
      </trkpt>
      <trkpt lat="43.82567" lon="4.26423">
        <ele>181</ele>
        <time>2010-05-02T07:07:20Z</time>
      </trkpt>
      <trkpt lat="43.82565" lon="4.26425">
        <ele>182</ele>
        <time>2010-05-02T07:07:21Z</time>
      </trkpt>
      <trkpt lat="43.82563" lon="4.26428">
        <ele>182</ele>
        <time>2010-05-02T07:07:22Z</time>
      </trkpt>
      <trkpt lat="43.82561" lon="4.2643">
        <ele>182</ele>
        <time>2010-05-02T07:07:22Z</time>
      </trkpt>
      <trkpt lat="43.82558" lon="4.26435">
        <ele>182</ele>
        <time>2010-05-02T07:07:24Z</time>
      </trkpt>
      <trkpt lat="43.82556" lon="4.26439">
        <ele>183</ele>
        <time>2010-05-02T07:07:25Z</time>
      </trkpt>
      <trkpt lat="43.82554" lon="4.26444">
        <ele>183</ele>
        <time>2010-05-02T07:07:27Z</time>
      </trkpt>
      <trkpt lat="43.82554" lon="4.26447">
        <ele>183</ele>
        <time>2010-05-02T07:07:28Z</time>
      </trkpt>
      <trkpt lat="43.82553" lon="4.26454">
        <ele>183</ele>
        <time>2010-05-02T07:07:29Z</time>
      </trkpt>
      <trkpt lat="43.82552" lon="4.26464">
        <ele>184</ele>
        <time>2010-05-02T07:07:31Z</time>
      </trkpt>
      <trkpt lat="43.82551" lon="4.26467">
        <ele>185</ele>
        <time>2010-05-02T07:07:32Z</time>
      </trkpt>
      <trkpt lat="43.8255" lon="4.26473">
        <ele>185</ele>
        <time>2010-05-02T07:07:33Z</time>
      </trkpt>
      <trkpt lat="43.8255" lon="4.26476">
        <ele>186</ele>
        <time>2010-05-02T07:07:34Z</time>
      </trkpt>
      <trkpt lat="43.82549" lon="4.26485">
        <ele>185</ele>
        <time>2010-05-02T07:07:36Z</time>
      </trkpt>
      <trkpt lat="43.8255" lon="4.26493">
        <ele>185</ele>
        <time>2010-05-02T07:07:37Z</time>
      </trkpt>
      <trkpt lat="43.82551" lon="4.26503">
        <ele>185</ele>
        <time>2010-05-02T07:07:39Z</time>
      </trkpt>
      <trkpt lat="43.82552" lon="4.26508">
        <ele>185</ele>
        <time>2010-05-02T07:07:40Z</time>
      </trkpt>
      <trkpt lat="43.82552" lon="4.26512">
        <ele>185</ele>
        <time>2010-05-02T07:07:41Z</time>
      </trkpt>
      <trkpt lat="43.82553" lon="4.26513">
        <ele>185</ele>
        <time>2010-05-02T07:07:42Z</time>
      </trkpt>
      <trkpt lat="43.82554" lon="4.2652">
        <ele>186</ele>
        <time>2010-05-02T07:07:43Z</time>
      </trkpt>
      <trkpt lat="43.82554" lon="4.26523">
        <ele>186</ele>
        <time>2010-05-02T07:07:44Z</time>
      </trkpt>
      <trkpt lat="43.82556" lon="4.26528">
        <ele>187</ele>
        <time>2010-05-02T07:07:45Z</time>
      </trkpt>
      <trkpt lat="43.82559" lon="4.26529">
        <ele>187</ele>
        <time>2010-05-02T07:07:46Z</time>
      </trkpt>
      <trkpt lat="43.82559" lon="4.26529">
        <ele>187</ele>
        <time>2010-05-02T07:07:47Z</time>
      </trkpt>
      <trkpt lat="43.82561" lon="4.26528">
        <ele>187</ele>
        <time>2010-05-02T07:07:49Z</time>
      </trkpt>
      <trkpt lat="43.82562" lon="4.26527">
        <ele>187</ele>
        <time>2010-05-02T07:07:50Z</time>
      </trkpt>
      <trkpt lat="43.82563" lon="4.26527">
        <ele>187</ele>
        <time>2010-05-02T07:07:51Z</time>
      </trkpt>
      <trkpt lat="43.82563" lon="4.26528">
        <ele>187</ele>
        <time>2010-05-02T07:07:52Z</time>
      </trkpt>
      <trkpt lat="43.82563" lon="4.26528">
        <ele>187</ele>
        <time>2010-05-02T07:07:54Z</time>
      </trkpt>
      <trkpt lat="43.82563" lon="4.26528">
        <ele>187</ele>
        <time>2010-05-02T07:07:55Z</time>
      </trkpt>
      <trkpt lat="43.82563" lon="4.26528">
        <ele>187</ele>
        <time>2010-05-02T07:07:56Z</time>
      </trkpt>
      <trkpt lat="43.82565" lon="4.26529">
        <ele>185</ele>
        <time>2010-05-02T07:07:57Z</time>
      </trkpt>
      <trkpt lat="43.82566" lon="4.26529">
        <ele>184</ele>
        <time>2010-05-02T07:07:59Z</time>
      </trkpt>
      <trkpt lat="43.82568" lon="4.26529">
        <ele>184</ele>
        <time>2010-05-02T07:08:00Z</time>
      </trkpt>
      <trkpt lat="43.82568" lon="4.26529">
        <ele>184</ele>
        <time>2010-05-02T07:08:01Z</time>
      </trkpt>
      <trkpt lat="43.82571" lon="4.2653">
        <ele>183</ele>
        <time>2010-05-02T07:08:02Z</time>
      </trkpt>
      <trkpt lat="43.82574" lon="4.26531">
        <ele>182</ele>
        <time>2010-05-02T07:08:04Z</time>
      </trkpt>
      <trkpt lat="43.82576" lon="4.26532">
        <ele>181</ele>
        <time>2010-05-02T07:08:05Z</time>
      </trkpt>
      <trkpt lat="43.82576" lon="4.26532">
        <ele>181</ele>
        <time>2010-05-02T07:08:06Z</time>
      </trkpt>
      <trkpt lat="43.82576" lon="4.26532">
        <ele>181</ele>
        <time>2010-05-02T07:08:08Z</time>
      </trkpt>
      <trkpt lat="43.82576" lon="4.26532">
        <ele>181</ele>
        <time>2010-05-02T07:08:10Z</time>
      </trkpt>
      <trkpt lat="43.82576" lon="4.26532">
        <ele>181</ele>
        <time>2010-05-02T07:08:11Z</time>
      </trkpt>
      <trkpt lat="43.82585" lon="4.26536">
        <ele>180</ele>
        <time>2010-05-02T07:08:12Z</time>
      </trkpt>
      <trkpt lat="43.82585" lon="4.26536">
        <ele>180</ele>
        <time>2010-05-02T07:08:14Z</time>
      </trkpt>
      <trkpt lat="43.82585" lon="4.26536">
        <ele>180</ele>
        <time>2010-05-02T07:08:14Z</time>
      </trkpt>
      <trkpt lat="43.826" lon="4.26545">
        <ele>181</ele>
        <time>2010-05-02T07:08:16Z</time>
      </trkpt>
      <trkpt lat="43.82607" lon="4.2655">
        <ele>181</ele>
        <time>2010-05-02T07:08:17Z</time>
      </trkpt>
      <trkpt lat="43.82618" lon="4.2656">
        <ele>181</ele>
        <time>2010-05-02T07:08:19Z</time>
      </trkpt>
      <trkpt lat="43.82626" lon="4.26568">
        <ele>180</ele>
        <time>2010-05-02T07:08:21Z</time>
      </trkpt>
      <trkpt lat="43.82633" lon="4.26574">
        <ele>179</ele>
        <time>2010-05-02T07:08:22Z</time>
      </trkpt>
      <trkpt lat="43.82642" lon="4.26584">
        <ele>179</ele>
        <time>2010-05-02T07:08:23Z</time>
      </trkpt>
      <trkpt lat="43.8265" lon="4.26592">
        <ele>178</ele>
        <time>2010-05-02T07:08:24Z</time>
      </trkpt>
      <trkpt lat="43.82657" lon="4.26598">
        <ele>178</ele>
        <time>2010-05-02T07:08:26Z</time>
      </trkpt>
      <trkpt lat="43.82664" lon="4.26603">
        <ele>178</ele>
        <time>2010-05-02T07:08:28Z</time>
      </trkpt>
      <trkpt lat="43.82672" lon="4.26608">
        <ele>178</ele>
        <time>2010-05-02T07:08:29Z</time>
      </trkpt>
      <trkpt lat="43.8268" lon="4.26611">
        <ele>177</ele>
        <time>2010-05-02T07:08:30Z</time>
      </trkpt>
      <trkpt lat="43.82684" lon="4.26609">
        <ele>176</ele>
        <time>2010-05-02T07:08:31Z</time>
      </trkpt>
      <trkpt lat="43.82686" lon="4.26608">
        <ele>176</ele>
        <time>2010-05-02T07:08:33Z</time>
      </trkpt>
      <trkpt lat="43.82686" lon="4.26608">
        <ele>176</ele>
        <time>2010-05-02T07:08:34Z</time>
      </trkpt>
      <trkpt lat="43.82686" lon="4.26608">
        <ele>176</ele>
        <time>2010-05-02T07:08:35Z</time>
      </trkpt>
      <trkpt lat="43.82686" lon="4.26608">
        <ele>176</ele>
        <time>2010-05-02T07:08:38Z</time>
      </trkpt>
      <trkpt lat="43.82686" lon="4.26608">
        <ele>176</ele>
        <time>2010-05-02T07:08:39Z</time>
      </trkpt>
      <trkpt lat="43.82686" lon="4.26608">
        <ele>176</ele>
        <time>2010-05-02T07:08:40Z</time>
      </trkpt>
      <trkpt lat="43.82686" lon="4.26608">
        <ele>176</ele>
        <time>2010-05-02T07:08:42Z</time>
      </trkpt>
      <trkpt lat="43.82686" lon="4.26608">
        <ele>176</ele>
        <time>2010-05-02T07:08:43Z</time>
      </trkpt>
      <trkpt lat="43.82686" lon="4.26608">
        <ele>176</ele>
        <time>2010-05-02T07:08:44Z</time>
      </trkpt>
      <trkpt lat="43.82692" lon="4.26615">
        <ele>177</ele>
        <time>2010-05-02T07:08:45Z</time>
      </trkpt>
      <trkpt lat="43.82697" lon="4.26622">
        <ele>176</ele>
        <time>2010-05-02T07:08:47Z</time>
      </trkpt>
      <trkpt lat="43.82704" lon="4.26632">
        <ele>176</ele>
        <time>2010-05-02T07:08:49Z</time>
      </trkpt>
      <trkpt lat="43.82709" lon="4.2664">
        <ele>175</ele>
        <time>2010-05-02T07:08:50Z</time>
      </trkpt>
      <trkpt lat="43.82712" lon="4.26645">
        <ele>175</ele>
        <time>2010-05-02T07:08:52Z</time>
      </trkpt>
      <trkpt lat="43.82717" lon="4.26654">
        <ele>176</ele>
        <time>2010-05-02T07:08:54Z</time>
      </trkpt>
      <trkpt lat="43.82719" lon="4.26658">
        <ele>176</ele>
        <time>2010-05-02T07:08:54Z</time>
      </trkpt>
      <trkpt lat="43.82723" lon="4.26667">
        <ele>176</ele>
        <time>2010-05-02T07:08:56Z</time>
      </trkpt>
      <trkpt lat="43.82725" lon="4.26674">
        <ele>176</ele>
        <time>2010-05-02T07:08:57Z</time>
      </trkpt>
      <trkpt lat="43.82728" lon="4.26683">
        <ele>176</ele>
        <time>2010-05-02T07:08:59Z</time>
      </trkpt>
      <trkpt lat="43.82731" lon="4.26689">
        <ele>175</ele>
        <time>2010-05-02T07:09:00Z</time>
      </trkpt>
      <trkpt lat="43.82732" lon="4.26699">
        <ele>176</ele>
        <time>2010-05-02T07:09:02Z</time>
      </trkpt>
      <trkpt lat="43.82734" lon="4.26706">
        <ele>175</ele>
        <time>2010-05-02T07:09:03Z</time>
      </trkpt>
      <trkpt lat="43.82733" lon="4.26705">
        <ele>176</ele>
        <time>2010-05-02T07:09:04Z</time>
      </trkpt>
      <trkpt lat="43.82733" lon="4.26705">
        <ele>176</ele>
        <time>2010-05-02T07:09:05Z</time>
      </trkpt>
      <trkpt lat="43.82732" lon="4.26714">
        <ele>176</ele>
        <time>2010-05-02T07:09:07Z</time>
      </trkpt>
      <trkpt lat="43.82733" lon="4.26722">
        <ele>176</ele>
        <time>2010-05-02T07:09:08Z</time>
      </trkpt>
      <trkpt lat="43.82734" lon="4.26731">
        <ele>177</ele>
        <time>2010-05-02T07:09:10Z</time>
      </trkpt>
      <trkpt lat="43.82736" lon="4.26741">
        <ele>177</ele>
        <time>2010-05-02T07:09:11Z</time>
      </trkpt>
      <trkpt lat="43.82738" lon="4.26752">
        <ele>177</ele>
        <time>2010-05-02T07:09:13Z</time>
      </trkpt>
      <trkpt lat="43.82741" lon="4.26759">
        <ele>177</ele>
        <time>2010-05-02T07:09:14Z</time>
      </trkpt>
      <trkpt lat="43.82746" lon="4.26769">
        <ele>178</ele>
        <time>2010-05-02T07:09:16Z</time>
      </trkpt>
      <trkpt lat="43.82758" lon="4.26777">
        <ele>178</ele>
        <time>2010-05-02T07:09:19Z</time>
      </trkpt>
      <trkpt lat="43.82765" lon="4.26782">
        <ele>178</ele>
        <time>2010-05-02T07:09:20Z</time>
      </trkpt>
      <trkpt lat="43.82768" lon="4.26785">
        <ele>179</ele>
        <time>2010-05-02T07:09:21Z</time>
      </trkpt>
      <trkpt lat="43.82771" lon="4.26787">
        <ele>179</ele>
        <time>2010-05-02T07:09:22Z</time>
      </trkpt>
      <trkpt lat="43.82774" lon="4.26789">
        <ele>179</ele>
        <time>2010-05-02T07:09:22Z</time>
      </trkpt>
      <trkpt lat="43.82777" lon="4.26791">
        <ele>179</ele>
        <time>2010-05-02T07:09:23Z</time>
      </trkpt>
      <trkpt lat="43.82783" lon="4.26794">
        <ele>179</ele>
        <time>2010-05-02T07:09:25Z</time>
      </trkpt>
      <trkpt lat="43.82789" lon="4.26796">
        <ele>180</ele>
        <time>2010-05-02T07:09:26Z</time>
      </trkpt>
      <trkpt lat="43.82794" lon="4.26799">
        <ele>180</ele>
        <time>2010-05-02T07:09:27Z</time>
      </trkpt>
      <trkpt lat="43.828" lon="4.26802">
        <ele>180</ele>
        <time>2010-05-02T07:09:29Z</time>
      </trkpt>
      <trkpt lat="43.82806" lon="4.26805">
        <ele>180</ele>
        <time>2010-05-02T07:09:30Z</time>
      </trkpt>
      <trkpt lat="43.82811" lon="4.26808">
        <ele>180</ele>
        <time>2010-05-02T07:09:32Z</time>
      </trkpt>
      <trkpt lat="43.82814" lon="4.26809">
        <ele>180</ele>
        <time>2010-05-02T07:09:32Z</time>
      </trkpt>
      <trkpt lat="43.82819" lon="4.26811">
        <ele>180</ele>
        <time>2010-05-02T07:09:34Z</time>
      </trkpt>
      <trkpt lat="43.82825" lon="4.26813">
        <ele>180</ele>
        <time>2010-05-02T07:09:35Z</time>
      </trkpt>
      <trkpt lat="43.8283" lon="4.26815">
        <ele>180</ele>
        <time>2010-05-02T07:09:37Z</time>
      </trkpt>
      <trkpt lat="43.82835" lon="4.26817">
        <ele>180</ele>
        <time>2010-05-02T07:09:38Z</time>
      </trkpt>
      <trkpt lat="43.8284" lon="4.26819">
        <ele>180</ele>
        <time>2010-05-02T07:09:39Z</time>
      </trkpt>
      <trkpt lat="43.82845" lon="4.26821">
        <ele>181</ele>
        <time>2010-05-02T07:09:41Z</time>
      </trkpt>
      <trkpt lat="43.8285" lon="4.26824">
        <ele>182</ele>
        <time>2010-05-02T07:09:42Z</time>
      </trkpt>
      <trkpt lat="43.82854" lon="4.26826">
        <ele>182</ele>
        <time>2010-05-02T07:09:44Z</time>
      </trkpt>
      <trkpt lat="43.82859" lon="4.26829">
        <ele>182</ele>
        <time>2010-05-02T07:09:45Z</time>
      </trkpt>
      <trkpt lat="43.82863" lon="4.26831">
        <ele>182</ele>
        <time>2010-05-02T07:09:47Z</time>
      </trkpt>
      <trkpt lat="43.82866" lon="4.26835">
        <ele>181</ele>
        <time>2010-05-02T07:09:48Z</time>
      </trkpt>
      <trkpt lat="43.82871" lon="4.26838">
        <ele>181</ele>
        <time>2010-05-02T07:09:50Z</time>
      </trkpt>
      <trkpt lat="43.82871" lon="4.2684">
        <ele>180</ele>
        <time>2010-05-02T07:09:51Z</time>
      </trkpt>
      <trkpt lat="43.82877" lon="4.26845">
        <ele>180</ele>
        <time>2010-05-02T07:09:53Z</time>
      </trkpt>
      <trkpt lat="43.82879" lon="4.26848">
        <ele>180</ele>
        <time>2010-05-02T07:09:54Z</time>
      </trkpt>
      <trkpt lat="43.82883" lon="4.26853">
        <ele>179</ele>
        <time>2010-05-02T07:09:55Z</time>
      </trkpt>
      <trkpt lat="43.82888" lon="4.26858">
        <ele>179</ele>
        <time>2010-05-02T07:09:56Z</time>
      </trkpt>
      <trkpt lat="43.82893" lon="4.26864">
        <ele>178</ele>
        <time>2010-05-02T07:09:58Z</time>
      </trkpt>
      <trkpt lat="43.82898" lon="4.2687">
        <ele>178</ele>
        <time>2010-05-02T07:10:00Z</time>
      </trkpt>
      <trkpt lat="43.829" lon="4.26872">
        <ele>178</ele>
        <time>2010-05-02T07:10:01Z</time>
      </trkpt>
      <trkpt lat="43.82903" lon="4.26877">
        <ele>178</ele>
        <time>2010-05-02T07:10:02Z</time>
      </trkpt>
      <trkpt lat="43.82906" lon="4.26883">
        <ele>178</ele>
        <time>2010-05-02T07:10:03Z</time>
      </trkpt>
      <trkpt lat="43.82909" lon="4.26886">
        <ele>178</ele>
        <time>2010-05-02T07:10:05Z</time>
      </trkpt>
      <trkpt lat="43.82913" lon="4.2689">
        <ele>178</ele>
        <time>2010-05-02T07:10:06Z</time>
      </trkpt>
      <trkpt lat="43.82917" lon="4.26894">
        <ele>178</ele>
        <time>2010-05-02T07:10:08Z</time>
      </trkpt>
      <trkpt lat="43.82921" lon="4.26897">
        <ele>178</ele>
        <time>2010-05-02T07:10:09Z</time>
      </trkpt>
      <trkpt lat="43.82922" lon="4.26897">
        <ele>179</ele>
        <time>2010-05-02T07:10:11Z</time>
      </trkpt>
      <trkpt lat="43.82925" lon="4.26898">
        <ele>179</ele>
        <time>2010-05-02T07:10:12Z</time>
      </trkpt>
      <trkpt lat="43.82927" lon="4.26899">
        <ele>179</ele>
        <time>2010-05-02T07:10:13Z</time>
      </trkpt>
      <trkpt lat="43.8293" lon="4.269">
        <ele>179</ele>
        <time>2010-05-02T07:10:14Z</time>
      </trkpt>
      <trkpt lat="43.82935" lon="4.26903">
        <ele>180</ele>
        <time>2010-05-02T07:10:16Z</time>
      </trkpt>
      <trkpt lat="43.82936" lon="4.26905">
        <ele>180</ele>
        <time>2010-05-02T07:10:18Z</time>
      </trkpt>
      <trkpt lat="43.82942" lon="4.2691">
        <ele>181</ele>
        <time>2010-05-02T07:10:19Z</time>
      </trkpt>
      <trkpt lat="43.82945" lon="4.26915">
        <ele>182</ele>
        <time>2010-05-02T07:10:20Z</time>
      </trkpt>
      <trkpt lat="43.82949" lon="4.26919">
        <ele>183</ele>
        <time>2010-05-02T07:10:22Z</time>
      </trkpt>
      <trkpt lat="43.82953" lon="4.26924">
        <ele>183</ele>
        <time>2010-05-02T07:10:24Z</time>
      </trkpt>
      <trkpt lat="43.82954" lon="4.26925">
        <ele>183</ele>
        <time>2010-05-02T07:10:24Z</time>
      </trkpt>
      <trkpt lat="43.82957" lon="4.26928">
        <ele>184</ele>
        <time>2010-05-02T07:10:26Z</time>
      </trkpt>
      <trkpt lat="43.82961" lon="4.26932">
        <ele>184</ele>
        <time>2010-05-02T07:10:27Z</time>
      </trkpt>
      <trkpt lat="43.82964" lon="4.26935">
        <ele>185</ele>
        <time>2010-05-02T07:10:29Z</time>
      </trkpt>
      <trkpt lat="43.82968" lon="4.26938">
        <ele>186</ele>
        <time>2010-05-02T07:10:31Z</time>
      </trkpt>
      <trkpt lat="43.8297" lon="4.2694">
        <ele>187</ele>
        <time>2010-05-02T07:10:31Z</time>
      </trkpt>
      <trkpt lat="43.82976" lon="4.26944">
        <ele>188</ele>
        <time>2010-05-02T07:10:34Z</time>
      </trkpt>
      <trkpt lat="43.82976" lon="4.26944">
        <ele>188</ele>
        <time>2010-05-02T07:10:35Z</time>
      </trkpt>
      <trkpt lat="43.82976" lon="4.26944">
        <ele>188</ele>
        <time>2010-05-02T07:10:36Z</time>
      </trkpt>
      <trkpt lat="43.82976" lon="4.26944">
        <ele>188</ele>
        <time>2010-05-02T07:10:38Z</time>
      </trkpt>
      <trkpt lat="43.82976" lon="4.26944">
        <ele>188</ele>
        <time>2010-05-02T07:10:39Z</time>
      </trkpt>
      <trkpt lat="43.82988" lon="4.26946">
        <ele>189</ele>
        <time>2010-05-02T07:10:41Z</time>
      </trkpt>
      <trkpt lat="43.82988" lon="4.26946">
        <ele>189</ele>
        <time>2010-05-02T07:10:42Z</time>
      </trkpt>
      <trkpt lat="43.82988" lon="4.26946">
        <ele>189</ele>
        <time>2010-05-02T07:10:44Z</time>
      </trkpt>
      <trkpt lat="43.82988" lon="4.26946">
        <ele>189</ele>
        <time>2010-05-02T07:10:45Z</time>
      </trkpt>
      <trkpt lat="43.82997" lon="4.26951">
        <ele>191</ele>
        <time>2010-05-02T07:10:47Z</time>
      </trkpt>
      <trkpt lat="43.82997" lon="4.26951">
        <ele>191</ele>
        <time>2010-05-02T07:10:48Z</time>
      </trkpt>
      <trkpt lat="43.82997" lon="4.26951">
        <ele>191</ele>
        <time>2010-05-02T07:10:50Z</time>
      </trkpt>
      <trkpt lat="43.83005" lon="4.26956">
        <ele>192</ele>
        <time>2010-05-02T07:10:52Z</time>
      </trkpt>
      <trkpt lat="43.83005" lon="4.26956">
        <ele>192</ele>
        <time>2010-05-02T07:10:53Z</time>
      </trkpt>
      <trkpt lat="43.83005" lon="4.26956">
        <ele>192</ele>
        <time>2010-05-02T07:10:55Z</time>
      </trkpt>
      <trkpt lat="43.83005" lon="4.26956">
        <ele>192</ele>
        <time>2010-05-02T07:10:57Z</time>
      </trkpt>
      <trkpt lat="43.83005" lon="4.26956">
        <ele>192</ele>
        <time>2010-05-02T07:10:58Z</time>
      </trkpt>
      <trkpt lat="43.83021" lon="4.26961">
        <ele>193</ele>
        <time>2010-05-02T07:11:00Z</time>
      </trkpt>
      <trkpt lat="43.83021" lon="4.26961">
        <ele>193</ele>
        <time>2010-05-02T07:11:02Z</time>
      </trkpt>
      <trkpt lat="43.83021" lon="4.26961">
        <ele>193</ele>
        <time>2010-05-02T07:11:03Z</time>
      </trkpt>
      <trkpt lat="43.83021" lon="4.26961">
        <ele>193</ele>
        <time>2010-05-02T07:11:04Z</time>
      </trkpt>
      <trkpt lat="43.83031" lon="4.26962">
        <ele>196</ele>
        <time>2010-05-02T07:11:05Z</time>
      </trkpt>
      <trkpt lat="43.83031" lon="4.26962">
        <ele>196</ele>
        <time>2010-05-02T07:11:08Z</time>
      </trkpt>
      <trkpt lat="43.83031" lon="4.26962">
        <ele>196</ele>
        <time>2010-05-02T07:11:09Z</time>
      </trkpt>
      <trkpt lat="43.83044" lon="4.26964">
        <ele>197</ele>
        <time>2010-05-02T07:11:12Z</time>
      </trkpt>
      <trkpt lat="43.83044" lon="4.26964">
        <ele>197</ele>
        <time>2010-05-02T07:11:14Z</time>
      </trkpt>
      <trkpt lat="43.83044" lon="4.26964">
        <ele>197</ele>
        <time>2010-05-02T07:11:15Z</time>
      </trkpt>
      <trkpt lat="43.83061" lon="4.26963">
        <ele>200</ele>
        <time>2010-05-02T07:11:16Z</time>
      </trkpt>
      <trkpt lat="43.83061" lon="4.26963">
        <ele>200</ele>
        <time>2010-05-02T07:11:17Z</time>
      </trkpt>
      <trkpt lat="43.83071" lon="4.26961">
        <ele>202</ele>
        <time>2010-05-02T07:11:19Z</time>
      </trkpt>
      <trkpt lat="43.83073" lon="4.2696">
        <ele>202</ele>
        <time>2010-05-02T07:11:20Z</time>
      </trkpt>
      <trkpt lat="43.83073" lon="4.2696">
        <ele>202</ele>
        <time>2010-05-02T07:11:22Z</time>
      </trkpt>
      <trkpt lat="43.83083" lon="4.2696">
        <ele>203</ele>
        <time>2010-05-02T07:11:23Z</time>
      </trkpt>
      <trkpt lat="43.83083" lon="4.2696">
        <ele>203</ele>
        <time>2010-05-02T07:11:25Z</time>
      </trkpt>
      <trkpt lat="43.83083" lon="4.2696">
        <ele>203</ele>
        <time>2010-05-02T07:11:27Z</time>
      </trkpt>
      <trkpt lat="43.83092" lon="4.26969">
        <ele>206</ele>
        <time>2010-05-02T07:11:28Z</time>
      </trkpt>
      <trkpt lat="43.83092" lon="4.26969">
        <ele>206</ele>
        <time>2010-05-02T07:11:30Z</time>
      </trkpt>
      <trkpt lat="43.83096" lon="4.2698">
        <ele>206</ele>
        <time>2010-05-02T07:11:31Z</time>
      </trkpt>
      <trkpt lat="43.83096" lon="4.2698">
        <ele>206</ele>
        <time>2010-05-02T07:11:33Z</time>
      </trkpt>
      <trkpt lat="43.83096" lon="4.2698">
        <ele>206</ele>
        <time>2010-05-02T07:11:34Z</time>
      </trkpt>
      <trkpt lat="43.83099" lon="4.26993">
        <ele>207</ele>
        <time>2010-05-02T07:11:36Z</time>
      </trkpt>
      <trkpt lat="43.83099" lon="4.26993">
        <ele>207</ele>
        <time>2010-05-02T07:11:37Z</time>
      </trkpt>
      <trkpt lat="43.83099" lon="4.26993">
        <ele>207</ele>
        <time>2010-05-02T07:11:39Z</time>
      </trkpt>
      <trkpt lat="43.831" lon="4.27005">
        <ele>207</ele>
        <time>2010-05-02T07:11:42Z</time>
      </trkpt>
      <trkpt lat="43.831" lon="4.27005">
        <ele>207</ele>
        <time>2010-05-02T07:11:42Z</time>
      </trkpt>
      <trkpt lat="43.83101" lon="4.27018">
        <ele>208</ele>
        <time>2010-05-02T07:11:44Z</time>
      </trkpt>
      <trkpt lat="43.83101" lon="4.27018">
        <ele>208</ele>
        <time>2010-05-02T07:11:45Z</time>
      </trkpt>
      <trkpt lat="43.83102" lon="4.27032">
        <ele>209</ele>
        <time>2010-05-02T07:11:47Z</time>
      </trkpt>
      <trkpt lat="43.83102" lon="4.27032">
        <ele>209</ele>
        <time>2010-05-02T07:11:48Z</time>
      </trkpt>
      <trkpt lat="43.83102" lon="4.27032">
        <ele>209</ele>
        <time>2010-05-02T07:11:50Z</time>
      </trkpt>
      <trkpt lat="43.83102" lon="4.27046">
        <ele>208</ele>
        <time>2010-05-02T07:11:52Z</time>
      </trkpt>
      <trkpt lat="43.83102" lon="4.27046">
        <ele>208</ele>
        <time>2010-05-02T07:11:53Z</time>
      </trkpt>
      <trkpt lat="43.83102" lon="4.27046">
        <ele>208</ele>
        <time>2010-05-02T07:11:54Z</time>
      </trkpt>
      <trkpt lat="43.83102" lon="4.27046">
        <ele>208</ele>
        <time>2010-05-02T07:11:56Z</time>
      </trkpt>
      <trkpt lat="43.83101" lon="4.27059">
        <ele>209</ele>
        <time>2010-05-02T07:11:57Z</time>
      </trkpt>
      <trkpt lat="43.83101" lon="4.27059">
        <ele>209</ele>
        <time>2010-05-02T07:11:59Z</time>
      </trkpt>
      <trkpt lat="43.83101" lon="4.27059">
        <ele>209</ele>
        <time>2010-05-02T07:12:01Z</time>
      </trkpt>
      <trkpt lat="43.83101" lon="4.27059">
        <ele>209</ele>
        <time>2010-05-02T07:12:02Z</time>
      </trkpt>
      <trkpt lat="43.83101" lon="4.27059">
        <ele>209</ele>
        <time>2010-05-02T07:12:04Z</time>
      </trkpt>
      <trkpt lat="43.83104" lon="4.2707">
        <ele>211</ele>
        <time>2010-05-02T07:12:05Z</time>
      </trkpt>
      <trkpt lat="43.83104" lon="4.2707">
        <ele>211</ele>
        <time>2010-05-02T07:12:07Z</time>
      </trkpt>
      <trkpt lat="43.83104" lon="4.2707">
        <ele>211</ele>
        <time>2010-05-02T07:12:09Z</time>
      </trkpt>
      <trkpt lat="43.83112" lon="4.27075">
        <ele>213</ele>
        <time>2010-05-02T07:12:10Z</time>
      </trkpt>
      <trkpt lat="43.83114" lon="4.27075">
        <ele>214</ele>
        <time>2010-05-02T07:12:12Z</time>
      </trkpt>
      <trkpt lat="43.83115" lon="4.27075">
        <ele>214</ele>
        <time>2010-05-02T07:12:14Z</time>
      </trkpt>
      <trkpt lat="43.83123" lon="4.27076">
        <ele>215</ele>
        <time>2010-05-02T07:12:16Z</time>
      </trkpt>
      <trkpt lat="43.83126" lon="4.27075">
        <ele>215</ele>
        <time>2010-05-02T07:12:17Z</time>
      </trkpt>
      <trkpt lat="43.83128" lon="4.27075">
        <ele>216</ele>
        <time>2010-05-02T07:12:19Z</time>
      </trkpt>
      <trkpt lat="43.83134" lon="4.27073">
        <ele>218</ele>
        <time>2010-05-02T07:12:21Z</time>
      </trkpt>
      <trkpt lat="43.83134" lon="4.27073">
        <ele>218</ele>
        <time>2010-05-02T07:12:22Z</time>
      </trkpt>
      <trkpt lat="43.8314" lon="4.27071">
        <ele>219</ele>
        <time>2010-05-02T07:12:24Z</time>
      </trkpt>
      <trkpt lat="43.8314" lon="4.27071">
        <ele>219</ele>
        <time>2010-05-02T07:12:25Z</time>
      </trkpt>
      <trkpt lat="43.8314" lon="4.27071">
        <ele>219</ele>
        <time>2010-05-02T07:12:27Z</time>
      </trkpt>
      <trkpt lat="43.83149" lon="4.27068">
        <ele>219</ele>
        <time>2010-05-02T07:12:29Z</time>
      </trkpt>
      <trkpt lat="43.83149" lon="4.27068">
        <ele>219</ele>
        <time>2010-05-02T07:12:30Z</time>
      </trkpt>
      <trkpt lat="43.83149" lon="4.27068">
        <ele>219</ele>
        <time>2010-05-02T07:12:31Z</time>
      </trkpt>
      <trkpt lat="43.83149" lon="4.27068">
        <ele>219</ele>
        <time>2010-05-02T07:12:33Z</time>
      </trkpt>
      <trkpt lat="43.83149" lon="4.27068">
        <ele>219</ele>
        <time>2010-05-02T07:12:35Z</time>
      </trkpt>
      <trkpt lat="43.83158" lon="4.27068">
        <ele>220</ele>
        <time>2010-05-02T07:12:37Z</time>
      </trkpt>
      <trkpt lat="43.83158" lon="4.27068">
        <ele>220</ele>
        <time>2010-05-02T07:12:38Z</time>
      </trkpt>
      <trkpt lat="43.83163" lon="4.27067">
        <ele>221</ele>
        <time>2010-05-02T07:12:40Z</time>
      </trkpt>
      <trkpt lat="43.83163" lon="4.27067">
        <ele>221</ele>
        <time>2010-05-02T07:12:42Z</time>
      </trkpt>
      <trkpt lat="43.83168" lon="4.27067">
        <ele>222</ele>
        <time>2010-05-02T07:12:43Z</time>
      </trkpt>
      <trkpt lat="43.83168" lon="4.27067">
        <ele>222</ele>
        <time>2010-05-02T07:12:45Z</time>
      </trkpt>
      <trkpt lat="43.83168" lon="4.27067">
        <ele>222</ele>
        <time>2010-05-02T07:12:46Z</time>
      </trkpt>
      <trkpt lat="43.83175" lon="4.27066">
        <ele>224</ele>
        <time>2010-05-02T07:12:49Z</time>
      </trkpt>
      <trkpt lat="43.83179" lon="4.27065">
        <ele>225</ele>
        <time>2010-05-02T07:12:50Z</time>
      </trkpt>
      <trkpt lat="43.83179" lon="4.27065">
        <ele>225</ele>
        <time>2010-05-02T07:12:52Z</time>
      </trkpt>
      <trkpt lat="43.83179" lon="4.27065">
        <ele>225</ele>
        <time>2010-05-02T07:12:54Z</time>
      </trkpt>
      <trkpt lat="43.83185" lon="4.27063">
        <ele>226</ele>
        <time>2010-05-02T07:12:54Z</time>
      </trkpt>
      <trkpt lat="43.83186" lon="4.27063">
        <ele>226</ele>
        <time>2010-05-02T07:12:57Z</time>
      </trkpt>
      <trkpt lat="43.83186" lon="4.27063">
        <ele>226</ele>
        <time>2010-05-02T07:12:58Z</time>
      </trkpt>
      <trkpt lat="43.83196" lon="4.27061">
        <ele>228</ele>
        <time>2010-05-02T07:13:00Z</time>
      </trkpt>
      <trkpt lat="43.83196" lon="4.27061">
        <ele>228</ele>
        <time>2010-05-02T07:13:01Z</time>
      </trkpt>
      <trkpt lat="43.83196" lon="4.27061">
        <ele>228</ele>
        <time>2010-05-02T07:13:03Z</time>
      </trkpt>
      <trkpt lat="43.83207" lon="4.27058">
        <ele>230</ele>
        <time>2010-05-02T07:13:05Z</time>
      </trkpt>
      <trkpt lat="43.8321" lon="4.27057">
        <ele>230</ele>
        <time>2010-05-02T07:13:06Z</time>
      </trkpt>
      <trkpt lat="43.83214" lon="4.27055">
        <ele>231</ele>
        <time>2010-05-02T07:13:08Z</time>
      </trkpt>
      <trkpt lat="43.83216" lon="4.27054">
        <ele>231</ele>
        <time>2010-05-02T07:13:10Z</time>
      </trkpt>
      <trkpt lat="43.83221" lon="4.27051">
        <ele>230</ele>
        <time>2010-05-02T07:13:12Z</time>
      </trkpt>
      <trkpt lat="43.83225" lon="4.27048">
        <ele>230</ele>
        <time>2010-05-02T07:13:13Z</time>
      </trkpt>
      <trkpt lat="43.83226" lon="4.27048">
        <ele>231</ele>
        <time>2010-05-02T07:13:15Z</time>
      </trkpt>
      <trkpt lat="43.83233" lon="4.27042">
        <ele>231</ele>
        <time>2010-05-02T07:13:16Z</time>
      </trkpt>
      <trkpt lat="43.83238" lon="4.27038">
        <ele>231</ele>
        <time>2010-05-02T07:13:18Z</time>
      </trkpt>
      <trkpt lat="43.83241" lon="4.27035">
        <ele>231</ele>
        <time>2010-05-02T07:13:20Z</time>
      </trkpt>
      <trkpt lat="43.83245" lon="4.27031">
        <ele>232</ele>
        <time>2010-05-02T07:13:21Z</time>
      </trkpt>
      <trkpt lat="43.8325" lon="4.27025">
        <ele>232</ele>
        <time>2010-05-02T07:13:23Z</time>
      </trkpt>
      <trkpt lat="43.83253" lon="4.27021">
        <ele>232</ele>
        <time>2010-05-02T07:13:25Z</time>
      </trkpt>
      <trkpt lat="43.83257" lon="4.27015">
        <ele>233</ele>
        <time>2010-05-02T07:13:27Z</time>
      </trkpt>
      <trkpt lat="43.8326" lon="4.2701">
        <ele>233</ele>
        <time>2010-05-02T07:13:28Z</time>
      </trkpt>
      <trkpt lat="43.83263" lon="4.27006">
        <ele>233</ele>
        <time>2010-05-02T07:13:30Z</time>
      </trkpt>
      <trkpt lat="43.83267" lon="4.26999">
        <ele>234</ele>
        <time>2010-05-02T07:13:32Z</time>
      </trkpt>
      <trkpt lat="43.83269" lon="4.26994">
        <ele>235</ele>
        <time>2010-05-02T07:13:33Z</time>
      </trkpt>
      <trkpt lat="43.83272" lon="4.2699">
        <ele>235</ele>
        <time>2010-05-02T07:13:35Z</time>
      </trkpt>
      <trkpt lat="43.83277" lon="4.26985">
        <ele>236</ele>
        <time>2010-05-02T07:13:37Z</time>
      </trkpt>
      <trkpt lat="43.8328" lon="4.26981">
        <ele>237</ele>
        <time>2010-05-02T07:13:38Z</time>
      </trkpt>
      <trkpt lat="43.83285" lon="4.26977">
        <ele>237</ele>
        <time>2010-05-02T07:13:40Z</time>
      </trkpt>
      <trkpt lat="43.83289" lon="4.26974">
        <ele>238</ele>
        <time>2010-05-02T07:13:42Z</time>
      </trkpt>
      <trkpt lat="43.83292" lon="4.26972">
        <ele>238</ele>
        <time>2010-05-02T07:13:43Z</time>
      </trkpt>
      <trkpt lat="43.83296" lon="4.2697">
        <ele>238</ele>
        <time>2010-05-02T07:13:45Z</time>
      </trkpt>
      <trkpt lat="43.833" lon="4.26968">
        <ele>239</ele>
        <time>2010-05-02T07:13:46Z</time>
      </trkpt>
      <trkpt lat="43.83304" lon="4.26967">
        <ele>239</ele>
        <time>2010-05-02T07:13:48Z</time>
      </trkpt>
      <trkpt lat="43.83307" lon="4.26966">
        <ele>240</ele>
        <time>2010-05-02T07:13:50Z</time>
      </trkpt>
      <trkpt lat="43.83312" lon="4.26964">
        <ele>240</ele>
        <time>2010-05-02T07:13:52Z</time>
      </trkpt>
      <trkpt lat="43.83316" lon="4.26963">
        <ele>240</ele>
        <time>2010-05-02T07:13:54Z</time>
      </trkpt>
      <trkpt lat="43.83319" lon="4.26962">
        <ele>240</ele>
        <time>2010-05-02T07:13:55Z</time>
      </trkpt>
      <trkpt lat="43.83323" lon="4.26962">
        <ele>239</ele>
        <time>2010-05-02T07:13:57Z</time>
      </trkpt>
      <trkpt lat="43.8333" lon="4.2696">
        <ele>239</ele>
        <time>2010-05-02T07:13:59Z</time>
      </trkpt>
      <trkpt lat="43.83336" lon="4.26956">
        <ele>240</ele>
        <time>2010-05-02T07:14:01Z</time>
      </trkpt>
      <trkpt lat="43.8334" lon="4.26954">
        <ele>240</ele>
        <time>2010-05-02T07:14:02Z</time>
      </trkpt>
      <trkpt lat="43.83345" lon="4.2695">
        <ele>240</ele>
        <time>2010-05-02T07:14:04Z</time>
      </trkpt>
      <trkpt lat="43.8335" lon="4.26945">
        <ele>240</ele>
        <time>2010-05-02T07:14:06Z</time>
      </trkpt>
      <trkpt lat="43.83354" lon="4.2694">
        <ele>239</ele>
        <time>2010-05-02T07:14:07Z</time>
      </trkpt>
      <trkpt lat="43.8336" lon="4.26933">
        <ele>240</ele>
        <time>2010-05-02T07:14:10Z</time>
      </trkpt>
      <trkpt lat="43.83364" lon="4.26928">
        <ele>240</ele>
        <time>2010-05-02T07:14:11Z</time>
      </trkpt>
      <trkpt lat="43.83369" lon="4.26921">
        <ele>240</ele>
        <time>2010-05-02T07:14:13Z</time>
      </trkpt>
      <trkpt lat="43.83373" lon="4.26916">
        <ele>240</ele>
        <time>2010-05-02T07:14:15Z</time>
      </trkpt>
      <trkpt lat="43.83378" lon="4.26907">
        <ele>239</ele>
        <time>2010-05-02T07:14:17Z</time>
      </trkpt>
      <trkpt lat="43.83381" lon="4.269">
        <ele>239</ele>
        <time>2010-05-02T07:14:18Z</time>
      </trkpt>
      <trkpt lat="43.83388" lon="4.26887">
        <ele>239</ele>
        <time>2010-05-02T07:14:20Z</time>
      </trkpt>
      <trkpt lat="43.83395" lon="4.26874">
        <ele>238</ele>
        <time>2010-05-02T07:14:22Z</time>
      </trkpt>
      <trkpt lat="43.83404" lon="4.26859">
        <ele>238</ele>
        <time>2010-05-02T07:14:24Z</time>
      </trkpt>
      <trkpt lat="43.83414" lon="4.26845">
        <ele>236</ele>
        <time>2010-05-02T07:14:26Z</time>
      </trkpt>
      <trkpt lat="43.83421" lon="4.26836">
        <ele>236</ele>
        <time>2010-05-02T07:14:27Z</time>
      </trkpt>
      <trkpt lat="43.83432" lon="4.26823">
        <ele>234</ele>
        <time>2010-05-02T07:14:29Z</time>
      </trkpt>
      <trkpt lat="43.83439" lon="4.26815">
        <ele>234</ele>
        <time>2010-05-02T07:14:31Z</time>
      </trkpt>
      <trkpt lat="43.83449" lon="4.26801">
        <ele>233</ele>
        <time>2010-05-02T07:14:33Z</time>
      </trkpt>
      <trkpt lat="43.83453" lon="4.26791">
        <ele>232</ele>
        <time>2010-05-02T07:14:35Z</time>
      </trkpt>
      <trkpt lat="43.83456" lon="4.26776">
        <ele>232</ele>
        <time>2010-05-02T07:14:37Z</time>
      </trkpt>
      <trkpt lat="43.83459" lon="4.26766">
        <ele>231</ele>
        <time>2010-05-02T07:14:38Z</time>
      </trkpt>
      <trkpt lat="43.83462" lon="4.26753">
        <ele>230</ele>
        <time>2010-05-02T07:14:40Z</time>
      </trkpt>
      <trkpt lat="43.83465" lon="4.26742">
        <ele>231</ele>
        <time>2010-05-02T07:14:42Z</time>
      </trkpt>
      <trkpt lat="43.83467" lon="4.26736">
        <ele>231</ele>
        <time>2010-05-02T07:14:44Z</time>
      </trkpt>
      <trkpt lat="43.83471" lon="4.26726">
        <ele>231</ele>
        <time>2010-05-02T07:14:46Z</time>
      </trkpt>
      <trkpt lat="43.83472" lon="4.26721">
        <ele>231</ele>
        <time>2010-05-02T07:14:47Z</time>
      </trkpt>
      <trkpt lat="43.83475" lon="4.26717">
        <ele>231</ele>
        <time>2010-05-02T07:14:49Z</time>
      </trkpt>
      <trkpt lat="43.8348" lon="4.26707">
        <ele>232</ele>
        <time>2010-05-02T07:14:51Z</time>
      </trkpt>
      <trkpt lat="43.83486" lon="4.26696">
        <ele>233</ele>
        <time>2010-05-02T07:14:53Z</time>
      </trkpt>
      <trkpt lat="43.83489" lon="4.26689">
        <ele>233</ele>
        <time>2010-05-02T07:14:55Z</time>
      </trkpt>
      <trkpt lat="43.83494" lon="4.26677">
        <ele>233</ele>
        <time>2010-05-02T07:14:57Z</time>
      </trkpt>
      <trkpt lat="43.83498" lon="4.26666">
        <ele>233</ele>
        <time>2010-05-02T07:14:59Z</time>
      </trkpt>
      <trkpt lat="43.835" lon="4.26659">
        <ele>234</ele>
        <time>2010-05-02T07:15:00Z</time>
      </trkpt>
      <trkpt lat="43.83508" lon="4.26644">
        <ele>234</ele>
        <time>2010-05-02T07:15:03Z</time>
      </trkpt>
      <trkpt lat="43.83513" lon="4.26635">
        <ele>235</ele>
        <time>2010-05-02T07:15:04Z</time>
      </trkpt>
      <trkpt lat="43.8352" lon="4.26624">
        <ele>235</ele>
        <time>2010-05-02T07:15:06Z</time>
      </trkpt>
      <trkpt lat="43.83531" lon="4.26608">
        <ele>235</ele>
        <time>2010-05-02T07:15:08Z</time>
      </trkpt>
      <trkpt lat="43.83541" lon="4.26595">
        <ele>235</ele>
        <time>2010-05-02T07:15:10Z</time>
      </trkpt>
      <trkpt lat="43.83547" lon="4.26586">
        <ele>235</ele>
        <time>2010-05-02T07:15:11Z</time>
      </trkpt>
      <trkpt lat="43.83556" lon="4.26573">
        <ele>235</ele>
        <time>2010-05-02T07:15:13Z</time>
      </trkpt>
      <trkpt lat="43.83561" lon="4.26566">
        <ele>234</ele>
        <time>2010-05-02T07:15:15Z</time>
      </trkpt>
      <trkpt lat="43.83567" lon="4.26556">
        <ele>232</ele>
        <time>2010-05-02T07:15:17Z</time>
      </trkpt>
      <trkpt lat="43.83572" lon="4.26547">
        <ele>232</ele>
        <time>2010-05-02T07:15:19Z</time>
      </trkpt>
      <trkpt lat="43.83576" lon="4.2654">
        <ele>232</ele>
        <time>2010-05-02T07:15:21Z</time>
      </trkpt>
      <trkpt lat="43.83582" lon="4.2653">
        <ele>233</ele>
        <time>2010-05-02T07:15:23Z</time>
      </trkpt>
      <trkpt lat="43.83586" lon="4.26522">
        <ele>233</ele>
        <time>2010-05-02T07:15:24Z</time>
      </trkpt>
      <trkpt lat="43.83592" lon="4.26511">
        <ele>233</ele>
        <time>2010-05-02T07:15:26Z</time>
      </trkpt>
      <trkpt lat="43.83601" lon="4.26496">
        <ele>233</ele>
        <time>2010-05-02T07:15:30Z</time>
      </trkpt>
      <trkpt lat="43.83603" lon="4.26493">
        <ele>233</ele>
        <time>2010-05-02T07:15:31Z</time>
      </trkpt>
      <trkpt lat="43.83607" lon="4.26487">
        <ele>234</ele>
        <time>2010-05-02T07:15:32Z</time>
      </trkpt>
      <trkpt lat="43.8361" lon="4.26481">
        <ele>234</ele>
        <time>2010-05-02T07:15:34Z</time>
      </trkpt>
      <trkpt lat="43.83616" lon="4.26472">
        <ele>235</ele>
        <time>2010-05-02T07:15:36Z</time>
      </trkpt>
      <trkpt lat="43.83619" lon="4.26466">
        <ele>235</ele>
        <time>2010-05-02T07:15:37Z</time>
      </trkpt>
      <trkpt lat="43.83624" lon="4.26457">
        <ele>235</ele>
        <time>2010-05-02T07:15:39Z</time>
      </trkpt>
      <trkpt lat="43.83627" lon="4.26451">
        <ele>236</ele>
        <time>2010-05-02T07:15:41Z</time>
      </trkpt>
      <trkpt lat="43.83632" lon="4.26441">
        <ele>236</ele>
        <time>2010-05-02T07:15:43Z</time>
      </trkpt>
      <trkpt lat="43.83635" lon="4.26434">
        <ele>237</ele>
        <time>2010-05-02T07:15:44Z</time>
      </trkpt>
      <trkpt lat="43.83638" lon="4.26428">
        <ele>237</ele>
        <time>2010-05-02T07:15:46Z</time>
      </trkpt>
      <trkpt lat="43.83642" lon="4.2642">
        <ele>237</ele>
        <time>2010-05-02T07:15:48Z</time>
      </trkpt>
      <trkpt lat="43.83645" lon="4.26414">
        <ele>238</ele>
        <time>2010-05-02T07:15:49Z</time>
      </trkpt>
      <trkpt lat="43.83649" lon="4.26407">
        <ele>239</ele>
        <time>2010-05-02T07:15:52Z</time>
      </trkpt>
      <trkpt lat="43.83654" lon="4.26401">
        <ele>240</ele>
        <time>2010-05-02T07:15:53Z</time>
      </trkpt>
      <trkpt lat="43.83661" lon="4.26394">
        <ele>241</ele>
        <time>2010-05-02T07:15:55Z</time>
      </trkpt>
      <trkpt lat="43.83667" lon="4.26388">
        <ele>241</ele>
        <time>2010-05-02T07:15:57Z</time>
      </trkpt>
      <trkpt lat="43.83677" lon="4.26379">
        <ele>242</ele>
        <time>2010-05-02T07:15:59Z</time>
      </trkpt>
      <trkpt lat="43.83686" lon="4.26369">
        <ele>242</ele>
        <time>2010-05-02T07:16:01Z</time>
      </trkpt>
      <trkpt lat="43.837" lon="4.26352">
        <ele>242</ele>
        <time>2010-05-02T07:16:05Z</time>
      </trkpt>
      <trkpt lat="43.83706" lon="4.26343">
        <ele>241</ele>
        <time>2010-05-02T07:16:07Z</time>
      </trkpt>
      <trkpt lat="43.83712" lon="4.26335">
        <ele>241</ele>
        <time>2010-05-02T07:16:09Z</time>
      </trkpt>
      <trkpt lat="43.83718" lon="4.26325">
        <ele>241</ele>
        <time>2010-05-02T07:16:11Z</time>
      </trkpt>
      <trkpt lat="43.83726" lon="4.26315">
        <ele>240</ele>
        <time>2010-05-02T07:16:13Z</time>
      </trkpt>
      <trkpt lat="43.83729" lon="4.26312">
        <ele>240</ele>
        <time>2010-05-02T07:16:14Z</time>
      </trkpt>
      <trkpt lat="43.83732" lon="4.26307">
        <ele>240</ele>
        <time>2010-05-02T07:16:15Z</time>
      </trkpt>
      <trkpt lat="43.83741" lon="4.26294">
        <ele>240</ele>
        <time>2010-05-02T07:16:17Z</time>
      </trkpt>
      <trkpt lat="43.8375" lon="4.26281">
        <ele>239</ele>
        <time>2010-05-02T07:16:19Z</time>
      </trkpt>
      <trkpt lat="43.83757" lon="4.26272">
        <ele>239</ele>
        <time>2010-05-02T07:16:21Z</time>
      </trkpt>
      <trkpt lat="43.83765" lon="4.2626">
        <ele>239</ele>
        <time>2010-05-02T07:16:23Z</time>
      </trkpt>
      <trkpt lat="43.8377" lon="4.26253">
        <ele>238</ele>
        <time>2010-05-02T07:16:24Z</time>
      </trkpt>
      <trkpt lat="43.83777" lon="4.26242">
        <ele>239</ele>
        <time>2010-05-02T07:16:26Z</time>
      </trkpt>
      <trkpt lat="43.83784" lon="4.26233">
        <ele>239</ele>
        <time>2010-05-02T07:16:29Z</time>
      </trkpt>
      <trkpt lat="43.83799" lon="4.26217">
        <ele>240</ele>
        <time>2010-05-02T07:16:32Z</time>
      </trkpt>
      <trkpt lat="43.83809" lon="4.26208">
        <ele>239</ele>
        <time>2010-05-02T07:16:35Z</time>
      </trkpt>
      <trkpt lat="43.83819" lon="4.26199">
        <ele>239</ele>
        <time>2010-05-02T07:16:37Z</time>
      </trkpt>
      <trkpt lat="43.83827" lon="4.26193">
        <ele>239</ele>
        <time>2010-05-02T07:16:38Z</time>
      </trkpt>
      <trkpt lat="43.83842" lon="4.26186">
        <ele>239</ele>
        <time>2010-05-02T07:16:41Z</time>
      </trkpt>
      <trkpt lat="43.83847" lon="4.26185">
        <ele>239</ele>
        <time>2010-05-02T07:16:42Z</time>
      </trkpt>
      <trkpt lat="43.83853" lon="4.26184">
        <ele>239</ele>
        <time>2010-05-02T07:16:42Z</time>
      </trkpt>
      <trkpt lat="43.83869" lon="4.26182">
        <ele>239</ele>
        <time>2010-05-02T07:16:45Z</time>
      </trkpt>
      <trkpt lat="43.83878" lon="4.26181">
        <ele>240</ele>
        <time>2010-05-02T07:16:46Z</time>
      </trkpt>
      <trkpt lat="43.83893" lon="4.26179">
        <ele>241</ele>
        <time>2010-05-02T07:16:48Z</time>
      </trkpt>
      <trkpt lat="43.83902" lon="4.26176">
        <ele>241</ele>
        <time>2010-05-02T07:16:50Z</time>
      </trkpt>
      <trkpt lat="43.83915" lon="4.26168">
        <ele>242</ele>
        <time>2010-05-02T07:16:52Z</time>
      </trkpt>
      <trkpt lat="43.83923" lon="4.26163">
        <ele>242</ele>
        <time>2010-05-02T07:16:54Z</time>
      </trkpt>
      <trkpt lat="43.83934" lon="4.26154">
        <ele>241</ele>
        <time>2010-05-02T07:16:56Z</time>
      </trkpt>
      <trkpt lat="43.83942" lon="4.2615">
        <ele>242</ele>
        <time>2010-05-02T07:16:58Z</time>
      </trkpt>
      <trkpt lat="43.83955" lon="4.26145">
        <ele>243</ele>
        <time>2010-05-02T07:17:00Z</time>
      </trkpt>
      <trkpt lat="43.83967" lon="4.26143">
        <ele>243</ele>
        <time>2010-05-02T07:17:02Z</time>
      </trkpt>
      <trkpt lat="43.83976" lon="4.26141">
        <ele>243</ele>
        <time>2010-05-02T07:17:04Z</time>
      </trkpt>
      <trkpt lat="43.83989" lon="4.26138">
        <ele>243</ele>
        <time>2010-05-02T07:17:06Z</time>
      </trkpt>
      <trkpt lat="43.83998" lon="4.26137">
        <ele>243</ele>
        <time>2010-05-02T07:17:08Z</time>
      </trkpt>
      <trkpt lat="43.84012" lon="4.26134">
        <ele>242</ele>
        <time>2010-05-02T07:17:10Z</time>
      </trkpt>
      <trkpt lat="43.84026" lon="4.2613">
        <ele>243</ele>
        <time>2010-05-02T07:17:12Z</time>
      </trkpt>
      <trkpt lat="43.84035" lon="4.26127">
        <ele>243</ele>
        <time>2010-05-02T07:17:14Z</time>
      </trkpt>
      <trkpt lat="43.84049" lon="4.26123">
        <ele>243</ele>
        <time>2010-05-02T07:17:16Z</time>
      </trkpt>
      <trkpt lat="43.84057" lon="4.2612">
        <ele>244</ele>
        <time>2010-05-02T07:17:18Z</time>
      </trkpt>
      <trkpt lat="43.8407" lon="4.26118">
        <ele>243</ele>
        <time>2010-05-02T07:17:20Z</time>
      </trkpt>
      <trkpt lat="43.84079" lon="4.26115">
        <ele>242</ele>
        <time>2010-05-02T07:17:21Z</time>
      </trkpt>
      <trkpt lat="43.84092" lon="4.26111">
        <ele>241</ele>
        <time>2010-05-02T07:17:24Z</time>
      </trkpt>
      <trkpt lat="43.84106" lon="4.26109">
        <ele>241</ele>
        <time>2010-05-02T07:17:26Z</time>
      </trkpt>
      <trkpt lat="43.84116" lon="4.26108">
        <ele>241</ele>
        <time>2010-05-02T07:17:27Z</time>
      </trkpt>
      <trkpt lat="43.84129" lon="4.26107">
        <ele>242</ele>
        <time>2010-05-02T07:17:30Z</time>
      </trkpt>
      <trkpt lat="43.84138" lon="4.26106">
        <ele>242</ele>
        <time>2010-05-02T07:17:31Z</time>
      </trkpt>
      <trkpt lat="43.84152" lon="4.26105">
        <ele>241</ele>
        <time>2010-05-02T07:17:33Z</time>
      </trkpt>
      <trkpt lat="43.84161" lon="4.26105">
        <ele>242</ele>
        <time>2010-05-02T07:17:35Z</time>
      </trkpt>
      <trkpt lat="43.84171" lon="4.26106">
        <ele>242</ele>
        <time>2010-05-02T07:17:37Z</time>
      </trkpt>
      <trkpt lat="43.84185" lon="4.26106">
        <ele>241</ele>
        <time>2010-05-02T07:17:39Z</time>
      </trkpt>
      <trkpt lat="43.84201" lon="4.26106">
        <ele>240</ele>
        <time>2010-05-02T07:17:41Z</time>
      </trkpt>
      <trkpt lat="43.84211" lon="4.26106">
        <ele>240</ele>
        <time>2010-05-02T07:17:43Z</time>
      </trkpt>
      <trkpt lat="43.84226" lon="4.26109">
        <ele>240</ele>
        <time>2010-05-02T07:17:45Z</time>
      </trkpt>
      <trkpt lat="43.84245" lon="4.26117">
        <ele>240</ele>
        <time>2010-05-02T07:17:49Z</time>
      </trkpt>
      <trkpt lat="43.84252" lon="4.2612">
        <ele>240</ele>
        <time>2010-05-02T07:17:50Z</time>
      </trkpt>
      <trkpt lat="43.84262" lon="4.26123">
        <ele>240</ele>
        <time>2010-05-02T07:17:53Z</time>
      </trkpt>
      <trkpt lat="43.84271" lon="4.26126">
        <ele>240</ele>
        <time>2010-05-02T07:17:55Z</time>
      </trkpt>
      <trkpt lat="43.84277" lon="4.26127">
        <ele>240</ele>
        <time>2010-05-02T07:17:56Z</time>
      </trkpt>
      <trkpt lat="43.8428" lon="4.26127">
        <ele>240</ele>
        <time>2010-05-02T07:17:57Z</time>
      </trkpt>
      <trkpt lat="43.84293" lon="4.26128">
        <ele>243</ele>
        <time>2010-05-02T07:18:01Z</time>
      </trkpt>
      <trkpt lat="43.84297" lon="4.26128">
        <ele>243</ele>
        <time>2010-05-02T07:18:02Z</time>
      </trkpt>
      <trkpt lat="43.84305" lon="4.26129">
        <ele>244</ele>
        <time>2010-05-02T07:18:05Z</time>
      </trkpt>
      <trkpt lat="43.84312" lon="4.2613">
        <ele>244</ele>
        <time>2010-05-02T07:18:07Z</time>
      </trkpt>
      <trkpt lat="43.84319" lon="4.2613">
        <ele>245</ele>
        <time>2010-05-02T07:18:09Z</time>
      </trkpt>
      <trkpt lat="43.84321" lon="4.2613">
        <ele>245</ele>
        <time>2010-05-02T07:18:10Z</time>
      </trkpt>
      <trkpt lat="43.84334" lon="4.2613">
        <ele>246</ele>
        <time>2010-05-02T07:18:14Z</time>
      </trkpt>
      <trkpt lat="43.84339" lon="4.2613">
        <ele>247</ele>
        <time>2010-05-02T07:18:15Z</time>
      </trkpt>
      <trkpt lat="43.84347" lon="4.26131">
        <ele>248</ele>
        <time>2010-05-02T07:18:18Z</time>
      </trkpt>
      <trkpt lat="43.84355" lon="4.26133">
        <ele>249</ele>
        <time>2010-05-02T07:18:20Z</time>
      </trkpt>
      <trkpt lat="43.84363" lon="4.26134">
        <ele>249</ele>
        <time>2010-05-02T07:18:22Z</time>
      </trkpt>
      <trkpt lat="43.84365" lon="4.26135">
        <ele>249</ele>
        <time>2010-05-02T07:18:23Z</time>
      </trkpt>
      <trkpt lat="43.84376" lon="4.26137">
        <ele>248</ele>
        <time>2010-05-02T07:18:26Z</time>
      </trkpt>
      <trkpt lat="43.84383" lon="4.26138">
        <ele>248</ele>
        <time>2010-05-02T07:18:29Z</time>
      </trkpt>
      <trkpt lat="43.84388" lon="4.26138">
        <ele>248</ele>
        <time>2010-05-02T07:18:30Z</time>
      </trkpt>
      <trkpt lat="43.84395" lon="4.26139">
        <ele>248</ele>
        <time>2010-05-02T07:18:32Z</time>
      </trkpt>
      <trkpt lat="43.84402" lon="4.2614">
        <ele>247</ele>
        <time>2010-05-02T07:18:35Z</time>
      </trkpt>
      <trkpt lat="43.84405" lon="4.2614">
        <ele>246</ele>
        <time>2010-05-02T07:18:36Z</time>
      </trkpt>
      <trkpt lat="43.84414" lon="4.2614">
        <ele>246</ele>
        <time>2010-05-02T07:18:39Z</time>
      </trkpt>
      <trkpt lat="43.84418" lon="4.2614">
        <ele>247</ele>
        <time>2010-05-02T07:18:40Z</time>
      </trkpt>
      <trkpt lat="43.84425" lon="4.2614">
        <ele>248</ele>
        <time>2010-05-02T07:18:42Z</time>
      </trkpt>
      <trkpt lat="43.84431" lon="4.2614">
        <ele>248</ele>
        <time>2010-05-02T07:18:45Z</time>
      </trkpt>
      <trkpt lat="43.84438" lon="4.26139">
        <ele>249</ele>
        <time>2010-05-02T07:18:47Z</time>
      </trkpt>
      <trkpt lat="43.8444" lon="4.26139">
        <ele>249</ele>
        <time>2010-05-02T07:18:48Z</time>
      </trkpt>
      <trkpt lat="43.84444" lon="4.26139">
        <ele>249</ele>
        <time>2010-05-02T07:18:49Z</time>
      </trkpt>
      <trkpt lat="43.84449" lon="4.2614">
        <ele>248</ele>
        <time>2010-05-02T07:18:51Z</time>
      </trkpt>
      <trkpt lat="43.84455" lon="4.26139">
        <ele>248</ele>
        <time>2010-05-02T07:18:53Z</time>
      </trkpt>
      <trkpt lat="43.84464" lon="4.26139">
        <ele>248</ele>
        <time>2010-05-02T07:18:57Z</time>
      </trkpt>
      <trkpt lat="43.84469" lon="4.26138">
        <ele>248</ele>
        <time>2010-05-02T07:18:59Z</time>
      </trkpt>
      <trkpt lat="43.84472" lon="4.26137">
        <ele>248</ele>
        <time>2010-05-02T07:19:00Z</time>
      </trkpt>
      <trkpt lat="43.84477" lon="4.26134">
        <ele>250</ele>
        <time>2010-05-02T07:19:03Z</time>
      </trkpt>
      <trkpt lat="43.84479" lon="4.26133">
        <ele>250</ele>
        <time>2010-05-02T07:19:05Z</time>
      </trkpt>
      <trkpt lat="43.84484" lon="4.2613">
        <ele>251</ele>
        <time>2010-05-02T07:19:06Z</time>
      </trkpt>
      <trkpt lat="43.84485" lon="4.26129">
        <ele>251</ele>
        <time>2010-05-02T07:19:07Z</time>
      </trkpt>
      <trkpt lat="43.84495" lon="4.26126">
        <ele>253</ele>
        <time>2010-05-02T07:19:11Z</time>
      </trkpt>
      <trkpt lat="43.84501" lon="4.26124">
        <ele>254</ele>
        <time>2010-05-02T07:19:13Z</time>
      </trkpt>
      <trkpt lat="43.84504" lon="4.26124">
        <ele>254</ele>
        <time>2010-05-02T07:19:15Z</time>
      </trkpt>
      <trkpt lat="43.8451" lon="4.26123">
        <ele>255</ele>
        <time>2010-05-02T07:19:17Z</time>
      </trkpt>
      <trkpt lat="43.84516" lon="4.26122">
        <ele>255</ele>
        <time>2010-05-02T07:19:19Z</time>
      </trkpt>
      <trkpt lat="43.84518" lon="4.26121">
        <ele>255</ele>
        <time>2010-05-02T07:19:20Z</time>
      </trkpt>
      <trkpt lat="43.84521" lon="4.26119">
        <ele>255</ele>
        <time>2010-05-02T07:19:21Z</time>
      </trkpt>
      <trkpt lat="43.84525" lon="4.26117">
        <ele>255</ele>
        <time>2010-05-02T07:19:23Z</time>
      </trkpt>
      <trkpt lat="43.84531" lon="4.26115">
        <ele>256</ele>
        <time>2010-05-02T07:19:25Z</time>
      </trkpt>
      <trkpt lat="43.84531" lon="4.26115">
        <ele>256</ele>
        <time>2010-05-02T07:19:27Z</time>
      </trkpt>
      <trkpt lat="43.84531" lon="4.26115">
        <ele>256</ele>
        <time>2010-05-02T07:19:29Z</time>
      </trkpt>
      <trkpt lat="43.84531" lon="4.26115">
        <ele>256</ele>
        <time>2010-05-02T07:19:31Z</time>
      </trkpt>
      <trkpt lat="43.84542" lon="4.26114">
        <ele>258</ele>
        <time>2010-05-02T07:19:34Z</time>
      </trkpt>
      <trkpt lat="43.84542" lon="4.26114">
        <ele>258</ele>
        <time>2010-05-02T07:19:37Z</time>
      </trkpt>
      <trkpt lat="43.84542" lon="4.26114">
        <ele>258</ele>
        <time>2010-05-02T07:19:37Z</time>
      </trkpt>
      <trkpt lat="43.84551" lon="4.26118">
        <ele>259</ele>
        <time>2010-05-02T07:19:41Z</time>
      </trkpt>
      <trkpt lat="43.84551" lon="4.26118">
        <ele>259</ele>
        <time>2010-05-02T07:19:43Z</time>
      </trkpt>
      <trkpt lat="43.84561" lon="4.26121">
        <ele>260</ele>
        <time>2010-05-02T07:19:45Z</time>
      </trkpt>
      <trkpt lat="43.84561" lon="4.26121">
        <ele>260</ele>
        <time>2010-05-02T07:19:48Z</time>
      </trkpt>
      <trkpt lat="43.84569" lon="4.26125">
        <ele>262</ele>
        <time>2010-05-02T07:19:50Z</time>
      </trkpt>
      <trkpt lat="43.84569" lon="4.26125">
        <ele>262</ele>
        <time>2010-05-02T07:19:50Z</time>
      </trkpt>
      <trkpt lat="43.84569" lon="4.26125">
        <ele>262</ele>
        <time>2010-05-02T07:19:53Z</time>
      </trkpt>
      <trkpt lat="43.84569" lon="4.26125">
        <ele>262</ele>
        <time>2010-05-02T07:19:54Z</time>
      </trkpt>
      <trkpt lat="43.84579" lon="4.26138">
        <ele>263</ele>
        <time>2010-05-02T07:19:58Z</time>
      </trkpt>
      <trkpt lat="43.84586" lon="4.26147">
        <ele>263</ele>
        <time>2010-05-02T07:20:00Z</time>
      </trkpt>
      <trkpt lat="43.84586" lon="4.26147">
        <ele>263</ele>
        <time>2010-05-02T07:20:02Z</time>
      </trkpt>
      <trkpt lat="43.84598" lon="4.26158">
        <ele>264</ele>
        <time>2010-05-02T07:20:04Z</time>
      </trkpt>
      <trkpt lat="43.8461" lon="4.26166">
        <ele>266</ele>
        <time>2010-05-02T07:20:06Z</time>
      </trkpt>
      <trkpt lat="43.84614" lon="4.26169">
        <ele>266</ele>
        <time>2010-05-02T07:20:08Z</time>
      </trkpt>
      <trkpt lat="43.84631" lon="4.2618">
        <ele>268</ele>
        <time>2010-05-02T07:20:11Z</time>
      </trkpt>
      <trkpt lat="43.84636" lon="4.26183">
        <ele>269</ele>
        <time>2010-05-02T07:20:13Z</time>
      </trkpt>
      <trkpt lat="43.84647" lon="4.2619">
        <ele>269</ele>
        <time>2010-05-02T07:20:16Z</time>
      </trkpt>
      <trkpt lat="43.84655" lon="4.26197">
        <ele>269</ele>
        <time>2010-05-02T07:20:18Z</time>
      </trkpt>
      <trkpt lat="43.84657" lon="4.26199">
        <ele>269</ele>
        <time>2010-05-02T07:20:19Z</time>
      </trkpt>
      <trkpt lat="43.84668" lon="4.26207">
        <ele>271</ele>
        <time>2010-05-02T07:20:22Z</time>
      </trkpt>
      <trkpt lat="43.84674" lon="4.26211">
        <ele>271</ele>
        <time>2010-05-02T07:20:24Z</time>
      </trkpt>
      <trkpt lat="43.8468" lon="4.26213">
        <ele>271</ele>
        <time>2010-05-02T07:20:26Z</time>
      </trkpt>
      <trkpt lat="43.84685" lon="4.26216">
        <ele>271</ele>
        <time>2010-05-02T07:20:28Z</time>
      </trkpt>
      <trkpt lat="43.84694" lon="4.26225">
        <ele>271</ele>
        <time>2010-05-02T07:20:30Z</time>
      </trkpt>
      <trkpt lat="43.84696" lon="4.26227">
        <ele>272</ele>
        <time>2010-05-02T07:20:31Z</time>
      </trkpt>
      <trkpt lat="43.84706" lon="4.26235">
        <ele>271</ele>
        <time>2010-05-02T07:20:35Z</time>
      </trkpt>
      <trkpt lat="43.84716" lon="4.2624">
        <ele>269</ele>
        <time>2010-05-02T07:20:38Z</time>
      </trkpt>
      <trkpt lat="43.84718" lon="4.26242">
        <ele>269</ele>
        <time>2010-05-02T07:20:39Z</time>
      </trkpt>
      <trkpt lat="43.84725" lon="4.26245">
        <ele>268</ele>
        <time>2010-05-02T07:20:41Z</time>
      </trkpt>
      <trkpt lat="43.84733" lon="4.26247">
        <ele>267</ele>
        <time>2010-05-02T07:20:43Z</time>
      </trkpt>
      <trkpt lat="43.8474" lon="4.26248">
        <ele>266</ele>
        <time>2010-05-02T07:20:45Z</time>
      </trkpt>
      <trkpt lat="43.84746" lon="4.2625">
        <ele>266</ele>
        <time>2010-05-02T07:20:47Z</time>
      </trkpt>
      <trkpt lat="43.84752" lon="4.26252">
        <ele>265</ele>
        <time>2010-05-02T07:20:50Z</time>
      </trkpt>
      <trkpt lat="43.84758" lon="4.26253">
        <ele>265</ele>
        <time>2010-05-02T07:20:52Z</time>
      </trkpt>
      <trkpt lat="43.84765" lon="4.26253">
        <ele>266</ele>
        <time>2010-05-02T07:20:54Z</time>
      </trkpt>
      <trkpt lat="43.84767" lon="4.26253">
        <ele>266</ele>
        <time>2010-05-02T07:20:55Z</time>
      </trkpt>
      <trkpt lat="43.84777" lon="4.26253">
        <ele>266</ele>
        <time>2010-05-02T07:20:59Z</time>
      </trkpt>
      <trkpt lat="43.84782" lon="4.26253">
        <ele>266</ele>
        <time>2010-05-02T07:21:00Z</time>
      </trkpt>
      <trkpt lat="43.84789" lon="4.26251">
        <ele>267</ele>
        <time>2010-05-02T07:21:02Z</time>
      </trkpt>
      <trkpt lat="43.84794" lon="4.26245">
        <ele>268</ele>
        <time>2010-05-02T07:21:05Z</time>
      </trkpt>
      <trkpt lat="43.84795" lon="4.2624">
        <ele>268</ele>
        <time>2010-05-02T07:21:07Z</time>
      </trkpt>
      <trkpt lat="43.84797" lon="4.26236">
        <ele>268</ele>
        <time>2010-05-02T07:21:10Z</time>
      </trkpt>
      <trkpt lat="43.84797" lon="4.26233">
        <ele>268</ele>
        <time>2010-05-02T07:21:12Z</time>
      </trkpt>
      <trkpt lat="43.84798" lon="4.26228">
        <ele>268</ele>
        <time>2010-05-02T07:21:14Z</time>
      </trkpt>
      <trkpt lat="43.84798" lon="4.26221">
        <ele>268</ele>
        <time>2010-05-02T07:21:17Z</time>
      </trkpt>
      <trkpt lat="43.84797" lon="4.26215">
        <ele>269</ele>
        <time>2010-05-02T07:21:19Z</time>
      </trkpt>
      <trkpt lat="43.84797" lon="4.26214">
        <ele>269</ele>
        <time>2010-05-02T07:21:20Z</time>
      </trkpt>
      <trkpt lat="43.84795" lon="4.26205">
        <ele>270</ele>
        <time>2010-05-02T07:21:23Z</time>
      </trkpt>
      <trkpt lat="43.84793" lon="4.26196">
        <ele>270</ele>
        <time>2010-05-02T07:21:26Z</time>
      </trkpt>
      <trkpt lat="43.84791" lon="4.26189">
        <ele>269</ele>
        <time>2010-05-02T07:21:28Z</time>
      </trkpt>
      <trkpt lat="43.84788" lon="4.26182">
        <ele>270</ele>
        <time>2010-05-02T07:21:30Z</time>
      </trkpt>
      <trkpt lat="43.84785" lon="4.26174">
        <ele>270</ele>
        <time>2010-05-02T07:21:32Z</time>
      </trkpt>
      <trkpt lat="43.84782" lon="4.26165">
        <ele>270</ele>
        <time>2010-05-02T07:21:34Z</time>
      </trkpt>
      <trkpt lat="43.84779" lon="4.26156">
        <ele>271</ele>
        <time>2010-05-02T07:21:36Z</time>
      </trkpt>
      <trkpt lat="43.84776" lon="4.26147">
        <ele>271</ele>
        <time>2010-05-02T07:21:39Z</time>
      </trkpt>
      <trkpt lat="43.84773" lon="4.26137">
        <ele>271</ele>
        <time>2010-05-02T07:21:41Z</time>
      </trkpt>
      <trkpt lat="43.8477" lon="4.26125">
        <ele>271</ele>
        <time>2010-05-02T07:21:43Z</time>
      </trkpt>
      <trkpt lat="43.84766" lon="4.26114">
        <ele>271</ele>
        <time>2010-05-02T07:21:45Z</time>
      </trkpt>
      <trkpt lat="43.84763" lon="4.26101">
        <ele>271</ele>
        <time>2010-05-02T07:21:47Z</time>
      </trkpt>
      <trkpt lat="43.84758" lon="4.26081">
        <ele>271</ele>
        <time>2010-05-02T07:21:50Z</time>
      </trkpt>
      <trkpt lat="43.84754" lon="4.26064">
        <ele>271</ele>
        <time>2010-05-02T07:21:52Z</time>
      </trkpt>
      <trkpt lat="43.8475" lon="4.26046">
        <ele>271</ele>
        <time>2010-05-02T07:21:55Z</time>
      </trkpt>
      <trkpt lat="43.8475" lon="4.26039">
        <ele>272</ele>
        <time>2010-05-02T07:21:55Z</time>
      </trkpt>
      <trkpt lat="43.84747" lon="4.26007">
        <ele>270</ele>
        <time>2010-05-02T07:21:59Z</time>
      </trkpt>
      <trkpt lat="43.84745" lon="4.25989">
        <ele>271</ele>
        <time>2010-05-02T07:22:01Z</time>
      </trkpt>
      <trkpt lat="43.84743" lon="4.25971">
        <ele>271</ele>
        <time>2010-05-02T07:22:03Z</time>
      </trkpt>
      <trkpt lat="43.8474" lon="4.25954">
        <ele>271</ele>
        <time>2010-05-02T07:22:05Z</time>
      </trkpt>
      <trkpt lat="43.84738" lon="4.25937">
        <ele>270</ele>
        <time>2010-05-02T07:22:07Z</time>
      </trkpt>
      <trkpt lat="43.84737" lon="4.25931">
        <ele>270</ele>
        <time>2010-05-02T07:22:08Z</time>
      </trkpt>
      <trkpt lat="43.84734" lon="4.25903">
        <ele>271</ele>
        <time>2010-05-02T07:22:12Z</time>
      </trkpt>
      <trkpt lat="43.8473" lon="4.25886">
        <ele>271</ele>
        <time>2010-05-02T07:22:14Z</time>
      </trkpt>
      <trkpt lat="43.84726" lon="4.25868">
        <ele>271</ele>
        <time>2010-05-02T07:22:16Z</time>
      </trkpt>
      <trkpt lat="43.84721" lon="4.2585">
        <ele>271</ele>
        <time>2010-05-02T07:22:18Z</time>
      </trkpt>
      <trkpt lat="43.84718" lon="4.25831">
        <ele>271</ele>
        <time>2010-05-02T07:22:21Z</time>
      </trkpt>
      <trkpt lat="43.84717" lon="4.25825">
        <ele>271</ele>
        <time>2010-05-02T07:22:21Z</time>
      </trkpt>
      <trkpt lat="43.84711" lon="4.25791">
        <ele>271</ele>
        <time>2010-05-02T07:22:25Z</time>
      </trkpt>
      <trkpt lat="43.84707" lon="4.2577">
        <ele>271</ele>
        <time>2010-05-02T07:22:27Z</time>
      </trkpt>
      <trkpt lat="43.84699" lon="4.25751">
        <ele>271</ele>
        <time>2010-05-02T07:22:29Z</time>
      </trkpt>
      <trkpt lat="43.84692" lon="4.25733">
        <ele>271</ele>
        <time>2010-05-02T07:22:31Z</time>
      </trkpt>
      <trkpt lat="43.84687" lon="4.25715">
        <ele>270</ele>
        <time>2010-05-02T07:22:33Z</time>
      </trkpt>
      <trkpt lat="43.84682" lon="4.25698">
        <ele>270</ele>
        <time>2010-05-02T07:22:36Z</time>
      </trkpt>
      <trkpt lat="43.84678" lon="4.25682">
        <ele>270</ele>
        <time>2010-05-02T07:22:38Z</time>
      </trkpt>
      <trkpt lat="43.84671" lon="4.25662">
        <ele>270</ele>
        <time>2010-05-02T07:22:41Z</time>
      </trkpt>
      <trkpt lat="43.84667" lon="4.25652">
        <ele>270</ele>
        <time>2010-05-02T07:22:42Z</time>
      </trkpt>
      <trkpt lat="43.84659" lon="4.25635">
        <ele>270</ele>
        <time>2010-05-02T07:22:45Z</time>
      </trkpt>
      <trkpt lat="43.84656" lon="4.25631">
        <ele>269</ele>
        <time>2010-05-02T07:22:46Z</time>
      </trkpt>
      <trkpt lat="43.84645" lon="4.25613">
        <ele>268</ele>
        <time>2010-05-02T07:22:49Z</time>
      </trkpt>
      <trkpt lat="43.8464" lon="4.25605">
        <ele>268</ele>
        <time>2010-05-02T07:22:51Z</time>
      </trkpt>
      <trkpt lat="43.84635" lon="4.25592">
        <ele>267</ele>
        <time>2010-05-02T07:22:53Z</time>
      </trkpt>
      <trkpt lat="43.8463" lon="4.25575">
        <ele>268</ele>
        <time>2010-05-02T07:22:56Z</time>
      </trkpt>
      <trkpt lat="43.8463" lon="4.25558">
        <ele>269</ele>
        <time>2010-05-02T07:22:58Z</time>
      </trkpt>
      <trkpt lat="43.84629" lon="4.25543">
        <ele>270</ele>
        <time>2010-05-02T07:23:00Z</time>
      </trkpt>
      <trkpt lat="43.84623" lon="4.2553">
        <ele>270</ele>
        <time>2010-05-02T07:23:02Z</time>
      </trkpt>
      <trkpt lat="43.84618" lon="4.25516">
        <ele>270</ele>
        <time>2010-05-02T07:23:04Z</time>
      </trkpt>
      <trkpt lat="43.84609" lon="4.25503">
        <ele>269</ele>
        <time>2010-05-02T07:23:06Z</time>
      </trkpt>
      <trkpt lat="43.84597" lon="4.25489">
        <ele>269</ele>
        <time>2010-05-02T07:23:08Z</time>
      </trkpt>
      <trkpt lat="43.84584" lon="4.2547">
        <ele>268</ele>
        <time>2010-05-02T07:23:11Z</time>
      </trkpt>
      <trkpt lat="43.84575" lon="4.2545">
        <ele>268</ele>
        <time>2010-05-02T07:23:13Z</time>
      </trkpt>
      <trkpt lat="43.84567" lon="4.25422">
        <ele>267</ele>
        <time>2010-05-02T07:23:16Z</time>
      </trkpt>
      <trkpt lat="43.84561" lon="4.25401">
        <ele>267</ele>
        <time>2010-05-02T07:23:18Z</time>
      </trkpt>
      <trkpt lat="43.84551" lon="4.25384">
        <ele>266</ele>
        <time>2010-05-02T07:23:20Z</time>
      </trkpt>
      <trkpt lat="43.84541" lon="4.25369">
        <ele>266</ele>
        <time>2010-05-02T07:23:22Z</time>
      </trkpt>
      <trkpt lat="43.84531" lon="4.25357">
        <ele>265</ele>
        <time>2010-05-02T07:23:25Z</time>
      </trkpt>
      <trkpt lat="43.84523" lon="4.25357">
        <ele>264</ele>
        <time>2010-05-02T07:23:27Z</time>
      </trkpt>
      <trkpt lat="43.8452" lon="4.25361">
        <ele>263</ele>
        <time>2010-05-02T07:23:29Z</time>
      </trkpt>
      <trkpt lat="43.84517" lon="4.25361">
        <ele>262</ele>
        <time>2010-05-02T07:23:31Z</time>
      </trkpt>
      <trkpt lat="43.84517" lon="4.25361">
        <ele>262</ele>
        <time>2010-05-02T07:23:34Z</time>
      </trkpt>
      <trkpt lat="43.84508" lon="4.25356">
        <ele>260</ele>
        <time>2010-05-02T07:23:36Z</time>
      </trkpt>
      <trkpt lat="43.84502" lon="4.25348">
        <ele>260</ele>
        <time>2010-05-02T07:23:38Z</time>
      </trkpt>
      <trkpt lat="43.84497" lon="4.2534">
        <ele>258</ele>
        <time>2010-05-02T07:23:41Z</time>
      </trkpt>
      <trkpt lat="43.84491" lon="4.25331">
        <ele>257</ele>
        <time>2010-05-02T07:23:43Z</time>
      </trkpt>
      <trkpt lat="43.84486" lon="4.25324">
        <ele>255</ele>
        <time>2010-05-02T07:23:46Z</time>
      </trkpt>
      <trkpt lat="43.84482" lon="4.25314">
        <ele>252</ele>
        <time>2010-05-02T07:23:48Z</time>
      </trkpt>
      <trkpt lat="43.84477" lon="4.25301">
        <ele>251</ele>
        <time>2010-05-02T07:23:50Z</time>
      </trkpt>
      <trkpt lat="43.84475" lon="4.25287">
        <ele>249</ele>
        <time>2010-05-02T07:23:52Z</time>
      </trkpt>
      <trkpt lat="43.8448" lon="4.25273">
        <ele>247</ele>
        <time>2010-05-02T07:23:55Z</time>
      </trkpt>
      <trkpt lat="43.84482" lon="4.25261">
        <ele>244</ele>
        <time>2010-05-02T07:23:57Z</time>
      </trkpt>
      <trkpt lat="43.84479" lon="4.25252">
        <ele>242</ele>
        <time>2010-05-02T07:23:59Z</time>
      </trkpt>
      <trkpt lat="43.84468" lon="4.25244">
        <ele>241</ele>
        <time>2010-05-02T07:24:02Z</time>
      </trkpt>
      <trkpt lat="43.8446" lon="4.25233">
        <ele>241</ele>
        <time>2010-05-02T07:24:04Z</time>
      </trkpt>
      <trkpt lat="43.84452" lon="4.25227">
        <ele>240</ele>
        <time>2010-05-02T07:24:06Z</time>
      </trkpt>
      <trkpt lat="43.84449" lon="4.25227">
        <ele>239</ele>
        <time>2010-05-02T07:24:09Z</time>
      </trkpt>
      <trkpt lat="43.84449" lon="4.25227">
        <ele>239</ele>
        <time>2010-05-02T07:24:11Z</time>
      </trkpt>
      <trkpt lat="43.8444" lon="4.2522">
        <ele>239</ele>
        <time>2010-05-02T07:24:13Z</time>
      </trkpt>
      <trkpt lat="43.84436" lon="4.25208">
        <ele>238</ele>
        <time>2010-05-02T07:24:18Z</time>
      </trkpt>
      <trkpt lat="43.84432" lon="4.252">
        <ele>238</ele>
        <time>2010-05-02T07:24:19Z</time>
      </trkpt>
      <trkpt lat="43.84429" lon="4.25196">
        <ele>238</ele>
        <time>2010-05-02T07:24:20Z</time>
      </trkpt>
      <trkpt lat="43.84414" lon="4.25177">
        <ele>238</ele>
        <time>2010-05-02T07:24:26Z</time>
      </trkpt>
      <trkpt lat="43.84412" lon="4.25174">
        <ele>238</ele>
        <time>2010-05-02T07:24:26Z</time>
      </trkpt>
      <trkpt lat="43.84404" lon="4.25166">
        <ele>238</ele>
        <time>2010-05-02T07:24:28Z</time>
      </trkpt>
      <trkpt lat="43.84396" lon="4.25158">
        <ele>237</ele>
        <time>2010-05-02T07:24:31Z</time>
      </trkpt>
      <trkpt lat="43.84389" lon="4.2515">
        <ele>236</ele>
        <time>2010-05-02T07:24:33Z</time>
      </trkpt>
      <trkpt lat="43.84384" lon="4.25143">
        <ele>236</ele>
        <time>2010-05-02T07:24:35Z</time>
      </trkpt>
      <trkpt lat="43.84377" lon="4.25131">
        <ele>235</ele>
        <time>2010-05-02T07:24:38Z</time>
      </trkpt>
      <trkpt lat="43.84372" lon="4.25121">
        <ele>235</ele>
        <time>2010-05-02T07:24:40Z</time>
      </trkpt>
      <trkpt lat="43.84369" lon="4.25111">
        <ele>235</ele>
        <time>2010-05-02T07:24:42Z</time>
      </trkpt>
      <trkpt lat="43.84366" lon="4.25103">
        <ele>234</ele>
        <time>2010-05-02T07:24:44Z</time>
      </trkpt>
      <trkpt lat="43.84362" lon="4.25093">
        <ele>234</ele>
        <time>2010-05-02T07:24:47Z</time>
      </trkpt>
      <trkpt lat="43.84359" lon="4.25086">
        <ele>233</ele>
        <time>2010-05-02T07:24:50Z</time>
      </trkpt>
      <trkpt lat="43.84355" lon="4.25074">
        <ele>231</ele>
        <time>2010-05-02T07:24:53Z</time>
      </trkpt>
      <trkpt lat="43.8435" lon="4.25065">
        <ele>231</ele>
        <time>2010-05-02T07:24:55Z</time>
      </trkpt>
      <trkpt lat="43.84345" lon="4.25055">
        <ele>231</ele>
        <time>2010-05-02T07:24:57Z</time>
      </trkpt>
      <trkpt lat="43.84342" lon="4.2504">
        <ele>231</ele>
        <time>2010-05-02T07:25:00Z</time>
      </trkpt>
      <trkpt lat="43.84337" lon="4.25032">
        <ele>231</ele>
        <time>2010-05-02T07:25:02Z</time>
      </trkpt>
      <trkpt lat="43.84331" lon="4.25024">
        <ele>231</ele>
        <time>2010-05-02T07:25:04Z</time>
      </trkpt>
      <trkpt lat="43.84327" lon="4.25003">
        <ele>232</ele>
        <time>2010-05-02T07:25:09Z</time>
      </trkpt>
      <trkpt lat="43.84328" lon="4.25">
        <ele>233</ele>
        <time>2010-05-02T07:25:10Z</time>
      </trkpt>
      <trkpt lat="43.84329" lon="4.24994">
        <ele>233</ele>
        <time>2010-05-02T07:25:12Z</time>
      </trkpt>
      <trkpt lat="43.84333" lon="4.24983">
        <ele>235</ele>
        <time>2010-05-02T07:25:15Z</time>
      </trkpt>
      <trkpt lat="43.84335" lon="4.24974">
        <ele>234</ele>
        <time>2010-05-02T07:25:17Z</time>
      </trkpt>
      <trkpt lat="43.84335" lon="4.24964">
        <ele>234</ele>
        <time>2010-05-02T07:25:19Z</time>
      </trkpt>
      <trkpt lat="43.84335" lon="4.2495">
        <ele>234</ele>
        <time>2010-05-02T07:25:22Z</time>
      </trkpt>
      <trkpt lat="43.84334" lon="4.24941">
        <ele>235</ele>
        <time>2010-05-02T07:25:24Z</time>
      </trkpt>
      <trkpt lat="43.84332" lon="4.2493">
        <ele>233</ele>
        <time>2010-05-02T07:25:27Z</time>
      </trkpt>
      <trkpt lat="43.84329" lon="4.24924">
        <ele>233</ele>
        <time>2010-05-02T07:25:29Z</time>
      </trkpt>
      <trkpt lat="43.84329" lon="4.24915">
        <ele>233</ele>
        <time>2010-05-02T07:25:31Z</time>
      </trkpt>
      <trkpt lat="43.84328" lon="4.24904">
        <ele>233</ele>
        <time>2010-05-02T07:25:34Z</time>
      </trkpt>
      <trkpt lat="43.84324" lon="4.24898">
        <ele>233</ele>
        <time>2010-05-02T07:25:37Z</time>
      </trkpt>
      <trkpt lat="43.84319" lon="4.24891">
        <ele>233</ele>
        <time>2010-05-02T07:25:39Z</time>
      </trkpt>
      <trkpt lat="43.84315" lon="4.2488">
        <ele>234</ele>
        <time>2010-05-02T07:25:42Z</time>
      </trkpt>
      <trkpt lat="43.84313" lon="4.2487">
        <ele>235</ele>
        <time>2010-05-02T07:25:44Z</time>
      </trkpt>
      <trkpt lat="43.8431" lon="4.24861">
        <ele>234</ele>
        <time>2010-05-02T07:25:46Z</time>
      </trkpt>
      <trkpt lat="43.84305" lon="4.2485">
        <ele>233</ele>
        <time>2010-05-02T07:25:49Z</time>
      </trkpt>
      <trkpt lat="43.84302" lon="4.24842">
        <ele>233</ele>
        <time>2010-05-02T07:25:51Z</time>
      </trkpt>
      <trkpt lat="43.84297" lon="4.24831">
        <ele>233</ele>
        <time>2010-05-02T07:25:54Z</time>
      </trkpt>
      <trkpt lat="43.84293" lon="4.24823">
        <ele>232</ele>
        <time>2010-05-02T07:25:56Z</time>
      </trkpt>
      <trkpt lat="43.84289" lon="4.24814">
        <ele>233</ele>
        <time>2010-05-02T07:25:58Z</time>
      </trkpt>
      <trkpt lat="43.84282" lon="4.24801">
        <ele>233</ele>
        <time>2010-05-02T07:26:00Z</time>
      </trkpt>
      <trkpt lat="43.84275" lon="4.24786">
        <ele>233</ele>
        <time>2010-05-02T07:26:03Z</time>
      </trkpt>
      <trkpt lat="43.84268" lon="4.24764">
        <ele>233</ele>
        <time>2010-05-02T07:26:05Z</time>
      </trkpt>
      <trkpt lat="43.84265" lon="4.24749">
        <ele>232</ele>
        <time>2010-05-02T07:26:08Z</time>
      </trkpt>
      <trkpt lat="43.84261" lon="4.24735">
        <ele>232</ele>
        <time>2010-05-02T07:26:10Z</time>
      </trkpt>
      <trkpt lat="43.84258" lon="4.24721">
        <ele>232</ele>
        <time>2010-05-02T07:26:12Z</time>
      </trkpt>
      <trkpt lat="43.84256" lon="4.24702">
        <ele>232</ele>
        <time>2010-05-02T07:26:15Z</time>
      </trkpt>
      <trkpt lat="43.84255" lon="4.24689">
        <ele>232</ele>
        <time>2010-05-02T07:26:17Z</time>
      </trkpt>
      <trkpt lat="43.84254" lon="4.24676">
        <ele>231</ele>
        <time>2010-05-02T07:26:19Z</time>
      </trkpt>
      <trkpt lat="43.84252" lon="4.24661">
        <ele>230</ele>
        <time>2010-05-02T07:26:22Z</time>
      </trkpt>
      <trkpt lat="43.84249" lon="4.24652">
        <ele>231</ele>
        <time>2010-05-02T07:26:25Z</time>
      </trkpt>
      <trkpt lat="43.84245" lon="4.24641">
        <ele>231</ele>
        <time>2010-05-02T07:26:27Z</time>
      </trkpt>
      <trkpt lat="43.84241" lon="4.24625">
        <ele>232</ele>
        <time>2010-05-02T07:26:30Z</time>
      </trkpt>
      <trkpt lat="43.8424" lon="4.24614">
        <ele>232</ele>
        <time>2010-05-02T07:26:32Z</time>
      </trkpt>
      <trkpt lat="43.84239" lon="4.24604">
        <ele>233</ele>
        <time>2010-05-02T07:26:34Z</time>
      </trkpt>
      <trkpt lat="43.84236" lon="4.24592">
        <ele>233</ele>
        <time>2010-05-02T07:26:36Z</time>
      </trkpt>
      <trkpt lat="43.84232" lon="4.24575">
        <ele>233</ele>
        <time>2010-05-02T07:26:39Z</time>
      </trkpt>
      <trkpt lat="43.8423" lon="4.24559">
        <ele>233</ele>
        <time>2010-05-02T07:26:41Z</time>
      </trkpt>
      <trkpt lat="43.84229" lon="4.24536">
        <ele>232</ele>
        <time>2010-05-02T07:26:44Z</time>
      </trkpt>
      <trkpt lat="43.8423" lon="4.24518">
        <ele>232</ele>
        <time>2010-05-02T07:26:47Z</time>
      </trkpt>
      <trkpt lat="43.84234" lon="4.24502">
        <ele>232</ele>
        <time>2010-05-02T07:26:49Z</time>
      </trkpt>
      <trkpt lat="43.84233" lon="4.24491">
        <ele>231</ele>
        <time>2010-05-02T07:26:51Z</time>
      </trkpt>
      <trkpt lat="43.84227" lon="4.24483">
        <ele>230</ele>
        <time>2010-05-02T07:26:54Z</time>
      </trkpt>
      <trkpt lat="43.84222" lon="4.24476">
        <ele>231</ele>
        <time>2010-05-02T07:26:56Z</time>
      </trkpt>
      <trkpt lat="43.84218" lon="4.24468">
        <ele>232</ele>
        <time>2010-05-02T07:26:59Z</time>
      </trkpt>
      <trkpt lat="43.84218" lon="4.24468">
        <ele>232</ele>
        <time>2010-05-02T07:27:01Z</time>
      </trkpt>
      <trkpt lat="43.84218" lon="4.24468">
        <ele>232</ele>
        <time>2010-05-02T07:27:03Z</time>
      </trkpt>
      <trkpt lat="43.84212" lon="4.24453">
        <ele>234</ele>
        <time>2010-05-02T07:27:06Z</time>
      </trkpt>
      <trkpt lat="43.84208" lon="4.24439">
        <ele>236</ele>
        <time>2010-05-02T07:27:09Z</time>
      </trkpt>
      <trkpt lat="43.84208" lon="4.24439">
        <ele>236</ele>
        <time>2010-05-02T07:27:12Z</time>
      </trkpt>
      <trkpt lat="43.84206" lon="4.24425">
        <ele>237</ele>
        <time>2010-05-02T07:27:14Z</time>
      </trkpt>
      <trkpt lat="43.84206" lon="4.24425">
        <ele>237</ele>
        <time>2010-05-02T07:27:16Z</time>
      </trkpt>
      <trkpt lat="43.84202" lon="4.24405">
        <ele>238</ele>
        <time>2010-05-02T07:27:19Z</time>
      </trkpt>
      <trkpt lat="43.842" lon="4.24398">
        <ele>238</ele>
        <time>2010-05-02T07:27:21Z</time>
      </trkpt>
      <trkpt lat="43.84197" lon="4.24376">
        <ele>238</ele>
        <time>2010-05-02T07:27:26Z</time>
      </trkpt>
      <trkpt lat="43.84199" lon="4.24362">
        <ele>235</ele>
        <time>2010-05-02T07:27:29Z</time>
      </trkpt>
      <trkpt lat="43.842" lon="4.24354">
        <ele>235</ele>
        <time>2010-05-02T07:27:31Z</time>
      </trkpt>
      <trkpt lat="43.842" lon="4.24354">
        <ele>235</ele>
        <time>2010-05-02T07:27:32Z</time>
      </trkpt>
      <trkpt lat="43.84204" lon="4.24342">
        <ele>234</ele>
        <time>2010-05-02T07:27:34Z</time>
      </trkpt>
      <trkpt lat="43.84207" lon="4.24324">
        <ele>230</ele>
        <time>2010-05-02T07:27:36Z</time>
      </trkpt>
      <trkpt lat="43.8421" lon="4.243">
        <ele>228</ele>
        <time>2010-05-02T07:27:42Z</time>
      </trkpt>
      <trkpt lat="43.8421" lon="4.24289">
        <ele>227</ele>
        <time>2010-05-02T07:27:44Z</time>
      </trkpt>
      <trkpt lat="43.8421" lon="4.24285">
        <ele>227</ele>
        <time>2010-05-02T07:27:45Z</time>
      </trkpt>
      <trkpt lat="43.84211" lon="4.24261">
        <ele>228</ele>
        <time>2010-05-02T07:27:49Z</time>
      </trkpt>
      <trkpt lat="43.84211" lon="4.24258">
        <ele>228</ele>
        <time>2010-05-02T07:27:50Z</time>
      </trkpt>
      <trkpt lat="43.84211" lon="4.24252">
        <ele>228</ele>
        <time>2010-05-02T07:27:51Z</time>
      </trkpt>
      <trkpt lat="43.84211" lon="4.24241">
        <ele>230</ele>
        <time>2010-05-02T07:27:54Z</time>
      </trkpt>
      <trkpt lat="43.84211" lon="4.2423">
        <ele>229</ele>
        <time>2010-05-02T07:27:57Z</time>
      </trkpt>
      <trkpt lat="43.84214" lon="4.24207">
        <ele>229</ele>
        <time>2010-05-02T07:28:02Z</time>
      </trkpt>
      <trkpt lat="43.84215" lon="4.24202">
        <ele>229</ele>
        <time>2010-05-02T07:28:04Z</time>
      </trkpt>
      <trkpt lat="43.84216" lon="4.24195">
        <ele>229</ele>
        <time>2010-05-02T07:28:07Z</time>
      </trkpt>
      <trkpt lat="43.84216" lon="4.24195">
        <ele>229</ele>
        <time>2010-05-02T07:28:09Z</time>
      </trkpt>
      <trkpt lat="43.84219" lon="4.24182">
        <ele>229</ele>
        <time>2010-05-02T07:28:10Z</time>
      </trkpt>
      <trkpt lat="43.84219" lon="4.24175">
        <ele>230</ele>
        <time>2010-05-02T07:28:12Z</time>
      </trkpt>
      <trkpt lat="43.84221" lon="4.24159">
        <ele>231</ele>
        <time>2010-05-02T07:28:17Z</time>
      </trkpt>
      <trkpt lat="43.84222" lon="4.24154">
        <ele>232</ele>
        <time>2010-05-02T07:28:19Z</time>
      </trkpt>
      <trkpt lat="43.84222" lon="4.24154">
        <ele>232</ele>
        <time>2010-05-02T07:28:22Z</time>
      </trkpt>
      <trkpt lat="43.84222" lon="4.24154">
        <ele>232</ele>
        <time>2010-05-02T07:28:23Z</time>
      </trkpt>
      <trkpt lat="43.84226" lon="4.24141">
        <ele>232</ele>
        <time>2010-05-02T07:28:28Z</time>
      </trkpt>
      <trkpt lat="43.84232" lon="4.24128">
        <ele>232</ele>
        <time>2010-05-02T07:28:30Z</time>
      </trkpt>
      <trkpt lat="43.84238" lon="4.24111">
        <ele>232</ele>
        <time>2010-05-02T07:28:33Z</time>
      </trkpt>
      <trkpt lat="43.84243" lon="4.24094">
        <ele>233</ele>
        <time>2010-05-02T07:28:36Z</time>
      </trkpt>
      <trkpt lat="43.84244" lon="4.24089">
        <ele>233</ele>
        <time>2010-05-02T07:28:36Z</time>
      </trkpt>
      <trkpt lat="43.84257" lon="4.24067">
        <ele>234</ele>
        <time>2010-05-02T07:28:41Z</time>
      </trkpt>
      <trkpt lat="43.84265" lon="4.24055">
        <ele>234</ele>
        <time>2010-05-02T07:28:44Z</time>
      </trkpt>
      <trkpt lat="43.8427" lon="4.24048">
        <ele>234</ele>
        <time>2010-05-02T07:28:46Z</time>
      </trkpt>
      <trkpt lat="43.84273" lon="4.2404">
        <ele>234</ele>
        <time>2010-05-02T07:28:49Z</time>
      </trkpt>
      <trkpt lat="43.84274" lon="4.24036">
        <ele>235</ele>
        <time>2010-05-02T07:28:51Z</time>
      </trkpt>
      <trkpt lat="43.84274" lon="4.24025">
        <ele>235</ele>
        <time>2010-05-02T07:28:54Z</time>
      </trkpt>
      <trkpt lat="43.84275" lon="4.24015">
        <ele>235</ele>
        <time>2010-05-02T07:28:57Z</time>
      </trkpt>
      <trkpt lat="43.84275" lon="4.24007">
        <ele>235</ele>
        <time>2010-05-02T07:29:00Z</time>
      </trkpt>
      <trkpt lat="43.84275" lon="4.24005">
        <ele>235</ele>
        <time>2010-05-02T07:29:01Z</time>
      </trkpt>
      <trkpt lat="43.84276" lon="4.23995">
        <ele>236</ele>
        <time>2010-05-02T07:29:04Z</time>
      </trkpt>
      <trkpt lat="43.84281" lon="4.23978">
        <ele>237</ele>
        <time>2010-05-02T07:29:08Z</time>
      </trkpt>
      <trkpt lat="43.84284" lon="4.23965">
        <ele>237</ele>
        <time>2010-05-02T07:29:10Z</time>
      </trkpt>
      <trkpt lat="43.84289" lon="4.23946">
        <ele>236</ele>
        <time>2010-05-02T07:29:13Z</time>
      </trkpt>
      <trkpt lat="43.84289" lon="4.23929">
        <ele>236</ele>
        <time>2010-05-02T07:29:16Z</time>
      </trkpt>
      <trkpt lat="43.8429" lon="4.23918">
        <ele>237</ele>
        <time>2010-05-02T07:29:19Z</time>
      </trkpt>
      <trkpt lat="43.84293" lon="4.23904">
        <ele>238</ele>
        <time>2010-05-02T07:29:21Z</time>
      </trkpt>
      <trkpt lat="43.84295" lon="4.23888">
        <ele>238</ele>
        <time>2010-05-02T07:29:25Z</time>
      </trkpt>
      <trkpt lat="43.84296" lon="4.23877">
        <ele>239</ele>
        <time>2010-05-02T07:29:28Z</time>
      </trkpt>
      <trkpt lat="43.84299" lon="4.23866">
        <ele>239</ele>
        <time>2010-05-02T07:29:31Z</time>
      </trkpt>
      <trkpt lat="43.84301" lon="4.23854">
        <ele>239</ele>
        <time>2010-05-02T07:29:34Z</time>
      </trkpt>
      <trkpt lat="43.84303" lon="4.23843">
        <ele>239</ele>
        <time>2010-05-02T07:29:37Z</time>
      </trkpt>
      <trkpt lat="43.8431" lon="4.23832">
        <ele>242</ele>
        <time>2010-05-02T07:29:40Z</time>
      </trkpt>
      <trkpt lat="43.84317" lon="4.23825">
        <ele>244</ele>
        <time>2010-05-02T07:29:43Z</time>
      </trkpt>
      <trkpt lat="43.84323" lon="4.23822">
        <ele>245</ele>
        <time>2010-05-02T07:29:45Z</time>
      </trkpt>
      <trkpt lat="43.84333" lon="4.2382">
        <ele>245</ele>
        <time>2010-05-02T07:29:49Z</time>
      </trkpt>
      <trkpt lat="43.84337" lon="4.23821">
        <ele>246</ele>
        <time>2010-05-02T07:29:51Z</time>
      </trkpt>
      <trkpt lat="43.84344" lon="4.23824">
        <ele>247</ele>
        <time>2010-05-02T07:29:54Z</time>
      </trkpt>
      <trkpt lat="43.84355" lon="4.23828">
        <ele>247</ele>
        <time>2010-05-02T07:29:58Z</time>
      </trkpt>
      <trkpt lat="43.84362" lon="4.2383">
        <ele>247</ele>
        <time>2010-05-02T07:30:00Z</time>
      </trkpt>
      <trkpt lat="43.84364" lon="4.2383">
        <ele>247</ele>
        <time>2010-05-02T07:30:01Z</time>
      </trkpt>
      <trkpt lat="43.84373" lon="4.23831">
        <ele>247</ele>
        <time>2010-05-02T07:30:04Z</time>
      </trkpt>
      <trkpt lat="43.84375" lon="4.23831">
        <ele>247</ele>
        <time>2010-05-02T07:30:05Z</time>
      </trkpt>
      <trkpt lat="43.84379" lon="4.23831">
        <ele>247</ele>
        <time>2010-05-02T07:30:06Z</time>
      </trkpt>
      <trkpt lat="43.84386" lon="4.23831">
        <ele>247</ele>
        <time>2010-05-02T07:30:08Z</time>
      </trkpt>
      <trkpt lat="43.84392" lon="4.23831">
        <ele>248</ele>
        <time>2010-05-02T07:30:11Z</time>
      </trkpt>
      <trkpt lat="43.84397" lon="4.23831">
        <ele>248</ele>
        <time>2010-05-02T07:30:12Z</time>
      </trkpt>
      <trkpt lat="43.84403" lon="4.23832">
        <ele>249</ele>
        <time>2010-05-02T07:30:15Z</time>
      </trkpt>
      <trkpt lat="43.84408" lon="4.23832">
        <ele>250</ele>
        <time>2010-05-02T07:30:16Z</time>
      </trkpt>
      <trkpt lat="43.84412" lon="4.23834">
        <ele>250</ele>
        <time>2010-05-02T07:30:18Z</time>
      </trkpt>
      <trkpt lat="43.84416" lon="4.23835">
        <ele>251</ele>
        <time>2010-05-02T07:30:19Z</time>
      </trkpt>
      <trkpt lat="43.8442" lon="4.23837">
        <ele>251</ele>
        <time>2010-05-02T07:30:21Z</time>
      </trkpt>
      <trkpt lat="43.84423" lon="4.23842">
        <ele>252</ele>
        <time>2010-05-02T07:30:22Z</time>
      </trkpt>
      <trkpt lat="43.84428" lon="4.23849">
        <ele>251</ele>
        <time>2010-05-02T07:30:24Z</time>
      </trkpt>
      <trkpt lat="43.8443" lon="4.23856">
        <ele>251</ele>
        <time>2010-05-02T07:30:26Z</time>
      </trkpt>
      <trkpt lat="43.84432" lon="4.23863">
        <ele>252</ele>
        <time>2010-05-02T07:30:27Z</time>
      </trkpt>
      <trkpt lat="43.84435" lon="4.23871">
        <ele>252</ele>
        <time>2010-05-02T07:30:28Z</time>
      </trkpt>
      <trkpt lat="43.84436" lon="4.23879">
        <ele>252</ele>
        <time>2010-05-02T07:30:30Z</time>
      </trkpt>
      <trkpt lat="43.84438" lon="4.23886">
        <ele>251</ele>
        <time>2010-05-02T07:30:31Z</time>
      </trkpt>
      <trkpt lat="43.8444" lon="4.23895">
        <ele>251</ele>
        <time>2010-05-02T07:30:33Z</time>
      </trkpt>
      <trkpt lat="43.8444" lon="4.23901">
        <ele>251</ele>
        <time>2010-05-02T07:30:35Z</time>
      </trkpt>
      <trkpt lat="43.84441" lon="4.23908">
        <ele>251</ele>
        <time>2010-05-02T07:30:36Z</time>
      </trkpt>
      <trkpt lat="43.84442" lon="4.23914">
        <ele>251</ele>
        <time>2010-05-02T07:30:38Z</time>
      </trkpt>
      <trkpt lat="43.84443" lon="4.23921">
        <ele>252</ele>
        <time>2010-05-02T07:30:39Z</time>
      </trkpt>
      <trkpt lat="43.84444" lon="4.2393">
        <ele>252</ele>
        <time>2010-05-02T07:30:41Z</time>
      </trkpt>
      <trkpt lat="43.84446" lon="4.23943">
        <ele>252</ele>
        <time>2010-05-02T07:30:44Z</time>
      </trkpt>
      <trkpt lat="43.84449" lon="4.23955">
        <ele>252</ele>
        <time>2010-05-02T07:30:49Z</time>
      </trkpt>
      <trkpt lat="43.84452" lon="4.23963">
        <ele>252</ele>
        <time>2010-05-02T07:30:51Z</time>
      </trkpt>
      <trkpt lat="43.84455" lon="4.23974">
        <ele>253</ele>
        <time>2010-05-02T07:30:54Z</time>
      </trkpt>
      <trkpt lat="43.84456" lon="4.23977">
        <ele>253</ele>
        <time>2010-05-02T07:30:54Z</time>
      </trkpt>
      <trkpt lat="43.84459" lon="4.23986">
        <ele>252</ele>
        <time>2010-05-02T07:30:57Z</time>
      </trkpt>
      <trkpt lat="43.84464" lon="4.24004">
        <ele>253</ele>
        <time>2010-05-02T07:31:01Z</time>
      </trkpt>
      <trkpt lat="43.84469" lon="4.24015">
        <ele>253</ele>
        <time>2010-05-02T07:31:04Z</time>
      </trkpt>
      <trkpt lat="43.84472" lon="4.24023">
        <ele>254</ele>
        <time>2010-05-02T07:31:06Z</time>
      </trkpt>
      <trkpt lat="43.84473" lon="4.24026">
        <ele>254</ele>
        <time>2010-05-02T07:31:07Z</time>
      </trkpt>
      <trkpt lat="43.84476" lon="4.24034">
        <ele>254</ele>
        <time>2010-05-02T07:31:09Z</time>
      </trkpt>
      <trkpt lat="43.84477" lon="4.24037">
        <ele>254</ele>
        <time>2010-05-02T07:31:10Z</time>
      </trkpt>
      <trkpt lat="43.8448" lon="4.24044">
        <ele>255</ele>
        <time>2010-05-02T07:31:12Z</time>
      </trkpt>
      <trkpt lat="43.84482" lon="4.2405">
        <ele>255</ele>
        <time>2010-05-02T07:31:14Z</time>
      </trkpt>
      <trkpt lat="43.84486" lon="4.24058">
        <ele>254</ele>
        <time>2010-05-02T07:31:16Z</time>
      </trkpt>
      <trkpt lat="43.84489" lon="4.24062">
        <ele>255</ele>
        <time>2010-05-02T07:31:18Z</time>
      </trkpt>
      <trkpt lat="43.84492" lon="4.24066">
        <ele>255</ele>
        <time>2010-05-02T07:31:19Z</time>
      </trkpt>
      <trkpt lat="43.84499" lon="4.2407">
        <ele>256</ele>
        <time>2010-05-02T07:31:21Z</time>
      </trkpt>
      <trkpt lat="43.84504" lon="4.24071">
        <ele>257</ele>
        <time>2010-05-02T07:31:23Z</time>
      </trkpt>
      <trkpt lat="43.84507" lon="4.24071">
        <ele>257</ele>
        <time>2010-05-02T07:31:24Z</time>
      </trkpt>
      <trkpt lat="43.84513" lon="4.24074">
        <ele>258</ele>
        <time>2010-05-02T07:31:26Z</time>
      </trkpt>
      <trkpt lat="43.84517" lon="4.24077">
        <ele>259</ele>
        <time>2010-05-02T07:31:28Z</time>
      </trkpt>
      <trkpt lat="43.84521" lon="4.24081">
        <ele>260</ele>
        <time>2010-05-02T07:31:31Z</time>
      </trkpt>
      <trkpt lat="43.84525" lon="4.24087">
        <ele>261</ele>
        <time>2010-05-02T07:31:33Z</time>
      </trkpt>
      <trkpt lat="43.84526" lon="4.2409">
        <ele>261</ele>
        <time>2010-05-02T07:31:33Z</time>
      </trkpt>
      <trkpt lat="43.84528" lon="4.24093">
        <ele>261</ele>
        <time>2010-05-02T07:31:34Z</time>
      </trkpt>
      <trkpt lat="43.84531" lon="4.24097">
        <ele>262</ele>
        <time>2010-05-02T07:31:36Z</time>
      </trkpt>
      <trkpt lat="43.84537" lon="4.24104">
        <ele>262</ele>
        <time>2010-05-02T07:31:38Z</time>
      </trkpt>
      <trkpt lat="43.84543" lon="4.24111">
        <ele>263</ele>
        <time>2010-05-02T07:31:39Z</time>
      </trkpt>
      <trkpt lat="43.84549" lon="4.24118">
        <ele>263</ele>
        <time>2010-05-02T07:31:41Z</time>
      </trkpt>
      <trkpt lat="43.84556" lon="4.24125">
        <ele>263</ele>
        <time>2010-05-02T07:31:42Z</time>
      </trkpt>
      <trkpt lat="43.84565" lon="4.24134">
        <ele>264</ele>
        <time>2010-05-02T07:31:45Z</time>
      </trkpt>
      <trkpt lat="43.8457" lon="4.24139">
        <ele>264</ele>
        <time>2010-05-02T07:31:46Z</time>
      </trkpt>
      <trkpt lat="43.84575" lon="4.24144">
        <ele>264</ele>
        <time>2010-05-02T07:31:48Z</time>
      </trkpt>
      <trkpt lat="43.84582" lon="4.24151">
        <ele>263</ele>
        <time>2010-05-02T07:31:50Z</time>
      </trkpt>
      <trkpt lat="43.84587" lon="4.24154">
        <ele>263</ele>
        <time>2010-05-02T07:31:51Z</time>
      </trkpt>
      <trkpt lat="43.84591" lon="4.24157">
        <ele>263</ele>
        <time>2010-05-02T07:31:53Z</time>
      </trkpt>
      <trkpt lat="43.84596" lon="4.24158">
        <ele>263</ele>
        <time>2010-05-02T07:31:54Z</time>
      </trkpt>
      <trkpt lat="43.84603" lon="4.2416">
        <ele>264</ele>
        <time>2010-05-02T07:31:57Z</time>
      </trkpt>
      <trkpt lat="43.84607" lon="4.24161">
        <ele>264</ele>
        <time>2010-05-02T07:31:58Z</time>
      </trkpt>
      <trkpt lat="43.84611" lon="4.24162">
        <ele>265</ele>
        <time>2010-05-02T07:31:59Z</time>
      </trkpt>
      <trkpt lat="43.84617" lon="4.24164">
        <ele>264</ele>
        <time>2010-05-02T07:32:02Z</time>
      </trkpt>
      <trkpt lat="43.84622" lon="4.24165">
        <ele>264</ele>
        <time>2010-05-02T07:32:03Z</time>
      </trkpt>
      <trkpt lat="43.84626" lon="4.24166">
        <ele>264</ele>
        <time>2010-05-02T07:32:05Z</time>
      </trkpt>
      <trkpt lat="43.84633" lon="4.24167">
        <ele>264</ele>
        <time>2010-05-02T07:32:07Z</time>
      </trkpt>
      <trkpt lat="43.84637" lon="4.24168">
        <ele>263</ele>
        <time>2010-05-02T07:32:08Z</time>
      </trkpt>
      <trkpt lat="43.84642" lon="4.24169">
        <ele>263</ele>
        <time>2010-05-02T07:32:10Z</time>
      </trkpt>
      <trkpt lat="43.84649" lon="4.24171">
        <ele>263</ele>
        <time>2010-05-02T07:32:12Z</time>
      </trkpt>
      <trkpt lat="43.84654" lon="4.24172">
        <ele>262</ele>
        <time>2010-05-02T07:32:14Z</time>
      </trkpt>
      <trkpt lat="43.8466" lon="4.24174">
        <ele>263</ele>
        <time>2010-05-02T07:32:16Z</time>
      </trkpt>
      <trkpt lat="43.84664" lon="4.24175">
        <ele>263</ele>
        <time>2010-05-02T07:32:17Z</time>
      </trkpt>
      <trkpt lat="43.84669" lon="4.24176">
        <ele>264</ele>
        <time>2010-05-02T07:32:19Z</time>
      </trkpt>
      <trkpt lat="43.84674" lon="4.24177">
        <ele>264</ele>
        <time>2010-05-02T07:32:21Z</time>
      </trkpt>
      <trkpt lat="43.84682" lon="4.24175">
        <ele>264</ele>
        <time>2010-05-02T07:32:24Z</time>
      </trkpt>
      <trkpt lat="43.84684" lon="4.24175">
        <ele>264</ele>
        <time>2010-05-02T07:32:25Z</time>
      </trkpt>
      <trkpt lat="43.84691" lon="4.24173">
        <ele>264</ele>
        <time>2010-05-02T07:32:27Z</time>
      </trkpt>
      <trkpt lat="43.84695" lon="4.24172">
        <ele>264</ele>
        <time>2010-05-02T07:32:28Z</time>
      </trkpt>
      <trkpt lat="43.84702" lon="4.24171">
        <ele>264</ele>
        <time>2010-05-02T07:32:30Z</time>
      </trkpt>
      <trkpt lat="43.84707" lon="4.2417">
        <ele>266</ele>
        <time>2010-05-02T07:32:32Z</time>
      </trkpt>
      <trkpt lat="43.84713" lon="4.24169">
        <ele>266</ele>
        <time>2010-05-02T07:32:34Z</time>
      </trkpt>
      <trkpt lat="43.84717" lon="4.24169">
        <ele>267</ele>
        <time>2010-05-02T07:32:35Z</time>
      </trkpt>
      <trkpt lat="43.84721" lon="4.2417">
        <ele>267</ele>
        <time>2010-05-02T07:32:38Z</time>
      </trkpt>
      <trkpt lat="43.84723" lon="4.2417">
        <ele>268</ele>
        <time>2010-05-02T07:32:40Z</time>
      </trkpt>
      <trkpt lat="43.84724" lon="4.2417">
        <ele>269</ele>
        <time>2010-05-02T07:32:41Z</time>
      </trkpt>
      <trkpt lat="43.84727" lon="4.24172">
        <ele>270</ele>
        <time>2010-05-02T07:32:43Z</time>
      </trkpt>
      <trkpt lat="43.84729" lon="4.24174">
        <ele>270</ele>
        <time>2010-05-02T07:32:45Z</time>
      </trkpt>
      <trkpt lat="43.84733" lon="4.24177">
        <ele>271</ele>
        <time>2010-05-02T07:32:47Z</time>
      </trkpt>
      <trkpt lat="43.84733" lon="4.24177">
        <ele>271</ele>
        <time>2010-05-02T07:32:49Z</time>
      </trkpt>
      <trkpt lat="43.84733" lon="4.24177">
        <ele>271</ele>
        <time>2010-05-02T07:32:51Z</time>
      </trkpt>
      <trkpt lat="43.84746" lon="4.24186">
        <ele>272</ele>
        <time>2010-05-02T07:32:54Z</time>
      </trkpt>
      <trkpt lat="43.84762" lon="4.24198">
        <ele>268</ele>
        <time>2010-05-02T07:32:58Z</time>
      </trkpt>
      <trkpt lat="43.84771" lon="4.24209">
        <ele>265</ele>
        <time>2010-05-02T07:33:01Z</time>
      </trkpt>
      <trkpt lat="43.84778" lon="4.24218">
        <ele>264</ele>
        <time>2010-05-02T07:33:04Z</time>
      </trkpt>
      <trkpt lat="43.8478" lon="4.2422">
        <ele>264</ele>
        <time>2010-05-02T07:33:06Z</time>
      </trkpt>
      <trkpt lat="43.84787" lon="4.24231">
        <ele>263</ele>
        <time>2010-05-02T07:33:09Z</time>
      </trkpt>
      <trkpt lat="43.84795" lon="4.24239">
        <ele>263</ele>
        <time>2010-05-02T07:33:11Z</time>
      </trkpt>
      <trkpt lat="43.84812" lon="4.24241">
        <ele>261</ele>
        <time>2010-05-02T07:33:14Z</time>
      </trkpt>
      <trkpt lat="43.84817" lon="4.2424">
        <ele>261</ele>
        <time>2010-05-02T07:33:15Z</time>
      </trkpt>
      <trkpt lat="43.84831" lon="4.24236">
        <ele>260</ele>
        <time>2010-05-02T07:33:18Z</time>
      </trkpt>
      <trkpt lat="43.84833" lon="4.24236">
        <ele>260</ele>
        <time>2010-05-02T07:33:18Z</time>
      </trkpt>
      <trkpt lat="43.84839" lon="4.24234">
        <ele>258</ele>
        <time>2010-05-02T07:33:20Z</time>
      </trkpt>
      <trkpt lat="43.84845" lon="4.24232">
        <ele>258</ele>
        <time>2010-05-02T07:33:22Z</time>
      </trkpt>
      <trkpt lat="43.84853" lon="4.24228">
        <ele>256</ele>
        <time>2010-05-02T07:33:24Z</time>
      </trkpt>
      <trkpt lat="43.84859" lon="4.24226">
        <ele>255</ele>
        <time>2010-05-02T07:33:26Z</time>
      </trkpt>
      <trkpt lat="43.84867" lon="4.24224">
        <ele>254</ele>
        <time>2010-05-02T07:33:27Z</time>
      </trkpt>
      <trkpt lat="43.84878" lon="4.2422">
        <ele>254</ele>
        <time>2010-05-02T07:33:30Z</time>
      </trkpt>
      <trkpt lat="43.84885" lon="4.2422">
        <ele>253</ele>
        <time>2010-05-02T07:33:32Z</time>
      </trkpt>
      <trkpt lat="43.84885" lon="4.2422">
        <ele>253</ele>
        <time>2010-05-02T07:33:34Z</time>
      </trkpt>
      <trkpt lat="43.84885" lon="4.2422">
        <ele>253</ele>
        <time>2010-05-02T07:33:35Z</time>
      </trkpt>
      <trkpt lat="43.84885" lon="4.2422">
        <ele>253</ele>
        <time>2010-05-02T07:33:39Z</time>
      </trkpt>
      <trkpt lat="43.84885" lon="4.2422">
        <ele>253</ele>
        <time>2010-05-02T07:33:40Z</time>
      </trkpt>
      <trkpt lat="43.84885" lon="4.2422">
        <ele>253</ele>
        <time>2010-05-02T07:33:42Z</time>
      </trkpt>
      <trkpt lat="43.84885" lon="4.2422">
        <ele>253</ele>
        <time>2010-05-02T07:33:45Z</time>
      </trkpt>
      <trkpt lat="43.84885" lon="4.2422">
        <ele>253</ele>
        <time>2010-05-02T07:33:48Z</time>
      </trkpt>
      <trkpt lat="43.84885" lon="4.2422">
        <ele>253</ele>
        <time>2010-05-02T07:33:49Z</time>
      </trkpt>
      <trkpt lat="43.84885" lon="4.2422">
        <ele>253</ele>
        <time>2010-05-02T07:33:50Z</time>
      </trkpt>
      <trkpt lat="43.84885" lon="4.2422">
        <ele>253</ele>
        <time>2010-05-02T07:33:52Z</time>
      </trkpt>
      <trkpt lat="43.84885" lon="4.2422">
        <ele>253</ele>
        <time>2010-05-02T07:33:53Z</time>
      </trkpt>
      <trkpt lat="43.84885" lon="4.2422">
        <ele>253</ele>
        <time>2010-05-02T07:33:55Z</time>
      </trkpt>
      <trkpt lat="43.84885" lon="4.2422">
        <ele>253</ele>
        <time>2010-05-02T07:33:57Z</time>
      </trkpt>
      <trkpt lat="43.84885" lon="4.2422">
        <ele>253</ele>
        <time>2010-05-02T07:33:59Z</time>
      </trkpt>
      <trkpt lat="43.84885" lon="4.2422">
        <ele>253</ele>
        <time>2010-05-02T07:34:01Z</time>
      </trkpt>
      <trkpt lat="43.84885" lon="4.2422">
        <ele>253</ele>
        <time>2010-05-02T07:34:02Z</time>
      </trkpt>
      <trkpt lat="43.84885" lon="4.2422">
        <ele>253</ele>
        <time>2010-05-02T07:34:04Z</time>
      </trkpt>
      <trkpt lat="43.84885" lon="4.2422">
        <ele>253</ele>
        <time>2010-05-02T07:34:06Z</time>
      </trkpt>
      <trkpt lat="43.84885" lon="4.2422">
        <ele>253</ele>
        <time>2010-05-02T07:34:08Z</time>
      </trkpt>
      <trkpt lat="43.84885" lon="4.2422">
        <ele>253</ele>
        <time>2010-05-02T07:34:09Z</time>
      </trkpt>
      <trkpt lat="43.84885" lon="4.2422">
        <ele>253</ele>
        <time>2010-05-02T07:34:11Z</time>
      </trkpt>
      <trkpt lat="43.84885" lon="4.2422">
        <ele>253</ele>
        <time>2010-05-02T07:34:13Z</time>
      </trkpt>
      <trkpt lat="43.84885" lon="4.2422">
        <ele>253</ele>
        <time>2010-05-02T07:34:14Z</time>
      </trkpt>
      <trkpt lat="43.84885" lon="4.2422">
        <ele>253</ele>
        <time>2010-05-02T07:34:16Z</time>
      </trkpt>
      <trkpt lat="43.84885" lon="4.2422">
        <ele>253</ele>
        <time>2010-05-02T07:34:19Z</time>
      </trkpt>
      <trkpt lat="43.84885" lon="4.2422">
        <ele>253</ele>
        <time>2010-05-02T07:34:21Z</time>
      </trkpt>
      <trkpt lat="43.84885" lon="4.2422">
        <ele>253</ele>
        <time>2010-05-02T07:34:21Z</time>
      </trkpt>
      <trkpt lat="43.84893" lon="4.24227">
        <ele>249</ele>
        <time>2010-05-02T07:34:24Z</time>
      </trkpt>
      <trkpt lat="43.84893" lon="4.24227">
        <ele>249</ele>
        <time>2010-05-02T07:34:26Z</time>
      </trkpt>
      <trkpt lat="43.84893" lon="4.24227">
        <ele>249</ele>
        <time>2010-05-02T07:34:29Z</time>
      </trkpt>
      <trkpt lat="43.84893" lon="4.24227">
        <ele>249</ele>
        <time>2010-05-02T07:34:31Z</time>
      </trkpt>
      <trkpt lat="43.84893" lon="4.24227">
        <ele>249</ele>
        <time>2010-05-02T07:34:34Z</time>
      </trkpt>
      <trkpt lat="43.84893" lon="4.24227">
        <ele>249</ele>
        <time>2010-05-02T07:34:40Z</time>
      </trkpt>
      <trkpt lat="43.84893" lon="4.24227">
        <ele>249</ele>
        <time>2010-05-02T07:34:44Z</time>
      </trkpt>
      <trkpt lat="43.84893" lon="4.24227">
        <ele>249</ele>
        <time>2010-05-02T07:34:45Z</time>
      </trkpt>
      <trkpt lat="43.84893" lon="4.24227">
        <ele>249</ele>
        <time>2010-05-02T07:34:49Z</time>
      </trkpt>
      <trkpt lat="43.84893" lon="4.24227">
        <ele>249</ele>
        <time>2010-05-02T07:34:50Z</time>
      </trkpt>
      <trkpt lat="43.84893" lon="4.24227">
        <ele>249</ele>
        <time>2010-05-02T07:34:53Z</time>
      </trkpt>
      <trkpt lat="43.84893" lon="4.24227">
        <ele>249</ele>
        <time>2010-05-02T07:34:55Z</time>
      </trkpt>
      <trkpt lat="43.84893" lon="4.24227">
        <ele>249</ele>
        <time>2010-05-02T07:34:56Z</time>
      </trkpt>
      <trkpt lat="43.84893" lon="4.24227">
        <ele>249</ele>
        <time>2010-05-02T07:34:56Z</time>
      </trkpt>
      <trkpt lat="43.84893" lon="4.24227">
        <ele>249</ele>
        <time>2010-05-02T07:34:59Z</time>
      </trkpt>
      <trkpt lat="43.84893" lon="4.24227">
        <ele>249</ele>
        <time>2010-05-02T07:35:01Z</time>
      </trkpt>
      <trkpt lat="43.84893" lon="4.24227">
        <ele>249</ele>
        <time>2010-05-02T07:35:02Z</time>
      </trkpt>
      <trkpt lat="43.84893" lon="4.24227">
        <ele>249</ele>
        <time>2010-05-02T07:35:05Z</time>
      </trkpt>
      <trkpt lat="43.84893" lon="4.24227">
        <ele>249</ele>
        <time>2010-05-02T07:35:06Z</time>
      </trkpt>
      <trkpt lat="43.84893" lon="4.24227">
        <ele>249</ele>
        <time>2010-05-02T07:35:07Z</time>
      </trkpt>
      <trkpt lat="43.84893" lon="4.24227">
        <ele>249</ele>
        <time>2010-05-02T07:35:09Z</time>
      </trkpt>
      <trkpt lat="43.84893" lon="4.24227">
        <ele>249</ele>
        <time>2010-05-02T07:35:11Z</time>
      </trkpt>
      <trkpt lat="43.84893" lon="4.24227">
        <ele>249</ele>
        <time>2010-05-02T07:35:13Z</time>
      </trkpt>
      <trkpt lat="43.84893" lon="4.24227">
        <ele>249</ele>
        <time>2010-05-02T07:35:15Z</time>
      </trkpt>
      <trkpt lat="43.84893" lon="4.24227">
        <ele>249</ele>
        <time>2010-05-02T07:35:16Z</time>
      </trkpt>
      <trkpt lat="43.84893" lon="4.24227">
        <ele>249</ele>
        <time>2010-05-02T07:35:18Z</time>
      </trkpt>
      <trkpt lat="43.84893" lon="4.24227">
        <ele>249</ele>
        <time>2010-05-02T07:35:20Z</time>
      </trkpt>
      <trkpt lat="43.84893" lon="4.24227">
        <ele>249</ele>
        <time>2010-05-02T07:35:22Z</time>
      </trkpt>
      <trkpt lat="43.84893" lon="4.24227">
        <ele>249</ele>
        <time>2010-05-02T07:35:23Z</time>
      </trkpt>
      <trkpt lat="43.84893" lon="4.24227">
        <ele>249</ele>
        <time>2010-05-02T07:35:25Z</time>
      </trkpt>
      <trkpt lat="43.84893" lon="4.24227">
        <ele>249</ele>
        <time>2010-05-02T07:35:27Z</time>
      </trkpt>
      <trkpt lat="43.84893" lon="4.24227">
        <ele>249</ele>
        <time>2010-05-02T07:35:29Z</time>
      </trkpt>
      <trkpt lat="43.84893" lon="4.24227">
        <ele>249</ele>
        <time>2010-05-02T07:35:30Z</time>
      </trkpt>
      <trkpt lat="43.84893" lon="4.24227">
        <ele>249</ele>
        <time>2010-05-02T07:35:32Z</time>
      </trkpt>
      <trkpt lat="43.84893" lon="4.24227">
        <ele>249</ele>
        <time>2010-05-02T07:35:34Z</time>
      </trkpt>
      <trkpt lat="43.84893" lon="4.24227">
        <ele>249</ele>
        <time>2010-05-02T07:35:35Z</time>
      </trkpt>
      <trkpt lat="43.84893" lon="4.24227">
        <ele>249</ele>
        <time>2010-05-02T07:35:38Z</time>
      </trkpt>
      <trkpt lat="43.84893" lon="4.24227">
        <ele>249</ele>
        <time>2010-05-02T07:35:39Z</time>
      </trkpt>
      <trkpt lat="43.84893" lon="4.24227">
        <ele>249</ele>
        <time>2010-05-02T07:35:41Z</time>
      </trkpt>
      <trkpt lat="43.84893" lon="4.24227">
        <ele>249</ele>
        <time>2010-05-02T07:35:43Z</time>
      </trkpt>
      <trkpt lat="43.84893" lon="4.24227">
        <ele>249</ele>
        <time>2010-05-02T07:35:44Z</time>
      </trkpt>
      <trkpt lat="43.84893" lon="4.24227">
        <ele>249</ele>
        <time>2010-05-02T07:35:47Z</time>
      </trkpt>
      <trkpt lat="43.84893" lon="4.24227">
        <ele>249</ele>
        <time>2010-05-02T07:35:48Z</time>
      </trkpt>
      <trkpt lat="43.84893" lon="4.24234">
        <ele>235</ele>
        <time>2010-05-02T07:35:50Z</time>
      </trkpt>
      <trkpt lat="43.84893" lon="4.24234">
        <ele>235</ele>
        <time>2010-05-02T07:35:52Z</time>
      </trkpt>
      <trkpt lat="43.84893" lon="4.24234">
        <ele>235</ele>
        <time>2010-05-02T07:35:54Z</time>
      </trkpt>
      <trkpt lat="43.84893" lon="4.24234">
        <ele>235</ele>
        <time>2010-05-02T07:35:55Z</time>
      </trkpt>
      <trkpt lat="43.84893" lon="4.24234">
        <ele>235</ele>
        <time>2010-05-02T07:35:57Z</time>
      </trkpt>
      <trkpt lat="43.84893" lon="4.24234">
        <ele>235</ele>
        <time>2010-05-02T07:35:59Z</time>
      </trkpt>
      <trkpt lat="43.84893" lon="4.24234">
        <ele>235</ele>
        <time>2010-05-02T07:36:01Z</time>
      </trkpt>
      <trkpt lat="43.84893" lon="4.24234">
        <ele>235</ele>
        <time>2010-05-02T07:36:03Z</time>
      </trkpt>
      <trkpt lat="43.84893" lon="4.24234">
        <ele>235</ele>
        <time>2010-05-02T07:36:04Z</time>
      </trkpt>
      <trkpt lat="43.84893" lon="4.24234">
        <ele>235</ele>
        <time>2010-05-02T07:36:06Z</time>
      </trkpt>
      <trkpt lat="43.84893" lon="4.24234">
        <ele>235</ele>
        <time>2010-05-02T07:36:08Z</time>
      </trkpt>
      <trkpt lat="43.84893" lon="4.24234">
        <ele>235</ele>
        <time>2010-05-02T07:36:10Z</time>
      </trkpt>
      <trkpt lat="43.84892" lon="4.24235">
        <ele>236</ele>
        <time>2010-05-02T07:36:12Z</time>
      </trkpt>
      <trkpt lat="43.84892" lon="4.24235">
        <ele>236</ele>
        <time>2010-05-02T07:36:14Z</time>
      </trkpt>
      <trkpt lat="43.84892" lon="4.24235">
        <ele>236</ele>
        <time>2010-05-02T07:36:15Z</time>
      </trkpt>
      <trkpt lat="43.84892" lon="4.24235">
        <ele>235</ele>
        <time>2010-05-02T07:36:19Z</time>
      </trkpt>
      <trkpt lat="43.84892" lon="4.24235">
        <ele>235</ele>
        <time>2010-05-02T07:36:21Z</time>
      </trkpt>
      <trkpt lat="43.84892" lon="4.24235">
        <ele>234</ele>
        <time>2010-05-02T07:36:23Z</time>
      </trkpt>
      <trkpt lat="43.84893" lon="4.24235">
        <ele>234</ele>
        <time>2010-05-02T07:36:27Z</time>
      </trkpt>
      <trkpt lat="43.84893" lon="4.24235">
        <ele>234</ele>
        <time>2010-05-02T07:36:27Z</time>
      </trkpt>
      <trkpt lat="43.84893" lon="4.24235">
        <ele>234</ele>
        <time>2010-05-02T07:36:30Z</time>
      </trkpt>
      <trkpt lat="43.84893" lon="4.24235">
        <ele>234</ele>
        <time>2010-05-02T07:36:33Z</time>
      </trkpt>
      <trkpt lat="43.84893" lon="4.24235">
        <ele>234</ele>
        <time>2010-05-02T07:36:35Z</time>
      </trkpt>
      <trkpt lat="43.84893" lon="4.24235">
        <ele>234</ele>
        <time>2010-05-02T07:36:38Z</time>
      </trkpt>
      <trkpt lat="43.84893" lon="4.24235">
        <ele>234</ele>
        <time>2010-05-02T07:36:41Z</time>
      </trkpt>
      <trkpt lat="43.84893" lon="4.24235">
        <ele>234</ele>
        <time>2010-05-02T07:36:44Z</time>
      </trkpt>
      <trkpt lat="43.84893" lon="4.24235">
        <ele>234</ele>
        <time>2010-05-02T07:36:47Z</time>
      </trkpt>
      <trkpt lat="43.84893" lon="4.24235">
        <ele>234</ele>
        <time>2010-05-02T07:36:48Z</time>
      </trkpt>
      <trkpt lat="43.84892" lon="4.24235">
        <ele>234</ele>
        <time>2010-05-02T07:36:50Z</time>
      </trkpt>
      <trkpt lat="43.84892" lon="4.24235">
        <ele>234</ele>
        <time>2010-05-02T07:36:50Z</time>
      </trkpt>
      <trkpt lat="43.84892" lon="4.24235">
        <ele>234</ele>
        <time>2010-05-02T07:36:52Z</time>
      </trkpt>
      <trkpt lat="43.84892" lon="4.24235">
        <ele>235</ele>
        <time>2010-05-02T07:36:53Z</time>
      </trkpt>
      <trkpt lat="43.84892" lon="4.24235">
        <ele>234</ele>
        <time>2010-05-02T07:36:56Z</time>
      </trkpt>
      <trkpt lat="43.84892" lon="4.24235">
        <ele>234</ele>
        <time>2010-05-02T07:36:58Z</time>
      </trkpt>
      <trkpt lat="43.84892" lon="4.24235">
        <ele>234</ele>
        <time>2010-05-02T07:37:02Z</time>
      </trkpt>
      <trkpt lat="43.84892" lon="4.24235">
        <ele>235</ele>
        <time>2010-05-02T07:37:04Z</time>
      </trkpt>
      <trkpt lat="43.84892" lon="4.24233">
        <ele>235</ele>
        <time>2010-05-02T07:37:06Z</time>
      </trkpt>
      <trkpt lat="43.84893" lon="4.24231">
        <ele>236</ele>
        <time>2010-05-02T07:37:07Z</time>
      </trkpt>
      <trkpt lat="43.84894" lon="4.24229">
        <ele>236</ele>
        <time>2010-05-02T07:37:10Z</time>
      </trkpt>
      <trkpt lat="43.84899" lon="4.24227">
        <ele>237</ele>
        <time>2010-05-02T07:37:11Z</time>
      </trkpt>
      <trkpt lat="43.84905" lon="4.24225">
        <ele>238</ele>
        <time>2010-05-02T07:37:13Z</time>
      </trkpt>
      <trkpt lat="43.84914" lon="4.24221">
        <ele>238</ele>
        <time>2010-05-02T07:37:16Z</time>
      </trkpt>
      <trkpt lat="43.84927" lon="4.24213">
        <ele>238</ele>
        <time>2010-05-02T07:37:19Z</time>
      </trkpt>
      <trkpt lat="43.84938" lon="4.24208">
        <ele>238</ele>
        <time>2010-05-02T07:37:21Z</time>
      </trkpt>
      <trkpt lat="43.84942" lon="4.24206">
        <ele>239</ele>
        <time>2010-05-02T07:37:22Z</time>
      </trkpt>
      <trkpt lat="43.84949" lon="4.24203">
        <ele>238</ele>
        <time>2010-05-02T07:37:23Z</time>
      </trkpt>
      <trkpt lat="43.84957" lon="4.242">
        <ele>238</ele>
        <time>2010-05-02T07:37:25Z</time>
      </trkpt>
      <trkpt lat="43.84977" lon="4.24189">
        <ele>238</ele>
        <time>2010-05-02T07:37:29Z</time>
      </trkpt>
      <trkpt lat="43.84985" lon="4.24186">
        <ele>238</ele>
        <time>2010-05-02T07:37:30Z</time>
      </trkpt>
      <trkpt lat="43.84996" lon="4.2418">
        <ele>239</ele>
        <time>2010-05-02T07:37:33Z</time>
      </trkpt>
      <trkpt lat="43.85005" lon="4.2417">
        <ele>239</ele>
        <time>2010-05-02T07:37:35Z</time>
      </trkpt>
      <trkpt lat="43.85011" lon="4.24164">
        <ele>239</ele>
        <time>2010-05-02T07:37:37Z</time>
      </trkpt>
      <trkpt lat="43.85013" lon="4.24162">
        <ele>239</ele>
        <time>2010-05-02T07:37:37Z</time>
      </trkpt>
      <trkpt lat="43.85018" lon="4.24157">
        <ele>239</ele>
        <time>2010-05-02T07:37:39Z</time>
      </trkpt>
      <trkpt lat="43.85024" lon="4.24154">
        <ele>239</ele>
        <time>2010-05-02T07:37:40Z</time>
      </trkpt>
      <trkpt lat="43.85031" lon="4.24151">
        <ele>240</ele>
        <time>2010-05-02T07:37:43Z</time>
      </trkpt>
      <trkpt lat="43.85036" lon="4.24149">
        <ele>240</ele>
        <time>2010-05-02T07:37:44Z</time>
      </trkpt>
      <trkpt lat="43.85043" lon="4.24145">
        <ele>241</ele>
        <time>2010-05-02T07:37:47Z</time>
      </trkpt>
      <trkpt lat="43.85046" lon="4.24143">
        <ele>241</ele>
        <time>2010-05-02T07:37:48Z</time>
      </trkpt>
      <trkpt lat="43.85049" lon="4.24136">
        <ele>241</ele>
        <time>2010-05-02T07:37:51Z</time>
      </trkpt>
      <trkpt lat="43.85052" lon="4.24129">
        <ele>240</ele>
        <time>2010-05-02T07:37:53Z</time>
      </trkpt>
      <trkpt lat="43.85055" lon="4.24124">
        <ele>241</ele>
        <time>2010-05-02T07:37:54Z</time>
      </trkpt>
      <trkpt lat="43.8506" lon="4.24115">
        <ele>241</ele>
        <time>2010-05-02T07:37:57Z</time>
      </trkpt>
      <trkpt lat="43.85064" lon="4.24109">
        <ele>242</ele>
        <time>2010-05-02T07:37:58Z</time>
      </trkpt>
      <trkpt lat="43.85073" lon="4.24098">
        <ele>242</ele>
        <time>2010-05-02T07:38:00Z</time>
      </trkpt>
      <trkpt lat="43.85084" lon="4.24088">
        <ele>242</ele>
        <time>2010-05-02T07:38:03Z</time>
      </trkpt>
      <trkpt lat="43.85091" lon="4.24082">
        <ele>242</ele>
        <time>2010-05-02T07:38:04Z</time>
      </trkpt>
      <trkpt lat="43.85101" lon="4.24073">
        <ele>243</ele>
        <time>2010-05-02T07:38:07Z</time>
      </trkpt>
      <trkpt lat="43.85104" lon="4.24062">
        <ele>242</ele>
        <time>2010-05-02T07:38:09Z</time>
      </trkpt>
      <trkpt lat="43.85104" lon="4.24056">
        <ele>242</ele>
        <time>2010-05-02T07:38:13Z</time>
      </trkpt>
      <trkpt lat="43.85104" lon="4.24056">
        <ele>242</ele>
        <time>2010-05-02T07:38:14Z</time>
      </trkpt>
      <trkpt lat="43.85095" lon="4.24059">
        <ele>244</ele>
        <time>2010-05-02T07:38:16Z</time>
      </trkpt>
      <trkpt lat="43.85091" lon="4.24062">
        <ele>245</ele>
        <time>2010-05-02T07:38:19Z</time>
      </trkpt>
      <trkpt lat="43.85091" lon="4.24062">
        <ele>245</ele>
        <time>2010-05-02T07:38:21Z</time>
      </trkpt>
      <trkpt lat="43.85091" lon="4.24062">
        <ele>245</ele>
        <time>2010-05-02T07:38:22Z</time>
      </trkpt>
      <trkpt lat="43.85077" lon="4.24076">
        <ele>248</ele>
        <time>2010-05-02T07:38:25Z</time>
      </trkpt>
      <trkpt lat="43.85077" lon="4.24076">
        <ele>248</ele>
        <time>2010-05-02T07:38:28Z</time>
      </trkpt>
      <trkpt lat="43.85069" lon="4.24085">
        <ele>250</ele>
        <time>2010-05-02T07:38:30Z</time>
      </trkpt>
      <trkpt lat="43.85066" lon="4.24088">
        <ele>250</ele>
        <time>2010-05-02T07:38:31Z</time>
      </trkpt>
      <trkpt lat="43.85064" lon="4.24089">
        <ele>251</ele>
        <time>2010-05-02T07:38:34Z</time>
      </trkpt>
      <trkpt lat="43.85064" lon="4.24089">
        <ele>251</ele>
        <time>2010-05-02T07:38:34Z</time>
      </trkpt>
      <trkpt lat="43.85064" lon="4.24089">
        <ele>251</ele>
        <time>2010-05-02T07:38:36Z</time>
      </trkpt>
      <trkpt lat="43.85064" lon="4.24089">
        <ele>251</ele>
        <time>2010-05-02T07:38:38Z</time>
      </trkpt>
      <trkpt lat="43.85064" lon="4.24089">
        <ele>251</ele>
        <time>2010-05-02T07:38:42Z</time>
      </trkpt>
      <trkpt lat="43.85037" lon="4.24101">
        <ele>254</ele>
        <time>2010-05-02T07:38:44Z</time>
      </trkpt>
      <trkpt lat="43.85037" lon="4.24101">
        <ele>254</ele>
        <time>2010-05-02T07:38:45Z</time>
      </trkpt>
      <trkpt lat="43.85022" lon="4.24099">
        <ele>254</ele>
        <time>2010-05-02T07:38:48Z</time>
      </trkpt>
      <trkpt lat="43.85014" lon="4.24095">
        <ele>255</ele>
        <time>2010-05-02T07:38:50Z</time>
      </trkpt>
      <trkpt lat="43.85011" lon="4.24094">
        <ele>255</ele>
        <time>2010-05-02T07:38:51Z</time>
      </trkpt>
      <trkpt lat="43.85001" lon="4.24085">
        <ele>256</ele>
        <time>2010-05-02T07:38:54Z</time>
      </trkpt>
      <trkpt lat="43.84997" lon="4.24081">
        <ele>256</ele>
        <time>2010-05-02T07:38:56Z</time>
      </trkpt>
      <trkpt lat="43.84991" lon="4.24076">
        <ele>255</ele>
        <time>2010-05-02T07:38:58Z</time>
      </trkpt>
      <trkpt lat="43.84984" lon="4.2407">
        <ele>253</ele>
        <time>2010-05-02T07:39:00Z</time>
      </trkpt>
      <trkpt lat="43.84975" lon="4.24065">
        <ele>252</ele>
        <time>2010-05-02T07:39:02Z</time>
      </trkpt>
      <trkpt lat="43.84972" lon="4.24063">
        <ele>252</ele>
        <time>2010-05-02T07:39:03Z</time>
      </trkpt>
      <trkpt lat="43.84961" lon="4.24053">
        <ele>250</ele>
        <time>2010-05-02T07:39:07Z</time>
      </trkpt>
      <trkpt lat="43.84961" lon="4.24053">
        <ele>250</ele>
        <time>2010-05-02T07:39:09Z</time>
      </trkpt>
      <trkpt lat="43.84961" lon="4.24053">
        <ele>250</ele>
        <time>2010-05-02T07:39:11Z</time>
      </trkpt>
      <trkpt lat="43.84941" lon="4.24043">
        <ele>249</ele>
        <time>2010-05-02T07:39:13Z</time>
      </trkpt>
      <trkpt lat="43.84933" lon="4.24037">
        <ele>250</ele>
        <time>2010-05-02T07:39:15Z</time>
      </trkpt>
      <trkpt lat="43.8493" lon="4.24035">
        <ele>250</ele>
        <time>2010-05-02T07:39:16Z</time>
      </trkpt>
      <trkpt lat="43.84924" lon="4.2403">
        <ele>250</ele>
        <time>2010-05-02T07:39:18Z</time>
      </trkpt>
      <trkpt lat="43.8491" lon="4.24017">
        <ele>249</ele>
        <time>2010-05-02T07:39:22Z</time>
      </trkpt>
      <trkpt lat="43.84902" lon="4.24011">
        <ele>247</ele>
        <time>2010-05-02T07:39:24Z</time>
      </trkpt>
      <trkpt lat="43.84895" lon="4.24006">
        <ele>247</ele>
        <time>2010-05-02T07:39:26Z</time>
      </trkpt>
      <trkpt lat="43.84891" lon="4.24003">
        <ele>247</ele>
        <time>2010-05-02T07:39:28Z</time>
      </trkpt>
      <trkpt lat="43.84884" lon="4.23999">
        <ele>246</ele>
        <time>2010-05-02T07:39:30Z</time>
      </trkpt>
      <trkpt lat="43.84881" lon="4.23997">
        <ele>246</ele>
        <time>2010-05-02T07:39:31Z</time>
      </trkpt>
      <trkpt lat="43.84874" lon="4.23988">
        <ele>247</ele>
        <time>2010-05-02T07:39:34Z</time>
      </trkpt>
      <trkpt lat="43.8487" lon="4.23981">
        <ele>247</ele>
        <time>2010-05-02T07:39:36Z</time>
      </trkpt>
      <trkpt lat="43.84867" lon="4.23971">
        <ele>247</ele>
        <time>2010-05-02T07:39:39Z</time>
      </trkpt>
      <trkpt lat="43.84864" lon="4.23962">
        <ele>246</ele>
        <time>2010-05-02T07:39:41Z</time>
      </trkpt>
      <trkpt lat="43.84862" lon="4.23956">
        <ele>245</ele>
        <time>2010-05-02T07:39:42Z</time>
      </trkpt>
      <trkpt lat="43.84861" lon="4.23953">
        <ele>245</ele>
        <time>2010-05-02T07:39:43Z</time>
      </trkpt>
      <trkpt lat="43.84853" lon="4.23939">
        <ele>243</ele>
        <time>2010-05-02T07:39:47Z</time>
      </trkpt>
      <trkpt lat="43.8485" lon="4.23933">
        <ele>243</ele>
        <time>2010-05-02T07:39:48Z</time>
      </trkpt>
      <trkpt lat="43.84845" lon="4.2392">
        <ele>243</ele>
        <time>2010-05-02T07:39:51Z</time>
      </trkpt>
      <trkpt lat="43.84842" lon="4.23914">
        <ele>243</ele>
        <time>2010-05-02T07:39:53Z</time>
      </trkpt>
      <trkpt lat="43.84837" lon="4.23905">
        <ele>243</ele>
        <time>2010-05-02T07:39:55Z</time>
      </trkpt>
      <trkpt lat="43.84836" lon="4.23901">
        <ele>244</ele>
        <time>2010-05-02T07:39:56Z</time>
      </trkpt>
      <trkpt lat="43.84833" lon="4.23895">
        <ele>245</ele>
        <time>2010-05-02T07:39:57Z</time>
      </trkpt>
      <trkpt lat="43.84828" lon="4.23888">
        <ele>246</ele>
        <time>2010-05-02T07:39:59Z</time>
      </trkpt>
      <trkpt lat="43.84824" lon="4.2388">
        <ele>245</ele>
        <time>2010-05-02T07:40:01Z</time>
      </trkpt>
      <trkpt lat="43.8482" lon="4.23875">
        <ele>245</ele>
        <time>2010-05-02T07:40:03Z</time>
      </trkpt>
      <trkpt lat="43.84817" lon="4.23869">
        <ele>245</ele>
        <time>2010-05-02T07:40:05Z</time>
      </trkpt>
      <trkpt lat="43.84812" lon="4.23858">
        <ele>246</ele>
        <time>2010-05-02T07:40:07Z</time>
      </trkpt>
      <trkpt lat="43.8481" lon="4.23848">
        <ele>247</ele>
        <time>2010-05-02T07:40:11Z</time>
      </trkpt>
      <trkpt lat="43.8481" lon="4.23848">
        <ele>247</ele>
        <time>2010-05-02T07:40:13Z</time>
      </trkpt>
      <trkpt lat="43.8481" lon="4.23848">
        <ele>247</ele>
        <time>2010-05-02T07:40:15Z</time>
      </trkpt>
      <trkpt lat="43.84806" lon="4.23821">
        <ele>247</ele>
        <time>2010-05-02T07:40:17Z</time>
      </trkpt>
      <trkpt lat="43.84806" lon="4.23821">
        <ele>247</ele>
        <time>2010-05-02T07:40:19Z</time>
      </trkpt>
      <trkpt lat="43.84806" lon="4.23821">
        <ele>247</ele>
        <time>2010-05-02T07:40:20Z</time>
      </trkpt>
      <trkpt lat="43.84804" lon="4.23805">
        <ele>246</ele>
        <time>2010-05-02T07:40:21Z</time>
      </trkpt>
      <trkpt lat="43.84804" lon="4.23805">
        <ele>246</ele>
        <time>2010-05-02T07:40:25Z</time>
      </trkpt>
      <trkpt lat="43.84797" lon="4.23783">
        <ele>247</ele>
        <time>2010-05-02T07:40:27Z</time>
      </trkpt>
      <trkpt lat="43.84796" lon="4.2378">
        <ele>247</ele>
        <time>2010-05-02T07:40:29Z</time>
      </trkpt>
      <trkpt lat="43.84791" lon="4.23771">
        <ele>249</ele>
        <time>2010-05-02T07:40:32Z</time>
      </trkpt>
      <trkpt lat="43.8479" lon="4.2377">
        <ele>249</ele>
        <time>2010-05-02T07:40:34Z</time>
      </trkpt>
      <trkpt lat="43.8479" lon="4.2377">
        <ele>249</ele>
        <time>2010-05-02T07:40:35Z</time>
      </trkpt>
      <trkpt lat="43.84786" lon="4.23765">
        <ele>251</ele>
        <time>2010-05-02T07:40:37Z</time>
      </trkpt>
      <trkpt lat="43.8478" lon="4.23761">
        <ele>252</ele>
        <time>2010-05-02T07:40:39Z</time>
      </trkpt>
      <trkpt lat="43.84775" lon="4.23757">
        <ele>253</ele>
        <time>2010-05-02T07:40:41Z</time>
      </trkpt>
      <trkpt lat="43.84773" lon="4.23756">
        <ele>253</ele>
        <time>2010-05-02T07:40:42Z</time>
      </trkpt>
      <trkpt lat="43.84768" lon="4.23754">
        <ele>255</ele>
        <time>2010-05-02T07:40:44Z</time>
      </trkpt>
      <trkpt lat="43.84762" lon="4.23751">
        <ele>256</ele>
        <time>2010-05-02T07:40:46Z</time>
      </trkpt>
      <trkpt lat="43.84757" lon="4.23748">
        <ele>256</ele>
        <time>2010-05-02T07:40:47Z</time>
      </trkpt>
      <trkpt lat="43.84743" lon="4.23741">
        <ele>257</ele>
        <time>2010-05-02T07:40:49Z</time>
      </trkpt>
      <trkpt lat="43.84734" lon="4.23735">
        <ele>257</ele>
        <time>2010-05-02T07:40:51Z</time>
      </trkpt>
      <trkpt lat="43.84723" lon="4.23727">
        <ele>258</ele>
        <time>2010-05-02T07:40:53Z</time>
      </trkpt>
      <trkpt lat="43.84714" lon="4.23719">
        <ele>258</ele>
        <time>2010-05-02T07:40:55Z</time>
      </trkpt>
      <trkpt lat="43.84707" lon="4.2371">
        <ele>258</ele>
        <time>2010-05-02T07:40:57Z</time>
      </trkpt>
      <trkpt lat="43.84704" lon="4.23703">
        <ele>258</ele>
        <time>2010-05-02T07:40:59Z</time>
      </trkpt>
      <trkpt lat="43.84699" lon="4.23695">
        <ele>257</ele>
        <time>2010-05-02T07:41:01Z</time>
      </trkpt>
      <trkpt lat="43.84695" lon="4.23686">
        <ele>256</ele>
        <time>2010-05-02T07:41:03Z</time>
      </trkpt>
      <trkpt lat="43.84692" lon="4.23681">
        <ele>255</ele>
        <time>2010-05-02T07:41:05Z</time>
      </trkpt>
      <trkpt lat="43.84687" lon="4.23674">
        <ele>254</ele>
        <time>2010-05-02T07:41:07Z</time>
      </trkpt>
      <trkpt lat="43.84677" lon="4.23661">
        <ele>254</ele>
        <time>2010-05-02T07:41:11Z</time>
      </trkpt>
      <trkpt lat="43.84669" lon="4.23653">
        <ele>256</ele>
        <time>2010-05-02T07:41:13Z</time>
      </trkpt>
      <trkpt lat="43.84663" lon="4.23645">
        <ele>257</ele>
        <time>2010-05-02T07:41:15Z</time>
      </trkpt>
      <trkpt lat="43.84657" lon="4.23637">
        <ele>258</ele>
        <time>2010-05-02T07:41:17Z</time>
      </trkpt>
      <trkpt lat="43.84655" lon="4.23634">
        <ele>259</ele>
        <time>2010-05-02T07:41:19Z</time>
      </trkpt>
      <trkpt lat="43.84651" lon="4.23627">
        <ele>259</ele>
        <time>2010-05-02T07:41:19Z</time>
      </trkpt>
      <trkpt lat="43.84641" lon="4.2361">
        <ele>259</ele>
        <time>2010-05-02T07:41:23Z</time>
      </trkpt>
      <trkpt lat="43.84634" lon="4.23598">
        <ele>260</ele>
        <time>2010-05-02T07:41:25Z</time>
      </trkpt>
      <trkpt lat="43.84629" lon="4.2359">
        <ele>260</ele>
        <time>2010-05-02T07:41:27Z</time>
      </trkpt>
      <trkpt lat="43.84623" lon="4.23577">
        <ele>259</ele>
        <time>2010-05-02T07:41:29Z</time>
      </trkpt>
      <trkpt lat="43.84618" lon="4.23564">
        <ele>258</ele>
        <time>2010-05-02T07:41:31Z</time>
      </trkpt>
      <trkpt lat="43.84616" lon="4.23559">
        <ele>258</ele>
        <time>2010-05-02T07:41:32Z</time>
      </trkpt>
      <trkpt lat="43.84608" lon="4.23537">
        <ele>255</ele>
        <time>2010-05-02T07:41:35Z</time>
      </trkpt>
      <trkpt lat="43.84604" lon="4.23525">
        <ele>253</ele>
        <time>2010-05-02T07:41:38Z</time>
      </trkpt>
      <trkpt lat="43.84587" lon="4.23507">
        <ele>251</ele>
        <time>2010-05-02T07:41:42Z</time>
      </trkpt>
      <trkpt lat="43.84577" lon="4.23498">
        <ele>249</ele>
        <time>2010-05-02T07:41:44Z</time>
      </trkpt>
      <trkpt lat="43.84565" lon="4.23483">
        <ele>249</ele>
        <time>2010-05-02T07:41:47Z</time>
      </trkpt>
      <trkpt lat="43.84552" lon="4.23459">
        <ele>249</ele>
        <time>2010-05-02T07:41:51Z</time>
      </trkpt>
      <trkpt lat="43.84549" lon="4.23454">
        <ele>248</ele>
        <time>2010-05-02T07:41:51Z</time>
      </trkpt>
      <trkpt lat="43.84542" lon="4.23443">
        <ele>248</ele>
        <time>2010-05-02T07:41:53Z</time>
      </trkpt>
      <trkpt lat="43.84533" lon="4.23429">
        <ele>248</ele>
        <time>2010-05-02T07:41:55Z</time>
      </trkpt>
      <trkpt lat="43.84529" lon="4.23424">
        <ele>248</ele>
        <time>2010-05-02T07:41:56Z</time>
      </trkpt>
      <trkpt lat="43.84514" lon="4.23408">
        <ele>246</ele>
        <time>2010-05-02T07:41:59Z</time>
      </trkpt>
      <trkpt lat="43.84502" lon="4.23395">
        <ele>246</ele>
        <time>2010-05-02T07:42:01Z</time>
      </trkpt>
      <trkpt lat="43.84494" lon="4.23388">
        <ele>246</ele>
        <time>2010-05-02T07:42:03Z</time>
      </trkpt>
      <trkpt lat="43.84481" lon="4.23379">
        <ele>246</ele>
        <time>2010-05-02T07:42:05Z</time>
      </trkpt>
      <trkpt lat="43.84466" lon="4.2337">
        <ele>245</ele>
        <time>2010-05-02T07:42:07Z</time>
      </trkpt>
      <trkpt lat="43.84461" lon="4.23367">
        <ele>245</ele>
        <time>2010-05-02T07:42:08Z</time>
      </trkpt>
      <trkpt lat="43.84456" lon="4.23364">
        <ele>245</ele>
        <time>2010-05-02T07:42:09Z</time>
      </trkpt>
      <trkpt lat="43.84442" lon="4.23354">
        <ele>245</ele>
        <time>2010-05-02T07:42:11Z</time>
      </trkpt>
      <trkpt lat="43.84428" lon="4.23341">
        <ele>244</ele>
        <time>2010-05-02T07:42:13Z</time>
      </trkpt>
      <trkpt lat="43.8442" lon="4.23331">
        <ele>244</ele>
        <time>2010-05-02T07:42:15Z</time>
      </trkpt>
      <trkpt lat="43.84407" lon="4.23317">
        <ele>245</ele>
        <time>2010-05-02T07:42:17Z</time>
      </trkpt>
      <trkpt lat="43.84396" lon="4.23302">
        <ele>245</ele>
        <time>2010-05-02T07:42:19Z</time>
      </trkpt>
      <trkpt lat="43.84389" lon="4.23293">
        <ele>245</ele>
        <time>2010-05-02T07:42:21Z</time>
      </trkpt>
      <trkpt lat="43.8438" lon="4.23283">
        <ele>244</ele>
        <time>2010-05-02T07:42:23Z</time>
      </trkpt>
      <trkpt lat="43.84376" lon="4.23279">
        <ele>244</ele>
        <time>2010-05-02T07:42:25Z</time>
      </trkpt>
      <trkpt lat="43.84374" lon="4.23277">
        <ele>243</ele>
        <time>2010-05-02T07:42:27Z</time>
      </trkpt>
      <trkpt lat="43.84374" lon="4.23277">
        <ele>243</ele>
        <time>2010-05-02T07:42:29Z</time>
      </trkpt>
      <trkpt lat="43.84374" lon="4.23277">
        <ele>243</ele>
        <time>2010-05-02T07:42:31Z</time>
      </trkpt>
      <trkpt lat="43.84374" lon="4.23277">
        <ele>243</ele>
        <time>2010-05-02T07:42:33Z</time>
      </trkpt>
      <trkpt lat="43.84374" lon="4.23277">
        <ele>243</ele>
        <time>2010-05-02T07:42:37Z</time>
      </trkpt>
      <trkpt lat="43.84374" lon="4.23277">
        <ele>243</ele>
        <time>2010-05-02T07:42:39Z</time>
      </trkpt>
      <trkpt lat="43.84374" lon="4.23277">
        <ele>243</ele>
        <time>2010-05-02T07:42:41Z</time>
      </trkpt>
      <trkpt lat="43.84374" lon="4.23277">
        <ele>243</ele>
        <time>2010-05-02T07:42:42Z</time>
      </trkpt>
      <trkpt lat="43.84374" lon="4.23277">
        <ele>243</ele>
        <time>2010-05-02T07:42:45Z</time>
      </trkpt>
      <trkpt lat="43.84374" lon="4.23277">
        <ele>243</ele>
        <time>2010-05-02T07:42:46Z</time>
      </trkpt>
      <trkpt lat="43.84374" lon="4.23277">
        <ele>243</ele>
        <time>2010-05-02T07:42:47Z</time>
      </trkpt>
      <trkpt lat="43.84363" lon="4.23272">
        <ele>237</ele>
        <time>2010-05-02T07:42:51Z</time>
      </trkpt>
      <trkpt lat="43.84363" lon="4.23272">
        <ele>237</ele>
        <time>2010-05-02T07:42:53Z</time>
      </trkpt>
      <trkpt lat="43.84363" lon="4.23272">
        <ele>237</ele>
        <time>2010-05-02T07:42:55Z</time>
      </trkpt>
      <trkpt lat="43.84363" lon="4.23272">
        <ele>237</ele>
        <time>2010-05-02T07:42:57Z</time>
      </trkpt>
      <trkpt lat="43.84363" lon="4.23272">
        <ele>237</ele>
        <time>2010-05-02T07:42:59Z</time>
      </trkpt>
      <trkpt lat="43.84363" lon="4.23272">
        <ele>237</ele>
        <time>2010-05-02T07:43:00Z</time>
      </trkpt>
      <trkpt lat="43.84363" lon="4.23272">
        <ele>237</ele>
        <time>2010-05-02T07:43:01Z</time>
      </trkpt>
      <trkpt lat="43.84363" lon="4.23272">
        <ele>237</ele>
        <time>2010-05-02T07:43:03Z</time>
      </trkpt>
      <trkpt lat="43.84363" lon="4.23272">
        <ele>237</ele>
        <time>2010-05-02T07:43:05Z</time>
      </trkpt>
      <trkpt lat="43.84363" lon="4.23272">
        <ele>237</ele>
        <time>2010-05-02T07:43:07Z</time>
      </trkpt>
      <trkpt lat="43.84363" lon="4.23272">
        <ele>237</ele>
        <time>2010-05-02T07:43:08Z</time>
      </trkpt>
      <trkpt lat="43.84363" lon="4.23272">
        <ele>237</ele>
        <time>2010-05-02T07:43:11Z</time>
      </trkpt>
      <trkpt lat="43.84363" lon="4.23272">
        <ele>237</ele>
        <time>2010-05-02T07:43:13Z</time>
      </trkpt>
      <trkpt lat="43.84363" lon="4.23272">
        <ele>237</ele>
        <time>2010-05-02T07:43:17Z</time>
      </trkpt>
      <trkpt lat="43.84361" lon="4.23266">
        <ele>226</ele>
        <time>2010-05-02T07:43:18Z</time>
      </trkpt>
      <trkpt lat="43.84361" lon="4.23266">
        <ele>226</ele>
        <time>2010-05-02T07:43:21Z</time>
      </trkpt>
      <trkpt lat="43.84361" lon="4.23266">
        <ele>226</ele>
        <time>2010-05-02T07:43:23Z</time>
      </trkpt>
      <trkpt lat="43.84361" lon="4.23266">
        <ele>226</ele>
        <time>2010-05-02T07:43:25Z</time>
      </trkpt>
      <trkpt lat="43.84361" lon="4.23266">
        <ele>226</ele>
        <time>2010-05-02T07:43:25Z</time>
      </trkpt>
      <trkpt lat="43.84361" lon="4.23266">
        <ele>226</ele>
        <time>2010-05-02T07:43:29Z</time>
      </trkpt>
      <trkpt lat="43.84361" lon="4.23266">
        <ele>226</ele>
        <time>2010-05-02T07:43:31Z</time>
      </trkpt>
      <trkpt lat="43.84361" lon="4.23266">
        <ele>226</ele>
        <time>2010-05-02T07:43:33Z</time>
      </trkpt>
      <trkpt lat="43.84361" lon="4.23266">
        <ele>226</ele>
        <time>2010-05-02T07:43:35Z</time>
      </trkpt>
      <trkpt lat="43.84361" lon="4.23266">
        <ele>226</ele>
        <time>2010-05-02T07:43:37Z</time>
      </trkpt>
      <trkpt lat="43.84361" lon="4.23266">
        <ele>226</ele>
        <time>2010-05-02T07:43:38Z</time>
      </trkpt>
      <trkpt lat="43.84361" lon="4.23266">
        <ele>226</ele>
        <time>2010-05-02T07:43:40Z</time>
      </trkpt>
      <trkpt lat="43.84361" lon="4.23266">
        <ele>226</ele>
        <time>2010-05-02T07:43:41Z</time>
      </trkpt>
      <trkpt lat="43.84361" lon="4.23266">
        <ele>226</ele>
        <time>2010-05-02T07:43:43Z</time>
      </trkpt>
      <trkpt lat="43.84361" lon="4.23266">
        <ele>226</ele>
        <time>2010-05-02T07:43:45Z</time>
      </trkpt>
      <trkpt lat="43.84361" lon="4.23266">
        <ele>226</ele>
        <time>2010-05-02T07:43:49Z</time>
      </trkpt>
      <trkpt lat="43.84361" lon="4.23266">
        <ele>226</ele>
        <time>2010-05-02T07:43:51Z</time>
      </trkpt>
      <trkpt lat="43.84361" lon="4.23266">
        <ele>226</ele>
        <time>2010-05-02T07:43:53Z</time>
      </trkpt>
      <trkpt lat="43.84361" lon="4.23266">
        <ele>226</ele>
        <time>2010-05-02T07:43:56Z</time>
      </trkpt>
      <trkpt lat="43.84361" lon="4.23266">
        <ele>226</ele>
        <time>2010-05-02T07:43:58Z</time>
      </trkpt>
      <trkpt lat="43.84361" lon="4.23266">
        <ele>226</ele>
        <time>2010-05-02T07:43:58Z</time>
      </trkpt>
      <trkpt lat="43.84361" lon="4.23266">
        <ele>226</ele>
        <time>2010-05-02T07:44:00Z</time>
      </trkpt>
      <trkpt lat="43.84361" lon="4.23266">
        <ele>226</ele>
        <time>2010-05-02T07:44:02Z</time>
      </trkpt>
      <trkpt lat="43.84361" lon="4.23266">
        <ele>226</ele>
        <time>2010-05-02T07:44:04Z</time>
      </trkpt>
      <trkpt lat="43.84361" lon="4.23266">
        <ele>226</ele>
        <time>2010-05-02T07:44:06Z</time>
      </trkpt>
      <trkpt lat="43.84361" lon="4.23266">
        <ele>226</ele>
        <time>2010-05-02T07:44:08Z</time>
      </trkpt>
      <trkpt lat="43.84361" lon="4.23266">
        <ele>226</ele>
        <time>2010-05-02T07:44:10Z</time>
      </trkpt>
      <trkpt lat="43.84361" lon="4.23266">
        <ele>226</ele>
        <time>2010-05-02T07:44:12Z</time>
      </trkpt>
      <trkpt lat="43.84361" lon="4.23266">
        <ele>226</ele>
        <time>2010-05-02T07:44:15Z</time>
      </trkpt>
      <trkpt lat="43.84361" lon="4.23266">
        <ele>226</ele>
        <time>2010-05-02T07:44:18Z</time>
      </trkpt>
      <trkpt lat="43.84361" lon="4.23266">
        <ele>226</ele>
        <time>2010-05-02T07:44:20Z</time>
      </trkpt>
      <trkpt lat="43.84361" lon="4.23266">
        <ele>226</ele>
        <time>2010-05-02T07:44:22Z</time>
      </trkpt>
      <trkpt lat="43.84361" lon="4.23266">
        <ele>226</ele>
        <time>2010-05-02T07:44:24Z</time>
      </trkpt>
      <trkpt lat="43.84361" lon="4.23266">
        <ele>226</ele>
        <time>2010-05-02T07:44:25Z</time>
      </trkpt>
      <trkpt lat="43.84361" lon="4.23266">
        <ele>226</ele>
        <time>2010-05-02T07:44:28Z</time>
      </trkpt>
      <trkpt lat="43.84361" lon="4.23266">
        <ele>226</ele>
        <time>2010-05-02T07:44:30Z</time>
      </trkpt>
      <trkpt lat="43.84361" lon="4.23266">
        <ele>226</ele>
        <time>2010-05-02T07:44:32Z</time>
      </trkpt>
      <trkpt lat="43.84361" lon="4.23266">
        <ele>226</ele>
        <time>2010-05-02T07:44:34Z</time>
      </trkpt>
      <trkpt lat="43.84361" lon="4.23266">
        <ele>226</ele>
        <time>2010-05-02T07:44:36Z</time>
      </trkpt>
      <trkpt lat="43.84361" lon="4.23266">
        <ele>226</ele>
        <time>2010-05-02T07:44:37Z</time>
      </trkpt>
      <trkpt lat="43.84361" lon="4.23266">
        <ele>226</ele>
        <time>2010-05-02T07:44:38Z</time>
      </trkpt>
      <trkpt lat="43.84364" lon="4.2327">
        <ele>227</ele>
        <time>2010-05-02T07:44:40Z</time>
      </trkpt>
      <trkpt lat="43.84364" lon="4.2327">
        <ele>226</ele>
        <time>2010-05-02T07:44:43Z</time>
      </trkpt>
      <trkpt lat="43.84364" lon="4.23271">
        <ele>225</ele>
        <time>2010-05-02T07:44:45Z</time>
      </trkpt>
      <trkpt lat="43.84363" lon="4.23271">
        <ele>224</ele>
        <time>2010-05-02T07:44:48Z</time>
      </trkpt>
      <trkpt lat="43.84361" lon="4.2327">
        <ele>223</ele>
        <time>2010-05-02T07:44:51Z</time>
      </trkpt>
      <trkpt lat="43.84359" lon="4.23269">
        <ele>223</ele>
        <time>2010-05-02T07:44:52Z</time>
      </trkpt>
      <trkpt lat="43.84358" lon="4.23266">
        <ele>224</ele>
        <time>2010-05-02T07:44:54Z</time>
      </trkpt>
      <trkpt lat="43.84356" lon="4.23264">
        <ele>224</ele>
        <time>2010-05-02T07:44:57Z</time>
      </trkpt>
      <trkpt lat="43.84356" lon="4.23264">
        <ele>224</ele>
        <time>2010-05-02T07:44:57Z</time>
      </trkpt>
      <trkpt lat="43.84356" lon="4.23264">
        <ele>224</ele>
        <time>2010-05-02T07:44:59Z</time>
      </trkpt>
      <trkpt lat="43.84354" lon="4.2326">
        <ele>225</ele>
        <time>2010-05-02T07:45:01Z</time>
      </trkpt>
      <trkpt lat="43.84354" lon="4.2326">
        <ele>226</ele>
        <time>2010-05-02T07:45:03Z</time>
      </trkpt>
      <trkpt lat="43.84355" lon="4.23259">
        <ele>227</ele>
        <time>2010-05-02T07:45:06Z</time>
      </trkpt>
      <trkpt lat="43.84355" lon="4.23259">
        <ele>228</ele>
        <time>2010-05-02T07:45:09Z</time>
      </trkpt>
      <trkpt lat="43.84355" lon="4.23259">
        <ele>228</ele>
        <time>2010-05-02T07:45:10Z</time>
      </trkpt>
      <trkpt lat="43.84355" lon="4.23258">
        <ele>228</ele>
        <time>2010-05-02T07:45:12Z</time>
      </trkpt>
      <trkpt lat="43.84355" lon="4.23258">
        <ele>228</ele>
        <time>2010-05-02T07:45:15Z</time>
      </trkpt>
      <trkpt lat="43.84357" lon="4.23254">
        <ele>224</ele>
        <time>2010-05-02T07:45:18Z</time>
      </trkpt>
      <trkpt lat="43.84358" lon="4.23253">
        <ele>223</ele>
        <time>2010-05-02T07:45:20Z</time>
      </trkpt>
      <trkpt lat="43.84358" lon="4.23253">
        <ele>223</ele>
        <time>2010-05-02T07:45:22Z</time>
      </trkpt>
      <trkpt lat="43.84358" lon="4.23253">
        <ele>223</ele>
        <time>2010-05-02T07:45:24Z</time>
      </trkpt>
      <trkpt lat="43.84358" lon="4.23253">
        <ele>223</ele>
        <time>2010-05-02T07:45:25Z</time>
      </trkpt>
      <trkpt lat="43.84359" lon="4.23248">
        <ele>220</ele>
        <time>2010-05-02T07:45:26Z</time>
      </trkpt>
      <trkpt lat="43.8436" lon="4.23248">
        <ele>219</ele>
        <time>2010-05-02T07:45:28Z</time>
      </trkpt>
      <trkpt lat="43.8436" lon="4.23248">
        <ele>219</ele>
        <time>2010-05-02T07:45:30Z</time>
      </trkpt>
      <trkpt lat="43.8436" lon="4.23247">
        <ele>218</ele>
        <time>2010-05-02T07:45:32Z</time>
      </trkpt>
      <trkpt lat="43.84361" lon="4.23247">
        <ele>219</ele>
        <time>2010-05-02T07:45:34Z</time>
      </trkpt>
      <trkpt lat="43.84361" lon="4.23246">
        <ele>221</ele>
        <time>2010-05-02T07:45:36Z</time>
      </trkpt>
      <trkpt lat="43.84362" lon="4.23246">
        <ele>221</ele>
        <time>2010-05-02T07:45:38Z</time>
      </trkpt>
      <trkpt lat="43.84362" lon="4.23246">
        <ele>220</ele>
        <time>2010-05-02T07:45:39Z</time>
      </trkpt>
      <trkpt lat="43.84362" lon="4.23246">
        <ele>220</ele>
        <time>2010-05-02T07:45:41Z</time>
      </trkpt>
      <trkpt lat="43.84362" lon="4.23246">
        <ele>219</ele>
        <time>2010-05-02T07:45:43Z</time>
      </trkpt>
      <trkpt lat="43.84363" lon="4.23246">
        <ele>219</ele>
        <time>2010-05-02T07:45:44Z</time>
      </trkpt>
      <trkpt lat="43.84363" lon="4.23247">
        <ele>219</ele>
        <time>2010-05-02T07:45:46Z</time>
      </trkpt>
      <trkpt lat="43.84363" lon="4.23247">
        <ele>220</ele>
        <time>2010-05-02T07:45:48Z</time>
      </trkpt>
      <trkpt lat="43.84363" lon="4.23247">
        <ele>220</ele>
        <time>2010-05-02T07:45:50Z</time>
      </trkpt>
      <trkpt lat="43.84363" lon="4.23247">
        <ele>220</ele>
        <time>2010-05-02T07:45:52Z</time>
      </trkpt>
      <trkpt lat="43.84363" lon="4.23247">
        <ele>221</ele>
        <time>2010-05-02T07:45:54Z</time>
      </trkpt>
      <trkpt lat="43.84363" lon="4.23247">
        <ele>221</ele>
        <time>2010-05-02T07:45:55Z</time>
      </trkpt>
      <trkpt lat="43.84363" lon="4.23248">
        <ele>222</ele>
        <time>2010-05-02T07:45:57Z</time>
      </trkpt>
      <trkpt lat="43.84363" lon="4.23248">
        <ele>223</ele>
        <time>2010-05-02T07:45:59Z</time>
      </trkpt>
      <trkpt lat="43.84363" lon="4.23248">
        <ele>224</ele>
        <time>2010-05-02T07:46:00Z</time>
      </trkpt>
      <trkpt lat="43.84362" lon="4.23248">
        <ele>225</ele>
        <time>2010-05-02T07:46:03Z</time>
      </trkpt>
      <trkpt lat="43.84362" lon="4.23248">
        <ele>224</ele>
        <time>2010-05-02T07:46:05Z</time>
      </trkpt>
      <trkpt lat="43.84362" lon="4.23249">
        <ele>224</ele>
        <time>2010-05-02T07:46:06Z</time>
      </trkpt>
      <trkpt lat="43.84361" lon="4.23249">
        <ele>224</ele>
        <time>2010-05-02T07:46:08Z</time>
      </trkpt>
      <trkpt lat="43.84361" lon="4.2325">
        <ele>224</ele>
        <time>2010-05-02T07:46:10Z</time>
      </trkpt>
      <trkpt lat="43.8436" lon="4.23251">
        <ele>223</ele>
        <time>2010-05-02T07:46:12Z</time>
      </trkpt>
      <trkpt lat="43.84359" lon="4.23253">
        <ele>223</ele>
        <time>2010-05-02T07:46:13Z</time>
      </trkpt>
      <trkpt lat="43.84359" lon="4.23256">
        <ele>223</ele>
        <time>2010-05-02T07:46:15Z</time>
      </trkpt>
      <trkpt lat="43.84358" lon="4.23258">
        <ele>223</ele>
        <time>2010-05-02T07:46:17Z</time>
      </trkpt>
      <trkpt lat="43.84358" lon="4.2326">
        <ele>225</ele>
        <time>2010-05-02T07:46:19Z</time>
      </trkpt>
      <trkpt lat="43.84358" lon="4.23261">
        <ele>225</ele>
        <time>2010-05-02T07:46:21Z</time>
      </trkpt>
      <trkpt lat="43.84358" lon="4.23262">
        <ele>225</ele>
        <time>2010-05-02T07:46:23Z</time>
      </trkpt>
      <trkpt lat="43.84358" lon="4.23262">
        <ele>225</ele>
        <time>2010-05-02T07:46:24Z</time>
      </trkpt>
      <trkpt lat="43.84358" lon="4.23263">
        <ele>224</ele>
        <time>2010-05-02T07:46:26Z</time>
      </trkpt>
      <trkpt lat="43.84359" lon="4.23263">
        <ele>224</ele>
        <time>2010-05-02T07:46:28Z</time>
      </trkpt>
      <trkpt lat="43.8436" lon="4.23263">
        <ele>224</ele>
        <time>2010-05-02T07:46:30Z</time>
      </trkpt>
      <trkpt lat="43.8436" lon="4.23263">
        <ele>224</ele>
        <time>2010-05-02T07:46:34Z</time>
      </trkpt>
      <trkpt lat="43.84361" lon="4.23263">
        <ele>224</ele>
        <time>2010-05-02T07:46:36Z</time>
      </trkpt>
      <trkpt lat="43.84362" lon="4.23263">
        <ele>224</ele>
        <time>2010-05-02T07:46:38Z</time>
      </trkpt>
      <trkpt lat="43.84362" lon="4.23263">
        <ele>224</ele>
        <time>2010-05-02T07:46:40Z</time>
      </trkpt>
      <trkpt lat="43.84363" lon="4.23263">
        <ele>225</ele>
        <time>2010-05-02T07:46:42Z</time>
      </trkpt>
      <trkpt lat="43.84363" lon="4.23263">
        <ele>225</ele>
        <time>2010-05-02T07:46:42Z</time>
      </trkpt>
      <trkpt lat="43.84363" lon="4.23264">
        <ele>225</ele>
        <time>2010-05-02T07:46:44Z</time>
      </trkpt>
      <trkpt lat="43.84364" lon="4.23264">
        <ele>225</ele>
        <time>2010-05-02T07:46:45Z</time>
      </trkpt>
      <trkpt lat="43.84364" lon="4.23264">
        <ele>226</ele>
        <time>2010-05-02T07:46:48Z</time>
      </trkpt>
      <trkpt lat="43.84364" lon="4.23264">
        <ele>226</ele>
        <time>2010-05-02T07:46:50Z</time>
      </trkpt>
      <trkpt lat="43.84364" lon="4.23264">
        <ele>226</ele>
        <time>2010-05-02T07:46:51Z</time>
      </trkpt>
      <trkpt lat="43.84365" lon="4.23264">
        <ele>226</ele>
        <time>2010-05-02T07:46:53Z</time>
      </trkpt>
      <trkpt lat="43.84365" lon="4.23264">
        <ele>226</ele>
        <time>2010-05-02T07:46:56Z</time>
      </trkpt>
      <trkpt lat="43.84365" lon="4.23264">
        <ele>227</ele>
        <time>2010-05-02T07:46:57Z</time>
      </trkpt>
      <trkpt lat="43.84365" lon="4.23264">
        <ele>227</ele>
        <time>2010-05-02T07:46:59Z</time>
      </trkpt>
      <trkpt lat="43.84365" lon="4.23264">
        <ele>227</ele>
        <time>2010-05-02T07:47:01Z</time>
      </trkpt>
      <trkpt lat="43.84365" lon="4.23265">
        <ele>227</ele>
        <time>2010-05-02T07:47:03Z</time>
      </trkpt>
      <trkpt lat="43.84365" lon="4.23265">
        <ele>226</ele>
        <time>2010-05-02T07:47:05Z</time>
      </trkpt>
      <trkpt lat="43.84365" lon="4.23265">
        <ele>227</ele>
        <time>2010-05-02T07:47:07Z</time>
      </trkpt>
      <trkpt lat="43.84365" lon="4.23266">
        <ele>227</ele>
        <time>2010-05-02T07:47:09Z</time>
      </trkpt>
      <trkpt lat="43.84365" lon="4.23267">
        <ele>227</ele>
        <time>2010-05-02T07:47:11Z</time>
      </trkpt>
      <trkpt lat="43.84366" lon="4.23268">
        <ele>227</ele>
        <time>2010-05-02T07:47:12Z</time>
      </trkpt>
      <trkpt lat="43.84366" lon="4.23268">
        <ele>227</ele>
        <time>2010-05-02T07:47:15Z</time>
      </trkpt>
      <trkpt lat="43.84366" lon="4.23269">
        <ele>228</ele>
        <time>2010-05-02T07:47:17Z</time>
      </trkpt>
      <trkpt lat="43.84366" lon="4.23269">
        <ele>229</ele>
        <time>2010-05-02T07:47:18Z</time>
      </trkpt>
      <trkpt lat="43.84366" lon="4.2327">
        <ele>230</ele>
        <time>2010-05-02T07:47:20Z</time>
      </trkpt>
      <trkpt lat="43.84366" lon="4.2327">
        <ele>228</ele>
        <time>2010-05-02T07:47:23Z</time>
      </trkpt>
      <trkpt lat="43.84365" lon="4.2327">
        <ele>227</ele>
        <time>2010-05-02T07:47:24Z</time>
      </trkpt>
      <trkpt lat="43.84365" lon="4.23269">
        <ele>229</ele>
        <time>2010-05-02T07:47:26Z</time>
      </trkpt>
      <trkpt lat="43.84365" lon="4.23269">
        <ele>230</ele>
        <time>2010-05-02T07:47:28Z</time>
      </trkpt>
      <trkpt lat="43.84365" lon="4.23269">
        <ele>230</ele>
        <time>2010-05-02T07:47:30Z</time>
      </trkpt>
      <trkpt lat="43.84365" lon="4.23268">
        <ele>229</ele>
        <time>2010-05-02T07:47:32Z</time>
      </trkpt>
      <trkpt lat="43.84365" lon="4.23268">
        <ele>229</ele>
        <time>2010-05-02T07:47:34Z</time>
      </trkpt>
      <trkpt lat="43.84365" lon="4.23268">
        <ele>229</ele>
        <time>2010-05-02T07:47:36Z</time>
      </trkpt>
      <trkpt lat="43.84365" lon="4.23268">
        <ele>230</ele>
        <time>2010-05-02T07:47:37Z</time>
      </trkpt>
      <trkpt lat="43.84365" lon="4.23268">
        <ele>230</ele>
        <time>2010-05-02T07:47:41Z</time>
      </trkpt>
      <trkpt lat="43.84365" lon="4.23268">
        <ele>230</ele>
        <time>2010-05-02T07:47:42Z</time>
      </trkpt>
      <trkpt lat="43.84365" lon="4.23268">
        <ele>230</ele>
        <time>2010-05-02T07:47:43Z</time>
      </trkpt>
      <trkpt lat="43.84365" lon="4.23268">
        <ele>230</ele>
        <time>2010-05-02T07:47:45Z</time>
      </trkpt>
      <trkpt lat="43.84365" lon="4.23268">
        <ele>230</ele>
        <time>2010-05-02T07:47:47Z</time>
      </trkpt>
      <trkpt lat="43.84364" lon="4.2327">
        <ele>231</ele>
        <time>2010-05-02T07:47:50Z</time>
      </trkpt>
      <trkpt lat="43.84364" lon="4.23271">
        <ele>231</ele>
        <time>2010-05-02T07:47:51Z</time>
      </trkpt>
      <trkpt lat="43.84364" lon="4.23272">
        <ele>230</ele>
        <time>2010-05-02T07:47:53Z</time>
      </trkpt>
      <trkpt lat="43.84364" lon="4.23273">
        <ele>229</ele>
        <time>2010-05-02T07:47:55Z</time>
      </trkpt>
      <trkpt lat="43.84364" lon="4.23273">
        <ele>229</ele>
        <time>2010-05-02T07:47:56Z</time>
      </trkpt>
      <trkpt lat="43.84364" lon="4.23275">
        <ele>230</ele>
        <time>2010-05-02T07:47:59Z</time>
      </trkpt>
      <trkpt lat="43.84364" lon="4.23275">
        <ele>230</ele>
        <time>2010-05-02T07:48:00Z</time>
      </trkpt>
      <trkpt lat="43.84364" lon="4.23276">
        <ele>231</ele>
        <time>2010-05-02T07:48:03Z</time>
      </trkpt>
      <trkpt lat="43.84364" lon="4.23276">
        <ele>230</ele>
        <time>2010-05-02T07:48:04Z</time>
      </trkpt>
      <trkpt lat="43.84363" lon="4.23276">
        <ele>230</ele>
        <time>2010-05-02T07:48:06Z</time>
      </trkpt>
      <trkpt lat="43.84363" lon="4.23277">
        <ele>231</ele>
        <time>2010-05-02T07:48:09Z</time>
      </trkpt>
      <trkpt lat="43.84363" lon="4.23277">
        <ele>231</ele>
        <time>2010-05-02T07:48:12Z</time>
      </trkpt>
      <trkpt lat="43.84363" lon="4.23277">
        <ele>232</ele>
        <time>2010-05-02T07:48:14Z</time>
      </trkpt>
      <trkpt lat="43.84363" lon="4.23277">
        <ele>232</ele>
        <time>2010-05-02T07:48:16Z</time>
      </trkpt>
      <trkpt lat="43.84363" lon="4.23277">
        <ele>232</ele>
        <time>2010-05-02T07:48:18Z</time>
      </trkpt>
      <trkpt lat="43.84363" lon="4.23277">
        <ele>232</ele>
        <time>2010-05-02T07:48:20Z</time>
      </trkpt>
      <trkpt lat="43.84363" lon="4.23277">
        <ele>232</ele>
        <time>2010-05-02T07:48:21Z</time>
      </trkpt>
      <trkpt lat="43.84361" lon="4.23276">
        <ele>232</ele>
        <time>2010-05-02T07:48:22Z</time>
      </trkpt>
      <trkpt lat="43.84361" lon="4.23276">
        <ele>230</ele>
        <time>2010-05-02T07:48:25Z</time>
      </trkpt>
      <trkpt lat="43.84361" lon="4.23276">
        <ele>231</ele>
        <time>2010-05-02T07:48:26Z</time>
      </trkpt>
      <trkpt lat="43.84361" lon="4.23276">
        <ele>229</ele>
        <time>2010-05-02T07:48:28Z</time>
      </trkpt>
      <trkpt lat="43.84361" lon="4.23276">
        <ele>229</ele>
        <time>2010-05-02T07:48:30Z</time>
      </trkpt>
      <trkpt lat="43.84361" lon="4.23276">
        <ele>229</ele>
        <time>2010-05-02T07:48:32Z</time>
      </trkpt>
      <trkpt lat="43.84364" lon="4.23274">
        <ele>229</ele>
        <time>2010-05-02T07:48:34Z</time>
      </trkpt>
      <trkpt lat="43.84366" lon="4.2327">
        <ele>229</ele>
        <time>2010-05-02T07:48:36Z</time>
      </trkpt>
      <trkpt lat="43.84367" lon="4.23262">
        <ele>229</ele>
        <time>2010-05-02T07:48:38Z</time>
      </trkpt>
      <trkpt lat="43.84368" lon="4.23252">
        <ele>230</ele>
        <time>2010-05-02T07:48:40Z</time>
      </trkpt>
      <trkpt lat="43.84368" lon="4.23244">
        <ele>230</ele>
        <time>2010-05-02T07:48:42Z</time>
      </trkpt>
      <trkpt lat="43.84369" lon="4.23234">
        <ele>230</ele>
        <time>2010-05-02T07:48:44Z</time>
      </trkpt>
      <trkpt lat="43.84369" lon="4.23224">
        <ele>231</ele>
        <time>2010-05-02T07:48:46Z</time>
      </trkpt>
      <trkpt lat="43.84369" lon="4.23217">
        <ele>231</ele>
        <time>2010-05-02T07:48:49Z</time>
      </trkpt>
      <trkpt lat="43.84367" lon="4.23207">
        <ele>230</ele>
        <time>2010-05-02T07:48:52Z</time>
      </trkpt>
      <trkpt lat="43.84365" lon="4.23202">
        <ele>231</ele>
        <time>2010-05-02T07:48:54Z</time>
      </trkpt>
      <trkpt lat="43.84364" lon="4.23196">
        <ele>232</ele>
        <time>2010-05-02T07:48:56Z</time>
      </trkpt>
      <trkpt lat="43.84364" lon="4.23192">
        <ele>232</ele>
        <time>2010-05-02T07:48:58Z</time>
      </trkpt>
      <trkpt lat="43.84362" lon="4.23185">
        <ele>230</ele>
        <time>2010-05-02T07:49:00Z</time>
      </trkpt>
      <trkpt lat="43.84362" lon="4.23183">
        <ele>229</ele>
        <time>2010-05-02T07:49:01Z</time>
      </trkpt>
      <trkpt lat="43.8436" lon="4.23179">
        <ele>229</ele>
        <time>2010-05-02T07:49:02Z</time>
      </trkpt>
      <trkpt lat="43.84359" lon="4.23174">
        <ele>228</ele>
        <time>2010-05-02T07:49:05Z</time>
      </trkpt>
      <trkpt lat="43.84356" lon="4.2316">
        <ele>229</ele>
        <time>2010-05-02T07:49:08Z</time>
      </trkpt>
      <trkpt lat="43.8435" lon="4.23146">
        <ele>228</ele>
        <time>2010-05-02T07:49:11Z</time>
      </trkpt>
      <trkpt lat="43.84344" lon="4.23131">
        <ele>228</ele>
        <time>2010-05-02T07:49:13Z</time>
      </trkpt>
      <trkpt lat="43.84341" lon="4.23122">
        <ele>228</ele>
        <time>2010-05-02T07:49:14Z</time>
      </trkpt>
      <trkpt lat="43.84338" lon="4.23111">
        <ele>228</ele>
        <time>2010-05-02T07:49:16Z</time>
      </trkpt>
      <trkpt lat="43.84337" lon="4.23108">
        <ele>229</ele>
        <time>2010-05-02T07:49:17Z</time>
      </trkpt>
      <trkpt lat="43.84327" lon="4.23093">
        <ele>230</ele>
        <time>2010-05-02T07:49:21Z</time>
      </trkpt>
      <trkpt lat="43.84323" lon="4.23087">
        <ele>230</ele>
        <time>2010-05-02T07:49:23Z</time>
      </trkpt>
      <trkpt lat="43.84318" lon="4.23076">
        <ele>231</ele>
        <time>2010-05-02T07:49:25Z</time>
      </trkpt>
      <trkpt lat="43.84316" lon="4.23065">
        <ele>232</ele>
        <time>2010-05-02T07:49:27Z</time>
      </trkpt>
      <trkpt lat="43.84315" lon="4.23052">
        <ele>233</ele>
        <time>2010-05-02T07:49:29Z</time>
      </trkpt>
      <trkpt lat="43.84317" lon="4.23039">
        <ele>234</ele>
        <time>2010-05-02T07:49:31Z</time>
      </trkpt>
      <trkpt lat="43.84319" lon="4.23021">
        <ele>235</ele>
        <time>2010-05-02T07:49:34Z</time>
      </trkpt>
      <trkpt lat="43.8432" lon="4.23009">
        <ele>235</ele>
        <time>2010-05-02T07:49:37Z</time>
      </trkpt>
      <trkpt lat="43.8432" lon="4.22995">
        <ele>236</ele>
        <time>2010-05-02T07:49:39Z</time>
      </trkpt>
      <trkpt lat="43.84319" lon="4.22985">
        <ele>236</ele>
        <time>2010-05-02T07:49:40Z</time>
      </trkpt>
      <trkpt lat="43.84319" lon="4.22969">
        <ele>236</ele>
        <time>2010-05-02T07:49:43Z</time>
      </trkpt>
      <trkpt lat="43.84319" lon="4.22957">
        <ele>236</ele>
        <time>2010-05-02T07:49:45Z</time>
      </trkpt>
      <trkpt lat="43.8432" lon="4.22946">
        <ele>236</ele>
        <time>2010-05-02T07:49:47Z</time>
      </trkpt>
      <trkpt lat="43.84322" lon="4.22937">
        <ele>235</ele>
        <time>2010-05-02T07:49:50Z</time>
      </trkpt>
      <trkpt lat="43.84323" lon="4.2293">
        <ele>235</ele>
        <time>2010-05-02T07:49:52Z</time>
      </trkpt>
      <trkpt lat="43.84323" lon="4.22928">
        <ele>235</ele>
        <time>2010-05-02T07:49:53Z</time>
      </trkpt>
      <trkpt lat="43.84324" lon="4.22919">
        <ele>234</ele>
        <time>2010-05-02T07:49:56Z</time>
      </trkpt>
      <trkpt lat="43.84325" lon="4.22917">
        <ele>234</ele>
        <time>2010-05-02T07:49:58Z</time>
      </trkpt>
      <trkpt lat="43.84327" lon="4.22908">
        <ele>234</ele>
        <time>2010-05-02T07:50:00Z</time>
      </trkpt>
      <trkpt lat="43.8433" lon="4.22899">
        <ele>235</ele>
        <time>2010-05-02T07:50:02Z</time>
      </trkpt>
      <trkpt lat="43.84337" lon="4.2289">
        <ele>235</ele>
        <time>2010-05-02T07:50:05Z</time>
      </trkpt>
      <trkpt lat="43.84345" lon="4.22881">
        <ele>236</ele>
        <time>2010-05-02T07:50:07Z</time>
      </trkpt>
      <trkpt lat="43.84351" lon="4.22866">
        <ele>236</ele>
        <time>2010-05-02T07:50:09Z</time>
      </trkpt>
      <trkpt lat="43.84358" lon="4.22844">
        <ele>235</ele>
        <time>2010-05-02T07:50:12Z</time>
      </trkpt>
      <trkpt lat="43.8436" lon="4.2283">
        <ele>235</ele>
        <time>2010-05-02T07:50:15Z</time>
      </trkpt>
      <trkpt lat="43.84366" lon="4.22818">
        <ele>235</ele>
        <time>2010-05-02T07:50:17Z</time>
      </trkpt>
      <trkpt lat="43.84369" lon="4.22814">
        <ele>235</ele>
        <time>2010-05-02T07:50:18Z</time>
      </trkpt>
      <trkpt lat="43.84375" lon="4.22808">
        <ele>235</ele>
        <time>2010-05-02T07:50:19Z</time>
      </trkpt>
      <trkpt lat="43.84393" lon="4.22787">
        <ele>235</ele>
        <time>2010-05-02T07:50:23Z</time>
      </trkpt>
      <trkpt lat="43.84395" lon="4.22775">
        <ele>234</ele>
        <time>2010-05-02T07:50:25Z</time>
      </trkpt>
      <trkpt lat="43.84394" lon="4.22765">
        <ele>233</ele>
        <time>2010-05-02T07:50:28Z</time>
      </trkpt>
      <trkpt lat="43.84397" lon="4.22757">
        <ele>233</ele>
        <time>2010-05-02T07:50:29Z</time>
      </trkpt>
      <trkpt lat="43.84403" lon="4.22743">
        <ele>233</ele>
        <time>2010-05-02T07:50:32Z</time>
      </trkpt>
      <trkpt lat="43.84406" lon="4.22739">
        <ele>232</ele>
        <time>2010-05-02T07:50:33Z</time>
      </trkpt>
      <trkpt lat="43.8441" lon="4.2273">
        <ele>231</ele>
        <time>2010-05-02T07:50:34Z</time>
      </trkpt>
      <trkpt lat="43.84416" lon="4.22706">
        <ele>229</ele>
        <time>2010-05-02T07:50:38Z</time>
      </trkpt>
      <trkpt lat="43.84422" lon="4.22693">
        <ele>229</ele>
        <time>2010-05-02T07:50:40Z</time>
      </trkpt>
      <trkpt lat="43.84425" lon="4.22685">
        <ele>229</ele>
        <time>2010-05-02T07:50:42Z</time>
      </trkpt>
      <trkpt lat="43.84427" lon="4.22675">
        <ele>229</ele>
        <time>2010-05-02T07:50:44Z</time>
      </trkpt>
      <trkpt lat="43.84428" lon="4.22665">
        <ele>228</ele>
        <time>2010-05-02T07:50:46Z</time>
      </trkpt>
      <trkpt lat="43.84429" lon="4.22662">
        <ele>228</ele>
        <time>2010-05-02T07:50:47Z</time>
      </trkpt>
      <trkpt lat="43.84441" lon="4.22648">
        <ele>229</ele>
        <time>2010-05-02T07:50:51Z</time>
      </trkpt>
      <trkpt lat="43.84447" lon="4.22643">
        <ele>228</ele>
        <time>2010-05-02T07:50:52Z</time>
      </trkpt>
      <trkpt lat="43.84455" lon="4.22635">
        <ele>229</ele>
        <time>2010-05-02T07:50:55Z</time>
      </trkpt>
      <trkpt lat="43.84463" lon="4.22625">
        <ele>229</ele>
        <time>2010-05-02T07:50:57Z</time>
      </trkpt>
      <trkpt lat="43.84472" lon="4.22616">
        <ele>228</ele>
        <time>2010-05-02T07:50:59Z</time>
      </trkpt>
      <trkpt lat="43.84475" lon="4.22612">
        <ele>228</ele>
        <time>2010-05-02T07:51:00Z</time>
      </trkpt>
      <trkpt lat="43.84488" lon="4.22598">
        <ele>228</ele>
        <time>2010-05-02T07:51:03Z</time>
      </trkpt>
      <trkpt lat="43.845" lon="4.22589">
        <ele>227</ele>
        <time>2010-05-02T07:51:05Z</time>
      </trkpt>
      <trkpt lat="43.84509" lon="4.22581">
        <ele>227</ele>
        <time>2010-05-02T07:51:07Z</time>
      </trkpt>
      <trkpt lat="43.8452" lon="4.2257">
        <ele>226</ele>
        <time>2010-05-02T07:51:09Z</time>
      </trkpt>
      <trkpt lat="43.84529" lon="4.22557">
        <ele>225</ele>
        <time>2010-05-02T07:51:12Z</time>
      </trkpt>
      <trkpt lat="43.84532" lon="4.22552">
        <ele>225</ele>
        <time>2010-05-02T07:51:12Z</time>
      </trkpt>
      <trkpt lat="43.8454" lon="4.22534">
        <ele>224</ele>
        <time>2010-05-02T07:51:15Z</time>
      </trkpt>
      <trkpt lat="43.84546" lon="4.22521">
        <ele>223</ele>
        <time>2010-05-02T07:51:18Z</time>
      </trkpt>
      <trkpt lat="43.84554" lon="4.22513">
        <ele>222</ele>
        <time>2010-05-02T07:51:20Z</time>
      </trkpt>
      <trkpt lat="43.84562" lon="4.22503">
        <ele>222</ele>
        <time>2010-05-02T07:51:22Z</time>
      </trkpt>
      <trkpt lat="43.84568" lon="4.22495">
        <ele>222</ele>
        <time>2010-05-02T07:51:24Z</time>
      </trkpt>
      <trkpt lat="43.8457" lon="4.22491">
        <ele>222</ele>
        <time>2010-05-02T07:51:24Z</time>
      </trkpt>
      <trkpt lat="43.84577" lon="4.2247">
        <ele>220</ele>
        <time>2010-05-02T07:51:28Z</time>
      </trkpt>
      <trkpt lat="43.84576" lon="4.22457">
        <ele>221</ele>
        <time>2010-05-02T07:51:30Z</time>
      </trkpt>
      <trkpt lat="43.84577" lon="4.22444">
        <ele>221</ele>
        <time>2010-05-02T07:51:33Z</time>
      </trkpt>
      <trkpt lat="43.84578" lon="4.22435">
        <ele>221</ele>
        <time>2010-05-02T07:51:34Z</time>
      </trkpt>
      <trkpt lat="43.84581" lon="4.22422">
        <ele>222</ele>
        <time>2010-05-02T07:51:36Z</time>
      </trkpt>
      <trkpt lat="43.84582" lon="4.22418">
        <ele>223</ele>
        <time>2010-05-02T07:51:37Z</time>
      </trkpt>
      <trkpt lat="43.84595" lon="4.22399">
        <ele>223</ele>
        <time>2010-05-02T07:51:41Z</time>
      </trkpt>
      <trkpt lat="43.84605" lon="4.22388">
        <ele>223</ele>
        <time>2010-05-02T07:51:43Z</time>
      </trkpt>
      <trkpt lat="43.84609" lon="4.22381">
        <ele>223</ele>
        <time>2010-05-02T07:51:45Z</time>
      </trkpt>
      <trkpt lat="43.84613" lon="4.22367">
        <ele>222</ele>
        <time>2010-05-02T07:51:47Z</time>
      </trkpt>
      <trkpt lat="43.84615" lon="4.22354">
        <ele>222</ele>
        <time>2010-05-02T07:51:49Z</time>
      </trkpt>
      <trkpt lat="43.84616" lon="4.2235">
        <ele>222</ele>
        <time>2010-05-02T07:51:50Z</time>
      </trkpt>
      <trkpt lat="43.84617" lon="4.22341">
        <ele>222</ele>
        <time>2010-05-02T07:51:52Z</time>
      </trkpt>
      <trkpt lat="43.84623" lon="4.22319">
        <ele>222</ele>
        <time>2010-05-02T07:51:55Z</time>
      </trkpt>
      <trkpt lat="43.84627" lon="4.22305">
        <ele>223</ele>
        <time>2010-05-02T07:51:57Z</time>
      </trkpt>
      <trkpt lat="43.8463" lon="4.22291">
        <ele>223</ele>
        <time>2010-05-02T07:52:00Z</time>
      </trkpt>
      <trkpt lat="43.84632" lon="4.22278">
        <ele>223</ele>
        <time>2010-05-02T07:52:02Z</time>
      </trkpt>
      <trkpt lat="43.84633" lon="4.22268">
        <ele>223</ele>
        <time>2010-05-02T07:52:03Z</time>
      </trkpt>
      <trkpt lat="43.84633" lon="4.22264">
        <ele>223</ele>
        <time>2010-05-02T07:52:04Z</time>
      </trkpt>
      <trkpt lat="43.84629" lon="4.22245">
        <ele>223</ele>
        <time>2010-05-02T07:52:08Z</time>
      </trkpt>
      <trkpt lat="43.84626" lon="4.22232">
        <ele>223</ele>
        <time>2010-05-02T07:52:10Z</time>
      </trkpt>
      <trkpt lat="43.84626" lon="4.22218">
        <ele>223</ele>
        <time>2010-05-02T07:52:12Z</time>
      </trkpt>
      <trkpt lat="43.84627" lon="4.22204">
        <ele>223</ele>
        <time>2010-05-02T07:52:15Z</time>
      </trkpt>
      <trkpt lat="43.84629" lon="4.2219">
        <ele>223</ele>
        <time>2010-05-02T07:52:17Z</time>
      </trkpt>
      <trkpt lat="43.84629" lon="4.22185">
        <ele>223</ele>
        <time>2010-05-02T07:52:17Z</time>
      </trkpt>
      <trkpt lat="43.84636" lon="4.22165">
        <ele>223</ele>
        <time>2010-05-02T07:52:20Z</time>
      </trkpt>
      <trkpt lat="43.84643" lon="4.22149">
        <ele>223</ele>
        <time>2010-05-02T07:52:23Z</time>
      </trkpt>
      <trkpt lat="43.84654" lon="4.22139">
        <ele>223</ele>
        <time>2010-05-02T07:52:25Z</time>
      </trkpt>
      <trkpt lat="43.84665" lon="4.22134">
        <ele>224</ele>
        <time>2010-05-02T07:52:27Z</time>
      </trkpt>
      <trkpt lat="43.84676" lon="4.22125">
        <ele>223</ele>
        <time>2010-05-02T07:52:29Z</time>
      </trkpt>
      <trkpt lat="43.8468" lon="4.22122">
        <ele>223</ele>
        <time>2010-05-02T07:52:30Z</time>
      </trkpt>
      <trkpt lat="43.84687" lon="4.22114">
        <ele>224</ele>
        <time>2010-05-02T07:52:32Z</time>
      </trkpt>
      <trkpt lat="43.84704" lon="4.22093">
        <ele>224</ele>
        <time>2010-05-02T07:52:36Z</time>
      </trkpt>
      <trkpt lat="43.84716" lon="4.22086">
        <ele>223</ele>
        <time>2010-05-02T07:52:38Z</time>
      </trkpt>
      <trkpt lat="43.84728" lon="4.22077">
        <ele>222</ele>
        <time>2010-05-02T07:52:40Z</time>
      </trkpt>
      <trkpt lat="43.84735" lon="4.2207">
        <ele>222</ele>
        <time>2010-05-02T07:52:42Z</time>
      </trkpt>
      <trkpt lat="43.8475" lon="4.22061">
        <ele>222</ele>
        <time>2010-05-02T07:52:44Z</time>
      </trkpt>
      <trkpt lat="43.84754" lon="4.2206">
        <ele>222</ele>
        <time>2010-05-02T07:52:45Z</time>
      </trkpt>
      <trkpt lat="43.8477" lon="4.22054">
        <ele>222</ele>
        <time>2010-05-02T07:52:48Z</time>
      </trkpt>
      <trkpt lat="43.84781" lon="4.22047">
        <ele>222</ele>
        <time>2010-05-02T07:52:50Z</time>
      </trkpt>
      <trkpt lat="43.84792" lon="4.22038">
        <ele>222</ele>
        <time>2010-05-02T07:52:53Z</time>
      </trkpt>
      <trkpt lat="43.84803" lon="4.22031">
        <ele>222</ele>
        <time>2010-05-02T07:52:55Z</time>
      </trkpt>
      <trkpt lat="43.84815" lon="4.22025">
        <ele>223</ele>
        <time>2010-05-02T07:52:57Z</time>
      </trkpt>
      <trkpt lat="43.84819" lon="4.22022">
        <ele>223</ele>
        <time>2010-05-02T07:52:58Z</time>
      </trkpt>
      <trkpt lat="43.84827" lon="4.22017">
        <ele>223</ele>
        <time>2010-05-02T07:52:59Z</time>
      </trkpt>
      <trkpt lat="43.84838" lon="4.22007">
        <ele>223</ele>
        <time>2010-05-02T07:53:02Z</time>
      </trkpt>
      <trkpt lat="43.84855" lon="4.21993">
        <ele>223</ele>
        <time>2010-05-02T07:53:05Z</time>
      </trkpt>
      <trkpt lat="43.84864" lon="4.21983">
        <ele>223</ele>
        <time>2010-05-02T07:53:07Z</time>
      </trkpt>
      <trkpt lat="43.84872" lon="4.21976">
        <ele>223</ele>
        <time>2010-05-02T07:53:09Z</time>
      </trkpt>
      <trkpt lat="43.84879" lon="4.2197">
        <ele>223</ele>
        <time>2010-05-02T07:53:12Z</time>
      </trkpt>
      <trkpt lat="43.84884" lon="4.21966">
        <ele>222</ele>
        <time>2010-05-02T07:53:13Z</time>
      </trkpt>
      <trkpt lat="43.84892" lon="4.21958">
        <ele>223</ele>
        <time>2010-05-02T07:53:15Z</time>
      </trkpt>
      <trkpt lat="43.84901" lon="4.21946">
        <ele>223</ele>
        <time>2010-05-02T07:53:18Z</time>
      </trkpt>
      <trkpt lat="43.84907" lon="4.21936">
        <ele>223</ele>
        <time>2010-05-02T07:53:21Z</time>
      </trkpt>
      <trkpt lat="43.84911" lon="4.21929">
        <ele>223</ele>
        <time>2010-05-02T07:53:22Z</time>
      </trkpt>
      <trkpt lat="43.84917" lon="4.2192">
        <ele>222</ele>
        <time>2010-05-02T07:53:24Z</time>
      </trkpt>
      <trkpt lat="43.84919" lon="4.21917">
        <ele>222</ele>
        <time>2010-05-02T07:53:25Z</time>
      </trkpt>
      <trkpt lat="43.84928" lon="4.21901">
        <ele>222</ele>
        <time>2010-05-02T07:53:29Z</time>
      </trkpt>
      <trkpt lat="43.84934" lon="4.21892">
        <ele>222</ele>
        <time>2010-05-02T07:53:31Z</time>
      </trkpt>
      <trkpt lat="43.8494" lon="4.21882">
        <ele>221</ele>
        <time>2010-05-02T07:53:33Z</time>
      </trkpt>
      <trkpt lat="43.84945" lon="4.21871">
        <ele>221</ele>
        <time>2010-05-02T07:53:35Z</time>
      </trkpt>
      <trkpt lat="43.8495" lon="4.21864">
        <ele>221</ele>
        <time>2010-05-02T07:53:38Z</time>
      </trkpt>
      <trkpt lat="43.84953" lon="4.21862">
        <ele>221</ele>
        <time>2010-05-02T07:53:40Z</time>
      </trkpt>
      <trkpt lat="43.84958" lon="4.21861">
        <ele>221</ele>
        <time>2010-05-02T07:53:42Z</time>
      </trkpt>
      <trkpt lat="43.84962" lon="4.21859">
        <ele>222</ele>
        <time>2010-05-02T07:53:44Z</time>
      </trkpt>
      <trkpt lat="43.84964" lon="4.21856">
        <ele>222</ele>
        <time>2010-05-02T07:53:47Z</time>
      </trkpt>
      <trkpt lat="43.84964" lon="4.21851">
        <ele>223</ele>
        <time>2010-05-02T07:53:49Z</time>
      </trkpt>
      <trkpt lat="43.84964" lon="4.21846">
        <ele>224</ele>
        <time>2010-05-02T07:53:51Z</time>
      </trkpt>
      <trkpt lat="43.84966" lon="4.21842">
        <ele>223</ele>
        <time>2010-05-02T07:53:53Z</time>
      </trkpt>
      <trkpt lat="43.84967" lon="4.21837">
        <ele>223</ele>
        <time>2010-05-02T07:53:55Z</time>
      </trkpt>
      <trkpt lat="43.84969" lon="4.21832">
        <ele>223</ele>
        <time>2010-05-02T07:53:58Z</time>
      </trkpt>
      <trkpt lat="43.84972" lon="4.21823">
        <ele>223</ele>
        <time>2010-05-02T07:54:01Z</time>
      </trkpt>
      <trkpt lat="43.84976" lon="4.21813">
        <ele>222</ele>
        <time>2010-05-02T07:54:03Z</time>
      </trkpt>
      <trkpt lat="43.84979" lon="4.21804">
        <ele>222</ele>
        <time>2010-05-02T07:54:05Z</time>
      </trkpt>
      <trkpt lat="43.84983" lon="4.21794">
        <ele>222</ele>
        <time>2010-05-02T07:54:07Z</time>
      </trkpt>
      <trkpt lat="43.84987" lon="4.21786">
        <ele>221</ele>
        <time>2010-05-02T07:54:09Z</time>
      </trkpt>
      <trkpt lat="43.8499" lon="4.21778">
        <ele>221</ele>
        <time>2010-05-02T07:54:11Z</time>
      </trkpt>
      <trkpt lat="43.84993" lon="4.2177">
        <ele>221</ele>
        <time>2010-05-02T07:54:14Z</time>
      </trkpt>
      <trkpt lat="43.85" lon="4.21759">
        <ele>221</ele>
        <time>2010-05-02T07:54:16Z</time>
      </trkpt>
      <trkpt lat="43.8501" lon="4.21746">
        <ele>222</ele>
        <time>2010-05-02T07:54:18Z</time>
      </trkpt>
      <trkpt lat="43.85021" lon="4.21732">
        <ele>221</ele>
        <time>2010-05-02T07:54:20Z</time>
      </trkpt>
      <trkpt lat="43.85036" lon="4.21718">
        <ele>220</ele>
        <time>2010-05-02T07:54:23Z</time>
      </trkpt>
      <trkpt lat="43.85046" lon="4.21708">
        <ele>220</ele>
        <time>2010-05-02T07:54:26Z</time>
      </trkpt>
      <trkpt lat="43.85053" lon="4.21702">
        <ele>220</ele>
        <time>2010-05-02T07:54:27Z</time>
      </trkpt>
      <trkpt lat="43.85068" lon="4.21692">
        <ele>220</ele>
        <time>2010-05-02T07:54:30Z</time>
      </trkpt>
      <trkpt lat="43.8508" lon="4.21684">
        <ele>219</ele>
        <time>2010-05-02T07:54:32Z</time>
      </trkpt>
      <trkpt lat="43.85088" lon="4.21681">
        <ele>219</ele>
        <time>2010-05-02T07:54:34Z</time>
      </trkpt>
      <trkpt lat="43.85101" lon="4.21679">
        <ele>220</ele>
        <time>2010-05-02T07:54:36Z</time>
      </trkpt>
      <trkpt lat="43.85114" lon="4.21676">
        <ele>221</ele>
        <time>2010-05-02T07:54:39Z</time>
      </trkpt>
      <trkpt lat="43.85128" lon="4.21679">
        <ele>221</ele>
        <time>2010-05-02T07:54:41Z</time>
      </trkpt>
      <trkpt lat="43.8514" lon="4.21684">
        <ele>221</ele>
        <time>2010-05-02T07:54:43Z</time>
      </trkpt>
      <trkpt lat="43.85151" lon="4.21689">
        <ele>222</ele>
        <time>2010-05-02T07:54:45Z</time>
      </trkpt>
      <trkpt lat="43.85162" lon="4.21684">
        <ele>222</ele>
        <time>2010-05-02T07:54:48Z</time>
      </trkpt>
      <trkpt lat="43.85171" lon="4.21675">
        <ele>222</ele>
        <time>2010-05-02T07:54:50Z</time>
      </trkpt>
      <trkpt lat="43.85181" lon="4.21667">
        <ele>222</ele>
        <time>2010-05-02T07:54:52Z</time>
      </trkpt>
      <trkpt lat="43.85192" lon="4.21661">
        <ele>222</ele>
        <time>2010-05-02T07:54:54Z</time>
      </trkpt>
      <trkpt lat="43.85202" lon="4.21656">
        <ele>222</ele>
        <time>2010-05-02T07:54:56Z</time>
      </trkpt>
      <trkpt lat="43.85206" lon="4.21655">
        <ele>222</ele>
        <time>2010-05-02T07:54:57Z</time>
      </trkpt>
      <trkpt lat="43.85224" lon="4.21648">
        <ele>221</ele>
        <time>2010-05-02T07:55:01Z</time>
      </trkpt>
      <trkpt lat="43.85235" lon="4.21645">
        <ele>220</ele>
        <time>2010-05-02T07:55:03Z</time>
      </trkpt>
      <trkpt lat="43.85247" lon="4.21644">
        <ele>220</ele>
        <time>2010-05-02T07:55:05Z</time>
      </trkpt>
      <trkpt lat="43.85259" lon="4.21643">
        <ele>220</ele>
        <time>2010-05-02T07:55:07Z</time>
      </trkpt>
      <trkpt lat="43.85271" lon="4.21639">
        <ele>220</ele>
        <time>2010-05-02T07:55:10Z</time>
      </trkpt>
      <trkpt lat="43.85275" lon="4.21638">
        <ele>220</ele>
        <time>2010-05-02T07:55:10Z</time>
      </trkpt>
      <trkpt lat="43.8529" lon="4.21632">
        <ele>220</ele>
        <time>2010-05-02T07:55:13Z</time>
      </trkpt>
      <trkpt lat="43.85302" lon="4.2163">
        <ele>219</ele>
        <time>2010-05-02T07:55:16Z</time>
      </trkpt>
      <trkpt lat="43.85315" lon="4.21628">
        <ele>219</ele>
        <time>2010-05-02T07:55:18Z</time>
      </trkpt>
      <trkpt lat="43.85327" lon="4.21624">
        <ele>218</ele>
        <time>2010-05-02T07:55:20Z</time>
      </trkpt>
      <trkpt lat="43.85338" lon="4.21619">
        <ele>218</ele>
        <time>2010-05-02T07:55:22Z</time>
      </trkpt>
      <trkpt lat="43.85342" lon="4.21618">
        <ele>217</ele>
        <time>2010-05-02T07:55:23Z</time>
      </trkpt>
      <trkpt lat="43.8536" lon="4.21611">
        <ele>218</ele>
        <time>2010-05-02T07:55:27Z</time>
      </trkpt>
      <trkpt lat="43.85371" lon="4.21608">
        <ele>218</ele>
        <time>2010-05-02T07:55:29Z</time>
      </trkpt>
      <trkpt lat="43.85382" lon="4.21604">
        <ele>217</ele>
        <time>2010-05-02T07:55:31Z</time>
      </trkpt>
      <trkpt lat="43.85393" lon="4.21598">
        <ele>217</ele>
        <time>2010-05-02T07:55:33Z</time>
      </trkpt>
      <trkpt lat="43.85403" lon="4.21591">
        <ele>216</ele>
        <time>2010-05-02T07:55:35Z</time>
      </trkpt>
      <trkpt lat="43.85406" lon="4.21589">
        <ele>216</ele>
        <time>2010-05-02T07:55:36Z</time>
      </trkpt>
      <trkpt lat="43.85421" lon="4.21575">
        <ele>215</ele>
        <time>2010-05-02T07:55:40Z</time>
      </trkpt>
      <trkpt lat="43.85431" lon="4.21568">
        <ele>215</ele>
        <time>2010-05-02T07:55:42Z</time>
      </trkpt>
      <trkpt lat="43.85439" lon="4.2156">
        <ele>214</ele>
        <time>2010-05-02T07:55:44Z</time>
      </trkpt>
      <trkpt lat="43.85444" lon="4.21553">
        <ele>215</ele>
        <time>2010-05-02T07:55:46Z</time>
      </trkpt>
      <trkpt lat="43.85452" lon="4.21543">
        <ele>214</ele>
        <time>2010-05-02T07:55:48Z</time>
      </trkpt>
      <trkpt lat="43.85455" lon="4.2154">
        <ele>214</ele>
        <time>2010-05-02T07:55:49Z</time>
      </trkpt>
      <trkpt lat="43.85469" lon="4.21525">
        <ele>213</ele>
        <time>2010-05-02T07:55:52Z</time>
      </trkpt>
      <trkpt lat="43.85474" lon="4.2152">
        <ele>213</ele>
        <time>2010-05-02T07:55:55Z</time>
      </trkpt>
      <trkpt lat="43.85475" lon="4.21519">
        <ele>213</ele>
        <time>2010-05-02T07:55:56Z</time>
      </trkpt>
      <trkpt lat="43.85482" lon="4.21515">
        <ele>212</ele>
        <time>2010-05-02T07:55:58Z</time>
      </trkpt>
      <trkpt lat="43.85488" lon="4.21512">
        <ele>212</ele>
        <time>2010-05-02T07:56:01Z</time>
      </trkpt>
      <trkpt lat="43.8549" lon="4.21511">
        <ele>212</ele>
        <time>2010-05-02T07:56:01Z</time>
      </trkpt>
      <trkpt lat="43.85503" lon="4.21505">
        <ele>212</ele>
        <time>2010-05-02T07:56:05Z</time>
      </trkpt>
      <trkpt lat="43.8551" lon="4.21499">
        <ele>212</ele>
        <time>2010-05-02T07:56:07Z</time>
      </trkpt>
      <trkpt lat="43.85518" lon="4.21493">
        <ele>212</ele>
        <time>2010-05-02T07:56:10Z</time>
      </trkpt>
      <trkpt lat="43.85524" lon="4.2149">
        <ele>212</ele>
        <time>2010-05-02T07:56:11Z</time>
      </trkpt>
      <trkpt lat="43.85534" lon="4.21486">
        <ele>213</ele>
        <time>2010-05-02T07:56:13Z</time>
      </trkpt>
      <trkpt lat="43.85538" lon="4.21484">
        <ele>212</ele>
        <time>2010-05-02T07:56:14Z</time>
      </trkpt>
      <trkpt lat="43.85554" lon="4.21474">
        <ele>213</ele>
        <time>2010-05-02T07:56:18Z</time>
      </trkpt>
      <trkpt lat="43.85561" lon="4.21471">
        <ele>213</ele>
        <time>2010-05-02T07:56:19Z</time>
      </trkpt>
      <trkpt lat="43.85573" lon="4.21466">
        <ele>212</ele>
        <time>2010-05-02T07:56:21Z</time>
      </trkpt>
      <trkpt lat="43.85585" lon="4.21463">
        <ele>212</ele>
        <time>2010-05-02T07:56:23Z</time>
      </trkpt>
      <trkpt lat="43.85597" lon="4.21461">
        <ele>212</ele>
        <time>2010-05-02T07:56:26Z</time>
      </trkpt>
      <trkpt lat="43.85601" lon="4.21462">
        <ele>212</ele>
        <time>2010-05-02T07:56:26Z</time>
      </trkpt>
      <trkpt lat="43.8562" lon="4.21461">
        <ele>211</ele>
        <time>2010-05-02T07:56:30Z</time>
      </trkpt>
      <trkpt lat="43.8563" lon="4.21458">
        <ele>212</ele>
        <time>2010-05-02T07:56:32Z</time>
      </trkpt>
      <trkpt lat="43.85641" lon="4.21455">
        <ele>212</ele>
        <time>2010-05-02T07:56:34Z</time>
      </trkpt>
      <trkpt lat="43.85651" lon="4.21451">
        <ele>213</ele>
        <time>2010-05-02T07:56:37Z</time>
      </trkpt>
      <trkpt lat="43.8566" lon="4.21446">
        <ele>213</ele>
        <time>2010-05-02T07:56:39Z</time>
      </trkpt>
      <trkpt lat="43.85663" lon="4.21445">
        <ele>213</ele>
        <time>2010-05-02T07:56:40Z</time>
      </trkpt>
      <trkpt lat="43.85678" lon="4.2144">
        <ele>213</ele>
        <time>2010-05-02T07:56:43Z</time>
      </trkpt>
      <trkpt lat="43.85684" lon="4.21439">
        <ele>213</ele>
        <time>2010-05-02T07:56:45Z</time>
      </trkpt>
      <trkpt lat="43.85693" lon="4.21437">
        <ele>213</ele>
        <time>2010-05-02T07:56:47Z</time>
      </trkpt>
      <trkpt lat="43.85702" lon="4.21435">
        <ele>213</ele>
        <time>2010-05-02T07:56:49Z</time>
      </trkpt>
      <trkpt lat="43.85713" lon="4.2143">
        <ele>214</ele>
        <time>2010-05-02T07:56:52Z</time>
      </trkpt>
      <trkpt lat="43.85724" lon="4.21427">
        <ele>214</ele>
        <time>2010-05-02T07:56:56Z</time>
      </trkpt>
      <trkpt lat="43.85734" lon="4.21423">
        <ele>215</ele>
        <time>2010-05-02T07:56:59Z</time>
      </trkpt>
      <trkpt lat="43.85745" lon="4.21419">
        <ele>216</ele>
        <time>2010-05-02T07:57:02Z</time>
      </trkpt>
      <trkpt lat="43.85748" lon="4.21418">
        <ele>216</ele>
        <time>2010-05-02T07:57:02Z</time>
      </trkpt>
      <trkpt lat="43.85758" lon="4.21416">
        <ele>216</ele>
        <time>2010-05-02T07:57:05Z</time>
      </trkpt>
      <trkpt lat="43.85769" lon="4.21414">
        <ele>217</ele>
        <time>2010-05-02T07:57:07Z</time>
      </trkpt>
      <trkpt lat="43.85781" lon="4.21411">
        <ele>217</ele>
        <time>2010-05-02T07:57:09Z</time>
      </trkpt>
      <trkpt lat="43.8579" lon="4.21412">
        <ele>218</ele>
        <time>2010-05-02T07:57:11Z</time>
      </trkpt>
      <trkpt lat="43.85797" lon="4.21416">
        <ele>218</ele>
        <time>2010-05-02T07:57:13Z</time>
      </trkpt>
      <trkpt lat="43.85805" lon="4.21421">
        <ele>218</ele>
        <time>2010-05-02T07:57:16Z</time>
      </trkpt>
      <trkpt lat="43.85807" lon="4.21422">
        <ele>218</ele>
        <time>2010-05-02T07:57:17Z</time>
      </trkpt>
      <trkpt lat="43.85818" lon="4.21424">
        <ele>217</ele>
        <time>2010-05-02T07:57:21Z</time>
      </trkpt>
      <trkpt lat="43.85818" lon="4.21424">
        <ele>216</ele>
        <time>2010-05-02T07:57:23Z</time>
      </trkpt>
      <trkpt lat="43.85818" lon="4.21424">
        <ele>216</ele>
        <time>2010-05-02T07:57:25Z</time>
      </trkpt>
      <trkpt lat="43.85818" lon="4.21424">
        <ele>216</ele>
        <time>2010-05-02T07:57:27Z</time>
      </trkpt>
      <trkpt lat="43.85818" lon="4.21424">
        <ele>216</ele>
        <time>2010-05-02T07:57:29Z</time>
      </trkpt>
      <trkpt lat="43.85832" lon="4.21428">
        <ele>214</ele>
        <time>2010-05-02T07:57:31Z</time>
      </trkpt>
      <trkpt lat="43.85832" lon="4.21428">
        <ele>214</ele>
        <time>2010-05-02T07:57:34Z</time>
      </trkpt>
      <trkpt lat="43.85832" lon="4.21428">
        <ele>214</ele>
        <time>2010-05-02T07:57:36Z</time>
      </trkpt>
      <trkpt lat="43.85841" lon="4.21423">
        <ele>213</ele>
        <time>2010-05-02T07:57:38Z</time>
      </trkpt>
      <trkpt lat="43.85841" lon="4.21423">
        <ele>213</ele>
        <time>2010-05-02T07:57:40Z</time>
      </trkpt>
      <trkpt lat="43.85852" lon="4.21415">
        <ele>213</ele>
        <time>2010-05-02T07:57:42Z</time>
      </trkpt>
      <trkpt lat="43.85856" lon="4.21411">
        <ele>213</ele>
        <time>2010-05-02T07:57:45Z</time>
      </trkpt>
      <trkpt lat="43.85861" lon="4.21406">
        <ele>214</ele>
        <time>2010-05-02T07:57:47Z</time>
      </trkpt>
      <trkpt lat="43.85865" lon="4.21403">
        <ele>213</ele>
        <time>2010-05-02T07:57:49Z</time>
      </trkpt>
      <trkpt lat="43.85866" lon="4.21401">
        <ele>213</ele>
        <time>2010-05-02T07:57:51Z</time>
      </trkpt>
      <trkpt lat="43.8587" lon="4.21398">
        <ele>212</ele>
        <time>2010-05-02T07:57:52Z</time>
      </trkpt>
      <trkpt lat="43.85877" lon="4.21392">
        <ele>211</ele>
        <time>2010-05-02T07:57:56Z</time>
      </trkpt>
      <trkpt lat="43.8588" lon="4.21388">
        <ele>210</ele>
        <time>2010-05-02T07:57:58Z</time>
      </trkpt>
      <trkpt lat="43.85884" lon="4.21385">
        <ele>209</ele>
        <time>2010-05-02T07:58:00Z</time>
      </trkpt>
      <trkpt lat="43.85888" lon="4.21382">
        <ele>209</ele>
        <time>2010-05-02T07:58:02Z</time>
      </trkpt>
      <trkpt lat="43.85888" lon="4.21382">
        <ele>209</ele>
        <time>2010-05-02T07:58:04Z</time>
      </trkpt>
      <trkpt lat="43.85896" lon="4.21375">
        <ele>208</ele>
        <time>2010-05-02T07:58:07Z</time>
      </trkpt>
      <trkpt lat="43.85899" lon="4.21372">
        <ele>208</ele>
        <time>2010-05-02T07:58:09Z</time>
      </trkpt>
      <trkpt lat="43.85899" lon="4.21372">
        <ele>208</ele>
        <time>2010-05-02T07:58:11Z</time>
      </trkpt>
      <trkpt lat="43.85899" lon="4.21372">
        <ele>208</ele>
        <time>2010-05-02T07:58:13Z</time>
      </trkpt>
      <trkpt lat="43.85906" lon="4.21358">
        <ele>209</ele>
        <time>2010-05-02T07:58:15Z</time>
      </trkpt>
      <trkpt lat="43.85907" lon="4.21354">
        <ele>209</ele>
        <time>2010-05-02T07:58:18Z</time>
      </trkpt>
      <trkpt lat="43.85908" lon="4.21348">
        <ele>209</ele>
        <time>2010-05-02T07:58:20Z</time>
      </trkpt>
      <trkpt lat="43.85909" lon="4.21342">
        <ele>210</ele>
        <time>2010-05-02T07:58:23Z</time>
      </trkpt>
      <trkpt lat="43.8591" lon="4.21337">
        <ele>211</ele>
        <time>2010-05-02T07:58:25Z</time>
      </trkpt>
      <trkpt lat="43.85911" lon="4.21334">
        <ele>211</ele>
        <time>2010-05-02T07:58:27Z</time>
      </trkpt>
      <trkpt lat="43.85911" lon="4.21334">
        <ele>211</ele>
        <time>2010-05-02T07:58:28Z</time>
      </trkpt>
      <trkpt lat="43.85914" lon="4.21326">
        <ele>211</ele>
        <time>2010-05-02T07:58:31Z</time>
      </trkpt>
      <trkpt lat="43.85914" lon="4.21326">
        <ele>211</ele>
        <time>2010-05-02T07:58:34Z</time>
      </trkpt>
      <trkpt lat="43.85914" lon="4.21326">
        <ele>211</ele>
        <time>2010-05-02T07:58:36Z</time>
      </trkpt>
      <trkpt lat="43.85914" lon="4.21326">
        <ele>211</ele>
        <time>2010-05-02T07:58:38Z</time>
      </trkpt>
      <trkpt lat="43.85914" lon="4.21326">
        <ele>211</ele>
        <time>2010-05-02T07:58:40Z</time>
      </trkpt>
      <trkpt lat="43.85914" lon="4.21326">
        <ele>211</ele>
        <time>2010-05-02T07:58:41Z</time>
      </trkpt>
      <trkpt lat="43.85914" lon="4.21326">
        <ele>211</ele>
        <time>2010-05-02T07:58:45Z</time>
      </trkpt>
      <trkpt lat="43.85919" lon="4.21313">
        <ele>209</ele>
        <time>2010-05-02T07:58:47Z</time>
      </trkpt>
      <trkpt lat="43.85919" lon="4.21313">
        <ele>209</ele>
        <time>2010-05-02T07:58:48Z</time>
      </trkpt>
      <trkpt lat="43.85919" lon="4.21313">
        <ele>209</ele>
        <time>2010-05-02T07:58:51Z</time>
      </trkpt>
      <trkpt lat="43.85927" lon="4.213">
        <ele>209</ele>
        <time>2010-05-02T07:58:53Z</time>
      </trkpt>
      <trkpt lat="43.85936" lon="4.21289">
        <ele>208</ele>
        <time>2010-05-02T07:58:55Z</time>
      </trkpt>
      <trkpt lat="43.85945" lon="4.21278">
        <ele>207</ele>
        <time>2010-05-02T07:58:57Z</time>
      </trkpt>
      <trkpt lat="43.85954" lon="4.21268">
        <ele>207</ele>
        <time>2010-05-02T07:58:59Z</time>
      </trkpt>
      <trkpt lat="43.85963" lon="4.21259">
        <ele>207</ele>
        <time>2010-05-02T07:59:01Z</time>
      </trkpt>
      <trkpt lat="43.85972" lon="4.2125">
        <ele>208</ele>
        <time>2010-05-02T07:59:04Z</time>
      </trkpt>
      <trkpt lat="43.85985" lon="4.2124">
        <ele>210</ele>
        <time>2010-05-02T07:59:07Z</time>
      </trkpt>
      <trkpt lat="43.85992" lon="4.21236">
        <ele>211</ele>
        <time>2010-05-02T07:59:08Z</time>
      </trkpt>
      <trkpt lat="43.86001" lon="4.21229">
        <ele>212</ele>
        <time>2010-05-02T07:59:10Z</time>
      </trkpt>
      <trkpt lat="43.86008" lon="4.21222">
        <ele>212</ele>
        <time>2010-05-02T07:59:12Z</time>
      </trkpt>
      <trkpt lat="43.86011" lon="4.21212">
        <ele>212</ele>
        <time>2010-05-02T07:59:15Z</time>
      </trkpt>
      <trkpt lat="43.86011" lon="4.21209">
        <ele>212</ele>
        <time>2010-05-02T07:59:16Z</time>
      </trkpt>
      <trkpt lat="43.86007" lon="4.21198">
        <ele>213</ele>
        <time>2010-05-02T07:59:19Z</time>
      </trkpt>
      <trkpt lat="43.86003" lon="4.21194">
        <ele>212</ele>
        <time>2010-05-02T07:59:21Z</time>
      </trkpt>
      <trkpt lat="43.85999" lon="4.21189">
        <ele>212</ele>
        <time>2010-05-02T07:59:24Z</time>
      </trkpt>
      <trkpt lat="43.85996" lon="4.21184">
        <ele>211</ele>
        <time>2010-05-02T07:59:26Z</time>
      </trkpt>
      <trkpt lat="43.85993" lon="4.21179">
        <ele>210</ele>
        <time>2010-05-02T07:59:28Z</time>
      </trkpt>
      <trkpt lat="43.85992" lon="4.21178">
        <ele>210</ele>
        <time>2010-05-02T07:59:29Z</time>
      </trkpt>
      <trkpt lat="43.85987" lon="4.21174">
        <ele>210</ele>
        <time>2010-05-02T07:59:33Z</time>
      </trkpt>
      <trkpt lat="43.85983" lon="4.2117">
        <ele>210</ele>
        <time>2010-05-02T07:59:35Z</time>
      </trkpt>
      <trkpt lat="43.8598" lon="4.21165">
        <ele>211</ele>
        <time>2010-05-02T07:59:37Z</time>
      </trkpt>
      <trkpt lat="43.85976" lon="4.2116">
        <ele>211</ele>
        <time>2010-05-02T07:59:39Z</time>
      </trkpt>
      <trkpt lat="43.85974" lon="4.21153">
        <ele>212</ele>
        <time>2010-05-02T07:59:41Z</time>
      </trkpt>
      <trkpt lat="43.85972" lon="4.2115">
        <ele>212</ele>
        <time>2010-05-02T07:59:42Z</time>
      </trkpt>
      <trkpt lat="43.85965" lon="4.21141">
        <ele>213</ele>
        <time>2010-05-02T07:59:46Z</time>
      </trkpt>
      <trkpt lat="43.85959" lon="4.21135">
        <ele>213</ele>
        <time>2010-05-02T07:59:48Z</time>
      </trkpt>
      <trkpt lat="43.85955" lon="4.21129">
        <ele>213</ele>
        <time>2010-05-02T07:59:50Z</time>
      </trkpt>
      <trkpt lat="43.85951" lon="4.21125">
        <ele>213</ele>
        <time>2010-05-02T07:59:52Z</time>
      </trkpt>
      <trkpt lat="43.85946" lon="4.21118">
        <ele>214</ele>
        <time>2010-05-02T07:59:54Z</time>
      </trkpt>
      <trkpt lat="43.85941" lon="4.21111">
        <ele>214</ele>
        <time>2010-05-02T07:59:56Z</time>
      </trkpt>
      <trkpt lat="43.85937" lon="4.21106">
        <ele>215</ele>
        <time>2010-05-02T07:59:58Z</time>
      </trkpt>
      <trkpt lat="43.85932" lon="4.21102">
        <ele>216</ele>
        <time>2010-05-02T08:00:01Z</time>
      </trkpt>
      <trkpt lat="43.85928" lon="4.21097">
        <ele>216</ele>
        <time>2010-05-02T08:00:03Z</time>
      </trkpt>
      <trkpt lat="43.85923" lon="4.21093">
        <ele>216</ele>
        <time>2010-05-02T08:00:05Z</time>
      </trkpt>
      <trkpt lat="43.85917" lon="4.21089">
        <ele>217</ele>
        <time>2010-05-02T08:00:07Z</time>
      </trkpt>
      <trkpt lat="43.8591" lon="4.2108">
        <ele>218</ele>
        <time>2010-05-02T08:00:10Z</time>
      </trkpt>
      <trkpt lat="43.85908" lon="4.21073">
        <ele>218</ele>
        <time>2010-05-02T08:00:12Z</time>
      </trkpt>
      <trkpt lat="43.85904" lon="4.21058">
        <ele>219</ele>
        <time>2010-05-02T08:00:14Z</time>
      </trkpt>
      <trkpt lat="43.85901" lon="4.21043">
        <ele>219</ele>
        <time>2010-05-02T08:00:17Z</time>
      </trkpt>
      <trkpt lat="43.85899" lon="4.21028">
        <ele>219</ele>
        <time>2010-05-02T08:00:19Z</time>
      </trkpt>
      <trkpt lat="43.85895" lon="4.21015">
        <ele>218</ele>
        <time>2010-05-02T08:00:21Z</time>
      </trkpt>
      <trkpt lat="43.85891" lon="4.21006">
        <ele>216</ele>
        <time>2010-05-02T08:00:23Z</time>
      </trkpt>
      <trkpt lat="43.85888" lon="4.21002">
        <ele>215</ele>
        <time>2010-05-02T08:00:26Z</time>
      </trkpt>
      <trkpt lat="43.85881" lon="4.21002">
        <ele>214</ele>
        <time>2010-05-02T08:00:28Z</time>
      </trkpt>
      <trkpt lat="43.85874" lon="4.21002">
        <ele>214</ele>
        <time>2010-05-02T08:00:30Z</time>
      </trkpt>
      <trkpt lat="43.85868" lon="4.21004">
        <ele>213</ele>
        <time>2010-05-02T08:00:32Z</time>
      </trkpt>
      <trkpt lat="43.85868" lon="4.21004">
        <ele>213</ele>
        <time>2010-05-02T08:00:34Z</time>
      </trkpt>
      <trkpt lat="43.85858" lon="4.21013">
        <ele>212</ele>
        <time>2010-05-02T08:00:37Z</time>
      </trkpt>
      <trkpt lat="43.85853" lon="4.21022">
        <ele>212</ele>
        <time>2010-05-02T08:00:39Z</time>
      </trkpt>
      <trkpt lat="43.85847" lon="4.21031">
        <ele>212</ele>
        <time>2010-05-02T08:00:41Z</time>
      </trkpt>
      <trkpt lat="43.85841" lon="4.21043">
        <ele>211</ele>
        <time>2010-05-02T08:00:44Z</time>
      </trkpt>
      <trkpt lat="43.85837" lon="4.21052">
        <ele>211</ele>
        <time>2010-05-02T08:00:46Z</time>
      </trkpt>
      <trkpt lat="43.85834" lon="4.21061">
        <ele>210</ele>
        <time>2010-05-02T08:00:48Z</time>
      </trkpt>
      <trkpt lat="43.8583" lon="4.21069">
        <ele>210</ele>
        <time>2010-05-02T08:00:51Z</time>
      </trkpt>
      <trkpt lat="43.85826" lon="4.21077">
        <ele>210</ele>
        <time>2010-05-02T08:00:53Z</time>
      </trkpt>
      <trkpt lat="43.85821" lon="4.21084">
        <ele>211</ele>
        <time>2010-05-02T08:00:55Z</time>
      </trkpt>
      <trkpt lat="43.85816" lon="4.21091">
        <ele>211</ele>
        <time>2010-05-02T08:00:58Z</time>
      </trkpt>
      <trkpt lat="43.85811" lon="4.211">
        <ele>211</ele>
        <time>2010-05-02T08:01:00Z</time>
      </trkpt>
      <trkpt lat="43.85805" lon="4.21108">
        <ele>211</ele>
        <time>2010-05-02T08:01:02Z</time>
      </trkpt>
      <trkpt lat="43.85797" lon="4.21116">
        <ele>211</ele>
        <time>2010-05-02T08:01:05Z</time>
      </trkpt>
      <trkpt lat="43.85791" lon="4.2112">
        <ele>210</ele>
        <time>2010-05-02T08:01:07Z</time>
      </trkpt>
      <trkpt lat="43.85787" lon="4.21121">
        <ele>210</ele>
        <time>2010-05-02T08:01:09Z</time>
      </trkpt>
      <trkpt lat="43.85787" lon="4.21121">
        <ele>210</ele>
        <time>2010-05-02T08:01:11Z</time>
      </trkpt>
      <trkpt lat="43.85787" lon="4.21121">
        <ele>210</ele>
        <time>2010-05-02T08:01:13Z</time>
      </trkpt>
      <trkpt lat="43.85787" lon="4.21121">
        <ele>210</ele>
        <time>2010-05-02T08:01:16Z</time>
      </trkpt>
      <trkpt lat="43.85787" lon="4.21121">
        <ele>210</ele>
        <time>2010-05-02T08:01:18Z</time>
      </trkpt>
      <trkpt lat="43.85787" lon="4.21121">
        <ele>210</ele>
        <time>2010-05-02T08:01:20Z</time>
      </trkpt>
      <trkpt lat="43.85778" lon="4.21123">
        <ele>208</ele>
        <time>2010-05-02T08:01:23Z</time>
      </trkpt>
      <trkpt lat="43.85778" lon="4.21123">
        <ele>208</ele>
        <time>2010-05-02T08:01:25Z</time>
      </trkpt>
      <trkpt lat="43.85778" lon="4.21123">
        <ele>208</ele>
        <time>2010-05-02T08:01:27Z</time>
      </trkpt>
      <trkpt lat="43.85778" lon="4.21123">
        <ele>208</ele>
        <time>2010-05-02T08:01:30Z</time>
      </trkpt>
      <trkpt lat="43.85778" lon="4.21123">
        <ele>208</ele>
        <time>2010-05-02T08:01:32Z</time>
      </trkpt>
      <trkpt lat="43.85778" lon="4.21123">
        <ele>208</ele>
        <time>2010-05-02T08:01:34Z</time>
      </trkpt>
      <trkpt lat="43.85778" lon="4.21123">
        <ele>208</ele>
        <time>2010-05-02T08:01:36Z</time>
      </trkpt>
      <trkpt lat="43.85778" lon="4.21123">
        <ele>208</ele>
        <time>2010-05-02T08:01:39Z</time>
      </trkpt>
      <trkpt lat="43.85778" lon="4.21123">
        <ele>208</ele>
        <time>2010-05-02T08:01:41Z</time>
      </trkpt>
      <trkpt lat="43.85774" lon="4.21126">
        <ele>204</ele>
        <time>2010-05-02T08:01:43Z</time>
      </trkpt>
      <trkpt lat="43.85774" lon="4.21126">
        <ele>204</ele>
        <time>2010-05-02T08:01:46Z</time>
      </trkpt>
      <trkpt lat="43.85774" lon="4.21126">
        <ele>204</ele>
        <time>2010-05-02T08:01:48Z</time>
      </trkpt>
      <trkpt lat="43.85771" lon="4.21132">
        <ele>202</ele>
        <time>2010-05-02T08:01:51Z</time>
      </trkpt>
      <trkpt lat="43.85771" lon="4.21132">
        <ele>202</ele>
        <time>2010-05-02T08:01:53Z</time>
      </trkpt>
      <trkpt lat="43.85771" lon="4.21132">
        <ele>202</ele>
        <time>2010-05-02T08:01:55Z</time>
      </trkpt>
      <trkpt lat="43.85771" lon="4.21132">
        <ele>202</ele>
        <time>2010-05-02T08:01:57Z</time>
      </trkpt>
      <trkpt lat="43.85771" lon="4.21132">
        <ele>202</ele>
        <time>2010-05-02T08:02:00Z</time>
      </trkpt>
      <trkpt lat="43.85771" lon="4.21132">
        <ele>202</ele>
        <time>2010-05-02T08:02:02Z</time>
      </trkpt>
      <trkpt lat="43.85766" lon="4.21141">
        <ele>202</ele>
        <time>2010-05-02T08:02:04Z</time>
      </trkpt>
      <trkpt lat="43.85763" lon="4.21147">
        <ele>203</ele>
        <time>2010-05-02T08:02:07Z</time>
      </trkpt>
      <trkpt lat="43.85762" lon="4.21148">
        <ele>203</ele>
        <time>2010-05-02T08:02:09Z</time>
      </trkpt>
      <trkpt lat="43.85762" lon="4.21148">
        <ele>203</ele>
        <time>2010-05-02T08:02:12Z</time>
      </trkpt>
      <trkpt lat="43.85756" lon="4.21152">
        <ele>203</ele>
        <time>2010-05-02T08:02:14Z</time>
      </trkpt>
      <trkpt lat="43.85756" lon="4.21152">
        <ele>203</ele>
        <time>2010-05-02T08:02:16Z</time>
      </trkpt>
      <trkpt lat="43.85752" lon="4.21153">
        <ele>203</ele>
        <time>2010-05-02T08:02:19Z</time>
      </trkpt>
      <trkpt lat="43.85752" lon="4.21153">
        <ele>203</ele>
        <time>2010-05-02T08:02:21Z</time>
      </trkpt>
      <trkpt lat="43.85744" lon="4.21154">
        <ele>204</ele>
        <time>2010-05-02T08:02:23Z</time>
      </trkpt>
      <trkpt lat="43.85735" lon="4.21154">
        <ele>205</ele>
        <time>2010-05-02T08:02:25Z</time>
      </trkpt>
      <trkpt lat="43.8573" lon="4.21156">
        <ele>206</ele>
        <time>2010-05-02T08:02:28Z</time>
      </trkpt>
      <trkpt lat="43.8573" lon="4.21156">
        <ele>206</ele>
        <time>2010-05-02T08:02:31Z</time>
      </trkpt>
      <trkpt lat="43.8573" lon="4.21156">
        <ele>206</ele>
        <time>2010-05-02T08:02:33Z</time>
      </trkpt>
      <trkpt lat="43.8573" lon="4.21156">
        <ele>206</ele>
        <time>2010-05-02T08:02:35Z</time>
      </trkpt>
      <trkpt lat="43.85697" lon="4.21152">
        <ele>211</ele>
        <time>2010-05-02T08:02:38Z</time>
      </trkpt>
      <trkpt lat="43.85685" lon="4.21151">
        <ele>212</ele>
        <time>2010-05-02T08:02:40Z</time>
      </trkpt>
      <trkpt lat="43.85673" lon="4.21149">
        <ele>212</ele>
        <time>2010-05-02T08:02:42Z</time>
      </trkpt>
      <trkpt lat="43.85661" lon="4.21145">
        <ele>213</ele>
        <time>2010-05-02T08:02:44Z</time>
      </trkpt>
      <trkpt lat="43.8565" lon="4.21141">
        <ele>213</ele>
        <time>2010-05-02T08:02:47Z</time>
      </trkpt>
      <trkpt lat="43.85639" lon="4.21137">
        <ele>213</ele>
        <time>2010-05-02T08:02:49Z</time>
      </trkpt>
      <trkpt lat="43.8563" lon="4.21134">
        <ele>213</ele>
        <time>2010-05-02T08:02:51Z</time>
      </trkpt>
      <trkpt lat="43.85623" lon="4.21132">
        <ele>214</ele>
        <time>2010-05-02T08:02:53Z</time>
      </trkpt>
      <trkpt lat="43.85616" lon="4.21131">
        <ele>216</ele>
        <time>2010-05-02T08:02:56Z</time>
      </trkpt>
      <trkpt lat="43.85605" lon="4.21129">
        <ele>217</ele>
        <time>2010-05-02T08:02:59Z</time>
      </trkpt>
      <trkpt lat="43.85594" lon="4.21127">
        <ele>218</ele>
        <time>2010-05-02T08:03:01Z</time>
      </trkpt>
      <trkpt lat="43.8558" lon="4.21124">
        <ele>218</ele>
        <time>2010-05-02T08:03:03Z</time>
      </trkpt>
      <trkpt lat="43.85568" lon="4.21121">
        <ele>218</ele>
        <time>2010-05-02T08:03:05Z</time>
      </trkpt>
      <trkpt lat="43.85558" lon="4.21117">
        <ele>217</ele>
        <time>2010-05-02T08:03:07Z</time>
      </trkpt>
      <trkpt lat="43.85546" lon="4.21112">
        <ele>216</ele>
        <time>2010-05-02T08:03:10Z</time>
      </trkpt>
      <trkpt lat="43.85534" lon="4.21107">
        <ele>216</ele>
        <time>2010-05-02T08:03:14Z</time>
      </trkpt>
      <trkpt lat="43.85527" lon="4.21103">
        <ele>216</ele>
        <time>2010-05-02T08:03:17Z</time>
      </trkpt>
      <trkpt lat="43.85514" lon="4.21094">
        <ele>215</ele>
        <time>2010-05-02T08:03:20Z</time>
      </trkpt>
      <trkpt lat="43.85511" lon="4.21092">
        <ele>216</ele>
        <time>2010-05-02T08:03:21Z</time>
      </trkpt>
      <trkpt lat="43.85506" lon="4.21089">
        <ele>216</ele>
        <time>2010-05-02T08:03:23Z</time>
      </trkpt>
      <trkpt lat="43.85498" lon="4.21085">
        <ele>216</ele>
        <time>2010-05-02T08:03:25Z</time>
      </trkpt>
      <trkpt lat="43.85489" lon="4.21082">
        <ele>215</ele>
        <time>2010-05-02T08:03:27Z</time>
      </trkpt>
      <trkpt lat="43.85478" lon="4.21078">
        <ele>213</ele>
        <time>2010-05-02T08:03:29Z</time>
      </trkpt>
      <trkpt lat="43.85464" lon="4.21074">
        <ele>212</ele>
        <time>2010-05-02T08:03:32Z</time>
      </trkpt>
      <trkpt lat="43.85451" lon="4.2107">
        <ele>211</ele>
        <time>2010-05-02T08:03:34Z</time>
      </trkpt>
      <trkpt lat="43.85441" lon="4.21066">
        <ele>210</ele>
        <time>2010-05-02T08:03:36Z</time>
      </trkpt>
      <trkpt lat="43.8543" lon="4.21061">
        <ele>209</ele>
        <time>2010-05-02T08:03:39Z</time>
      </trkpt>
      <trkpt lat="43.85411" lon="4.21056">
        <ele>211</ele>
        <time>2010-05-02T08:03:44Z</time>
      </trkpt>
      <trkpt lat="43.85396" lon="4.21051">
        <ele>211</ele>
        <time>2010-05-02T08:03:47Z</time>
      </trkpt>
      <trkpt lat="43.85366" lon="4.21042">
        <ele>211</ele>
        <time>2010-05-02T08:03:52Z</time>
      </trkpt>
      <trkpt lat="43.85345" lon="4.21034">
        <ele>215</ele>
        <time>2010-05-02T08:03:56Z</time>
      </trkpt>
      <trkpt lat="43.85324" lon="4.21026">
        <ele>216</ele>
        <time>2010-05-02T08:04:01Z</time>
      </trkpt>
      <trkpt lat="43.85298" lon="4.21011">
        <ele>215</ele>
        <time>2010-05-02T08:04:06Z</time>
      </trkpt>
      <trkpt lat="43.85294" lon="4.21008">
        <ele>215</ele>
        <time>2010-05-02T08:04:07Z</time>
      </trkpt>
      <trkpt lat="43.85284" lon="4.21">
        <ele>215</ele>
        <time>2010-05-02T08:04:09Z</time>
      </trkpt>
      <trkpt lat="43.85281" lon="4.20997">
        <ele>216</ele>
        <time>2010-05-02T08:04:10Z</time>
      </trkpt>
      <trkpt lat="43.85269" lon="4.20989">
        <ele>218</ele>
        <time>2010-05-02T08:04:13Z</time>
      </trkpt>
      <trkpt lat="43.8526" lon="4.20984">
        <ele>218</ele>
        <time>2010-05-02T08:04:15Z</time>
      </trkpt>
      <trkpt lat="43.85253" lon="4.20979">
        <ele>216</ele>
        <time>2010-05-02T08:04:20Z</time>
      </trkpt>
      <trkpt lat="43.8525" lon="4.20973">
        <ele>215</ele>
        <time>2010-05-02T08:04:23Z</time>
      </trkpt>
      <trkpt lat="43.8525" lon="4.20973">
        <ele>215</ele>
        <time>2010-05-02T08:04:23Z</time>
      </trkpt>
      <trkpt lat="43.8525" lon="4.20973">
        <ele>215</ele>
        <time>2010-05-02T08:04:26Z</time>
      </trkpt>
      <trkpt lat="43.8525" lon="4.20973">
        <ele>215</ele>
        <time>2010-05-02T08:04:29Z</time>
      </trkpt>
      <trkpt lat="43.8525" lon="4.20973">
        <ele>215</ele>
        <time>2010-05-02T08:04:31Z</time>
      </trkpt>
      <trkpt lat="43.85248" lon="4.20966">
        <ele>218</ele>
        <time>2010-05-02T08:04:36Z</time>
      </trkpt>
      <trkpt lat="43.85248" lon="4.20966">
        <ele>218</ele>
        <time>2010-05-02T08:04:38Z</time>
      </trkpt>
      <trkpt lat="43.85248" lon="4.20966">
        <ele>218</ele>
        <time>2010-05-02T08:04:39Z</time>
      </trkpt>
      <trkpt lat="43.85248" lon="4.20966">
        <ele>218</ele>
        <time>2010-05-02T08:04:41Z</time>
      </trkpt>
      <trkpt lat="43.85248" lon="4.20966">
        <ele>218</ele>
        <time>2010-05-02T08:04:43Z</time>
      </trkpt>
      <trkpt lat="43.85248" lon="4.20966">
        <ele>218</ele>
        <time>2010-05-02T08:04:46Z</time>
      </trkpt>
      <trkpt lat="43.85245" lon="4.2096">
        <ele>215</ele>
        <time>2010-05-02T08:04:49Z</time>
      </trkpt>
      <trkpt lat="43.85245" lon="4.2096">
        <ele>215</ele>
        <time>2010-05-02T08:04:54Z</time>
      </trkpt>
      <trkpt lat="43.85245" lon="4.2096">
        <ele>215</ele>
        <time>2010-05-02T08:04:56Z</time>
      </trkpt>
      <trkpt lat="43.85236" lon="4.2091">
        <ele>202</ele>
        <time>2010-05-02T08:05:07Z</time>
      </trkpt>
      <trkpt lat="43.85236" lon="4.2091">
        <ele>202</ele>
        <time>2010-05-02T08:05:08Z</time>
      </trkpt>
      <trkpt lat="43.85236" lon="4.2091">
        <ele>202</ele>
        <time>2010-05-02T08:05:13Z</time>
      </trkpt>
      <trkpt lat="43.85236" lon="4.2091">
        <ele>202</ele>
        <time>2010-05-02T08:05:15Z</time>
      </trkpt>
      <trkpt lat="43.85202" lon="4.20895">
        <ele>201</ele>
        <time>2010-05-02T08:05:22Z</time>
      </trkpt>
      <trkpt lat="43.8519" lon="4.20875">
        <ele>202</ele>
        <time>2010-05-02T08:05:25Z</time>
      </trkpt>
      <trkpt lat="43.85187" lon="4.20871">
        <ele>203</ele>
        <time>2010-05-02T08:05:26Z</time>
      </trkpt>
      <trkpt lat="43.85176" lon="4.20858">
        <ele>205</ele>
        <time>2010-05-02T08:05:29Z</time>
      </trkpt>
      <trkpt lat="43.85171" lon="4.20854">
        <ele>206</ele>
        <time>2010-05-02T08:05:32Z</time>
      </trkpt>
      <trkpt lat="43.85166" lon="4.20847">
        <ele>208</ele>
        <time>2010-05-02T08:05:34Z</time>
      </trkpt>
      <trkpt lat="43.85156" lon="4.20839">
        <ele>210</ele>
        <time>2010-05-02T08:05:37Z</time>
      </trkpt>
      <trkpt lat="43.85143" lon="4.20827">
        <ele>210</ele>
        <time>2010-05-02T08:05:41Z</time>
      </trkpt>
      <trkpt lat="43.85133" lon="4.20812">
        <ele>211</ele>
        <time>2010-05-02T08:05:44Z</time>
      </trkpt>
      <trkpt lat="43.85122" lon="4.20796">
        <ele>212</ele>
        <time>2010-05-02T08:05:47Z</time>
      </trkpt>
      <trkpt lat="43.85116" lon="4.20777">
        <ele>213</ele>
        <time>2010-05-02T08:05:50Z</time>
      </trkpt>
      <trkpt lat="43.85112" lon="4.20762">
        <ele>214</ele>
        <time>2010-05-02T08:05:53Z</time>
      </trkpt>
      <trkpt lat="43.85109" lon="4.20743">
        <ele>216</ele>
        <time>2010-05-02T08:05:56Z</time>
      </trkpt>
      <trkpt lat="43.851" lon="4.20705">
        <ele>219</ele>
        <time>2010-05-02T08:06:02Z</time>
      </trkpt>
      <trkpt lat="43.85099" lon="4.20702">
        <ele>219</ele>
        <time>2010-05-02T08:06:03Z</time>
      </trkpt>
      <trkpt lat="43.85098" lon="4.20693">
        <ele>220</ele>
        <time>2010-05-02T08:06:05Z</time>
      </trkpt>
      <trkpt lat="43.85094" lon="4.20678">
        <ele>221</ele>
        <time>2010-05-02T08:06:09Z</time>
      </trkpt>
      <trkpt lat="43.85093" lon="4.20666">
        <ele>222</ele>
        <time>2010-05-02T08:06:12Z</time>
      </trkpt>
      <trkpt lat="43.8509" lon="4.20651">
        <ele>222</ele>
        <time>2010-05-02T08:06:16Z</time>
      </trkpt>
      <trkpt lat="43.85086" lon="4.20638">
        <ele>223</ele>
        <time>2010-05-02T08:06:19Z</time>
      </trkpt>
      <trkpt lat="43.8508" lon="4.20626">
        <ele>225</ele>
        <time>2010-05-02T08:06:22Z</time>
      </trkpt>
      <trkpt lat="43.8507" lon="4.20614">
        <ele>225</ele>
        <time>2010-05-02T08:06:25Z</time>
      </trkpt>
      <trkpt lat="43.85062" lon="4.20601">
        <ele>226</ele>
        <time>2010-05-02T08:06:28Z</time>
      </trkpt>
      <trkpt lat="43.85053" lon="4.20585">
        <ele>227</ele>
        <time>2010-05-02T08:06:31Z</time>
      </trkpt>
      <trkpt lat="43.85044" lon="4.20572">
        <ele>227</ele>
        <time>2010-05-02T08:06:34Z</time>
      </trkpt>
      <trkpt lat="43.85036" lon="4.20558">
        <ele>228</ele>
        <time>2010-05-02T08:06:37Z</time>
      </trkpt>
      <trkpt lat="43.85029" lon="4.20541">
        <ele>227</ele>
        <time>2010-05-02T08:06:41Z</time>
      </trkpt>
      <trkpt lat="43.85023" lon="4.20523">
        <ele>227</ele>
        <time>2010-05-02T08:06:44Z</time>
      </trkpt>
      <trkpt lat="43.85017" lon="4.20509">
        <ele>226</ele>
        <time>2010-05-02T08:06:47Z</time>
      </trkpt>
      <trkpt lat="43.85009" lon="4.20499">
        <ele>227</ele>
        <time>2010-05-02T08:06:50Z</time>
      </trkpt>
      <trkpt lat="43.85002" lon="4.20491">
        <ele>229</ele>
        <time>2010-05-02T08:06:52Z</time>
      </trkpt>
      <trkpt lat="43.84997" lon="4.20486">
        <ele>228</ele>
        <time>2010-05-02T08:06:55Z</time>
      </trkpt>
      <trkpt lat="43.8499" lon="4.20475">
        <ele>227</ele>
        <time>2010-05-02T08:06:59Z</time>
      </trkpt>
      <trkpt lat="43.84985" lon="4.20465">
        <ele>228</ele>
        <time>2010-05-02T08:07:02Z</time>
      </trkpt>
      <trkpt lat="43.84983" lon="4.20449">
        <ele>230</ele>
        <time>2010-05-02T08:07:05Z</time>
      </trkpt>
      <trkpt lat="43.84983" lon="4.20434">
        <ele>231</ele>
        <time>2010-05-02T08:07:08Z</time>
      </trkpt>
      <trkpt lat="43.84983" lon="4.20428">
        <ele>232</ele>
        <time>2010-05-02T08:07:11Z</time>
      </trkpt>
      <trkpt lat="43.84985" lon="4.20406">
        <ele>233</ele>
        <time>2010-05-02T08:07:14Z</time>
      </trkpt>
      <trkpt lat="43.8499" lon="4.20392">
        <ele>231</ele>
        <time>2010-05-02T08:07:17Z</time>
      </trkpt>
      <trkpt lat="43.84991" lon="4.20386">
        <ele>229</ele>
        <time>2010-05-02T08:07:20Z</time>
      </trkpt>
      <trkpt lat="43.84991" lon="4.20376">
        <ele>229</ele>
        <time>2010-05-02T08:07:23Z</time>
      </trkpt>
      <trkpt lat="43.84992" lon="4.20365">
        <ele>229</ele>
        <time>2010-05-02T08:07:25Z</time>
      </trkpt>
      <trkpt lat="43.84992" lon="4.20361">
        <ele>229</ele>
        <time>2010-05-02T08:07:28Z</time>
      </trkpt>
      <trkpt lat="43.84992" lon="4.20361">
        <ele>229</ele>
        <time>2010-05-02T08:07:31Z</time>
      </trkpt>
      <trkpt lat="43.84986" lon="4.20336">
        <ele>229</ele>
        <time>2010-05-02T08:07:34Z</time>
      </trkpt>
      <trkpt lat="43.84986" lon="4.20316">
        <ele>228</ele>
        <time>2010-05-02T08:07:37Z</time>
      </trkpt>
      <trkpt lat="43.84986" lon="4.20304">
        <ele>229</ele>
        <time>2010-05-02T08:07:40Z</time>
      </trkpt>
      <trkpt lat="43.84986" lon="4.20304">
        <ele>229</ele>
        <time>2010-05-02T08:07:43Z</time>
      </trkpt>
      <trkpt lat="43.84984" lon="4.20287">
        <ele>230</ele>
        <time>2010-05-02T08:07:45Z</time>
      </trkpt>
      <trkpt lat="43.84985" lon="4.20271">
        <ele>233</ele>
        <time>2010-05-02T08:07:48Z</time>
      </trkpt>
      <trkpt lat="43.84985" lon="4.20271">
        <ele>233</ele>
        <time>2010-05-02T08:07:51Z</time>
      </trkpt>
      <trkpt lat="43.84984" lon="4.20248">
        <ele>235</ele>
        <time>2010-05-02T08:07:54Z</time>
      </trkpt>
      <trkpt lat="43.84984" lon="4.20244">
        <ele>235</ele>
        <time>2010-05-02T08:07:57Z</time>
      </trkpt>
      <trkpt lat="43.84984" lon="4.20244">
        <ele>235</ele>
        <time>2010-05-02T08:08:00Z</time>
      </trkpt>
      <trkpt lat="43.8499" lon="4.20219">
        <ele>235</ele>
        <time>2010-05-02T08:08:03Z</time>
      </trkpt>
      <trkpt lat="43.8499" lon="4.20219">
        <ele>235</ele>
        <time>2010-05-02T08:08:07Z</time>
      </trkpt>
      <trkpt lat="43.84994" lon="4.2019">
        <ele>233</ele>
        <time>2010-05-02T08:08:08Z</time>
      </trkpt>
      <trkpt lat="43.84994" lon="4.20171">
        <ele>233</ele>
        <time>2010-05-02T08:08:12Z</time>
      </trkpt>
      <trkpt lat="43.84994" lon="4.20158">
        <ele>234</ele>
        <time>2010-05-02T08:08:14Z</time>
      </trkpt>
      <trkpt lat="43.84994" lon="4.20142">
        <ele>235</ele>
        <time>2010-05-02T08:08:17Z</time>
      </trkpt>
      <trkpt lat="43.84996" lon="4.20134">
        <ele>235</ele>
        <time>2010-05-02T08:08:20Z</time>
      </trkpt>
      <trkpt lat="43.84998" lon="4.20125">
        <ele>234</ele>
        <time>2010-05-02T08:08:23Z</time>
      </trkpt>
      <trkpt lat="43.84999" lon="4.20124">
        <ele>235</ele>
        <time>2010-05-02T08:08:26Z</time>
      </trkpt>
      <trkpt lat="43.84999" lon="4.20124">
        <ele>235</ele>
        <time>2010-05-02T08:08:29Z</time>
      </trkpt>
      <trkpt lat="43.84999" lon="4.20111">
        <ele>237</ele>
        <time>2010-05-02T08:08:32Z</time>
      </trkpt>
      <trkpt lat="43.85001" lon="4.20103">
        <ele>239</ele>
        <time>2010-05-02T08:08:35Z</time>
      </trkpt>
      <trkpt lat="43.85005" lon="4.2009">
        <ele>240</ele>
        <time>2010-05-02T08:08:38Z</time>
      </trkpt>
      <trkpt lat="43.85017" lon="4.20077">
        <ele>239</ele>
        <time>2010-05-02T08:08:41Z</time>
      </trkpt>
      <trkpt lat="43.85027" lon="4.20066">
        <ele>238</ele>
        <time>2010-05-02T08:08:44Z</time>
      </trkpt>
      <trkpt lat="43.85035" lon="4.20055">
        <ele>237</ele>
        <time>2010-05-02T08:08:47Z</time>
      </trkpt>
      <trkpt lat="43.85035" lon="4.20047">
        <ele>238</ele>
        <time>2010-05-02T08:08:50Z</time>
      </trkpt>
      <trkpt lat="43.85035" lon="4.20046">
        <ele>239</ele>
        <time>2010-05-02T08:08:53Z</time>
      </trkpt>
      <trkpt lat="43.85035" lon="4.20046">
        <ele>239</ele>
        <time>2010-05-02T08:08:55Z</time>
      </trkpt>
      <trkpt lat="43.85023" lon="4.20034">
        <ele>246</ele>
        <time>2010-05-02T08:08:58Z</time>
      </trkpt>
      <trkpt lat="43.85021" lon="4.20033">
        <ele>247</ele>
        <time>2010-05-02T08:09:01Z</time>
      </trkpt>
      <trkpt lat="43.85021" lon="4.20033">
        <ele>247</ele>
        <time>2010-05-02T08:09:04Z</time>
      </trkpt>
      <trkpt lat="43.85003" lon="4.20022">
        <ele>246</ele>
        <time>2010-05-02T08:09:07Z</time>
      </trkpt>
      <trkpt lat="43.84986" lon="4.20017">
        <ele>248</ele>
        <time>2010-05-02T08:09:10Z</time>
      </trkpt>
      <trkpt lat="43.84975" lon="4.20017">
        <ele>249</ele>
        <time>2010-05-02T08:09:13Z</time>
      </trkpt>
      <trkpt lat="43.84953" lon="4.20014">
        <ele>252</ele>
        <time>2010-05-02T08:09:17Z</time>
      </trkpt>
      <trkpt lat="43.84948" lon="4.20012">
        <ele>253</ele>
        <time>2010-05-02T08:09:18Z</time>
      </trkpt>
      <trkpt lat="43.84943" lon="4.20005">
        <ele>254</ele>
        <time>2010-05-02T08:09:21Z</time>
      </trkpt>
      <trkpt lat="43.84943" lon="4.20005">
        <ele>254</ele>
        <time>2010-05-02T08:09:24Z</time>
      </trkpt>
      <trkpt lat="43.84931" lon="4.19986">
        <ele>254</ele>
        <time>2010-05-02T08:09:27Z</time>
      </trkpt>
      <trkpt lat="43.84919" lon="4.19967">
        <ele>255</ele>
        <time>2010-05-02T08:09:30Z</time>
      </trkpt>
      <trkpt lat="43.84919" lon="4.19967">
        <ele>255</ele>
        <time>2010-05-02T08:09:33Z</time>
      </trkpt>
      <trkpt lat="43.84903" lon="4.19949">
        <ele>256</ele>
        <time>2010-05-02T08:09:36Z</time>
      </trkpt>
      <trkpt lat="43.84892" lon="4.19942">
        <ele>258</ele>
        <time>2010-05-02T08:09:39Z</time>
      </trkpt>
      <trkpt lat="43.84884" lon="4.19935">
        <ele>258</ele>
        <time>2010-05-02T08:09:41Z</time>
      </trkpt>
      <trkpt lat="43.8488" lon="4.19931">
        <ele>257</ele>
        <time>2010-05-02T08:09:43Z</time>
      </trkpt>
      <trkpt lat="43.84868" lon="4.19919">
        <ele>257</ele>
        <time>2010-05-02T08:09:47Z</time>
      </trkpt>
      <trkpt lat="43.84863" lon="4.19915">
        <ele>258</ele>
        <time>2010-05-02T08:09:50Z</time>
      </trkpt>
      <trkpt lat="43.84853" lon="4.19911">
        <ele>258</ele>
        <time>2010-05-02T08:09:53Z</time>
      </trkpt>
      <trkpt lat="43.84839" lon="4.19903">
        <ele>261</ele>
        <time>2010-05-02T08:09:56Z</time>
      </trkpt>
      <trkpt lat="43.84829" lon="4.19891">
        <ele>264</ele>
        <time>2010-05-02T08:09:59Z</time>
      </trkpt>
      <trkpt lat="43.84821" lon="4.1987">
        <ele>262</ele>
        <time>2010-05-02T08:10:02Z</time>
      </trkpt>
      <trkpt lat="43.84819" lon="4.1985">
        <ele>259</ele>
        <time>2010-05-02T08:10:04Z</time>
      </trkpt>
      <trkpt lat="43.84823" lon="4.19825">
        <ele>255</ele>
        <time>2010-05-02T08:10:08Z</time>
      </trkpt>
      <trkpt lat="43.84831" lon="4.19809">
        <ele>252</ele>
        <time>2010-05-02T08:10:10Z</time>
      </trkpt>
      <trkpt lat="43.8484" lon="4.19792">
        <ele>248</ele>
        <time>2010-05-02T08:10:13Z</time>
      </trkpt>
      <trkpt lat="43.84845" lon="4.19779">
        <ele>245</ele>
        <time>2010-05-02T08:10:16Z</time>
      </trkpt>
      <trkpt lat="43.84854" lon="4.19763">
        <ele>243</ele>
        <time>2010-05-02T08:10:19Z</time>
      </trkpt>
      <trkpt lat="43.84858" lon="4.1975">
        <ele>242</ele>
        <time>2010-05-02T08:10:23Z</time>
      </trkpt>
      <trkpt lat="43.84857" lon="4.19744">
        <ele>243</ele>
        <time>2010-05-02T08:10:25Z</time>
      </trkpt>
      <trkpt lat="43.84855" lon="4.19739">
        <ele>243</ele>
        <time>2010-05-02T08:10:28Z</time>
      </trkpt>
      <trkpt lat="43.84851" lon="4.19734">
        <ele>243</ele>
        <time>2010-05-02T08:10:31Z</time>
      </trkpt>
      <trkpt lat="43.84851" lon="4.19734">
        <ele>243</ele>
        <time>2010-05-02T08:10:35Z</time>
      </trkpt>
      <trkpt lat="43.84843" lon="4.19722">
        <ele>246</ele>
        <time>2010-05-02T08:10:37Z</time>
      </trkpt>
      <trkpt lat="43.84845" lon="4.19707">
        <ele>246</ele>
        <time>2010-05-02T08:10:40Z</time>
      </trkpt>
      <trkpt lat="43.8485" lon="4.19694">
        <ele>244</ele>
        <time>2010-05-02T08:10:43Z</time>
      </trkpt>
      <trkpt lat="43.84851" lon="4.19681">
        <ele>243</ele>
        <time>2010-05-02T08:10:46Z</time>
      </trkpt>
      <trkpt lat="43.84851" lon="4.1967">
        <ele>243</ele>
        <time>2010-05-02T08:10:49Z</time>
      </trkpt>
      <trkpt lat="43.84852" lon="4.19655">
        <ele>243</ele>
        <time>2010-05-02T08:10:52Z</time>
      </trkpt>
      <trkpt lat="43.84853" lon="4.19641">
        <ele>243</ele>
        <time>2010-05-02T08:10:54Z</time>
      </trkpt>
      <trkpt lat="43.84858" lon="4.19622">
        <ele>243</ele>
        <time>2010-05-02T08:10:58Z</time>
      </trkpt>
      <trkpt lat="43.84861" lon="4.19609">
        <ele>243</ele>
        <time>2010-05-02T08:11:01Z</time>
      </trkpt>
      <trkpt lat="43.84863" lon="4.19597">
        <ele>244</ele>
        <time>2010-05-02T08:11:04Z</time>
      </trkpt>
      <trkpt lat="43.84866" lon="4.19583">
        <ele>243</ele>
        <time>2010-05-02T08:11:07Z</time>
      </trkpt>
      <trkpt lat="43.84868" lon="4.19569">
        <ele>243</ele>
        <time>2010-05-02T08:11:10Z</time>
      </trkpt>
      <trkpt lat="43.8487" lon="4.19556">
        <ele>242</ele>
        <time>2010-05-02T08:11:13Z</time>
      </trkpt>
      <trkpt lat="43.84871" lon="4.19542">
        <ele>241</ele>
        <time>2010-05-02T08:11:16Z</time>
      </trkpt>
      <trkpt lat="43.84867" lon="4.1953">
        <ele>239</ele>
        <time>2010-05-02T08:11:19Z</time>
      </trkpt>
      <trkpt lat="43.84857" lon="4.19515">
        <ele>238</ele>
        <time>2010-05-02T08:11:22Z</time>
      </trkpt>
      <trkpt lat="43.84847" lon="4.19499">
        <ele>239</ele>
        <time>2010-05-02T08:11:25Z</time>
      </trkpt>
      <trkpt lat="43.84843" lon="4.19482">
        <ele>240</ele>
        <time>2010-05-02T08:11:28Z</time>
      </trkpt>
      <trkpt lat="43.84841" lon="4.19468">
        <ele>241</ele>
        <time>2010-05-02T08:11:31Z</time>
      </trkpt>
      <trkpt lat="43.84836" lon="4.19451">
        <ele>241</ele>
        <time>2010-05-02T08:11:34Z</time>
      </trkpt>
      <trkpt lat="43.84834" lon="4.19431">
        <ele>240</ele>
        <time>2010-05-02T08:11:37Z</time>
      </trkpt>
      <trkpt lat="43.84829" lon="4.19409">
        <ele>238</ele>
        <time>2010-05-02T08:11:40Z</time>
      </trkpt>
      <trkpt lat="43.84824" lon="4.19393">
        <ele>238</ele>
        <time>2010-05-02T08:11:43Z</time>
      </trkpt>
      <trkpt lat="43.8482" lon="4.19386">
        <ele>237</ele>
        <time>2010-05-02T08:11:46Z</time>
      </trkpt>
      <trkpt lat="43.84817" lon="4.19384">
        <ele>238</ele>
        <time>2010-05-02T08:11:49Z</time>
      </trkpt>
      <trkpt lat="43.84817" lon="4.19384">
        <ele>238</ele>
        <time>2010-05-02T08:11:52Z</time>
      </trkpt>
      <trkpt lat="43.84817" lon="4.19384">
        <ele>238</ele>
        <time>2010-05-02T08:11:53Z</time>
      </trkpt>
      <trkpt lat="43.84811" lon="4.19372">
        <ele>241</ele>
        <time>2010-05-02T08:11:58Z</time>
      </trkpt>
      <trkpt lat="43.84808" lon="4.19351">
        <ele>241</ele>
        <time>2010-05-02T08:12:01Z</time>
      </trkpt>
      <trkpt lat="43.84808" lon="4.19336">
        <ele>241</ele>
        <time>2010-05-02T08:12:03Z</time>
      </trkpt>
      <trkpt lat="43.84808" lon="4.19318">
        <ele>242</ele>
        <time>2010-05-02T08:12:06Z</time>
      </trkpt>
      <trkpt lat="43.84807" lon="4.19303">
        <ele>242</ele>
        <time>2010-05-02T08:12:09Z</time>
      </trkpt>
      <trkpt lat="43.84804" lon="4.19292">
        <ele>242</ele>
        <time>2010-05-02T08:12:12Z</time>
      </trkpt>
      <trkpt lat="43.84802" lon="4.1928">
        <ele>244</ele>
        <time>2010-05-02T08:12:15Z</time>
      </trkpt>
      <trkpt lat="43.84802" lon="4.19268">
        <ele>244</ele>
        <time>2010-05-02T08:12:18Z</time>
      </trkpt>
      <trkpt lat="43.84804" lon="4.19262">
        <ele>244</ele>
        <time>2010-05-02T08:12:19Z</time>
      </trkpt>
      <trkpt lat="43.84818" lon="4.19251">
        <ele>241</ele>
        <time>2010-05-02T08:12:24Z</time>
      </trkpt>
      <trkpt lat="43.8483" lon="4.19247">
        <ele>237</ele>
        <time>2010-05-02T08:12:27Z</time>
      </trkpt>
      <trkpt lat="43.84841" lon="4.19243">
        <ele>235</ele>
        <time>2010-05-02T08:12:29Z</time>
      </trkpt>
      <trkpt lat="43.84854" lon="4.19237">
        <ele>233</ele>
        <time>2010-05-02T08:12:33Z</time>
      </trkpt>
      <trkpt lat="43.84865" lon="4.19232">
        <ele>233</ele>
        <time>2010-05-02T08:12:35Z</time>
      </trkpt>
      <trkpt lat="43.84878" lon="4.19228">
        <ele>232</ele>
        <time>2010-05-02T08:12:38Z</time>
      </trkpt>
      <trkpt lat="43.84896" lon="4.1922">
        <ele>231</ele>
        <time>2010-05-02T08:12:41Z</time>
      </trkpt>
      <trkpt lat="43.84911" lon="4.19214">
        <ele>230</ele>
        <time>2010-05-02T08:12:43Z</time>
      </trkpt>
      <trkpt lat="43.84929" lon="4.19208">
        <ele>229</ele>
        <time>2010-05-02T08:12:47Z</time>
      </trkpt>
      <trkpt lat="43.84942" lon="4.19204">
        <ele>228</ele>
        <time>2010-05-02T08:12:49Z</time>
      </trkpt>
      <trkpt lat="43.84958" lon="4.192">
        <ele>227</ele>
        <time>2010-05-02T08:12:52Z</time>
      </trkpt>
      <trkpt lat="43.8497" lon="4.19197">
        <ele>227</ele>
        <time>2010-05-02T08:12:55Z</time>
      </trkpt>
      <trkpt lat="43.84985" lon="4.19196">
        <ele>226</ele>
        <time>2010-05-02T08:12:58Z</time>
      </trkpt>
      <trkpt lat="43.84999" lon="4.19196">
        <ele>226</ele>
        <time>2010-05-02T08:13:01Z</time>
      </trkpt>
      <trkpt lat="43.85007" lon="4.19183">
        <ele>225</ele>
        <time>2010-05-02T08:13:04Z</time>
      </trkpt>
      <trkpt lat="43.85003" lon="4.19172">
        <ele>225</ele>
        <time>2010-05-02T08:13:07Z</time>
      </trkpt>
      <trkpt lat="43.84996" lon="4.19161">
        <ele>225</ele>
        <time>2010-05-02T08:13:10Z</time>
      </trkpt>
      <trkpt lat="43.84989" lon="4.1915">
        <ele>226</ele>
        <time>2010-05-02T08:13:13Z</time>
      </trkpt>
      <trkpt lat="43.84983" lon="4.19138">
        <ele>228</ele>
        <time>2010-05-02T08:13:16Z</time>
      </trkpt>
      <trkpt lat="43.84977" lon="4.19123">
        <ele>230</ele>
        <time>2010-05-02T08:13:19Z</time>
      </trkpt>
      <trkpt lat="43.84972" lon="4.1911">
        <ele>231</ele>
        <time>2010-05-02T08:13:22Z</time>
      </trkpt>
      <trkpt lat="43.8497" lon="4.19096">
        <ele>231</ele>
        <time>2010-05-02T08:13:25Z</time>
      </trkpt>
      <trkpt lat="43.8497" lon="4.19082">
        <ele>232</ele>
        <time>2010-05-02T08:13:28Z</time>
      </trkpt>
      <trkpt lat="43.84965" lon="4.19071">
        <ele>233</ele>
        <time>2010-05-02T08:13:31Z</time>
      </trkpt>
      <trkpt lat="43.84959" lon="4.19061">
        <ele>234</ele>
        <time>2010-05-02T08:13:34Z</time>
      </trkpt>
      <trkpt lat="43.84952" lon="4.19048">
        <ele>235</ele>
        <time>2010-05-02T08:13:38Z</time>
      </trkpt>
      <trkpt lat="43.84949" lon="4.19039">
        <ele>236</ele>
        <time>2010-05-02T08:13:40Z</time>
      </trkpt>
      <trkpt lat="43.84941" lon="4.19027">
        <ele>237</ele>
        <time>2010-05-02T08:13:44Z</time>
      </trkpt>
      <trkpt lat="43.84939" lon="4.19013">
        <ele>238</ele>
        <time>2010-05-02T08:13:47Z</time>
      </trkpt>
      <trkpt lat="43.84943" lon="4.18999">
        <ele>239</ele>
        <time>2010-05-02T08:13:50Z</time>
      </trkpt>
      <trkpt lat="43.84952" lon="4.18988">
        <ele>239</ele>
        <time>2010-05-02T08:13:53Z</time>
      </trkpt>
      <trkpt lat="43.84962" lon="4.18979">
        <ele>239</ele>
        <time>2010-05-02T08:13:55Z</time>
      </trkpt>
      <trkpt lat="43.84971" lon="4.18972">
        <ele>239</ele>
        <time>2010-05-02T08:13:58Z</time>
      </trkpt>
      <trkpt lat="43.84979" lon="4.18966">
        <ele>237</ele>
        <time>2010-05-02T08:14:01Z</time>
      </trkpt>
      <trkpt lat="43.84986" lon="4.1896">
        <ele>237</ele>
        <time>2010-05-02T08:14:04Z</time>
      </trkpt>
      <trkpt lat="43.84993" lon="4.18954">
        <ele>236</ele>
        <time>2010-05-02T08:14:07Z</time>
      </trkpt>
      <trkpt lat="43.84998" lon="4.18945">
        <ele>236</ele>
        <time>2010-05-02T08:14:10Z</time>
      </trkpt>
      <trkpt lat="43.84999" lon="4.18934">
        <ele>236</ele>
        <time>2010-05-02T08:14:13Z</time>
      </trkpt>
      <trkpt lat="43.85001" lon="4.18902">
        <ele>236</ele>
        <time>2010-05-02T08:14:17Z</time>
      </trkpt>
      <trkpt lat="43.84998" lon="4.18883">
        <ele>237</ele>
        <time>2010-05-02T08:14:20Z</time>
      </trkpt>
      <trkpt lat="43.85001" lon="4.18862">
        <ele>237</ele>
        <time>2010-05-02T08:14:23Z</time>
      </trkpt>
      <trkpt lat="43.85007" lon="4.18844">
        <ele>237</ele>
        <time>2010-05-02T08:14:26Z</time>
      </trkpt>
      <trkpt lat="43.85006" lon="4.18828">
        <ele>238</ele>
        <time>2010-05-02T08:14:29Z</time>
      </trkpt>
      <trkpt lat="43.85004" lon="4.18811">
        <ele>239</ele>
        <time>2010-05-02T08:14:33Z</time>
      </trkpt>
      <trkpt lat="43.84999" lon="4.18802">
        <ele>240</ele>
        <time>2010-05-02T08:14:36Z</time>
      </trkpt>
      <trkpt lat="43.84998" lon="4.18793">
        <ele>241</ele>
        <time>2010-05-02T08:14:39Z</time>
      </trkpt>
      <trkpt lat="43.84995" lon="4.18781">
        <ele>241</ele>
        <time>2010-05-02T08:14:42Z</time>
      </trkpt>
      <trkpt lat="43.84992" lon="4.18769">
        <ele>241</ele>
        <time>2010-05-02T08:14:45Z</time>
      </trkpt>
      <trkpt lat="43.84991" lon="4.18758">
        <ele>242</ele>
        <time>2010-05-02T08:14:48Z</time>
      </trkpt>
      <trkpt lat="43.8499" lon="4.18747">
        <ele>242</ele>
        <time>2010-05-02T08:14:51Z</time>
      </trkpt>
      <trkpt lat="43.84986" lon="4.18737">
        <ele>240</ele>
        <time>2010-05-02T08:14:54Z</time>
      </trkpt>
      <trkpt lat="43.84979" lon="4.18729">
        <ele>238</ele>
        <time>2010-05-02T08:14:57Z</time>
      </trkpt>
      <trkpt lat="43.84971" lon="4.18721">
        <ele>238</ele>
        <time>2010-05-02T08:14:59Z</time>
      </trkpt>
      <trkpt lat="43.84965" lon="4.18711">
        <ele>239</ele>
        <time>2010-05-02T08:15:02Z</time>
      </trkpt>
      <trkpt lat="43.8496" lon="4.187">
        <ele>239</ele>
        <time>2010-05-02T08:15:05Z</time>
      </trkpt>
      <trkpt lat="43.84953" lon="4.18691">
        <ele>239</ele>
        <time>2010-05-02T08:15:08Z</time>
      </trkpt>
      <trkpt lat="43.8495" lon="4.18677">
        <ele>240</ele>
        <time>2010-05-02T08:15:11Z</time>
      </trkpt>
      <trkpt lat="43.8495" lon="4.1867">
        <ele>241</ele>
        <time>2010-05-02T08:15:14Z</time>
      </trkpt>
      <trkpt lat="43.8496" lon="4.18656">
        <ele>243</ele>
        <time>2010-05-02T08:15:17Z</time>
      </trkpt>
      <trkpt lat="43.84965" lon="4.18653">
        <ele>243</ele>
        <time>2010-05-02T08:15:21Z</time>
      </trkpt>
      <trkpt lat="43.84971" lon="4.18651">
        <ele>242</ele>
        <time>2010-05-02T08:15:24Z</time>
      </trkpt>
      <trkpt lat="43.84982" lon="4.18648">
        <ele>241</ele>
        <time>2010-05-02T08:15:27Z</time>
      </trkpt>
      <trkpt lat="43.84989" lon="4.18642">
        <ele>241</ele>
        <time>2010-05-02T08:15:30Z</time>
      </trkpt>
      <trkpt lat="43.84995" lon="4.18633">
        <ele>241</ele>
        <time>2010-05-02T08:15:33Z</time>
      </trkpt>
      <trkpt lat="43.85004" lon="4.18608">
        <ele>243</ele>
        <time>2010-05-02T08:15:40Z</time>
      </trkpt>
      <trkpt lat="43.85003" lon="4.18594">
        <ele>244</ele>
        <time>2010-05-02T08:15:44Z</time>
      </trkpt>
      <trkpt lat="43.85002" lon="4.18591">
        <ele>244</ele>
        <time>2010-05-02T08:15:44Z</time>
      </trkpt>
      <trkpt lat="43.85" lon="4.18584">
        <ele>245</ele>
        <time>2010-05-02T08:15:47Z</time>
      </trkpt>
      <trkpt lat="43.85" lon="4.18569">
        <ele>246</ele>
        <time>2010-05-02T08:15:50Z</time>
      </trkpt>
      <trkpt lat="43.85001" lon="4.18555">
        <ele>247</ele>
        <time>2010-05-02T08:15:53Z</time>
      </trkpt>
      <trkpt lat="43.85002" lon="4.18539">
        <ele>247</ele>
        <time>2010-05-02T08:15:57Z</time>
      </trkpt>
      <trkpt lat="43.85001" lon="4.18526">
        <ele>246</ele>
        <time>2010-05-02T08:16:00Z</time>
      </trkpt>
      <trkpt lat="43.84999" lon="4.18515">
        <ele>245</ele>
        <time>2010-05-02T08:16:03Z</time>
      </trkpt>
      <trkpt lat="43.84991" lon="4.18512">
        <ele>245</ele>
        <time>2010-05-02T08:16:07Z</time>
      </trkpt>
      <trkpt lat="43.84986" lon="4.18513">
        <ele>244</ele>
        <time>2010-05-02T08:16:10Z</time>
      </trkpt>
      <trkpt lat="43.84981" lon="4.18514">
        <ele>243</ele>
        <time>2010-05-02T08:16:12Z</time>
      </trkpt>
      <trkpt lat="43.84973" lon="4.18519">
        <ele>242</ele>
        <time>2010-05-02T08:16:16Z</time>
      </trkpt>
      <trkpt lat="43.84966" lon="4.18525">
        <ele>241</ele>
        <time>2010-05-02T08:16:19Z</time>
      </trkpt>
      <trkpt lat="43.84958" lon="4.1853">
        <ele>241</ele>
        <time>2010-05-02T08:16:22Z</time>
      </trkpt>
      <trkpt lat="43.84946" lon="4.18535">
        <ele>242</ele>
        <time>2010-05-02T08:16:26Z</time>
      </trkpt>
      <trkpt lat="43.84935" lon="4.1854">
        <ele>243</ele>
        <time>2010-05-02T08:16:28Z</time>
      </trkpt>
      <trkpt lat="43.84922" lon="4.18549">
        <ele>243</ele>
        <time>2010-05-02T08:16:31Z</time>
      </trkpt>
      <trkpt lat="43.84908" lon="4.18561">
        <ele>242</ele>
        <time>2010-05-02T08:16:34Z</time>
      </trkpt>
      <trkpt lat="43.84898" lon="4.18571">
        <ele>241</ele>
        <time>2010-05-02T08:16:37Z</time>
      </trkpt>
      <trkpt lat="43.84887" lon="4.18582">
        <ele>241</ele>
        <time>2010-05-02T08:16:41Z</time>
      </trkpt>
      <trkpt lat="43.84881" lon="4.1859">
        <ele>241</ele>
        <time>2010-05-02T08:16:43Z</time>
      </trkpt>
      <trkpt lat="43.84873" lon="4.18604">
        <ele>241</ele>
        <time>2010-05-02T08:16:47Z</time>
      </trkpt>
      <trkpt lat="43.84864" lon="4.18611">
        <ele>242</ele>
        <time>2010-05-02T08:16:50Z</time>
      </trkpt>
      <trkpt lat="43.84859" lon="4.18614">
        <ele>242</ele>
        <time>2010-05-02T08:16:52Z</time>
      </trkpt>
      <trkpt lat="43.84839" lon="4.1862">
        <ele>245</ele>
        <time>2010-05-02T08:16:56Z</time>
      </trkpt>
      <trkpt lat="43.84824" lon="4.18622">
        <ele>244</ele>
        <time>2010-05-02T08:16:59Z</time>
      </trkpt>
      <trkpt lat="43.84811" lon="4.18626">
        <ele>245</ele>
        <time>2010-05-02T08:17:02Z</time>
      </trkpt>
      <trkpt lat="43.84799" lon="4.18631">
        <ele>246</ele>
        <time>2010-05-02T08:17:05Z</time>
      </trkpt>
      <trkpt lat="43.84788" lon="4.18635">
        <ele>246</ele>
        <time>2010-05-02T08:17:08Z</time>
      </trkpt>
      <trkpt lat="43.84778" lon="4.18641">
        <ele>246</ele>
        <time>2010-05-02T08:17:11Z</time>
      </trkpt>
      <trkpt lat="43.84768" lon="4.18646">
        <ele>246</ele>
        <time>2010-05-02T08:17:15Z</time>
      </trkpt>
      <trkpt lat="43.84764" lon="4.18648">
        <ele>246</ele>
        <time>2010-05-02T08:17:18Z</time>
      </trkpt>
      <trkpt lat="43.84756" lon="4.18654">
        <ele>246</ele>
        <time>2010-05-02T08:17:21Z</time>
      </trkpt>
      <trkpt lat="43.84749" lon="4.18659">
        <ele>245</ele>
        <time>2010-05-02T08:17:24Z</time>
      </trkpt>
      <trkpt lat="43.84745" lon="4.18662">
        <ele>244</ele>
        <time>2010-05-02T08:17:27Z</time>
      </trkpt>
      <trkpt lat="43.84738" lon="4.18668">
        <ele>246</ele>
        <time>2010-05-02T08:17:30Z</time>
      </trkpt>
      <trkpt lat="43.84737" lon="4.18669">
        <ele>246</ele>
        <time>2010-05-02T08:17:33Z</time>
      </trkpt>
      <trkpt lat="43.84729" lon="4.18676">
        <ele>246</ele>
        <time>2010-05-02T08:17:36Z</time>
      </trkpt>
      <trkpt lat="43.84727" lon="4.18678">
        <ele>246</ele>
        <time>2010-05-02T08:17:40Z</time>
      </trkpt>
      <trkpt lat="43.84719" lon="4.18686">
        <ele>247</ele>
        <time>2010-05-02T08:17:43Z</time>
      </trkpt>
      <trkpt lat="43.84719" lon="4.18686">
        <ele>247</ele>
        <time>2010-05-02T08:17:46Z</time>
      </trkpt>
      <trkpt lat="43.84719" lon="4.18686">
        <ele>247</ele>
        <time>2010-05-02T08:17:49Z</time>
      </trkpt>
      <trkpt lat="43.84701" lon="4.18703">
        <ele>249</ele>
        <time>2010-05-02T08:17:52Z</time>
      </trkpt>
      <trkpt lat="43.84694" lon="4.1871">
        <ele>249</ele>
        <time>2010-05-02T08:17:56Z</time>
      </trkpt>
      <trkpt lat="43.84689" lon="4.18715">
        <ele>249</ele>
        <time>2010-05-02T08:17:59Z</time>
      </trkpt>
      <trkpt lat="43.84689" lon="4.18715">
        <ele>249</ele>
        <time>2010-05-02T08:18:02Z</time>
      </trkpt>
      <trkpt lat="43.84679" lon="4.18728">
        <ele>248</ele>
        <time>2010-05-02T08:18:05Z</time>
      </trkpt>
      <trkpt lat="43.8467" lon="4.18738">
        <ele>249</ele>
        <time>2010-05-02T08:18:08Z</time>
      </trkpt>
      <trkpt lat="43.84665" lon="4.18744">
        <ele>249</ele>
        <time>2010-05-02T08:18:12Z</time>
      </trkpt>
      <trkpt lat="43.84657" lon="4.18752">
        <ele>249</ele>
        <time>2010-05-02T08:18:15Z</time>
      </trkpt>
      <trkpt lat="43.84649" lon="4.18757">
        <ele>250</ele>
        <time>2010-05-02T08:18:18Z</time>
      </trkpt>
      <trkpt lat="43.84637" lon="4.18764">
        <ele>250</ele>
        <time>2010-05-02T08:18:21Z</time>
      </trkpt>
      <trkpt lat="43.84626" lon="4.18769">
        <ele>249</ele>
        <time>2010-05-02T08:18:24Z</time>
      </trkpt>
      <trkpt lat="43.84613" lon="4.18774">
        <ele>249</ele>
        <time>2010-05-02T08:18:27Z</time>
      </trkpt>
      <trkpt lat="43.84601" lon="4.18781">
        <ele>250</ele>
        <time>2010-05-02T08:18:30Z</time>
      </trkpt>
      <trkpt lat="43.84591" lon="4.18789">
        <ele>249</ele>
        <time>2010-05-02T08:18:33Z</time>
      </trkpt>
      <trkpt lat="43.84581" lon="4.18797">
        <ele>250</ele>
        <time>2010-05-02T08:18:36Z</time>
      </trkpt>
      <trkpt lat="43.84571" lon="4.18806">
        <ele>251</ele>
        <time>2010-05-02T08:18:39Z</time>
      </trkpt>
      <trkpt lat="43.8456" lon="4.18814">
        <ele>250</ele>
        <time>2010-05-02T08:18:42Z</time>
      </trkpt>
      <trkpt lat="43.84547" lon="4.18821">
        <ele>250</ele>
        <time>2010-05-02T08:18:45Z</time>
      </trkpt>
      <trkpt lat="43.8453" lon="4.18828">
        <ele>250</ele>
        <time>2010-05-02T08:18:49Z</time>
      </trkpt>
      <trkpt lat="43.84517" lon="4.18832">
        <ele>250</ele>
        <time>2010-05-02T08:18:52Z</time>
      </trkpt>
      <trkpt lat="43.84506" lon="4.18835">
        <ele>249</ele>
        <time>2010-05-02T08:18:55Z</time>
      </trkpt>
      <trkpt lat="43.84497" lon="4.18838">
        <ele>249</ele>
        <time>2010-05-02T08:18:58Z</time>
      </trkpt>
      <trkpt lat="43.84487" lon="4.18841">
        <ele>249</ele>
        <time>2010-05-02T08:19:01Z</time>
      </trkpt>
      <trkpt lat="43.84479" lon="4.18843">
        <ele>248</ele>
        <time>2010-05-02T08:19:04Z</time>
      </trkpt>
      <trkpt lat="43.84471" lon="4.18843">
        <ele>249</ele>
        <time>2010-05-02T08:19:07Z</time>
      </trkpt>
      <trkpt lat="43.84464" lon="4.18844">
        <ele>250</ele>
        <time>2010-05-02T08:19:10Z</time>
      </trkpt>
      <trkpt lat="43.84458" lon="4.18846">
        <ele>252</ele>
        <time>2010-05-02T08:19:13Z</time>
      </trkpt>
      <trkpt lat="43.8445" lon="4.18848">
        <ele>252</ele>
        <time>2010-05-02T08:19:16Z</time>
      </trkpt>
      <trkpt lat="43.8444" lon="4.18852">
        <ele>253</ele>
        <time>2010-05-02T08:19:19Z</time>
      </trkpt>
      <trkpt lat="43.8443" lon="4.18856">
        <ele>252</ele>
        <time>2010-05-02T08:19:22Z</time>
      </trkpt>
      <trkpt lat="43.8442" lon="4.18861">
        <ele>252</ele>
        <time>2010-05-02T08:19:25Z</time>
      </trkpt>
      <trkpt lat="43.84412" lon="4.18866">
        <ele>252</ele>
        <time>2010-05-02T08:19:28Z</time>
      </trkpt>
      <trkpt lat="43.84407" lon="4.18869">
        <ele>252</ele>
        <time>2010-05-02T08:19:32Z</time>
      </trkpt>
      <trkpt lat="43.84399" lon="4.18874">
        <ele>253</ele>
        <time>2010-05-02T08:19:35Z</time>
      </trkpt>
      <trkpt lat="43.84392" lon="4.18877">
        <ele>253</ele>
        <time>2010-05-02T08:19:38Z</time>
      </trkpt>
      <trkpt lat="43.84383" lon="4.18877">
        <ele>253</ele>
        <time>2010-05-02T08:19:41Z</time>
      </trkpt>
      <trkpt lat="43.84372" lon="4.18875">
        <ele>254</ele>
        <time>2010-05-02T08:19:44Z</time>
      </trkpt>
      <trkpt lat="43.84357" lon="4.18867">
        <ele>253</ele>
        <time>2010-05-02T08:19:47Z</time>
      </trkpt>
      <trkpt lat="43.84343" lon="4.18858">
        <ele>253</ele>
        <time>2010-05-02T08:19:50Z</time>
      </trkpt>
      <trkpt lat="43.8433" lon="4.18855">
        <ele>253</ele>
        <time>2010-05-02T08:19:53Z</time>
      </trkpt>
      <trkpt lat="43.84316" lon="4.18854">
        <ele>253</ele>
        <time>2010-05-02T08:19:56Z</time>
      </trkpt>
      <trkpt lat="43.84308" lon="4.18853">
        <ele>252</ele>
        <time>2010-05-02T08:19:59Z</time>
      </trkpt>
      <trkpt lat="43.84305" lon="4.18853">
        <ele>251</ele>
        <time>2010-05-02T08:20:02Z</time>
      </trkpt>
      <trkpt lat="43.84304" lon="4.18853">
        <ele>251</ele>
        <time>2010-05-02T08:20:06Z</time>
      </trkpt>
      <trkpt lat="43.84304" lon="4.18853">
        <ele>251</ele>
        <time>2010-05-02T08:20:09Z</time>
      </trkpt>
      <trkpt lat="43.843" lon="4.18846">
        <ele>250</ele>
        <time>2010-05-02T08:20:12Z</time>
      </trkpt>
      <trkpt lat="43.84299" lon="4.18841">
        <ele>249</ele>
        <time>2010-05-02T08:20:15Z</time>
      </trkpt>
      <trkpt lat="43.84298" lon="4.18833">
        <ele>248</ele>
        <time>2010-05-02T08:20:18Z</time>
      </trkpt>
      <trkpt lat="43.84297" lon="4.18826">
        <ele>247</ele>
        <time>2010-05-02T08:20:21Z</time>
      </trkpt>
      <trkpt lat="43.84293" lon="4.18814">
        <ele>248</ele>
        <time>2010-05-02T08:20:25Z</time>
      </trkpt>
      <trkpt lat="43.84289" lon="4.18806">
        <ele>248</ele>
        <time>2010-05-02T08:20:27Z</time>
      </trkpt>
      <trkpt lat="43.84287" lon="4.18802">
        <ele>248</ele>
        <time>2010-05-02T08:20:30Z</time>
      </trkpt>
      <trkpt lat="43.84277" lon="4.18791">
        <ele>249</ele>
        <time>2010-05-02T08:20:34Z</time>
      </trkpt>
      <trkpt lat="43.8427" lon="4.18783">
        <ele>248</ele>
        <time>2010-05-02T08:20:36Z</time>
      </trkpt>
      <trkpt lat="43.84259" lon="4.18772">
        <ele>249</ele>
        <time>2010-05-02T08:20:39Z</time>
      </trkpt>
      <trkpt lat="43.84248" lon="4.18753">
        <ele>249</ele>
        <time>2010-05-02T08:20:43Z</time>
      </trkpt>
      <trkpt lat="43.84242" lon="4.18737">
        <ele>249</ele>
        <time>2010-05-02T08:20:46Z</time>
      </trkpt>
      <trkpt lat="43.84237" lon="4.18721">
        <ele>249</ele>
        <time>2010-05-02T08:20:49Z</time>
      </trkpt>
      <trkpt lat="43.84234" lon="4.18709">
        <ele>250</ele>
        <time>2010-05-02T08:20:52Z</time>
      </trkpt>
      <trkpt lat="43.84233" lon="4.18705">
        <ele>250</ele>
        <time>2010-05-02T08:20:55Z</time>
      </trkpt>
      <trkpt lat="43.84233" lon="4.18705">
        <ele>250</ele>
        <time>2010-05-02T08:20:59Z</time>
      </trkpt>
      <trkpt lat="43.84234" lon="4.18694">
        <ele>250</ele>
        <time>2010-05-02T08:21:02Z</time>
      </trkpt>
      <trkpt lat="43.84234" lon="4.18694">
        <ele>250</ele>
        <time>2010-05-02T08:21:06Z</time>
      </trkpt>
      <trkpt lat="43.84234" lon="4.18694">
        <ele>250</ele>
        <time>2010-05-02T08:21:09Z</time>
      </trkpt>
      <trkpt lat="43.84234" lon="4.18694">
        <ele>250</ele>
        <time>2010-05-02T08:21:12Z</time>
      </trkpt>
      <trkpt lat="43.84234" lon="4.18694">
        <ele>250</ele>
        <time>2010-05-02T08:21:15Z</time>
      </trkpt>
      <trkpt lat="43.84235" lon="4.18685">
        <ele>245</ele>
        <time>2010-05-02T08:21:19Z</time>
      </trkpt>
      <trkpt lat="43.84235" lon="4.18685">
        <ele>245</ele>
        <time>2010-05-02T08:21:22Z</time>
      </trkpt>
      <trkpt lat="43.84235" lon="4.18685">
        <ele>245</ele>
        <time>2010-05-02T08:21:25Z</time>
      </trkpt>
      <trkpt lat="43.84235" lon="4.18685">
        <ele>245</ele>
        <time>2010-05-02T08:21:28Z</time>
      </trkpt>
      <trkpt lat="43.84237" lon="4.18679">
        <ele>240</ele>
        <time>2010-05-02T08:21:31Z</time>
      </trkpt>
      <trkpt lat="43.84237" lon="4.18679">
        <ele>240</ele>
        <time>2010-05-02T08:21:34Z</time>
      </trkpt>
      <trkpt lat="43.84237" lon="4.18679">
        <ele>240</ele>
        <time>2010-05-02T08:21:38Z</time>
      </trkpt>
      <trkpt lat="43.84237" lon="4.18679">
        <ele>240</ele>
        <time>2010-05-02T08:21:41Z</time>
      </trkpt>
      <trkpt lat="43.84237" lon="4.18679">
        <ele>240</ele>
        <time>2010-05-02T08:21:46Z</time>
      </trkpt>
      <trkpt lat="43.84237" lon="4.18679">
        <ele>240</ele>
        <time>2010-05-02T08:21:48Z</time>
      </trkpt>
      <trkpt lat="43.84237" lon="4.18679">
        <ele>240</ele>
        <time>2010-05-02T08:21:51Z</time>
      </trkpt>
      <trkpt lat="43.84237" lon="4.18679">
        <ele>240</ele>
        <time>2010-05-02T08:21:59Z</time>
      </trkpt>
      <trkpt lat="43.84237" lon="4.18679">
        <ele>240</ele>
        <time>2010-05-02T08:22:01Z</time>
      </trkpt>
      <trkpt lat="43.84239" lon="4.18672">
        <ele>237</ele>
        <time>2010-05-02T08:22:04Z</time>
      </trkpt>
      <trkpt lat="43.84239" lon="4.18672">
        <ele>237</ele>
        <time>2010-05-02T08:22:05Z</time>
      </trkpt>
      <trkpt lat="43.84239" lon="4.18672">
        <ele>237</ele>
        <time>2010-05-02T08:22:12Z</time>
      </trkpt>
      <trkpt lat="43.84239" lon="4.18672">
        <ele>237</ele>
        <time>2010-05-02T08:22:15Z</time>
      </trkpt>
      <trkpt lat="43.84239" lon="4.18672">
        <ele>237</ele>
        <time>2010-05-02T08:22:18Z</time>
      </trkpt>
      <trkpt lat="43.84239" lon="4.18672">
        <ele>237</ele>
        <time>2010-05-02T08:22:19Z</time>
      </trkpt>
      <trkpt lat="43.84239" lon="4.18672">
        <ele>237</ele>
        <time>2010-05-02T08:22:22Z</time>
      </trkpt>
      <trkpt lat="43.84239" lon="4.18672">
        <ele>237</ele>
        <time>2010-05-02T08:22:28Z</time>
      </trkpt>
      <trkpt lat="43.84239" lon="4.18672">
        <ele>237</ele>
        <time>2010-05-02T08:22:32Z</time>
      </trkpt>
      <trkpt lat="43.84239" lon="4.18672">
        <ele>237</ele>
        <time>2010-05-02T08:22:33Z</time>
      </trkpt>
      <trkpt lat="43.84239" lon="4.18672">
        <ele>237</ele>
        <time>2010-05-02T08:22:36Z</time>
      </trkpt>
      <trkpt lat="43.84239" lon="4.18672">
        <ele>237</ele>
        <time>2010-05-02T08:22:39Z</time>
      </trkpt>
      <trkpt lat="43.84239" lon="4.18672">
        <ele>237</ele>
        <time>2010-05-02T08:22:46Z</time>
      </trkpt>
      <trkpt lat="43.84239" lon="4.18672">
        <ele>237</ele>
        <time>2010-05-02T08:22:47Z</time>
      </trkpt>
      <trkpt lat="43.84239" lon="4.18672">
        <ele>237</ele>
        <time>2010-05-02T08:22:50Z</time>
      </trkpt>
      <trkpt lat="43.84239" lon="4.18672">
        <ele>237</ele>
        <time>2010-05-02T08:22:53Z</time>
      </trkpt>
      <trkpt lat="43.84239" lon="4.18672">
        <ele>237</ele>
        <time>2010-05-02T08:22:56Z</time>
      </trkpt>
      <trkpt lat="43.84236" lon="4.18665">
        <ele>239</ele>
        <time>2010-05-02T08:23:00Z</time>
      </trkpt>
      <trkpt lat="43.84236" lon="4.18665">
        <ele>239</ele>
        <time>2010-05-02T08:23:04Z</time>
      </trkpt>
      <trkpt lat="43.84237" lon="4.18666">
        <ele>237</ele>
        <time>2010-05-02T08:23:06Z</time>
      </trkpt>
      <trkpt lat="43.84237" lon="4.18666">
        <ele>237</ele>
        <time>2010-05-02T08:23:10Z</time>
      </trkpt>
      <trkpt lat="43.84238" lon="4.18666">
        <ele>237</ele>
        <time>2010-05-02T08:23:13Z</time>
      </trkpt>
      <trkpt lat="43.84238" lon="4.18667">
        <ele>238</ele>
        <time>2010-05-02T08:23:17Z</time>
      </trkpt>
      <trkpt lat="43.84238" lon="4.18668">
        <ele>238</ele>
        <time>2010-05-02T08:23:23Z</time>
      </trkpt>
      <trkpt lat="43.84238" lon="4.18669">
        <ele>238</ele>
        <time>2010-05-02T08:23:26Z</time>
      </trkpt>
      <trkpt lat="43.84238" lon="4.18669">
        <ele>238</ele>
        <time>2010-05-02T08:23:28Z</time>
      </trkpt>
      <trkpt lat="43.84238" lon="4.18669">
        <ele>239</ele>
        <time>2010-05-02T08:23:31Z</time>
      </trkpt>
      <trkpt lat="43.84238" lon="4.18669">
        <ele>239</ele>
        <time>2010-05-02T08:23:36Z</time>
      </trkpt>
      <trkpt lat="43.84238" lon="4.18669">
        <ele>238</ele>
        <time>2010-05-02T08:23:40Z</time>
      </trkpt>
      <trkpt lat="43.84238" lon="4.18669">
        <ele>238</ele>
        <time>2010-05-02T08:23:41Z</time>
      </trkpt>
      <trkpt lat="43.84238" lon="4.18669">
        <ele>238</ele>
        <time>2010-05-02T08:23:44Z</time>
      </trkpt>
      <trkpt lat="43.84237" lon="4.18669">
        <ele>237</ele>
        <time>2010-05-02T08:23:47Z</time>
      </trkpt>
      <trkpt lat="43.84237" lon="4.18669">
        <ele>233</ele>
        <time>2010-05-02T08:23:54Z</time>
      </trkpt>
      <trkpt lat="43.84236" lon="4.18669">
        <ele>231</ele>
        <time>2010-05-02T08:23:58Z</time>
      </trkpt>
      <trkpt lat="43.84236" lon="4.18669">
        <ele>231</ele>
        <time>2010-05-02T08:23:59Z</time>
      </trkpt>
      <trkpt lat="43.84236" lon="4.18669">
        <ele>231</ele>
        <time>2010-05-02T08:24:01Z</time>
      </trkpt>
      <trkpt lat="43.84236" lon="4.18669">
        <ele>230</ele>
        <time>2010-05-02T08:24:06Z</time>
      </trkpt>
      <trkpt lat="43.84236" lon="4.18669">
        <ele>230</ele>
        <time>2010-05-02T08:24:09Z</time>
      </trkpt>
      <trkpt lat="43.84236" lon="4.18669">
        <ele>231</ele>
        <time>2010-05-02T08:24:12Z</time>
      </trkpt>
      <trkpt lat="43.84236" lon="4.1867">
        <ele>231</ele>
        <time>2010-05-02T08:24:15Z</time>
      </trkpt>
      <trkpt lat="43.84236" lon="4.1867">
        <ele>232</ele>
        <time>2010-05-02T08:24:18Z</time>
      </trkpt>
      <trkpt lat="43.84236" lon="4.1867">
        <ele>231</ele>
        <time>2010-05-02T08:24:22Z</time>
      </trkpt>
      <trkpt lat="43.84236" lon="4.18671">
        <ele>232</ele>
        <time>2010-05-02T08:24:29Z</time>
      </trkpt>
      <trkpt lat="43.84236" lon="4.18671">
        <ele>233</ele>
        <time>2010-05-02T08:24:29Z</time>
      </trkpt>
      <trkpt lat="43.84236" lon="4.1867">
        <ele>233</ele>
        <time>2010-05-02T08:24:32Z</time>
      </trkpt>
      <trkpt lat="43.84237" lon="4.1867">
        <ele>233</ele>
        <time>2010-05-02T08:24:36Z</time>
      </trkpt>
      <trkpt lat="43.84237" lon="4.1867">
        <ele>233</ele>
        <time>2010-05-02T08:24:39Z</time>
      </trkpt>
      <trkpt lat="43.84237" lon="4.1867">
        <ele>234</ele>
        <time>2010-05-02T08:24:43Z</time>
      </trkpt>
      <trkpt lat="43.84237" lon="4.1867">
        <ele>233</ele>
        <time>2010-05-02T08:24:46Z</time>
      </trkpt>
      <trkpt lat="43.84237" lon="4.18669">
        <ele>235</ele>
        <time>2010-05-02T08:24:53Z</time>
      </trkpt>
      <trkpt lat="43.84237" lon="4.18669">
        <ele>235</ele>
        <time>2010-05-02T08:24:53Z</time>
      </trkpt>
      <trkpt lat="43.84238" lon="4.18668">
        <ele>236</ele>
        <time>2010-05-02T08:24:56Z</time>
      </trkpt>
      <trkpt lat="43.84238" lon="4.18668">
        <ele>236</ele>
        <time>2010-05-02T08:24:59Z</time>
      </trkpt>
      <trkpt lat="43.84238" lon="4.18669">
        <ele>237</ele>
        <time>2010-05-02T08:25:03Z</time>
      </trkpt>
      <trkpt lat="43.84238" lon="4.18669">
        <ele>236</ele>
        <time>2010-05-02T08:25:06Z</time>
      </trkpt>
      <trkpt lat="43.84238" lon="4.1867">
        <ele>236</ele>
        <time>2010-05-02T08:25:09Z</time>
      </trkpt>
      <trkpt lat="43.84238" lon="4.18671">
        <ele>237</ele>
        <time>2010-05-02T08:25:12Z</time>
      </trkpt>
      <trkpt lat="43.84238" lon="4.18677">
        <ele>239</ele>
        <time>2010-05-02T08:25:19Z</time>
      </trkpt>
      <trkpt lat="43.84237" lon="4.1868">
        <ele>240</ele>
        <time>2010-05-02T08:25:22Z</time>
      </trkpt>
      <trkpt lat="43.84237" lon="4.1868">
        <ele>240</ele>
        <time>2010-05-02T08:25:23Z</time>
      </trkpt>
      <trkpt lat="43.84234" lon="4.1868">
        <ele>240</ele>
        <time>2010-05-02T08:25:26Z</time>
      </trkpt>
      <trkpt lat="43.84233" lon="4.18679">
        <ele>240</ele>
        <time>2010-05-02T08:25:29Z</time>
      </trkpt>
      <trkpt lat="43.84233" lon="4.18676">
        <ele>240</ele>
        <time>2010-05-02T08:25:36Z</time>
      </trkpt>
      <trkpt lat="43.84234" lon="4.18672">
        <ele>241</ele>
        <time>2010-05-02T08:25:39Z</time>
      </trkpt>
      <trkpt lat="43.84234" lon="4.1867">
        <ele>241</ele>
        <time>2010-05-02T08:25:40Z</time>
      </trkpt>
      <trkpt lat="43.84239" lon="4.18655">
        <ele>242</ele>
        <time>2010-05-02T08:25:43Z</time>
      </trkpt>
      <trkpt lat="43.84247" lon="4.18643">
        <ele>243</ele>
        <time>2010-05-02T08:25:46Z</time>
      </trkpt>
      <trkpt lat="43.84255" lon="4.18622">
        <ele>246</ele>
        <time>2010-05-02T08:25:53Z</time>
      </trkpt>
      <trkpt lat="43.84256" lon="4.1862">
        <ele>246</ele>
        <time>2010-05-02T08:25:54Z</time>
      </trkpt>
      <trkpt lat="43.8426" lon="4.18614">
        <ele>246</ele>
        <time>2010-05-02T08:25:56Z</time>
      </trkpt>
      <trkpt lat="43.8427" lon="4.18601">
        <ele>247</ele>
        <time>2010-05-02T08:26:00Z</time>
      </trkpt>
      <trkpt lat="43.84282" lon="4.18587">
        <ele>248</ele>
        <time>2010-05-02T08:26:03Z</time>
      </trkpt>
      <trkpt lat="43.84294" lon="4.18574">
        <ele>248</ele>
        <time>2010-05-02T08:26:07Z</time>
      </trkpt>
      <trkpt lat="43.84303" lon="4.18566">
        <ele>248</ele>
        <time>2010-05-02T08:26:10Z</time>
      </trkpt>
      <trkpt lat="43.84312" lon="4.18558">
        <ele>248</ele>
        <time>2010-05-02T08:26:14Z</time>
      </trkpt>
      <trkpt lat="43.84319" lon="4.18551">
        <ele>247</ele>
        <time>2010-05-02T08:26:17Z</time>
      </trkpt>
      <trkpt lat="43.84328" lon="4.18545">
        <ele>247</ele>
        <time>2010-05-02T08:26:20Z</time>
      </trkpt>
      <trkpt lat="43.84338" lon="4.18537">
        <ele>245</ele>
        <time>2010-05-02T08:26:24Z</time>
      </trkpt>
      <trkpt lat="43.84346" lon="4.1853">
        <ele>245</ele>
        <time>2010-05-02T08:26:27Z</time>
      </trkpt>
      <trkpt lat="43.84352" lon="4.18525">
        <ele>244</ele>
        <time>2010-05-02T08:26:30Z</time>
      </trkpt>
      <trkpt lat="43.84357" lon="4.18521">
        <ele>243</ele>
        <time>2010-05-02T08:26:33Z</time>
      </trkpt>
      <trkpt lat="43.84358" lon="4.18518">
        <ele>243</ele>
        <time>2010-05-02T08:26:37Z</time>
      </trkpt>
      <trkpt lat="43.84358" lon="4.18516">
        <ele>242</ele>
        <time>2010-05-02T08:26:40Z</time>
      </trkpt>
      <trkpt lat="43.84359" lon="4.18508">
        <ele>243</ele>
        <time>2010-05-02T08:26:43Z</time>
      </trkpt>
      <trkpt lat="43.84359" lon="4.18499">
        <ele>244</ele>
        <time>2010-05-02T08:26:46Z</time>
      </trkpt>
      <trkpt lat="43.84359" lon="4.1849">
        <ele>246</ele>
        <time>2010-05-02T08:26:49Z</time>
      </trkpt>
      <trkpt lat="43.84357" lon="4.1848">
        <ele>248</ele>
        <time>2010-05-02T08:26:52Z</time>
      </trkpt>
      <trkpt lat="43.84352" lon="4.18469">
        <ele>249</ele>
        <time>2010-05-02T08:26:56Z</time>
      </trkpt>
      <trkpt lat="43.84346" lon="4.18464">
        <ele>249</ele>
        <time>2010-05-02T08:26:59Z</time>
      </trkpt>
      <trkpt lat="43.8434" lon="4.18459">
        <ele>251</ele>
        <time>2010-05-02T08:27:02Z</time>
      </trkpt>
      <trkpt lat="43.84335" lon="4.18452">
        <ele>254</ele>
        <time>2010-05-02T08:27:06Z</time>
      </trkpt>
      <trkpt lat="43.84332" lon="4.18447">
        <ele>255</ele>
        <time>2010-05-02T08:27:10Z</time>
      </trkpt>
      <trkpt lat="43.84325" lon="4.18436">
        <ele>257</ele>
        <time>2010-05-02T08:27:16Z</time>
      </trkpt>
      <trkpt lat="43.84325" lon="4.18436">
        <ele>257</ele>
        <time>2010-05-02T08:27:16Z</time>
      </trkpt>
      <trkpt lat="43.84324" lon="4.18427">
        <ele>255</ele>
        <time>2010-05-02T08:27:19Z</time>
      </trkpt>
      <trkpt lat="43.84327" lon="4.18417">
        <ele>253</ele>
        <time>2010-05-02T08:27:23Z</time>
      </trkpt>
      <trkpt lat="43.84332" lon="4.18407">
        <ele>251</ele>
        <time>2010-05-02T08:27:26Z</time>
      </trkpt>
      <trkpt lat="43.84337" lon="4.18398">
        <ele>249</ele>
        <time>2010-05-02T08:27:30Z</time>
      </trkpt>
      <trkpt lat="43.84343" lon="4.18389">
        <ele>249</ele>
        <time>2010-05-02T08:27:33Z</time>
      </trkpt>
      <trkpt lat="43.84347" lon="4.18382">
        <ele>249</ele>
        <time>2010-05-02T08:27:36Z</time>
      </trkpt>
      <trkpt lat="43.84352" lon="4.18374">
        <ele>249</ele>
        <time>2010-05-02T08:27:39Z</time>
      </trkpt>
      <trkpt lat="43.84354" lon="4.18368">
        <ele>248</ele>
        <time>2010-05-02T08:27:42Z</time>
      </trkpt>
      <trkpt lat="43.84355" lon="4.18358">
        <ele>248</ele>
        <time>2010-05-02T08:27:46Z</time>
      </trkpt>
      <trkpt lat="43.84355" lon="4.18348">
        <ele>249</ele>
        <time>2010-05-02T08:27:49Z</time>
      </trkpt>
      <trkpt lat="43.84355" lon="4.18337">
        <ele>249</ele>
        <time>2010-05-02T08:27:52Z</time>
      </trkpt>
      <trkpt lat="43.84353" lon="4.1833">
        <ele>250</ele>
        <time>2010-05-02T08:27:55Z</time>
      </trkpt>
      <trkpt lat="43.8435" lon="4.18317">
        <ele>251</ele>
        <time>2010-05-02T08:27:59Z</time>
      </trkpt>
      <trkpt lat="43.8435" lon="4.18307">
        <ele>252</ele>
        <time>2010-05-02T08:28:02Z</time>
      </trkpt>
      <trkpt lat="43.84352" lon="4.18298">
        <ele>252</ele>
        <time>2010-05-02T08:28:05Z</time>
      </trkpt>
      <trkpt lat="43.84354" lon="4.18288">
        <ele>253</ele>
        <time>2010-05-02T08:28:08Z</time>
      </trkpt>
      <trkpt lat="43.84356" lon="4.18281">
        <ele>253</ele>
        <time>2010-05-02T08:28:11Z</time>
      </trkpt>
      <trkpt lat="43.8436" lon="4.18269">
        <ele>253</ele>
        <time>2010-05-02T08:28:15Z</time>
      </trkpt>
      <trkpt lat="43.84361" lon="4.18264">
        <ele>254</ele>
        <time>2010-05-02T08:28:17Z</time>
      </trkpt>
      <trkpt lat="43.84362" lon="4.18253">
        <ele>256</ele>
        <time>2010-05-02T08:28:21Z</time>
      </trkpt>
      <trkpt lat="43.84364" lon="4.18244">
        <ele>256</ele>
        <time>2010-05-02T08:28:24Z</time>
      </trkpt>
      <trkpt lat="43.84366" lon="4.18234">
        <ele>255</ele>
        <time>2010-05-02T08:28:28Z</time>
      </trkpt>
      <trkpt lat="43.84367" lon="4.18227">
        <ele>255</ele>
        <time>2010-05-02T08:28:30Z</time>
      </trkpt>
      <trkpt lat="43.84366" lon="4.18215">
        <ele>253</ele>
        <time>2010-05-02T08:28:36Z</time>
      </trkpt>
      <trkpt lat="43.84365" lon="4.18214">
        <ele>253</ele>
        <time>2010-05-02T08:28:37Z</time>
      </trkpt>
      <trkpt lat="43.84364" lon="4.18204">
        <ele>254</ele>
        <time>2010-05-02T08:28:41Z</time>
      </trkpt>
      <trkpt lat="43.84364" lon="4.18191">
        <ele>257</ele>
        <time>2010-05-02T08:28:44Z</time>
      </trkpt>
      <trkpt lat="43.84364" lon="4.18183">
        <ele>257</ele>
        <time>2010-05-02T08:28:47Z</time>
      </trkpt>
      <trkpt lat="43.84364" lon="4.18166">
        <ele>257</ele>
        <time>2010-05-02T08:28:51Z</time>
      </trkpt>
      <trkpt lat="43.84363" lon="4.18157">
        <ele>257</ele>
        <time>2010-05-02T08:28:53Z</time>
      </trkpt>
      <trkpt lat="43.84361" lon="4.1815">
        <ele>258</ele>
        <time>2010-05-02T08:28:56Z</time>
      </trkpt>
      <trkpt lat="43.8436" lon="4.18143">
        <ele>258</ele>
        <time>2010-05-02T08:29:01Z</time>
      </trkpt>
      <trkpt lat="43.8436" lon="4.18129">
        <ele>258</ele>
        <time>2010-05-02T08:29:03Z</time>
      </trkpt>
      <trkpt lat="43.8436" lon="4.18122">
        <ele>258</ele>
        <time>2010-05-02T08:29:06Z</time>
      </trkpt>
      <trkpt lat="43.8436" lon="4.18115">
        <ele>256</ele>
        <time>2010-05-02T08:29:09Z</time>
      </trkpt>
      <trkpt lat="43.84361" lon="4.18107">
        <ele>256</ele>
        <time>2010-05-02T08:29:12Z</time>
      </trkpt>
      <trkpt lat="43.84363" lon="4.18099">
        <ele>255</ele>
        <time>2010-05-02T08:29:16Z</time>
      </trkpt>
      <trkpt lat="43.84366" lon="4.18092">
        <ele>254</ele>
        <time>2010-05-02T08:29:19Z</time>
      </trkpt>
      <trkpt lat="43.84373" lon="4.18079">
        <ele>254</ele>
        <time>2010-05-02T08:29:22Z</time>
      </trkpt>
      <trkpt lat="43.84377" lon="4.18067">
        <ele>255</ele>
        <time>2010-05-02T08:29:25Z</time>
      </trkpt>
      <trkpt lat="43.84381" lon="4.18056">
        <ele>255</ele>
        <time>2010-05-02T08:29:28Z</time>
      </trkpt>
      <trkpt lat="43.84383" lon="4.18042">
        <ele>257</ele>
        <time>2010-05-02T08:29:32Z</time>
      </trkpt>
      <trkpt lat="43.84384" lon="4.18031">
        <ele>258</ele>
        <time>2010-05-02T08:29:35Z</time>
      </trkpt>
      <trkpt lat="43.84386" lon="4.18021">
        <ele>261</ele>
        <time>2010-05-02T08:29:38Z</time>
      </trkpt>
      <trkpt lat="43.84389" lon="4.18009">
        <ele>262</ele>
        <time>2010-05-02T08:29:41Z</time>
      </trkpt>
      <trkpt lat="43.84395" lon="4.17992">
        <ele>262</ele>
        <time>2010-05-02T08:29:45Z</time>
      </trkpt>
      <trkpt lat="43.84401" lon="4.17979">
        <ele>261</ele>
        <time>2010-05-02T08:29:48Z</time>
      </trkpt>
      <trkpt lat="43.84404" lon="4.17972">
        <ele>259</ele>
        <time>2010-05-02T08:29:51Z</time>
      </trkpt>
      <trkpt lat="43.84416" lon="4.17958">
        <ele>256</ele>
        <time>2010-05-02T08:29:54Z</time>
      </trkpt>
      <trkpt lat="43.84424" lon="4.17951">
        <ele>255</ele>
        <time>2010-05-02T08:29:58Z</time>
      </trkpt>
      <trkpt lat="43.84435" lon="4.17944">
        <ele>254</ele>
        <time>2010-05-02T08:30:01Z</time>
      </trkpt>
      <trkpt lat="43.84442" lon="4.1794">
        <ele>252</ele>
        <time>2010-05-02T08:30:04Z</time>
      </trkpt>
      <trkpt lat="43.84447" lon="4.17939">
        <ele>251</ele>
        <time>2010-05-02T08:30:07Z</time>
      </trkpt>
      <trkpt lat="43.84457" lon="4.17943">
        <ele>251</ele>
        <time>2010-05-02T08:30:11Z</time>
      </trkpt>
      <trkpt lat="43.84463" lon="4.17947">
        <ele>251</ele>
        <time>2010-05-02T08:30:14Z</time>
      </trkpt>
      <trkpt lat="43.84473" lon="4.17951">
        <ele>249</ele>
        <time>2010-05-02T08:30:17Z</time>
      </trkpt>
      <trkpt lat="43.84477" lon="4.17952">
        <ele>247</ele>
        <time>2010-05-02T08:30:20Z</time>
      </trkpt>
      <trkpt lat="43.84485" lon="4.17955">
        <ele>246</ele>
        <time>2010-05-02T08:30:24Z</time>
      </trkpt>
      <trkpt lat="43.8449" lon="4.17956">
        <ele>244</ele>
        <time>2010-05-02T08:30:26Z</time>
      </trkpt>
      <trkpt lat="43.84495" lon="4.17954">
        <ele>241</ele>
        <time>2010-05-02T08:30:30Z</time>
      </trkpt>
      <trkpt lat="43.84501" lon="4.17951">
        <ele>239</ele>
        <time>2010-05-02T08:30:33Z</time>
      </trkpt>
      <trkpt lat="43.84511" lon="4.17946">
        <ele>239</ele>
        <time>2010-05-02T08:30:36Z</time>
      </trkpt>
      <trkpt lat="43.84527" lon="4.17935">
        <ele>238</ele>
        <time>2010-05-02T08:30:39Z</time>
      </trkpt>
      <trkpt lat="43.84535" lon="4.17921">
        <ele>236</ele>
        <time>2010-05-02T08:30:43Z</time>
      </trkpt>
      <trkpt lat="43.84536" lon="4.17913">
        <ele>235</ele>
        <time>2010-05-02T08:30:46Z</time>
      </trkpt>
      <trkpt lat="43.84532" lon="4.17907">
        <ele>233</ele>
        <time>2010-05-02T08:30:49Z</time>
      </trkpt>
      <trkpt lat="43.84523" lon="4.17899">
        <ele>231</ele>
        <time>2010-05-02T08:30:52Z</time>
      </trkpt>
      <trkpt lat="43.84514" lon="4.17892">
        <ele>231</ele>
        <time>2010-05-02T08:30:55Z</time>
      </trkpt>
      <trkpt lat="43.84505" lon="4.17883">
        <ele>232</ele>
        <time>2010-05-02T08:30:58Z</time>
      </trkpt>
      <trkpt lat="43.84497" lon="4.17876">
        <ele>233</ele>
        <time>2010-05-02T08:31:01Z</time>
      </trkpt>
      <trkpt lat="43.84487" lon="4.17862">
        <ele>235</ele>
        <time>2010-05-02T08:31:05Z</time>
      </trkpt>
      <trkpt lat="43.84479" lon="4.17851">
        <ele>237</ele>
        <time>2010-05-02T08:31:08Z</time>
      </trkpt>
      <trkpt lat="43.84473" lon="4.17843">
        <ele>239</ele>
        <time>2010-05-02T08:31:11Z</time>
      </trkpt>
      <trkpt lat="43.84468" lon="4.17834">
        <ele>241</ele>
        <time>2010-05-02T08:31:14Z</time>
      </trkpt>
      <trkpt lat="43.84461" lon="4.17825">
        <ele>242</ele>
        <time>2010-05-02T08:31:17Z</time>
      </trkpt>
      <trkpt lat="43.84454" lon="4.17815">
        <ele>242</ele>
        <time>2010-05-02T08:31:20Z</time>
      </trkpt>
      <trkpt lat="43.84446" lon="4.17802">
        <ele>244</ele>
        <time>2010-05-02T08:31:23Z</time>
      </trkpt>
      <trkpt lat="43.84441" lon="4.17793">
        <ele>245</ele>
        <time>2010-05-02T08:31:26Z</time>
      </trkpt>
      <trkpt lat="43.84437" lon="4.17786">
        <ele>246</ele>
        <time>2010-05-02T08:31:29Z</time>
      </trkpt>
      <trkpt lat="43.84433" lon="4.17782">
        <ele>247</ele>
        <time>2010-05-02T08:31:32Z</time>
      </trkpt>
      <trkpt lat="43.84426" lon="4.17774">
        <ele>247</ele>
        <time>2010-05-02T08:31:36Z</time>
      </trkpt>
      <trkpt lat="43.84416" lon="4.17768">
        <ele>250</ele>
        <time>2010-05-02T08:31:42Z</time>
      </trkpt>
      <trkpt lat="43.84415" lon="4.17767">
        <ele>250</ele>
        <time>2010-05-02T08:31:43Z</time>
      </trkpt>
      <trkpt lat="43.8441" lon="4.17765">
        <ele>251</ele>
        <time>2010-05-02T08:31:46Z</time>
      </trkpt>
      <trkpt lat="43.84407" lon="4.17764">
        <ele>250</ele>
        <time>2010-05-02T08:31:49Z</time>
      </trkpt>
      <trkpt lat="43.84404" lon="4.17764">
        <ele>250</ele>
        <time>2010-05-02T08:31:53Z</time>
      </trkpt>
      <trkpt lat="43.844" lon="4.17766">
        <ele>250</ele>
        <time>2010-05-02T08:31:56Z</time>
      </trkpt>
      <trkpt lat="43.84395" lon="4.17767">
        <ele>250</ele>
        <time>2010-05-02T08:31:59Z</time>
      </trkpt>
      <trkpt lat="43.84387" lon="4.17767">
        <ele>249</ele>
        <time>2010-05-02T08:32:02Z</time>
      </trkpt>
      <trkpt lat="43.8438" lon="4.17766">
        <ele>250</ele>
        <time>2010-05-02T08:32:06Z</time>
      </trkpt>
      <trkpt lat="43.84373" lon="4.17766">
        <ele>251</ele>
        <time>2010-05-02T08:32:09Z</time>
      </trkpt>
      <trkpt lat="43.84363" lon="4.17764">
        <ele>251</ele>
        <time>2010-05-02T08:32:13Z</time>
      </trkpt>
      <trkpt lat="43.84353" lon="4.17758">
        <ele>252</ele>
        <time>2010-05-02T08:32:16Z</time>
      </trkpt>
      <trkpt lat="43.84342" lon="4.17752">
        <ele>251</ele>
        <time>2010-05-02T08:32:19Z</time>
      </trkpt>
      <trkpt lat="43.84332" lon="4.1775">
        <ele>251</ele>
        <time>2010-05-02T08:32:22Z</time>
      </trkpt>
      <trkpt lat="43.84325" lon="4.17759">
        <ele>252</ele>
        <time>2010-05-02T08:32:26Z</time>
      </trkpt>
      <trkpt lat="43.84322" lon="4.17774">
        <ele>253</ele>
        <time>2010-05-02T08:32:29Z</time>
      </trkpt>
      <trkpt lat="43.8431" lon="4.17811">
        <ele>254</ele>
        <time>2010-05-02T08:32:36Z</time>
      </trkpt>
      <trkpt lat="43.84306" lon="4.17828">
        <ele>254</ele>
        <time>2010-05-02T08:32:39Z</time>
      </trkpt>
      <trkpt lat="43.84303" lon="4.17846">
        <ele>255</ele>
        <time>2010-05-02T08:32:42Z</time>
      </trkpt>
      <trkpt lat="43.84302" lon="4.17851">
        <ele>256</ele>
        <time>2010-05-02T08:32:42Z</time>
      </trkpt>
      <trkpt lat="43.84301" lon="4.17868">
        <ele>257</ele>
        <time>2010-05-02T08:32:45Z</time>
      </trkpt>
      <trkpt lat="43.84299" lon="4.17888">
        <ele>256</ele>
        <time>2010-05-02T08:32:49Z</time>
      </trkpt>
      <trkpt lat="43.84294" lon="4.17927">
        <ele>256</ele>
        <time>2010-05-02T08:32:56Z</time>
      </trkpt>
      <trkpt lat="43.84294" lon="4.17931">
        <ele>256</ele>
        <time>2010-05-02T08:32:57Z</time>
      </trkpt>
      <trkpt lat="43.84297" lon="4.17953">
        <ele>257</ele>
        <time>2010-05-02T08:33:03Z</time>
      </trkpt>
      <trkpt lat="43.84298" lon="4.17956">
        <ele>257</ele>
        <time>2010-05-02T08:33:03Z</time>
      </trkpt>
      <trkpt lat="43.843" lon="4.1797">
        <ele>257</ele>
        <time>2010-05-02T08:33:06Z</time>
      </trkpt>
      <trkpt lat="43.84304" lon="4.17984">
        <ele>258</ele>
        <time>2010-05-02T08:33:09Z</time>
      </trkpt>
      <trkpt lat="43.84309" lon="4.18003">
        <ele>258</ele>
        <time>2010-05-02T08:33:13Z</time>
      </trkpt>
      <trkpt lat="43.84313" lon="4.18018">
        <ele>258</ele>
        <time>2010-05-02T08:33:16Z</time>
      </trkpt>
      <trkpt lat="43.84315" lon="4.18037">
        <ele>259</ele>
        <time>2010-05-02T08:33:20Z</time>
      </trkpt>
      <trkpt lat="43.84314" lon="4.18057">
        <ele>258</ele>
        <time>2010-05-02T08:33:23Z</time>
      </trkpt>
      <trkpt lat="43.84311" lon="4.18085">
        <ele>258</ele>
        <time>2010-05-02T08:33:26Z</time>
      </trkpt>
      <trkpt lat="43.8431" lon="4.18106">
        <ele>258</ele>
        <time>2010-05-02T08:33:29Z</time>
      </trkpt>
      <trkpt lat="43.84308" lon="4.18126">
        <ele>258</ele>
        <time>2010-05-02T08:33:33Z</time>
      </trkpt>
      <trkpt lat="43.84303" lon="4.18154">
        <ele>258</ele>
        <time>2010-05-02T08:33:36Z</time>
      </trkpt>
      <trkpt lat="43.84302" lon="4.18177">
        <ele>257</ele>
        <time>2010-05-02T08:33:39Z</time>
      </trkpt>
      <trkpt lat="43.84301" lon="4.18198">
        <ele>256</ele>
        <time>2010-05-02T08:33:43Z</time>
      </trkpt>
      <trkpt lat="43.84288" lon="4.18246">
        <ele>252</ele>
        <time>2010-05-02T08:33:50Z</time>
      </trkpt>
      <trkpt lat="43.84286" lon="4.18251">
        <ele>252</ele>
        <time>2010-05-02T08:33:51Z</time>
      </trkpt>
      <trkpt lat="43.8427" lon="4.18286">
        <ele>252</ele>
        <time>2010-05-02T08:33:57Z</time>
      </trkpt>
      <trkpt lat="43.84268" lon="4.1829">
        <ele>252</ele>
        <time>2010-05-02T08:33:58Z</time>
      </trkpt>
      <trkpt lat="43.84264" lon="4.18299">
        <ele>252</ele>
        <time>2010-05-02T08:34:00Z</time>
      </trkpt>
      <trkpt lat="43.84257" lon="4.18314">
        <ele>252</ele>
        <time>2010-05-02T08:34:04Z</time>
      </trkpt>
      <trkpt lat="43.84253" lon="4.18325">
        <ele>253</ele>
        <time>2010-05-02T08:34:07Z</time>
      </trkpt>
      <trkpt lat="43.84249" lon="4.18335">
        <ele>254</ele>
        <time>2010-05-02T08:34:10Z</time>
      </trkpt>
      <trkpt lat="43.84244" lon="4.18347">
        <ele>257</ele>
        <time>2010-05-02T08:34:14Z</time>
      </trkpt>
      <trkpt lat="43.84236" lon="4.18355">
        <ele>258</ele>
        <time>2010-05-02T08:34:17Z</time>
      </trkpt>
      <trkpt lat="43.84228" lon="4.18363">
        <ele>259</ele>
        <time>2010-05-02T08:34:20Z</time>
      </trkpt>
      <trkpt lat="43.8422" lon="4.18372">
        <ele>260</ele>
        <time>2010-05-02T08:34:24Z</time>
      </trkpt>
      <trkpt lat="43.84213" lon="4.18378">
        <ele>260</ele>
        <time>2010-05-02T08:34:27Z</time>
      </trkpt>
      <trkpt lat="43.84205" lon="4.18385">
        <ele>261</ele>
        <time>2010-05-02T08:34:31Z</time>
      </trkpt>
      <trkpt lat="43.84199" lon="4.1839">
        <ele>261</ele>
        <time>2010-05-02T08:34:34Z</time>
      </trkpt>
      <trkpt lat="43.84185" lon="4.18402">
        <ele>260</ele>
        <time>2010-05-02T08:34:40Z</time>
      </trkpt>
      <trkpt lat="43.84184" lon="4.18403">
        <ele>259</ele>
        <time>2010-05-02T08:34:41Z</time>
      </trkpt>
      <trkpt lat="43.84178" lon="4.18406">
        <ele>259</ele>
        <time>2010-05-02T08:34:44Z</time>
      </trkpt>
      <trkpt lat="43.84172" lon="4.18411">
        <ele>259</ele>
        <time>2010-05-02T08:34:47Z</time>
      </trkpt>
      <trkpt lat="43.84165" lon="4.18417">
        <ele>260</ele>
        <time>2010-05-02T08:34:50Z</time>
      </trkpt>
      <trkpt lat="43.84158" lon="4.18422">
        <ele>261</ele>
        <time>2010-05-02T08:34:53Z</time>
      </trkpt>
      <trkpt lat="43.8415" lon="4.18427">
        <ele>263</ele>
        <time>2010-05-02T08:34:57Z</time>
      </trkpt>
      <trkpt lat="43.84143" lon="4.18432">
        <ele>264</ele>
        <time>2010-05-02T08:35:00Z</time>
      </trkpt>
      <trkpt lat="43.84137" lon="4.18438">
        <ele>265</ele>
        <time>2010-05-02T08:35:03Z</time>
      </trkpt>
      <trkpt lat="43.84128" lon="4.18445">
        <ele>266</ele>
        <time>2010-05-02T08:35:07Z</time>
      </trkpt>
      <trkpt lat="43.84122" lon="4.18451">
        <ele>266</ele>
        <time>2010-05-02T08:35:10Z</time>
      </trkpt>
      <trkpt lat="43.84116" lon="4.18462">
        <ele>266</ele>
        <time>2010-05-02T08:35:14Z</time>
      </trkpt>
      <trkpt lat="43.84112" lon="4.18472">
        <ele>267</ele>
        <time>2010-05-02T08:35:17Z</time>
      </trkpt>
      <trkpt lat="43.84105" lon="4.18481">
        <ele>268</ele>
        <time>2010-05-02T08:35:20Z</time>
      </trkpt>
      <trkpt lat="43.84096" lon="4.1849">
        <ele>269</ele>
        <time>2010-05-02T08:35:23Z</time>
      </trkpt>
      <trkpt lat="43.84082" lon="4.18497">
        <ele>268</ele>
        <time>2010-05-02T08:35:27Z</time>
      </trkpt>
      <trkpt lat="43.8407" lon="4.18502">
        <ele>268</ele>
        <time>2010-05-02T08:35:30Z</time>
      </trkpt>
      <trkpt lat="43.84055" lon="4.18509">
        <ele>268</ele>
        <time>2010-05-02T08:35:34Z</time>
      </trkpt>
      <trkpt lat="43.84042" lon="4.18515">
        <ele>268</ele>
        <time>2010-05-02T08:35:37Z</time>
      </trkpt>
      <trkpt lat="43.8403" lon="4.18524">
        <ele>267</ele>
        <time>2010-05-02T08:35:40Z</time>
      </trkpt>
      <trkpt lat="43.84007" lon="4.18561">
        <ele>266</ele>
        <time>2010-05-02T08:35:47Z</time>
      </trkpt>
      <trkpt lat="43.84004" lon="4.18564">
        <ele>266</ele>
        <time>2010-05-02T08:35:48Z</time>
      </trkpt>
      <trkpt lat="43.8399" lon="4.18575">
        <ele>267</ele>
        <time>2010-05-02T08:35:51Z</time>
      </trkpt>
      <trkpt lat="43.83986" lon="4.18585">
        <ele>267</ele>
        <time>2010-05-02T08:35:57Z</time>
      </trkpt>
      <trkpt lat="43.83995" lon="4.18588">
        <ele>268</ele>
        <time>2010-05-02T08:36:01Z</time>
      </trkpt>
      <trkpt lat="43.83998" lon="4.18588">
        <ele>267</ele>
        <time>2010-05-02T08:36:02Z</time>
      </trkpt>
      <trkpt lat="43.84009" lon="4.18591">
        <ele>268</ele>
        <time>2010-05-02T08:36:05Z</time>
      </trkpt>
      <trkpt lat="43.84019" lon="4.18602">
        <ele>269</ele>
        <time>2010-05-02T08:36:08Z</time>
      </trkpt>
      <trkpt lat="43.84035" lon="4.18606">
        <ele>270</ele>
        <time>2010-05-02T08:36:12Z</time>
      </trkpt>
      <trkpt lat="43.8406" lon="4.18623">
        <ele>271</ele>
        <time>2010-05-02T08:36:18Z</time>
      </trkpt>
      <trkpt lat="43.8407" lon="4.18644">
        <ele>270</ele>
        <time>2010-05-02T08:36:21Z</time>
      </trkpt>
      <trkpt lat="43.84077" lon="4.18661">
        <ele>268</ele>
        <time>2010-05-02T08:36:25Z</time>
      </trkpt>
      <trkpt lat="43.84089" lon="4.18676">
        <ele>266</ele>
        <time>2010-05-02T08:36:30Z</time>
      </trkpt>
      <trkpt lat="43.84105" lon="4.18685">
        <ele>264</ele>
        <time>2010-05-02T08:36:34Z</time>
      </trkpt>
      <trkpt lat="43.84123" lon="4.18685">
        <ele>262</ele>
        <time>2010-05-02T08:36:38Z</time>
      </trkpt>
      <trkpt lat="43.84126" lon="4.18684">
        <ele>262</ele>
        <time>2010-05-02T08:36:39Z</time>
      </trkpt>
      <trkpt lat="43.8414" lon="4.18677">
        <ele>261</ele>
        <time>2010-05-02T08:36:43Z</time>
      </trkpt>
      <trkpt lat="43.84169" lon="4.18661">
        <ele>259</ele>
        <time>2010-05-02T08:36:49Z</time>
      </trkpt>
      <trkpt lat="43.84174" lon="4.18661">
        <ele>260</ele>
        <time>2010-05-02T08:36:52Z</time>
      </trkpt>
      <trkpt lat="43.84174" lon="4.18661">
        <ele>260</ele>
        <time>2010-05-02T08:36:53Z</time>
      </trkpt>
      <trkpt lat="43.84184" lon="4.18673">
        <ele>261</ele>
        <time>2010-05-02T08:36:57Z</time>
      </trkpt>
      <trkpt lat="43.8419" lon="4.18696">
        <ele>263</ele>
        <time>2010-05-02T08:37:03Z</time>
      </trkpt>
      <trkpt lat="43.84188" lon="4.18711">
        <ele>263</ele>
        <time>2010-05-02T08:37:07Z</time>
      </trkpt>
      <trkpt lat="43.84187" lon="4.18714">
        <ele>263</ele>
        <time>2010-05-02T08:37:07Z</time>
      </trkpt>
      <trkpt lat="43.84185" lon="4.18727">
        <ele>263</ele>
        <time>2010-05-02T08:37:11Z</time>
      </trkpt>
      <trkpt lat="43.84186" lon="4.18749">
        <ele>262</ele>
        <time>2010-05-02T08:37:18Z</time>
      </trkpt>
      <trkpt lat="43.84187" lon="4.18758">
        <ele>263</ele>
        <time>2010-05-02T08:37:21Z</time>
      </trkpt>
      <trkpt lat="43.84187" lon="4.18758">
        <ele>263</ele>
        <time>2010-05-02T08:37:22Z</time>
      </trkpt>
      <trkpt lat="43.84192" lon="4.18767">
        <ele>265</ele>
        <time>2010-05-02T08:37:25Z</time>
      </trkpt>
      <trkpt lat="43.84195" lon="4.18777">
        <ele>267</ele>
        <time>2010-05-02T08:37:28Z</time>
      </trkpt>
      <trkpt lat="43.84196" lon="4.18792">
        <ele>267</ele>
        <time>2010-05-02T08:37:32Z</time>
      </trkpt>
      <trkpt lat="43.84196" lon="4.18812">
        <ele>268</ele>
        <time>2010-05-02T08:37:35Z</time>
      </trkpt>
      <trkpt lat="43.84196" lon="4.18829">
        <ele>269</ele>
        <time>2010-05-02T08:37:39Z</time>
      </trkpt>
      <trkpt lat="43.84193" lon="4.1885">
        <ele>268</ele>
        <time>2010-05-02T08:37:42Z</time>
      </trkpt>
      <trkpt lat="43.84192" lon="4.18874">
        <ele>266</ele>
        <time>2010-05-02T08:37:46Z</time>
      </trkpt>
      <trkpt lat="43.84192" lon="4.1889">
        <ele>265</ele>
        <time>2010-05-02T08:37:49Z</time>
      </trkpt>
      <trkpt lat="43.84186" lon="4.189">
        <ele>266</ele>
        <time>2010-05-02T08:37:52Z</time>
      </trkpt>
      <trkpt lat="43.84181" lon="4.18903">
        <ele>265</ele>
        <time>2010-05-02T08:37:56Z</time>
      </trkpt>
      <trkpt lat="43.84181" lon="4.18903">
        <ele>265</ele>
        <time>2010-05-02T08:37:59Z</time>
      </trkpt>
      <trkpt lat="43.8417" lon="4.18926">
        <ele>265</ele>
        <time>2010-05-02T08:38:03Z</time>
      </trkpt>
      <trkpt lat="43.8417" lon="4.18941">
        <ele>267</ele>
        <time>2010-05-02T08:38:06Z</time>
      </trkpt>
      <trkpt lat="43.8417" lon="4.18945">
        <ele>269</ele>
        <time>2010-05-02T08:38:13Z</time>
      </trkpt>
      <trkpt lat="43.8417" lon="4.18945">
        <ele>269</ele>
        <time>2010-05-02T08:38:14Z</time>
      </trkpt>
      <trkpt lat="43.8417" lon="4.18973">
        <ele>264</ele>
        <time>2010-05-02T08:38:20Z</time>
      </trkpt>
      <trkpt lat="43.8417" lon="4.18973">
        <ele>264</ele>
        <time>2010-05-02T08:38:21Z</time>
      </trkpt>
      <trkpt lat="43.8417" lon="4.18973">
        <ele>264</ele>
        <time>2010-05-02T08:38:23Z</time>
      </trkpt>
      <trkpt lat="43.84156" lon="4.1899">
        <ele>265</ele>
        <time>2010-05-02T08:38:27Z</time>
      </trkpt>
      <trkpt lat="43.84145" lon="4.18993">
        <ele>263</ele>
        <time>2010-05-02T08:38:33Z</time>
      </trkpt>
      <trkpt lat="43.84138" lon="4.18994">
        <ele>263</ele>
        <time>2010-05-02T08:38:37Z</time>
      </trkpt>
      <trkpt lat="43.84138" lon="4.18994">
        <ele>263</ele>
        <time>2010-05-02T08:38:37Z</time>
      </trkpt>
      <trkpt lat="43.84128" lon="4.18994">
        <ele>263</ele>
        <time>2010-05-02T08:38:40Z</time>
      </trkpt>
      <trkpt lat="43.8412" lon="4.18998">
        <ele>263</ele>
        <time>2010-05-02T08:38:44Z</time>
      </trkpt>
      <trkpt lat="43.84128" lon="4.19004">
        <ele>264</ele>
        <time>2010-05-02T08:38:47Z</time>
      </trkpt>
      <trkpt lat="43.84137" lon="4.19008">
        <ele>264</ele>
        <time>2010-05-02T08:38:50Z</time>
      </trkpt>
      <trkpt lat="43.8415" lon="4.19005">
        <ele>263</ele>
        <time>2010-05-02T08:38:54Z</time>
      </trkpt>
      <trkpt lat="43.84159" lon="4.18999">
        <ele>263</ele>
        <time>2010-05-02T08:38:58Z</time>
      </trkpt>
      <trkpt lat="43.84175" lon="4.18992">
        <ele>263</ele>
        <time>2010-05-02T08:39:04Z</time>
      </trkpt>
      <trkpt lat="43.84177" lon="4.18993">
        <ele>263</ele>
        <time>2010-05-02T08:39:05Z</time>
      </trkpt>
      <trkpt lat="43.8419" lon="4.18993">
        <ele>263</ele>
        <time>2010-05-02T08:39:11Z</time>
      </trkpt>
      <trkpt lat="43.84192" lon="4.18993">
        <ele>263</ele>
        <time>2010-05-02T08:39:12Z</time>
      </trkpt>
      <trkpt lat="43.84215" lon="4.18992">
        <ele>265</ele>
        <time>2010-05-02T08:39:18Z</time>
      </trkpt>
      <trkpt lat="43.84218" lon="4.18993">
        <ele>265</ele>
        <time>2010-05-02T08:39:19Z</time>
      </trkpt>
      <trkpt lat="43.84239" lon="4.18997">
        <ele>264</ele>
        <time>2010-05-02T08:39:25Z</time>
      </trkpt>
      <trkpt lat="43.84241" lon="4.18997">
        <ele>264</ele>
        <time>2010-05-02T08:39:26Z</time>
      </trkpt>
      <trkpt lat="43.84262" lon="4.18998">
        <ele>265</ele>
        <time>2010-05-02T08:39:32Z</time>
      </trkpt>
      <trkpt lat="43.84265" lon="4.18998">
        <ele>265</ele>
        <time>2010-05-02T08:39:33Z</time>
      </trkpt>
      <trkpt lat="43.84278" lon="4.19">
        <ele>265</ele>
        <time>2010-05-02T08:39:36Z</time>
      </trkpt>
      <trkpt lat="43.84294" lon="4.19003">
        <ele>265</ele>
        <time>2010-05-02T08:39:40Z</time>
      </trkpt>
      <trkpt lat="43.84306" lon="4.19005">
        <ele>265</ele>
        <time>2010-05-02T08:39:43Z</time>
      </trkpt>
      <trkpt lat="43.84319" lon="4.19008">
        <ele>265</ele>
        <time>2010-05-02T08:39:46Z</time>
      </trkpt>
      <trkpt lat="43.84333" lon="4.19012">
        <ele>264</ele>
        <time>2010-05-02T08:39:50Z</time>
      </trkpt>
      <trkpt lat="43.84344" lon="4.19017">
        <ele>264</ele>
        <time>2010-05-02T08:39:53Z</time>
      </trkpt>
      <trkpt lat="43.84371" lon="4.1904">
        <ele>262</ele>
        <time>2010-05-02T08:39:59Z</time>
      </trkpt>
      <trkpt lat="43.84382" lon="4.19051">
        <ele>259</ele>
        <time>2010-05-02T08:40:02Z</time>
      </trkpt>
      <trkpt lat="43.84384" lon="4.19054">
        <ele>259</ele>
        <time>2010-05-02T08:40:03Z</time>
      </trkpt>
      <trkpt lat="43.8439" lon="4.19066">
        <ele>259</ele>
        <time>2010-05-02T08:40:07Z</time>
      </trkpt>
      <trkpt lat="43.84393" lon="4.19074">
        <ele>257</ele>
        <time>2010-05-02T08:40:10Z</time>
      </trkpt>
      <trkpt lat="43.84401" lon="4.19098">
        <ele>255</ele>
        <time>2010-05-02T08:40:17Z</time>
      </trkpt>
      <trkpt lat="43.84403" lon="4.19103">
        <ele>255</ele>
        <time>2010-05-02T08:40:18Z</time>
      </trkpt>
      <trkpt lat="43.84411" lon="4.1912">
        <ele>255</ele>
        <time>2010-05-02T08:40:21Z</time>
      </trkpt>
      <trkpt lat="43.84418" lon="4.19138">
        <ele>254</ele>
        <time>2010-05-02T08:40:24Z</time>
      </trkpt>
      <trkpt lat="43.84431" lon="4.19146">
        <ele>254</ele>
        <time>2010-05-02T08:40:30Z</time>
      </trkpt>
      <trkpt lat="43.84434" lon="4.19146">
        <ele>254</ele>
        <time>2010-05-02T08:40:31Z</time>
      </trkpt>
      <trkpt lat="43.84444" lon="4.19152">
        <ele>254</ele>
        <time>2010-05-02T08:40:37Z</time>
      </trkpt>
      <trkpt lat="43.84444" lon="4.19152">
        <ele>254</ele>
        <time>2010-05-02T08:40:38Z</time>
      </trkpt>
      <trkpt lat="43.84449" lon="4.19151">
        <ele>253</ele>
        <time>2010-05-02T08:40:41Z</time>
      </trkpt>
      <trkpt lat="43.84456" lon="4.19144">
        <ele>253</ele>
        <time>2010-05-02T08:40:45Z</time>
      </trkpt>
      <trkpt lat="43.84465" lon="4.19134">
        <ele>253</ele>
        <time>2010-05-02T08:40:51Z</time>
      </trkpt>
      <trkpt lat="43.84465" lon="4.19134">
        <ele>253</ele>
        <time>2010-05-02T08:40:52Z</time>
      </trkpt>
      <trkpt lat="43.84471" lon="4.19128">
        <ele>254</ele>
        <time>2010-05-02T08:40:55Z</time>
      </trkpt>
      <trkpt lat="43.8448" lon="4.19126">
        <ele>254</ele>
        <time>2010-05-02T08:40:58Z</time>
      </trkpt>
      <trkpt lat="43.84497" lon="4.19135">
        <ele>254</ele>
        <time>2010-05-02T08:41:02Z</time>
      </trkpt>
      <trkpt lat="43.84504" lon="4.19155">
        <ele>252</ele>
        <time>2010-05-02T08:41:08Z</time>
      </trkpt>
      <trkpt lat="43.84508" lon="4.19162">
        <ele>251</ele>
        <time>2010-05-02T08:41:12Z</time>
      </trkpt>
      <trkpt lat="43.84508" lon="4.19162">
        <ele>251</ele>
        <time>2010-05-02T08:41:12Z</time>
      </trkpt>
      <trkpt lat="43.84516" lon="4.19168">
        <ele>251</ele>
        <time>2010-05-02T08:41:15Z</time>
      </trkpt>
      <trkpt lat="43.84526" lon="4.19175">
        <ele>252</ele>
        <time>2010-05-02T08:41:22Z</time>
      </trkpt>
      <trkpt lat="43.84528" lon="4.19185">
        <ele>255</ele>
        <time>2010-05-02T08:41:25Z</time>
      </trkpt>
      <trkpt lat="43.84528" lon="4.19185">
        <ele>255</ele>
        <time>2010-05-02T08:41:26Z</time>
      </trkpt>
      <trkpt lat="43.84527" lon="4.19203">
        <ele>258</ele>
        <time>2010-05-02T08:41:29Z</time>
      </trkpt>
      <trkpt lat="43.84526" lon="4.19231">
        <ele>258</ele>
        <time>2010-05-02T08:41:36Z</time>
      </trkpt>
      <trkpt lat="43.84526" lon="4.19246">
        <ele>260</ele>
        <time>2010-05-02T08:41:39Z</time>
      </trkpt>
      <trkpt lat="43.84525" lon="4.19266">
        <ele>261</ele>
        <time>2010-05-02T08:41:43Z</time>
      </trkpt>
      <trkpt lat="43.84525" lon="4.1927">
        <ele>261</ele>
        <time>2010-05-02T08:41:44Z</time>
      </trkpt>
      <trkpt lat="43.84523" lon="4.19304">
        <ele>259</ele>
        <time>2010-05-02T08:41:50Z</time>
      </trkpt>
      <trkpt lat="43.8452" lon="4.19323">
        <ele>259</ele>
        <time>2010-05-02T08:41:53Z</time>
      </trkpt>
      <trkpt lat="43.84513" lon="4.1934">
        <ele>258</ele>
        <time>2010-05-02T08:41:57Z</time>
      </trkpt>
      <trkpt lat="43.84511" lon="4.19342">
        <ele>258</ele>
        <time>2010-05-02T08:41:57Z</time>
      </trkpt>
      <trkpt lat="43.84506" lon="4.19346">
        <ele>258</ele>
        <time>2010-05-02T08:42:01Z</time>
      </trkpt>
      <trkpt lat="43.84506" lon="4.19346">
        <ele>258</ele>
        <time>2010-05-02T08:42:07Z</time>
      </trkpt>
      <trkpt lat="43.84506" lon="4.19359">
        <ele>259</ele>
        <time>2010-05-02T08:42:10Z</time>
      </trkpt>
      <trkpt lat="43.84507" lon="4.1936">
        <ele>260</ele>
        <time>2010-05-02T08:42:11Z</time>
      </trkpt>
      <trkpt lat="43.84509" lon="4.19369">
        <ele>261</ele>
        <time>2010-05-02T08:42:14Z</time>
      </trkpt>
      <trkpt lat="43.84507" lon="4.19392">
        <ele>264</ele>
        <time>2010-05-02T08:42:21Z</time>
      </trkpt>
      <trkpt lat="43.84507" lon="4.19392">
        <ele>264</ele>
        <time>2010-05-02T08:42:24Z</time>
      </trkpt>
      <trkpt lat="43.84507" lon="4.19392">
        <ele>264</ele>
        <time>2010-05-02T08:42:24Z</time>
      </trkpt>
      <trkpt lat="43.84505" lon="4.19411">
        <ele>265</ele>
        <time>2010-05-02T08:42:28Z</time>
      </trkpt>
      <trkpt lat="43.84501" lon="4.19443">
        <ele>264</ele>
        <time>2010-05-02T08:42:34Z</time>
      </trkpt>
      <trkpt lat="43.84507" lon="4.19457">
        <ele>264</ele>
        <time>2010-05-02T08:42:38Z</time>
      </trkpt>
      <trkpt lat="43.84509" lon="4.1946">
        <ele>264</ele>
        <time>2010-05-02T08:42:39Z</time>
      </trkpt>
      <trkpt lat="43.84514" lon="4.19475">
        <ele>266</ele>
        <time>2010-05-02T08:42:42Z</time>
      </trkpt>
      <trkpt lat="43.84534" lon="4.19497">
        <ele>263</ele>
        <time>2010-05-02T08:42:49Z</time>
      </trkpt>
      <trkpt lat="43.8455" lon="4.19507">
        <ele>261</ele>
        <time>2010-05-02T08:42:52Z</time>
      </trkpt>
      <trkpt lat="43.84551" lon="4.19512">
        <ele>260</ele>
        <time>2010-05-02T08:42:53Z</time>
      </trkpt>
      <trkpt lat="43.84556" lon="4.19531">
        <ele>259</ele>
        <time>2010-05-02T08:42:56Z</time>
      </trkpt>
      <trkpt lat="43.84551" lon="4.19563">
        <ele>258</ele>
        <time>2010-05-02T08:43:02Z</time>
      </trkpt>
      <trkpt lat="43.8455" lon="4.19564">
        <ele>258</ele>
        <time>2010-05-02T08:43:06Z</time>
      </trkpt>
      <trkpt lat="43.8455" lon="4.19564">
        <ele>258</ele>
        <time>2010-05-02T08:43:07Z</time>
      </trkpt>
      <trkpt lat="43.8454" lon="4.19565">
        <ele>257</ele>
        <time>2010-05-02T08:43:10Z</time>
      </trkpt>
      <trkpt lat="43.84529" lon="4.19567">
        <ele>258</ele>
        <time>2010-05-02T08:43:13Z</time>
      </trkpt>
      <trkpt lat="43.8451" lon="4.19593">
        <ele>261</ele>
        <time>2010-05-02T08:43:20Z</time>
      </trkpt>
      <trkpt lat="43.84505" lon="4.19606">
        <ele>261</ele>
        <time>2010-05-02T08:43:23Z</time>
      </trkpt>
      <trkpt lat="43.84502" lon="4.19612">
        <ele>261</ele>
        <time>2010-05-02T08:43:24Z</time>
      </trkpt>
      <trkpt lat="43.84498" lon="4.19624">
        <ele>261</ele>
        <time>2010-05-02T08:43:27Z</time>
      </trkpt>
      <trkpt lat="43.84496" lon="4.19641">
        <ele>260</ele>
        <time>2010-05-02T08:43:34Z</time>
      </trkpt>
      <trkpt lat="43.84496" lon="4.19641">
        <ele>260</ele>
        <time>2010-05-02T08:43:35Z</time>
      </trkpt>
      <trkpt lat="43.84497" lon="4.1965">
        <ele>260</ele>
        <time>2010-05-02T08:43:38Z</time>
      </trkpt>
      <trkpt lat="43.84502" lon="4.19664">
        <ele>260</ele>
        <time>2010-05-02T08:43:42Z</time>
      </trkpt>
      <trkpt lat="43.84493" lon="4.19682">
        <ele>257</ele>
        <time>2010-05-02T08:43:48Z</time>
      </trkpt>
      <trkpt lat="43.84493" lon="4.19682">
        <ele>257</ele>
        <time>2010-05-02T08:43:49Z</time>
      </trkpt>
      <trkpt lat="43.8449" lon="4.19689">
        <ele>256</ele>
        <time>2010-05-02T08:43:53Z</time>
      </trkpt>
      <trkpt lat="43.84483" lon="4.19708">
        <ele>255</ele>
        <time>2010-05-02T08:43:59Z</time>
      </trkpt>
      <trkpt lat="43.84486" lon="4.1971">
        <ele>255</ele>
        <time>2010-05-02T08:44:02Z</time>
      </trkpt>
      <trkpt lat="43.84486" lon="4.1971">
        <ele>255</ele>
        <time>2010-05-02T08:44:03Z</time>
      </trkpt>
      <trkpt lat="43.84486" lon="4.1971">
        <ele>255</ele>
        <time>2010-05-02T08:44:07Z</time>
      </trkpt>
      <trkpt lat="43.84492" lon="4.19725">
        <ele>258</ele>
        <time>2010-05-02T08:44:10Z</time>
      </trkpt>
      <trkpt lat="43.84479" lon="4.19745">
        <ele>261</ele>
        <time>2010-05-02T08:44:17Z</time>
      </trkpt>
      <trkpt lat="43.84478" lon="4.19745">
        <ele>260</ele>
        <time>2010-05-02T08:44:17Z</time>
      </trkpt>
      <trkpt lat="43.84477" lon="4.19744">
        <ele>259</ele>
        <time>2010-05-02T08:44:21Z</time>
      </trkpt>
      <trkpt lat="43.84467" lon="4.19748">
        <ele>256</ele>
        <time>2010-05-02T08:44:24Z</time>
      </trkpt>
      <trkpt lat="43.84467" lon="4.19748">
        <ele>256</ele>
        <time>2010-05-02T08:44:27Z</time>
      </trkpt>
      <trkpt lat="43.84461" lon="4.19758">
        <ele>256</ele>
        <time>2010-05-02T08:44:31Z</time>
      </trkpt>
      <trkpt lat="43.84452" lon="4.19767">
        <ele>258</ele>
        <time>2010-05-02T08:44:35Z</time>
      </trkpt>
      <trkpt lat="43.84452" lon="4.19767">
        <ele>258</ele>
        <time>2010-05-02T08:44:41Z</time>
      </trkpt>
      <trkpt lat="43.84452" lon="4.19767">
        <ele>258</ele>
        <time>2010-05-02T08:44:42Z</time>
      </trkpt>
      <trkpt lat="43.84439" lon="4.19781">
        <ele>262</ele>
        <time>2010-05-02T08:44:46Z</time>
      </trkpt>
      <trkpt lat="43.84433" lon="4.19793">
        <ele>264</ele>
        <time>2010-05-02T08:44:50Z</time>
      </trkpt>
      <trkpt lat="43.84431" lon="4.19813">
        <ele>265</ele>
        <time>2010-05-02T08:44:56Z</time>
      </trkpt>
      <trkpt lat="43.84431" lon="4.19813">
        <ele>265</ele>
        <time>2010-05-02T08:44:57Z</time>
      </trkpt>
      <trkpt lat="43.84431" lon="4.19824">
        <ele>265</ele>
        <time>2010-05-02T08:45:00Z</time>
      </trkpt>
      <trkpt lat="43.84433" lon="4.19835">
        <ele>265</ele>
        <time>2010-05-02T08:45:04Z</time>
      </trkpt>
      <trkpt lat="43.84449" lon="4.19837">
        <ele>263</ele>
        <time>2010-05-02T08:45:10Z</time>
      </trkpt>
      <trkpt lat="43.84455" lon="4.19839">
        <ele>262</ele>
        <time>2010-05-02T08:45:13Z</time>
      </trkpt>
      <trkpt lat="43.84455" lon="4.19839">
        <ele>262</ele>
        <time>2010-05-02T08:45:14Z</time>
      </trkpt>
      <trkpt lat="43.84468" lon="4.19847">
        <ele>259</ele>
        <time>2010-05-02T08:45:17Z</time>
      </trkpt>
      <trkpt lat="43.84475" lon="4.19852">
        <ele>259</ele>
        <time>2010-05-02T08:45:21Z</time>
      </trkpt>
      <trkpt lat="43.84482" lon="4.19862">
        <ele>259</ele>
        <time>2010-05-02T08:45:24Z</time>
      </trkpt>
      <trkpt lat="43.84491" lon="4.19868">
        <ele>256</ele>
        <time>2010-05-02T08:45:28Z</time>
      </trkpt>
      <trkpt lat="43.84499" lon="4.19874">
        <ele>255</ele>
        <time>2010-05-02T08:45:31Z</time>
      </trkpt>
      <trkpt lat="43.84506" lon="4.19886">
        <ele>253</ele>
        <time>2010-05-02T08:45:35Z</time>
      </trkpt>
      <trkpt lat="43.84511" lon="4.19896">
        <ele>252</ele>
        <time>2010-05-02T08:45:37Z</time>
      </trkpt>
      <trkpt lat="43.84519" lon="4.19906">
        <ele>251</ele>
        <time>2010-05-02T08:45:41Z</time>
      </trkpt>
      <trkpt lat="43.84525" lon="4.19911">
        <ele>250</ele>
        <time>2010-05-02T08:45:44Z</time>
      </trkpt>
      <trkpt lat="43.84529" lon="4.1992">
        <ele>250</ele>
        <time>2010-05-02T08:45:47Z</time>
      </trkpt>
      <trkpt lat="43.84527" lon="4.19931">
        <ele>248</ele>
        <time>2010-05-02T08:45:51Z</time>
      </trkpt>
      <trkpt lat="43.84522" lon="4.19944">
        <ele>247</ele>
        <time>2010-05-02T08:45:54Z</time>
      </trkpt>
      <trkpt lat="43.84521" lon="4.19956">
        <ele>246</ele>
        <time>2010-05-02T08:45:57Z</time>
      </trkpt>
      <trkpt lat="43.84519" lon="4.19966">
        <ele>244</ele>
        <time>2010-05-02T08:46:01Z</time>
      </trkpt>
      <trkpt lat="43.84524" lon="4.19972">
        <ele>243</ele>
        <time>2010-05-02T08:46:04Z</time>
      </trkpt>
      <trkpt lat="43.84528" lon="4.19981">
        <ele>244</ele>
        <time>2010-05-02T08:46:07Z</time>
      </trkpt>
      <trkpt lat="43.84526" lon="4.19994">
        <ele>245</ele>
        <time>2010-05-02T08:46:10Z</time>
      </trkpt>
      <trkpt lat="43.84517" lon="4.2">
        <ele>246</ele>
        <time>2010-05-02T08:46:13Z</time>
      </trkpt>
      <trkpt lat="43.84508" lon="4.2">
        <ele>246</ele>
        <time>2010-05-02T08:46:16Z</time>
      </trkpt>
      <trkpt lat="43.84503" lon="4.20007">
        <ele>245</ele>
        <time>2010-05-02T08:46:20Z</time>
      </trkpt>
      <trkpt lat="43.84503" lon="4.20019">
        <ele>246</ele>
        <time>2010-05-02T08:46:23Z</time>
      </trkpt>
      <trkpt lat="43.84502" lon="4.20028">
        <ele>246</ele>
        <time>2010-05-02T08:46:26Z</time>
      </trkpt>
      <trkpt lat="43.845" lon="4.20038">
        <ele>248</ele>
        <time>2010-05-02T08:46:30Z</time>
      </trkpt>
      <trkpt lat="43.84497" lon="4.20043">
        <ele>248</ele>
        <time>2010-05-02T08:46:33Z</time>
      </trkpt>
      <trkpt lat="43.84486" lon="4.20042">
        <ele>247</ele>
        <time>2010-05-02T08:46:36Z</time>
      </trkpt>
      <trkpt lat="43.84454" lon="4.20027">
        <ele>243</ele>
        <time>2010-05-02T08:46:43Z</time>
      </trkpt>
      <trkpt lat="43.8444" lon="4.20022">
        <ele>241</ele>
        <time>2010-05-02T08:46:46Z</time>
      </trkpt>
      <trkpt lat="43.84423" lon="4.20018">
        <ele>240</ele>
        <time>2010-05-02T08:46:50Z</time>
      </trkpt>
      <trkpt lat="43.84403" lon="4.20026">
        <ele>239</ele>
        <time>2010-05-02T08:46:55Z</time>
      </trkpt>
      <trkpt lat="43.84401" lon="4.2003">
        <ele>239</ele>
        <time>2010-05-02T08:46:56Z</time>
      </trkpt>
      <trkpt lat="43.84398" lon="4.20044">
        <ele>240</ele>
        <time>2010-05-02T08:46:59Z</time>
      </trkpt>
      <trkpt lat="43.84396" lon="4.20059">
        <ele>240</ele>
        <time>2010-05-02T08:47:02Z</time>
      </trkpt>
      <trkpt lat="43.84405" lon="4.20078">
        <ele>243</ele>
        <time>2010-05-02T08:47:09Z</time>
      </trkpt>
      <trkpt lat="43.84408" lon="4.20098">
        <ele>245</ele>
        <time>2010-05-02T08:47:18Z</time>
      </trkpt>
      <trkpt lat="43.84407" lon="4.20101">
        <ele>246</ele>
        <time>2010-05-02T08:47:18Z</time>
      </trkpt>
      <trkpt lat="43.84407" lon="4.20101">
        <ele>246</ele>
        <time>2010-05-02T08:47:20Z</time>
      </trkpt>
      <trkpt lat="43.84402" lon="4.20113">
        <ele>248</ele>
        <time>2010-05-02T08:47:26Z</time>
      </trkpt>
      <trkpt lat="43.84397" lon="4.20124">
        <ele>250</ele>
        <time>2010-05-02T08:47:30Z</time>
      </trkpt>
      <trkpt lat="43.84397" lon="4.20124">
        <ele>250</ele>
        <time>2010-05-02T08:47:30Z</time>
      </trkpt>
      <trkpt lat="43.84392" lon="4.2013">
        <ele>252</ele>
        <time>2010-05-02T08:47:34Z</time>
      </trkpt>
      <trkpt lat="43.84388" lon="4.20136">
        <ele>253</ele>
        <time>2010-05-02T08:47:41Z</time>
      </trkpt>
      <trkpt lat="43.8438" lon="4.20144">
        <ele>255</ele>
        <time>2010-05-02T08:47:44Z</time>
      </trkpt>
      <trkpt lat="43.8438" lon="4.20144">
        <ele>255</ele>
        <time>2010-05-02T08:47:45Z</time>
      </trkpt>
      <trkpt lat="43.8438" lon="4.20144">
        <ele>255</ele>
        <time>2010-05-02T08:47:49Z</time>
      </trkpt>
      <trkpt lat="43.84355" lon="4.20163">
        <ele>257</ele>
        <time>2010-05-02T08:47:55Z</time>
      </trkpt>
      <trkpt lat="43.84332" lon="4.20161">
        <ele>255</ele>
        <time>2010-05-02T08:47:59Z</time>
      </trkpt>
      <trkpt lat="43.84328" lon="4.2016">
        <ele>254</ele>
        <time>2010-05-02T08:48:00Z</time>
      </trkpt>
      <trkpt lat="43.84313" lon="4.20163">
        <ele>252</ele>
        <time>2010-05-02T08:48:04Z</time>
      </trkpt>
      <trkpt lat="43.84293" lon="4.20167">
        <ele>251</ele>
        <time>2010-05-02T08:48:10Z</time>
      </trkpt>
      <trkpt lat="43.8428" lon="4.20165">
        <ele>248</ele>
        <time>2010-05-02T08:48:14Z</time>
      </trkpt>
      <trkpt lat="43.84277" lon="4.20164">
        <ele>248</ele>
        <time>2010-05-02T08:48:15Z</time>
      </trkpt>
      <trkpt lat="43.84264" lon="4.20161">
        <ele>248</ele>
        <time>2010-05-02T08:48:18Z</time>
      </trkpt>
      <trkpt lat="43.84242" lon="4.20157">
        <ele>249</ele>
        <time>2010-05-02T08:48:24Z</time>
      </trkpt>
      <trkpt lat="43.84233" lon="4.20157">
        <ele>250</ele>
        <time>2010-05-02T08:48:27Z</time>
      </trkpt>
      <trkpt lat="43.8423" lon="4.20157">
        <ele>250</ele>
        <time>2010-05-02T08:48:28Z</time>
      </trkpt>
      <trkpt lat="43.84222" lon="4.2016">
        <ele>250</ele>
        <time>2010-05-02T08:48:31Z</time>
      </trkpt>
      <trkpt lat="43.84197" lon="4.20168">
        <ele>251</ele>
        <time>2010-05-02T08:48:38Z</time>
      </trkpt>
      <trkpt lat="43.84187" lon="4.20174">
        <ele>252</ele>
        <time>2010-05-02T08:48:41Z</time>
      </trkpt>
      <trkpt lat="43.84185" lon="4.20184">
        <ele>253</ele>
        <time>2010-05-02T08:48:45Z</time>
      </trkpt>
      <trkpt lat="43.84186" lon="4.20186">
        <ele>253</ele>
        <time>2010-05-02T08:48:46Z</time>
      </trkpt>
      <trkpt lat="43.8419" lon="4.20205">
        <ele>256</ele>
        <time>2010-05-02T08:48:52Z</time>
      </trkpt>
      <trkpt lat="43.84187" lon="4.20229">
        <ele>260</ele>
        <time>2010-05-02T08:48:56Z</time>
      </trkpt>
      <trkpt lat="43.84179" lon="4.20255">
        <ele>261</ele>
        <time>2010-05-02T08:49:00Z</time>
      </trkpt>
      <trkpt lat="43.84178" lon="4.2026">
        <ele>260</ele>
        <time>2010-05-02T08:49:00Z</time>
      </trkpt>
      <trkpt lat="43.84173" lon="4.20281">
        <ele>259</ele>
        <time>2010-05-02T08:49:04Z</time>
      </trkpt>
      <trkpt lat="43.84165" lon="4.20313">
        <ele>259</ele>
        <time>2010-05-02T08:49:10Z</time>
      </trkpt>
      <trkpt lat="43.84161" lon="4.20331">
        <ele>259</ele>
        <time>2010-05-02T08:49:14Z</time>
      </trkpt>
      <trkpt lat="43.84161" lon="4.20333">
        <ele>259</ele>
        <time>2010-05-02T08:49:15Z</time>
      </trkpt>
      <trkpt lat="43.8416" lon="4.20344">
        <ele>258</ele>
        <time>2010-05-02T08:49:18Z</time>
      </trkpt>
      <trkpt lat="43.84157" lon="4.20374">
        <ele>258</ele>
        <time>2010-05-02T08:49:25Z</time>
      </trkpt>
      <trkpt lat="43.8416" lon="4.20385">
        <ele>259</ele>
        <time>2010-05-02T08:49:28Z</time>
      </trkpt>
      <trkpt lat="43.84168" lon="4.2039">
        <ele>259</ele>
        <time>2010-05-02T08:49:32Z</time>
      </trkpt>
      <trkpt lat="43.8417" lon="4.20392">
        <ele>260</ele>
        <time>2010-05-02T08:49:33Z</time>
      </trkpt>
      <trkpt lat="43.84181" lon="4.20395">
        <ele>260</ele>
        <time>2010-05-02T08:49:39Z</time>
      </trkpt>
      <trkpt lat="43.84181" lon="4.20395">
        <ele>260</ele>
        <time>2010-05-02T08:49:40Z</time>
      </trkpt>
      <trkpt lat="43.84181" lon="4.20395">
        <ele>260</ele>
        <time>2010-05-02T08:49:44Z</time>
      </trkpt>
      <trkpt lat="43.84192" lon="4.20396">
        <ele>261</ele>
        <time>2010-05-02T08:49:47Z</time>
      </trkpt>
      <trkpt lat="43.84203" lon="4.20389">
        <ele>260</ele>
        <time>2010-05-02T08:49:53Z</time>
      </trkpt>
      <trkpt lat="43.84205" lon="4.20388">
        <ele>260</ele>
        <time>2010-05-02T08:49:54Z</time>
      </trkpt>
      <trkpt lat="43.84216" lon="4.20383">
        <ele>260</ele>
        <time>2010-05-02T08:49:58Z</time>
      </trkpt>
      <trkpt lat="43.84227" lon="4.20373">
        <ele>259</ele>
        <time>2010-05-02T08:50:02Z</time>
      </trkpt>
      <trkpt lat="43.84238" lon="4.20358">
        <ele>258</ele>
        <time>2010-05-02T08:50:08Z</time>
      </trkpt>
      <trkpt lat="43.84239" lon="4.20356">
        <ele>258</ele>
        <time>2010-05-02T08:50:09Z</time>
      </trkpt>
      <trkpt lat="43.84246" lon="4.20352">
        <ele>255</ele>
        <time>2010-05-02T08:50:13Z</time>
      </trkpt>
      <trkpt lat="43.84259" lon="4.20337">
        <ele>254</ele>
        <time>2010-05-02T08:50:19Z</time>
      </trkpt>
      <trkpt lat="43.84264" lon="4.20325">
        <ele>254</ele>
        <time>2010-05-02T08:50:22Z</time>
      </trkpt>
      <trkpt lat="43.84265" lon="4.20322">
        <ele>254</ele>
        <time>2010-05-02T08:50:23Z</time>
      </trkpt>
      <trkpt lat="43.84275" lon="4.20311">
        <ele>255</ele>
        <time>2010-05-02T08:50:27Z</time>
      </trkpt>
      <trkpt lat="43.84284" lon="4.20323">
        <ele>256</ele>
        <time>2010-05-02T08:50:33Z</time>
      </trkpt>
      <trkpt lat="43.84287" lon="4.20341">
        <ele>256</ele>
        <time>2010-05-02T08:50:37Z</time>
      </trkpt>
      <trkpt lat="43.84288" lon="4.20357">
        <ele>257</ele>
        <time>2010-05-02T08:50:41Z</time>
      </trkpt>
      <trkpt lat="43.84288" lon="4.20365">
        <ele>258</ele>
        <time>2010-05-02T08:50:43Z</time>
      </trkpt>
      <trkpt lat="43.84293" lon="4.20388">
        <ele>258</ele>
        <time>2010-05-02T08:50:49Z</time>
      </trkpt>
      <trkpt lat="43.84294" lon="4.20392">
        <ele>258</ele>
        <time>2010-05-02T08:50:49Z</time>
      </trkpt>
      <trkpt lat="43.84299" lon="4.204">
        <ele>257</ele>
        <time>2010-05-02T08:50:53Z</time>
      </trkpt>
      <trkpt lat="43.84305" lon="4.20396">
        <ele>256</ele>
        <time>2010-05-02T08:50:56Z</time>
      </trkpt>
      <trkpt lat="43.84319" lon="4.20373">
        <ele>253</ele>
        <time>2010-05-02T08:51:03Z</time>
      </trkpt>
      <trkpt lat="43.84321" lon="4.20371">
        <ele>253</ele>
        <time>2010-05-02T08:51:03Z</time>
      </trkpt>
      <trkpt lat="43.84334" lon="4.20356">
        <ele>250</ele>
        <time>2010-05-02T08:51:09Z</time>
      </trkpt>
      <trkpt lat="43.84336" lon="4.2035">
        <ele>249</ele>
        <time>2010-05-02T08:51:11Z</time>
      </trkpt>
      <trkpt lat="43.84356" lon="4.20331">
        <ele>249</ele>
        <time>2010-05-02T08:51:17Z</time>
      </trkpt>
      <trkpt lat="43.8436" lon="4.20329">
        <ele>249</ele>
        <time>2010-05-02T08:51:18Z</time>
      </trkpt>
      <trkpt lat="43.84385" lon="4.20311">
        <ele>245</ele>
        <time>2010-05-02T08:51:24Z</time>
      </trkpt>
      <trkpt lat="43.84388" lon="4.20309">
        <ele>245</ele>
        <time>2010-05-02T08:51:25Z</time>
      </trkpt>
      <trkpt lat="43.8441" lon="4.20299">
        <ele>242</ele>
        <time>2010-05-02T08:51:31Z</time>
      </trkpt>
      <trkpt lat="43.84413" lon="4.20297">
        <ele>242</ele>
        <time>2010-05-02T08:51:32Z</time>
      </trkpt>
      <trkpt lat="43.84439" lon="4.20297">
        <ele>241</ele>
        <time>2010-05-02T08:51:39Z</time>
      </trkpt>
      <trkpt lat="43.84442" lon="4.20297">
        <ele>241</ele>
        <time>2010-05-02T08:51:39Z</time>
      </trkpt>
      <trkpt lat="43.84459" lon="4.20309">
        <ele>242</ele>
        <time>2010-05-02T08:51:46Z</time>
      </trkpt>
      <trkpt lat="43.84461" lon="4.20311">
        <ele>242</ele>
        <time>2010-05-02T08:51:47Z</time>
      </trkpt>
      <trkpt lat="43.84468" lon="4.20333">
        <ele>246</ele>
        <time>2010-05-02T08:51:53Z</time>
      </trkpt>
      <trkpt lat="43.84468" lon="4.20336">
        <ele>247</ele>
        <time>2010-05-02T08:51:54Z</time>
      </trkpt>
      <trkpt lat="43.84469" lon="4.20365">
        <ele>250</ele>
        <time>2010-05-02T08:52:00Z</time>
      </trkpt>
      <trkpt lat="43.84469" lon="4.20368">
        <ele>250</ele>
        <time>2010-05-02T08:52:01Z</time>
      </trkpt>
      <trkpt lat="43.84469" lon="4.20378">
        <ele>251</ele>
        <time>2010-05-02T08:52:04Z</time>
      </trkpt>
      <trkpt lat="43.84467" lon="4.2039">
        <ele>252</ele>
        <time>2010-05-02T08:52:08Z</time>
      </trkpt>
      <trkpt lat="43.84464" lon="4.20412">
        <ele>253</ele>
        <time>2010-05-02T08:52:14Z</time>
      </trkpt>
      <trkpt lat="43.84464" lon="4.20414">
        <ele>253</ele>
        <time>2010-05-02T08:52:15Z</time>
      </trkpt>
      <trkpt lat="43.84461" lon="4.20438">
        <ele>252</ele>
        <time>2010-05-02T08:52:21Z</time>
      </trkpt>
      <trkpt lat="43.84461" lon="4.20451">
        <ele>251</ele>
        <time>2010-05-02T08:52:25Z</time>
      </trkpt>
      <trkpt lat="43.84461" lon="4.20467">
        <ele>252</ele>
        <time>2010-05-02T08:52:29Z</time>
      </trkpt>
      <trkpt lat="43.84461" lon="4.2047">
        <ele>253</ele>
        <time>2010-05-02T08:52:30Z</time>
      </trkpt>
      <trkpt lat="43.8446" lon="4.20484">
        <ele>253</ele>
        <time>2010-05-02T08:52:34Z</time>
      </trkpt>
      <trkpt lat="43.84455" lon="4.20507">
        <ele>254</ele>
        <time>2010-05-02T08:52:40Z</time>
      </trkpt>
      <trkpt lat="43.84452" lon="4.20522">
        <ele>254</ele>
        <time>2010-05-02T08:52:44Z</time>
      </trkpt>
      <trkpt lat="43.84451" lon="4.20525">
        <ele>254</ele>
        <time>2010-05-02T08:52:45Z</time>
      </trkpt>
      <trkpt lat="43.84448" lon="4.20534">
        <ele>254</ele>
        <time>2010-05-02T08:52:48Z</time>
      </trkpt>
      <trkpt lat="43.8444" lon="4.20552">
        <ele>255</ele>
        <time>2010-05-02T08:52:54Z</time>
      </trkpt>
      <trkpt lat="43.84434" lon="4.20566">
        <ele>255</ele>
        <time>2010-05-02T08:52:58Z</time>
      </trkpt>
      <trkpt lat="43.84433" lon="4.20569">
        <ele>255</ele>
        <time>2010-05-02T08:52:59Z</time>
      </trkpt>
      <trkpt lat="43.84428" lon="4.20581">
        <ele>255</ele>
        <time>2010-05-02T08:53:02Z</time>
      </trkpt>
      <trkpt lat="43.84415" lon="4.20608">
        <ele>255</ele>
        <time>2010-05-02T08:53:09Z</time>
      </trkpt>
      <trkpt lat="43.84409" lon="4.20618">
        <ele>256</ele>
        <time>2010-05-02T08:53:12Z</time>
      </trkpt>
      <trkpt lat="43.84408" lon="4.2062">
        <ele>257</ele>
        <time>2010-05-02T08:53:13Z</time>
      </trkpt>
      <trkpt lat="43.84403" lon="4.20633">
        <ele>257</ele>
        <time>2010-05-02T08:53:17Z</time>
      </trkpt>
      <trkpt lat="43.84396" lon="4.20656">
        <ele>260</ele>
        <time>2010-05-02T08:53:23Z</time>
      </trkpt>
      <trkpt lat="43.8439" lon="4.20672">
        <ele>262</ele>
        <time>2010-05-02T08:53:27Z</time>
      </trkpt>
      <trkpt lat="43.84384" lon="4.20687">
        <ele>264</ele>
        <time>2010-05-02T08:53:31Z</time>
      </trkpt>
      <trkpt lat="43.84382" lon="4.20692">
        <ele>264</ele>
        <time>2010-05-02T08:53:32Z</time>
      </trkpt>
      <trkpt lat="43.84367" lon="4.20717">
        <ele>266</ele>
        <time>2010-05-02T08:53:38Z</time>
      </trkpt>
      <trkpt lat="43.84358" lon="4.20734">
        <ele>265</ele>
        <time>2010-05-02T08:53:42Z</time>
      </trkpt>
      <trkpt lat="43.84356" lon="4.20738">
        <ele>265</ele>
        <time>2010-05-02T08:53:43Z</time>
      </trkpt>
      <trkpt lat="43.84343" lon="4.20763">
        <ele>265</ele>
        <time>2010-05-02T08:53:50Z</time>
      </trkpt>
      <trkpt lat="43.84341" lon="4.20766">
        <ele>264</ele>
        <time>2010-05-02T08:53:51Z</time>
      </trkpt>
      <trkpt lat="43.8433" lon="4.2079">
        <ele>265</ele>
        <time>2010-05-02T08:53:57Z</time>
      </trkpt>
      <trkpt lat="43.84328" lon="4.20796">
        <ele>266</ele>
        <time>2010-05-02T08:53:58Z</time>
      </trkpt>
      <trkpt lat="43.84324" lon="4.20818">
        <ele>265</ele>
        <time>2010-05-02T08:54:04Z</time>
      </trkpt>
      <trkpt lat="43.84324" lon="4.20831">
        <ele>266</ele>
        <time>2010-05-02T08:54:08Z</time>
      </trkpt>
      <trkpt lat="43.84321" lon="4.20848">
        <ele>269</ele>
        <time>2010-05-02T08:54:13Z</time>
      </trkpt>
      <trkpt lat="43.84316" lon="4.20867">
        <ele>269</ele>
        <time>2010-05-02T08:54:17Z</time>
      </trkpt>
      <trkpt lat="43.84308" lon="4.20888">
        <ele>268</ele>
        <time>2010-05-02T08:54:20Z</time>
      </trkpt>
      <trkpt lat="43.843" lon="4.20911">
        <ele>268</ele>
        <time>2010-05-02T08:54:24Z</time>
      </trkpt>
      <trkpt lat="43.84294" lon="4.2093">
        <ele>267</ele>
        <time>2010-05-02T08:54:28Z</time>
      </trkpt>
      <trkpt lat="43.84289" lon="4.20949">
        <ele>268</ele>
        <time>2010-05-02T08:54:32Z</time>
      </trkpt>
      <trkpt lat="43.84285" lon="4.20971">
        <ele>269</ele>
        <time>2010-05-02T08:54:35Z</time>
      </trkpt>
      <trkpt lat="43.84282" lon="4.20996">
        <ele>269</ele>
        <time>2010-05-02T08:54:39Z</time>
      </trkpt>
      <trkpt lat="43.84286" lon="4.21019">
        <ele>268</ele>
        <time>2010-05-02T08:54:43Z</time>
      </trkpt>
      <trkpt lat="43.84287" lon="4.21041">
        <ele>268</ele>
        <time>2010-05-02T08:54:47Z</time>
      </trkpt>
      <trkpt lat="43.84291" lon="4.21055">
        <ele>266</ele>
        <time>2010-05-02T08:54:51Z</time>
      </trkpt>
      <trkpt lat="43.84302" lon="4.21061">
        <ele>265</ele>
        <time>2010-05-02T08:54:55Z</time>
      </trkpt>
      <trkpt lat="43.84306" lon="4.21081">
        <ele>264</ele>
        <time>2010-05-02T08:54:58Z</time>
      </trkpt>
      <trkpt lat="43.84307" lon="4.21086">
        <ele>264</ele>
        <time>2010-05-02T08:54:59Z</time>
      </trkpt>
      <trkpt lat="43.84311" lon="4.21109">
        <ele>263</ele>
        <time>2010-05-02T08:55:03Z</time>
      </trkpt>
      <trkpt lat="43.84322" lon="4.21131">
        <ele>260</ele>
        <time>2010-05-02T08:55:07Z</time>
      </trkpt>
      <trkpt lat="43.84346" lon="4.21165">
        <ele>255</ele>
        <time>2010-05-02T08:55:13Z</time>
      </trkpt>
      <trkpt lat="43.8435" lon="4.21169">
        <ele>254</ele>
        <time>2010-05-02T08:55:14Z</time>
      </trkpt>
      <trkpt lat="43.84366" lon="4.21189">
        <ele>250</ele>
        <time>2010-05-02T08:55:18Z</time>
      </trkpt>
      <trkpt lat="43.84376" lon="4.21215">
        <ele>248</ele>
        <time>2010-05-02T08:55:22Z</time>
      </trkpt>
      <trkpt lat="43.84384" lon="4.21261">
        <ele>245</ele>
        <time>2010-05-02T08:55:28Z</time>
      </trkpt>
      <trkpt lat="43.84384" lon="4.21264">
        <ele>245</ele>
        <time>2010-05-02T08:55:28Z</time>
      </trkpt>
      <trkpt lat="43.84385" lon="4.21278">
        <ele>244</ele>
        <time>2010-05-02T08:55:32Z</time>
      </trkpt>
      <trkpt lat="43.84382" lon="4.21293">
        <ele>244</ele>
        <time>2010-05-02T08:55:36Z</time>
      </trkpt>
      <trkpt lat="43.84373" lon="4.21313">
        <ele>243</ele>
        <time>2010-05-02T08:55:42Z</time>
      </trkpt>
      <trkpt lat="43.84371" lon="4.21327">
        <ele>245</ele>
        <time>2010-05-02T08:55:46Z</time>
      </trkpt>
      <trkpt lat="43.84371" lon="4.21329">
        <ele>245</ele>
        <time>2010-05-02T08:55:47Z</time>
      </trkpt>
      <trkpt lat="43.84375" lon="4.21352">
        <ele>248</ele>
        <time>2010-05-02T08:55:53Z</time>
      </trkpt>
      <trkpt lat="43.84377" lon="4.21366">
        <ele>251</ele>
        <time>2010-05-02T08:55:57Z</time>
      </trkpt>
      <trkpt lat="43.84377" lon="4.2138">
        <ele>253</ele>
        <time>2010-05-02T08:56:01Z</time>
      </trkpt>
      <trkpt lat="43.84377" lon="4.21386">
        <ele>254</ele>
        <time>2010-05-02T08:56:02Z</time>
      </trkpt>
      <trkpt lat="43.84378" lon="4.21398">
        <ele>255</ele>
        <time>2010-05-02T08:56:05Z</time>
      </trkpt>
      <trkpt lat="43.84368" lon="4.21417">
        <ele>254</ele>
        <time>2010-05-02T08:56:11Z</time>
      </trkpt>
      <trkpt lat="43.84366" lon="4.21418">
        <ele>254</ele>
        <time>2010-05-02T08:56:15Z</time>
      </trkpt>
      <trkpt lat="43.8436" lon="4.21429">
        <ele>253</ele>
        <time>2010-05-02T08:56:19Z</time>
      </trkpt>
      <trkpt lat="43.84356" lon="4.21441">
        <ele>254</ele>
        <time>2010-05-02T08:56:22Z</time>
      </trkpt>
      <trkpt lat="43.84354" lon="4.21447">
        <ele>255</ele>
        <time>2010-05-02T08:56:23Z</time>
      </trkpt>
      <trkpt lat="43.84353" lon="4.21457">
        <ele>256</ele>
        <time>2010-05-02T08:56:27Z</time>
      </trkpt>
      <trkpt lat="43.84352" lon="4.21471">
        <ele>257</ele>
        <time>2010-05-02T08:56:31Z</time>
      </trkpt>
      <trkpt lat="43.84357" lon="4.21488">
        <ele>257</ele>
        <time>2010-05-02T08:56:37Z</time>
      </trkpt>
      <trkpt lat="43.84368" lon="4.21485">
        <ele>255</ele>
        <time>2010-05-02T08:56:40Z</time>
      </trkpt>
      <trkpt lat="43.8437" lon="4.21484">
        <ele>254</ele>
        <time>2010-05-02T08:56:41Z</time>
      </trkpt>
      <trkpt lat="43.84382" lon="4.21477">
        <ele>252</ele>
        <time>2010-05-02T08:56:45Z</time>
      </trkpt>
      <trkpt lat="43.84403" lon="4.21465">
        <ele>249</ele>
        <time>2010-05-02T08:56:52Z</time>
      </trkpt>
      <trkpt lat="43.84412" lon="4.21463">
        <ele>249</ele>
        <time>2010-05-02T08:56:55Z</time>
      </trkpt>
      <trkpt lat="43.84412" lon="4.21463">
        <ele>249</ele>
        <time>2010-05-02T08:56:56Z</time>
      </trkpt>
      <trkpt lat="43.84419" lon="4.21466">
        <ele>249</ele>
        <time>2010-05-02T08:57:00Z</time>
      </trkpt>
      <trkpt lat="43.84424" lon="4.21472">
        <ele>250</ele>
        <time>2010-05-02T08:57:06Z</time>
      </trkpt>
      <trkpt lat="43.84432" lon="4.215">
        <ele>248</ele>
        <time>2010-05-02T08:57:10Z</time>
      </trkpt>
      <trkpt lat="43.84437" lon="4.2152">
        <ele>248</ele>
        <time>2010-05-02T08:57:14Z</time>
      </trkpt>
      <trkpt lat="43.84438" lon="4.21524">
        <ele>248</ele>
        <time>2010-05-02T08:57:15Z</time>
      </trkpt>
      <trkpt lat="43.84434" lon="4.21564">
        <ele>247</ele>
        <time>2010-05-02T08:57:21Z</time>
      </trkpt>
      <trkpt lat="43.84434" lon="4.21569">
        <ele>247</ele>
        <time>2010-05-02T08:57:22Z</time>
      </trkpt>
      <trkpt lat="43.84433" lon="4.21611">
        <ele>246</ele>
        <time>2010-05-02T08:57:29Z</time>
      </trkpt>
      <trkpt lat="43.84434" lon="4.21616">
        <ele>246</ele>
        <time>2010-05-02T08:57:29Z</time>
      </trkpt>
      <trkpt lat="43.84431" lon="4.21654">
        <ele>243</ele>
        <time>2010-05-02T08:57:36Z</time>
      </trkpt>
      <trkpt lat="43.84431" lon="4.21659">
        <ele>243</ele>
        <time>2010-05-02T08:57:36Z</time>
      </trkpt>
      <trkpt lat="43.84434" lon="4.21696">
        <ele>242</ele>
        <time>2010-05-02T08:57:43Z</time>
      </trkpt>
      <trkpt lat="43.84436" lon="4.21702">
        <ele>241</ele>
        <time>2010-05-02T08:57:44Z</time>
      </trkpt>
      <trkpt lat="43.84444" lon="4.21725">
        <ele>238</ele>
        <time>2010-05-02T08:57:49Z</time>
      </trkpt>
      <trkpt lat="43.84457" lon="4.21742">
        <ele>236</ele>
        <time>2010-05-02T08:57:54Z</time>
      </trkpt>
      <trkpt lat="43.84463" lon="4.21761">
        <ele>234</ele>
        <time>2010-05-02T08:57:58Z</time>
      </trkpt>
      <trkpt lat="43.84466" lon="4.21777">
        <ele>233</ele>
        <time>2010-05-02T08:58:01Z</time>
      </trkpt>
      <trkpt lat="43.84467" lon="4.21801">
        <ele>232</ele>
        <time>2010-05-02T08:58:06Z</time>
      </trkpt>
      <trkpt lat="43.84466" lon="4.21819">
        <ele>232</ele>
        <time>2010-05-02T08:58:10Z</time>
      </trkpt>
      <trkpt lat="43.84455" lon="4.21835">
        <ele>232</ele>
        <time>2010-05-02T08:58:15Z</time>
      </trkpt>
      <trkpt lat="43.84453" lon="4.21838">
        <ele>232</ele>
        <time>2010-05-02T08:58:15Z</time>
      </trkpt>
      <trkpt lat="43.84443" lon="4.21862">
        <ele>230</ele>
        <time>2010-05-02T08:58:22Z</time>
      </trkpt>
      <trkpt lat="43.84439" lon="4.21868">
        <ele>229</ele>
        <time>2010-05-02T08:58:26Z</time>
      </trkpt>
      <trkpt lat="43.84439" lon="4.2187">
        <ele>228</ele>
        <time>2010-05-02T08:58:30Z</time>
      </trkpt>
      <trkpt lat="43.84436" lon="4.21877">
        <ele>227</ele>
        <time>2010-05-02T08:58:33Z</time>
      </trkpt>
      <trkpt lat="43.84431" lon="4.21883">
        <ele>226</ele>
        <time>2010-05-02T08:58:37Z</time>
      </trkpt>
      <trkpt lat="43.84425" lon="4.21885">
        <ele>227</ele>
        <time>2010-05-02T08:58:41Z</time>
      </trkpt>
      <trkpt lat="43.84417" lon="4.21888">
        <ele>227</ele>
        <time>2010-05-02T08:58:45Z</time>
      </trkpt>
      <trkpt lat="43.84411" lon="4.21893">
        <ele>228</ele>
        <time>2010-05-02T08:58:49Z</time>
      </trkpt>
      <trkpt lat="43.84404" lon="4.21897">
        <ele>228</ele>
        <time>2010-05-02T08:58:53Z</time>
      </trkpt>
      <trkpt lat="43.84394" lon="4.21901">
        <ele>230</ele>
        <time>2010-05-02T08:58:57Z</time>
      </trkpt>
      <trkpt lat="43.84387" lon="4.21904">
        <ele>230</ele>
        <time>2010-05-02T08:59:00Z</time>
      </trkpt>
      <trkpt lat="43.84374" lon="4.21909">
        <ele>231</ele>
        <time>2010-05-02T08:59:05Z</time>
      </trkpt>
      <trkpt lat="43.84371" lon="4.21911">
        <ele>231</ele>
        <time>2010-05-02T08:59:06Z</time>
      </trkpt>
      <trkpt lat="43.84354" lon="4.21922">
        <ele>233</ele>
        <time>2010-05-02T08:59:13Z</time>
      </trkpt>
      <trkpt lat="43.84343" lon="4.21927">
        <ele>233</ele>
        <time>2010-05-02T08:59:16Z</time>
      </trkpt>
      <trkpt lat="43.84334" lon="4.21934">
        <ele>233</ele>
        <time>2010-05-02T08:59:20Z</time>
      </trkpt>
      <trkpt lat="43.84324" lon="4.21939">
        <ele>235</ele>
        <time>2010-05-02T08:59:25Z</time>
      </trkpt>
      <trkpt lat="43.84317" lon="4.21941">
        <ele>236</ele>
        <time>2010-05-02T08:59:28Z</time>
      </trkpt>
      <trkpt lat="43.84305" lon="4.21942">
        <ele>237</ele>
        <time>2010-05-02T08:59:33Z</time>
      </trkpt>
      <trkpt lat="43.84302" lon="4.21942">
        <ele>238</ele>
        <time>2010-05-02T08:59:37Z</time>
      </trkpt>
      <trkpt lat="43.84288" lon="4.21945">
        <ele>239</ele>
        <time>2010-05-02T08:59:41Z</time>
      </trkpt>
      <trkpt lat="43.84279" lon="4.21944">
        <ele>239</ele>
        <time>2010-05-02T08:59:45Z</time>
      </trkpt>
      <trkpt lat="43.84273" lon="4.21943">
        <ele>239</ele>
        <time>2010-05-02T08:59:49Z</time>
      </trkpt>
      <trkpt lat="43.84265" lon="4.21943">
        <ele>239</ele>
        <time>2010-05-02T08:59:54Z</time>
      </trkpt>
      <trkpt lat="43.84261" lon="4.21942">
        <ele>238</ele>
        <time>2010-05-02T08:59:58Z</time>
      </trkpt>
      <trkpt lat="43.84255" lon="4.21944">
        <ele>237</ele>
        <time>2010-05-02T09:00:01Z</time>
      </trkpt>
      <trkpt lat="43.84247" lon="4.21946">
        <ele>238</ele>
        <time>2010-05-02T09:00:06Z</time>
      </trkpt>
      <trkpt lat="43.84239" lon="4.2195">
        <ele>239</ele>
        <time>2010-05-02T09:00:10Z</time>
      </trkpt>
      <trkpt lat="43.84237" lon="4.21951">
        <ele>240</ele>
        <time>2010-05-02T09:00:14Z</time>
      </trkpt>
      <trkpt lat="43.84232" lon="4.21955">
        <ele>241</ele>
        <time>2010-05-02T09:00:19Z</time>
      </trkpt>
      <trkpt lat="43.84219" lon="4.21959">
        <ele>243</ele>
        <time>2010-05-02T09:00:22Z</time>
      </trkpt>
      <trkpt lat="43.84208" lon="4.21962">
        <ele>245</ele>
        <time>2010-05-02T09:00:26Z</time>
      </trkpt>
      <trkpt lat="43.84201" lon="4.21967">
        <ele>246</ele>
        <time>2010-05-02T09:00:31Z</time>
      </trkpt>
      <trkpt lat="43.84193" lon="4.21971">
        <ele>247</ele>
        <time>2010-05-02T09:00:35Z</time>
      </trkpt>
      <trkpt lat="43.84188" lon="4.21974">
        <ele>247</ele>
        <time>2010-05-02T09:00:40Z</time>
      </trkpt>
      <trkpt lat="43.84183" lon="4.21977">
        <ele>248</ele>
        <time>2010-05-02T09:00:44Z</time>
      </trkpt>
      <trkpt lat="43.8418" lon="4.21981">
        <ele>249</ele>
        <time>2010-05-02T09:00:49Z</time>
      </trkpt>
      <trkpt lat="43.84179" lon="4.21987">
        <ele>249</ele>
        <time>2010-05-02T09:00:53Z</time>
      </trkpt>
      <trkpt lat="43.84177" lon="4.21993">
        <ele>249</ele>
        <time>2010-05-02T09:00:57Z</time>
      </trkpt>
      <trkpt lat="43.84177" lon="4.21998">
        <ele>250</ele>
        <time>2010-05-02T09:01:01Z</time>
      </trkpt>
      <trkpt lat="43.84176" lon="4.22002">
        <ele>251</ele>
        <time>2010-05-02T09:01:02Z</time>
      </trkpt>
      <trkpt lat="43.84173" lon="4.22016">
        <ele>251</ele>
        <time>2010-05-02T09:01:08Z</time>
      </trkpt>
      <trkpt lat="43.84171" lon="4.22024">
        <ele>251</ele>
        <time>2010-05-02T09:01:12Z</time>
      </trkpt>
      <trkpt lat="43.84171" lon="4.22026">
        <ele>251</ele>
        <time>2010-05-02T09:01:13Z</time>
      </trkpt>
      <trkpt lat="43.84171" lon="4.22036">
        <ele>251</ele>
        <time>2010-05-02T09:01:17Z</time>
      </trkpt>
      <trkpt lat="43.8417" lon="4.22057">
        <ele>253</ele>
        <time>2010-05-02T09:01:23Z</time>
      </trkpt>
      <trkpt lat="43.84166" lon="4.22071">
        <ele>255</ele>
        <time>2010-05-02T09:01:27Z</time>
      </trkpt>
      <trkpt lat="43.84159" lon="4.22084">
        <ele>254</ele>
        <time>2010-05-02T09:01:30Z</time>
      </trkpt>
      <trkpt lat="43.84157" lon="4.22086">
        <ele>254</ele>
        <time>2010-05-02T09:01:31Z</time>
      </trkpt>
      <trkpt lat="43.84139" lon="4.2211">
        <ele>252</ele>
        <time>2010-05-02T09:01:38Z</time>
      </trkpt>
      <trkpt lat="43.84137" lon="4.22113">
        <ele>252</ele>
        <time>2010-05-02T09:01:39Z</time>
      </trkpt>
      <trkpt lat="43.84127" lon="4.22129">
        <ele>251</ele>
        <time>2010-05-02T09:01:45Z</time>
      </trkpt>
      <trkpt lat="43.84127" lon="4.22131">
        <ele>251</ele>
        <time>2010-05-02T09:01:45Z</time>
      </trkpt>
      <trkpt lat="43.8413" lon="4.22141">
        <ele>251</ele>
        <time>2010-05-02T09:01:48Z</time>
      </trkpt>
      <trkpt lat="43.84145" lon="4.22153">
        <ele>253</ele>
        <time>2010-05-02T09:01:52Z</time>
      </trkpt>
      <trkpt lat="43.84151" lon="4.22164">
        <ele>254</ele>
        <time>2010-05-02T09:01:55Z</time>
      </trkpt>
      <trkpt lat="43.84159" lon="4.22175">
        <ele>256</ele>
        <time>2010-05-02T09:01:59Z</time>
      </trkpt>
      <trkpt lat="43.84162" lon="4.22181">
        <ele>257</ele>
        <time>2010-05-02T09:02:03Z</time>
      </trkpt>
      <trkpt lat="43.84167" lon="4.22201">
        <ele>260</ele>
        <time>2010-05-02T09:02:09Z</time>
      </trkpt>
      <trkpt lat="43.84167" lon="4.22203">
        <ele>260</ele>
        <time>2010-05-02T09:02:10Z</time>
      </trkpt>
      <trkpt lat="43.84169" lon="4.22216">
        <ele>259</ele>
        <time>2010-05-02T09:02:14Z</time>
      </trkpt>
      <trkpt lat="43.84176" lon="4.22231">
        <ele>258</ele>
        <time>2010-05-02T09:02:19Z</time>
      </trkpt>
      <trkpt lat="43.84182" lon="4.2224">
        <ele>256</ele>
        <time>2010-05-02T09:02:23Z</time>
      </trkpt>
      <trkpt lat="43.84183" lon="4.22242">
        <ele>256</ele>
        <time>2010-05-02T09:02:24Z</time>
      </trkpt>
      <trkpt lat="43.84188" lon="4.2225">
        <ele>256</ele>
        <time>2010-05-02T09:02:28Z</time>
      </trkpt>
      <trkpt lat="43.84197" lon="4.22265">
        <ele>255</ele>
        <time>2010-05-02T09:02:34Z</time>
      </trkpt>
      <trkpt lat="43.84202" lon="4.22272">
        <ele>254</ele>
        <time>2010-05-02T09:02:38Z</time>
      </trkpt>
      <trkpt lat="43.84203" lon="4.22274">
        <ele>254</ele>
        <time>2010-05-02T09:02:39Z</time>
      </trkpt>
      <trkpt lat="43.8421" lon="4.22282">
        <ele>252</ele>
        <time>2010-05-02T09:02:42Z</time>
      </trkpt>
      <trkpt lat="43.84224" lon="4.223">
        <ele>250</ele>
        <time>2010-05-02T09:02:49Z</time>
      </trkpt>
      <trkpt lat="43.8423" lon="4.22308">
        <ele>250</ele>
        <time>2010-05-02T09:02:52Z</time>
      </trkpt>
      <trkpt lat="43.84239" lon="4.22317">
        <ele>250</ele>
        <time>2010-05-02T09:02:56Z</time>
      </trkpt>
      <trkpt lat="43.84242" lon="4.22321">
        <ele>250</ele>
        <time>2010-05-02T09:02:57Z</time>
      </trkpt>
      <trkpt lat="43.84246" lon="4.22343">
        <ele>254</ele>
        <time>2010-05-02T09:03:03Z</time>
      </trkpt>
      <trkpt lat="43.84246" lon="4.22346">
        <ele>254</ele>
        <time>2010-05-02T09:03:04Z</time>
      </trkpt>
      <trkpt lat="43.84239" lon="4.22373">
        <ele>254</ele>
        <time>2010-05-02T09:03:10Z</time>
      </trkpt>
      <trkpt lat="43.84234" lon="4.22389">
        <ele>253</ele>
        <time>2010-05-02T09:03:14Z</time>
      </trkpt>
      <trkpt lat="43.84229" lon="4.22402">
        <ele>254</ele>
        <time>2010-05-02T09:03:18Z</time>
      </trkpt>
      <trkpt lat="43.8422" lon="4.22406">
        <ele>254</ele>
        <time>2010-05-02T09:03:21Z</time>
      </trkpt>
      <trkpt lat="43.84211" lon="4.22409">
        <ele>253</ele>
        <time>2010-05-02T09:03:25Z</time>
      </trkpt>
      <trkpt lat="43.84198" lon="4.2241">
        <ele>252</ele>
        <time>2010-05-02T09:03:30Z</time>
      </trkpt>
      <trkpt lat="43.84196" lon="4.22409">
        <ele>252</ele>
        <time>2010-05-02T09:03:31Z</time>
      </trkpt>
      <trkpt lat="43.84181" lon="4.22405">
        <ele>251</ele>
        <time>2010-05-02T09:03:34Z</time>
      </trkpt>
      <trkpt lat="43.84157" lon="4.22391">
        <ele>251</ele>
        <time>2010-05-02T09:03:40Z</time>
      </trkpt>
      <trkpt lat="43.84143" lon="4.22387">
        <ele>252</ele>
        <time>2010-05-02T09:03:44Z</time>
      </trkpt>
      <trkpt lat="43.84138" lon="4.22387">
        <ele>252</ele>
        <time>2010-05-02T09:03:45Z</time>
      </trkpt>
      <trkpt lat="43.84128" lon="4.22389">
        <ele>253</ele>
        <time>2010-05-02T09:03:48Z</time>
      </trkpt>
      <trkpt lat="43.84107" lon="4.2239">
        <ele>254</ele>
        <time>2010-05-02T09:03:55Z</time>
      </trkpt>
      <trkpt lat="43.84107" lon="4.2239">
        <ele>254</ele>
        <time>2010-05-02T09:03:59Z</time>
      </trkpt>
      <trkpt lat="43.84107" lon="4.2239">
        <ele>254</ele>
        <time>2010-05-02T09:03:59Z</time>
      </trkpt>
      <trkpt lat="43.84097" lon="4.22392">
        <ele>256</ele>
        <time>2010-05-02T09:04:03Z</time>
      </trkpt>
      <trkpt lat="43.84081" lon="4.224">
        <ele>259</ele>
        <time>2010-05-02T09:04:07Z</time>
      </trkpt>
      <trkpt lat="43.84055" lon="4.22424">
        <ele>265</ele>
        <time>2010-05-02T09:04:13Z</time>
      </trkpt>
      <trkpt lat="43.84052" lon="4.22428">
        <ele>266</ele>
        <time>2010-05-02T09:04:14Z</time>
      </trkpt>
      <trkpt lat="43.84045" lon="4.2244">
        <ele>267</ele>
        <time>2010-05-02T09:04:17Z</time>
      </trkpt>
      <trkpt lat="43.84034" lon="4.22459">
        <ele>266</ele>
        <time>2010-05-02T09:04:21Z</time>
      </trkpt>
      <trkpt lat="43.84007" lon="4.22505">
        <ele>264</ele>
        <time>2010-05-02T09:04:27Z</time>
      </trkpt>
      <trkpt lat="43.83995" lon="4.22517">
        <ele>264</ele>
        <time>2010-05-02T09:04:30Z</time>
      </trkpt>
      <trkpt lat="43.83992" lon="4.22519">
        <ele>264</ele>
        <time>2010-05-02T09:04:31Z</time>
      </trkpt>
      <trkpt lat="43.83977" lon="4.22533">
        <ele>262</ele>
        <time>2010-05-02T09:04:35Z</time>
      </trkpt>
      <trkpt lat="43.83959" lon="4.22559">
        <ele>259</ele>
        <time>2010-05-02T09:04:41Z</time>
      </trkpt>
      <trkpt lat="43.83958" lon="4.22568">
        <ele>258</ele>
        <time>2010-05-02T09:04:45Z</time>
      </trkpt>
      <trkpt lat="43.8396" lon="4.2257">
        <ele>259</ele>
        <time>2010-05-02T09:04:46Z</time>
      </trkpt>
      <trkpt lat="43.83966" lon="4.22573">
        <ele>258</ele>
        <time>2010-05-02T09:04:49Z</time>
      </trkpt>
      <trkpt lat="43.83989" lon="4.2259">
        <ele>259</ele>
        <time>2010-05-02T09:04:55Z</time>
      </trkpt>
      <trkpt lat="43.83997" lon="4.226">
        <ele>260</ele>
        <time>2010-05-02T09:04:58Z</time>
      </trkpt>
      <trkpt lat="43.84001" lon="4.22605">
        <ele>260</ele>
        <time>2010-05-02T09:05:00Z</time>
      </trkpt>
      <trkpt lat="43.84008" lon="4.22619">
        <ele>261</ele>
        <time>2010-05-02T09:05:03Z</time>
      </trkpt>
      <trkpt lat="43.84025" lon="4.22651">
        <ele>261</ele>
        <time>2010-05-02T09:05:10Z</time>
      </trkpt>
      <trkpt lat="43.84027" lon="4.22655">
        <ele>260</ele>
        <time>2010-05-02T09:05:10Z</time>
      </trkpt>
      <trkpt lat="43.84037" lon="4.22671">
        <ele>260</ele>
        <time>2010-05-02T09:05:14Z</time>
      </trkpt>
      <trkpt lat="43.84046" lon="4.22682">
        <ele>260</ele>
        <time>2010-05-02T09:05:17Z</time>
      </trkpt>
      <trkpt lat="43.84066" lon="4.22704">
        <ele>261</ele>
        <time>2010-05-02T09:05:24Z</time>
      </trkpt>
      <trkpt lat="43.84068" lon="4.22707">
        <ele>261</ele>
        <time>2010-05-02T09:05:25Z</time>
      </trkpt>
      <trkpt lat="43.84078" lon="4.22724">
        <ele>259</ele>
        <time>2010-05-02T09:05:28Z</time>
      </trkpt>
      <trkpt lat="43.84088" lon="4.22752">
        <ele>257</ele>
        <time>2010-05-02T09:05:34Z</time>
      </trkpt>
      <trkpt lat="43.84093" lon="4.22774">
        <ele>255</ele>
        <time>2010-05-02T09:05:38Z</time>
      </trkpt>
      <trkpt lat="43.84094" lon="4.22778">
        <ele>254</ele>
        <time>2010-05-02T09:05:39Z</time>
      </trkpt>
      <trkpt lat="43.84105" lon="4.22797">
        <ele>252</ele>
        <time>2010-05-02T09:05:42Z</time>
      </trkpt>
      <trkpt lat="43.84125" lon="4.22832">
        <ele>249</ele>
        <time>2010-05-02T09:05:48Z</time>
      </trkpt>
      <trkpt lat="43.84135" lon="4.22855">
        <ele>249</ele>
        <time>2010-05-02T09:05:52Z</time>
      </trkpt>
      <trkpt lat="43.84143" lon="4.22872">
        <ele>248</ele>
        <time>2010-05-02T09:05:56Z</time>
      </trkpt>
      <trkpt lat="43.84159" lon="4.22886">
        <ele>246</ele>
        <time>2010-05-02T09:06:00Z</time>
      </trkpt>
      <trkpt lat="43.84177" lon="4.22898">
        <ele>247</ele>
        <time>2010-05-02T09:06:04Z</time>
      </trkpt>
      <trkpt lat="43.84194" lon="4.22922">
        <ele>248</ele>
        <time>2010-05-02T09:06:08Z</time>
      </trkpt>
      <trkpt lat="43.84205" lon="4.2295">
        <ele>249</ele>
        <time>2010-05-02T09:06:12Z</time>
      </trkpt>
      <trkpt lat="43.84213" lon="4.22982">
        <ele>248</ele>
        <time>2010-05-02T09:06:16Z</time>
      </trkpt>
      <trkpt lat="43.84221" lon="4.23008">
        <ele>248</ele>
        <time>2010-05-02T09:06:21Z</time>
      </trkpt>
      <trkpt lat="43.8423" lon="4.23031">
        <ele>248</ele>
        <time>2010-05-02T09:06:25Z</time>
      </trkpt>
      <trkpt lat="43.84241" lon="4.23056">
        <ele>245</ele>
        <time>2010-05-02T09:06:29Z</time>
      </trkpt>
      <trkpt lat="43.84244" lon="4.23086">
        <ele>242</ele>
        <time>2010-05-02T09:06:34Z</time>
      </trkpt>
      <trkpt lat="43.84248" lon="4.23112">
        <ele>242</ele>
        <time>2010-05-02T09:06:37Z</time>
      </trkpt>
      <trkpt lat="43.84252" lon="4.23146">
        <ele>241</ele>
        <time>2010-05-02T09:06:42Z</time>
      </trkpt>
      <trkpt lat="43.84253" lon="4.23164">
        <ele>238</ele>
        <time>2010-05-02T09:06:46Z</time>
      </trkpt>
      <trkpt lat="43.84253" lon="4.23164">
        <ele>238</ele>
        <time>2010-05-02T09:06:50Z</time>
      </trkpt>
      <trkpt lat="43.84255" lon="4.23178">
        <ele>235</ele>
        <time>2010-05-02T09:06:54Z</time>
      </trkpt>
      <trkpt lat="43.84257" lon="4.23202">
        <ele>236</ele>
        <time>2010-05-02T09:06:58Z</time>
      </trkpt>
      <trkpt lat="43.84257" lon="4.23202">
        <ele>236</ele>
        <time>2010-05-02T09:07:00Z</time>
      </trkpt>
      <trkpt lat="43.84257" lon="4.23202">
        <ele>236</ele>
        <time>2010-05-02T09:07:06Z</time>
      </trkpt>
      <trkpt lat="43.84255" lon="4.23222">
        <ele>240</ele>
        <time>2010-05-02T09:07:10Z</time>
      </trkpt>
      <trkpt lat="43.84255" lon="4.23222">
        <ele>240</ele>
        <time>2010-05-02T09:07:13Z</time>
      </trkpt>
      <trkpt lat="43.84246" lon="4.23235">
        <ele>238</ele>
        <time>2010-05-02T09:07:17Z</time>
      </trkpt>
      <trkpt lat="43.84238" lon="4.23239">
        <ele>238</ele>
        <time>2010-05-02T09:07:21Z</time>
      </trkpt>
    </trkseg>
  </trk>
</gpx>